<?xml version="1.0" encoding="UTF-8" standalone="no" ?>
<gpx xmlns="http://www.topografix.com/GPX/1/1" xmlns:xsi="http://www.w3.org/2001/XMLSchema-instance" xsi:schemaLocation="http://www.topografix.com/GPX/1/1 http://www.topografix.com/GPX/1/1/gpx.xsd" version="1.1" creator="VisuGPX - https://www.visugpx.com">
  <metadata>
    <name>gravel pistes soulane de nore</name>
  </metadata>
  <trk>
    <name><![CDATA[9619555-gravel soulane de nore]]></name>
    <trkseg>
      <trkpt lat="43.32682" lon="2.52529">
        <ele>188</ele>
        <time>2020-09-07T15:51:43Z</time>
      </trkpt>
      <trkpt lat="43.32633" lon="2.52532">
        <ele>186</ele>
        <time>2020-09-07T15:51:52Z</time>
      </trkpt>
      <trkpt lat="43.32627" lon="2.52535">
        <ele>186</ele>
        <time>2020-09-07T15:51:53Z</time>
      </trkpt>
      <trkpt lat="43.32633" lon="2.52556">
        <ele>186</ele>
        <time>2020-09-07T15:51:56Z</time>
      </trkpt>
      <trkpt lat="43.32634" lon="2.5259">
        <ele>186</ele>
        <time>2020-09-07T15:52:00Z</time>
      </trkpt>
      <trkpt lat="43.32637" lon="2.52609">
        <ele>187</ele>
        <time>2020-09-07T15:52:03Z</time>
      </trkpt>
      <trkpt lat="43.32676" lon="2.52647">
        <ele>190</ele>
        <time>2020-09-07T15:52:11Z</time>
      </trkpt>
      <trkpt lat="43.32676" lon="2.52653">
        <ele>191</ele>
        <time>2020-09-07T15:52:12Z</time>
      </trkpt>
      <trkpt lat="43.32703" lon="2.52622">
        <ele>192</ele>
        <time>2020-09-07T15:52:18Z</time>
      </trkpt>
      <trkpt lat="43.32712" lon="2.52636">
        <ele>193</ele>
        <time>2020-09-07T15:52:21Z</time>
      </trkpt>
      <trkpt lat="43.32735" lon="2.52607">
        <ele>193</ele>
        <time>2020-09-07T15:52:26Z</time>
      </trkpt>
      <trkpt lat="43.32757" lon="2.52593">
        <ele>194</ele>
        <time>2020-09-07T15:52:31Z</time>
      </trkpt>
      <trkpt lat="43.32786" lon="2.5272">
        <ele>201</ele>
        <time>2020-09-07T15:52:48Z</time>
      </trkpt>
      <trkpt lat="43.32786" lon="2.52771">
        <ele>203</ele>
        <time>2020-09-07T15:52:54Z</time>
      </trkpt>
      <trkpt lat="43.3277" lon="2.52882">
        <ele>211</ele>
        <time>2020-09-07T15:53:09Z</time>
      </trkpt>
      <trkpt lat="43.3276" lon="2.52954">
        <ele>213</ele>
        <time>2020-09-07T15:53:18Z</time>
      </trkpt>
      <trkpt lat="43.3276" lon="2.52967">
        <ele>213</ele>
        <time>2020-09-07T15:53:20Z</time>
      </trkpt>
      <trkpt lat="43.32811" lon="2.5307">
        <ele>216</ele>
        <time>2020-09-07T15:53:36Z</time>
      </trkpt>
      <trkpt lat="43.32822" lon="2.53082">
        <ele>216</ele>
        <time>2020-09-07T15:53:39Z</time>
      </trkpt>
      <trkpt lat="43.32832" lon="2.5309">
        <ele>217</ele>
        <time>2020-09-07T15:53:41Z</time>
      </trkpt>
      <trkpt lat="43.32843" lon="2.5309">
        <ele>218</ele>
        <time>2020-09-07T15:53:43Z</time>
      </trkpt>
      <trkpt lat="43.32878" lon="2.53062">
        <ele>221</ele>
        <time>2020-09-07T15:53:50Z</time>
      </trkpt>
      <trkpt lat="43.32935" lon="2.52999">
        <ele>229</ele>
        <time>2020-09-07T15:54:03Z</time>
      </trkpt>
      <trkpt lat="43.32989" lon="2.52928">
        <ele>236</ele>
        <time>2020-09-07T15:54:16Z</time>
      </trkpt>
      <trkpt lat="43.33013" lon="2.52909">
        <ele>238</ele>
        <time>2020-09-07T15:54:21Z</time>
      </trkpt>
      <trkpt lat="43.33044" lon="2.52895">
        <ele>241</ele>
        <time>2020-09-07T15:54:27Z</time>
      </trkpt>
      <trkpt lat="43.33068" lon="2.52892">
        <ele>244</ele>
        <time>2020-09-07T15:54:31Z</time>
      </trkpt>
      <trkpt lat="43.33087" lon="2.52897">
        <ele>246</ele>
        <time>2020-09-07T15:54:35Z</time>
      </trkpt>
      <trkpt lat="43.33095" lon="2.52903">
        <ele>247</ele>
        <time>2020-09-07T15:54:36Z</time>
      </trkpt>
      <trkpt lat="43.33101" lon="2.52911">
        <ele>248</ele>
        <time>2020-09-07T15:54:38Z</time>
      </trkpt>
      <trkpt lat="43.33112" lon="2.52933">
        <ele>250</ele>
        <time>2020-09-07T15:54:41Z</time>
      </trkpt>
      <trkpt lat="43.33113" lon="2.52942">
        <ele>250</ele>
        <time>2020-09-07T15:54:43Z</time>
      </trkpt>
      <trkpt lat="43.33112" lon="2.52952">
        <ele>250</ele>
        <time>2020-09-07T15:54:44Z</time>
      </trkpt>
      <trkpt lat="43.33073" lon="2.5308">
        <ele>249</ele>
        <time>2020-09-07T15:55:02Z</time>
      </trkpt>
      <trkpt lat="43.33069" lon="2.53101">
        <ele>249</ele>
        <time>2020-09-07T15:55:05Z</time>
      </trkpt>
      <trkpt lat="43.33069" lon="2.53119">
        <ele>250</ele>
        <time>2020-09-07T15:55:07Z</time>
      </trkpt>
      <trkpt lat="43.33073" lon="2.53179">
        <ele>252</ele>
        <time>2020-09-07T15:55:15Z</time>
      </trkpt>
      <trkpt lat="43.33081" lon="2.53236">
        <ele>254</ele>
        <time>2020-09-07T15:55:22Z</time>
      </trkpt>
      <trkpt lat="43.33085" lon="2.53253">
        <ele>255</ele>
        <time>2020-09-07T15:55:25Z</time>
      </trkpt>
      <trkpt lat="43.33092" lon="2.53269">
        <ele>256</ele>
        <time>2020-09-07T15:55:27Z</time>
      </trkpt>
      <trkpt lat="43.33112" lon="2.533">
        <ele>258</ele>
        <time>2020-09-07T15:55:32Z</time>
      </trkpt>
      <trkpt lat="43.33124" lon="2.53315">
        <ele>259</ele>
        <time>2020-09-07T15:55:35Z</time>
      </trkpt>
      <trkpt lat="43.33135" lon="2.53324">
        <ele>261</ele>
        <time>2020-09-07T15:55:38Z</time>
      </trkpt>
      <trkpt lat="43.33152" lon="2.53326">
        <ele>263</ele>
        <time>2020-09-07T15:55:41Z</time>
      </trkpt>
      <trkpt lat="43.33177" lon="2.53317">
        <ele>266</ele>
        <time>2020-09-07T15:55:45Z</time>
      </trkpt>
      <trkpt lat="43.33183" lon="2.53317">
        <ele>267</ele>
        <time>2020-09-07T15:55:46Z</time>
      </trkpt>
      <trkpt lat="43.33188" lon="2.53321">
        <ele>267</ele>
        <time>2020-09-07T15:55:47Z</time>
      </trkpt>
      <trkpt lat="43.33189" lon="2.53328">
        <ele>267</ele>
        <time>2020-09-07T15:55:48Z</time>
      </trkpt>
      <trkpt lat="43.33188" lon="2.53341">
        <ele>267</ele>
        <time>2020-09-07T15:55:50Z</time>
      </trkpt>
      <trkpt lat="43.33179" lon="2.53371">
        <ele>266</ele>
        <time>2020-09-07T15:55:54Z</time>
      </trkpt>
      <trkpt lat="43.33177" lon="2.53388">
        <ele>265</ele>
        <time>2020-09-07T15:55:56Z</time>
      </trkpt>
      <trkpt lat="43.33176" lon="2.53406">
        <ele>265</ele>
        <time>2020-09-07T15:55:59Z</time>
      </trkpt>
      <trkpt lat="43.33179" lon="2.53427">
        <ele>265</ele>
        <time>2020-09-07T15:56:01Z</time>
      </trkpt>
      <trkpt lat="43.33185" lon="2.53445">
        <ele>266</ele>
        <time>2020-09-07T15:56:04Z</time>
      </trkpt>
      <trkpt lat="43.33194" lon="2.5346">
        <ele>268</ele>
        <time>2020-09-07T15:56:06Z</time>
      </trkpt>
      <trkpt lat="43.33247" lon="2.53517">
        <ele>276</ele>
        <time>2020-09-07T15:56:18Z</time>
      </trkpt>
      <trkpt lat="43.33261" lon="2.53525">
        <ele>278</ele>
        <time>2020-09-07T15:56:21Z</time>
      </trkpt>
      <trkpt lat="43.33287" lon="2.5353">
        <ele>282</ele>
        <time>2020-09-07T15:56:26Z</time>
      </trkpt>
      <trkpt lat="43.33294" lon="2.53533">
        <ele>283</ele>
        <time>2020-09-07T15:56:27Z</time>
      </trkpt>
      <trkpt lat="43.33302" lon="2.53545">
        <ele>283</ele>
        <time>2020-09-07T15:56:29Z</time>
      </trkpt>
      <trkpt lat="43.33307" lon="2.53558">
        <ele>284</ele>
        <time>2020-09-07T15:56:31Z</time>
      </trkpt>
      <trkpt lat="43.33311" lon="2.53603">
        <ele>284</ele>
        <time>2020-09-07T15:56:37Z</time>
      </trkpt>
      <trkpt lat="43.33357" lon="2.53788">
        <ele>294</ele>
        <time>2020-09-07T15:57:02Z</time>
      </trkpt>
      <trkpt lat="43.33363" lon="2.538">
        <ele>294</ele>
        <time>2020-09-07T15:57:04Z</time>
      </trkpt>
      <trkpt lat="43.3337" lon="2.53796">
        <ele>295</ele>
        <time>2020-09-07T15:57:06Z</time>
      </trkpt>
      <trkpt lat="43.33376" lon="2.53788">
        <ele>296</ele>
        <time>2020-09-07T15:57:07Z</time>
      </trkpt>
      <trkpt lat="43.33412" lon="2.53691">
        <ele>303</ele>
        <time>2020-09-07T15:57:21Z</time>
      </trkpt>
      <trkpt lat="43.33528" lon="2.53515">
        <ele>316</ele>
        <time>2020-09-07T15:57:52Z</time>
      </trkpt>
      <trkpt lat="43.33543" lon="2.53501">
        <ele>317</ele>
        <time>2020-09-07T15:57:55Z</time>
      </trkpt>
      <trkpt lat="43.33552" lon="2.535">
        <ele>317</ele>
        <time>2020-09-07T15:57:57Z</time>
      </trkpt>
      <trkpt lat="43.33563" lon="2.53502">
        <ele>318</ele>
        <time>2020-09-07T15:57:59Z</time>
      </trkpt>
      <trkpt lat="43.33599" lon="2.53525">
        <ele>323</ele>
        <time>2020-09-07T15:58:06Z</time>
      </trkpt>
      <trkpt lat="43.33604" lon="2.53525">
        <ele>323</ele>
        <time>2020-09-07T15:58:07Z</time>
      </trkpt>
      <trkpt lat="43.33625" lon="2.53519">
        <ele>325</ele>
        <time>2020-09-07T15:58:10Z</time>
      </trkpt>
      <trkpt lat="43.3363" lon="2.5352">
        <ele>326</ele>
        <time>2020-09-07T15:58:11Z</time>
      </trkpt>
      <trkpt lat="43.33634" lon="2.53524">
        <ele>326</ele>
        <time>2020-09-07T15:58:12Z</time>
      </trkpt>
      <trkpt lat="43.33654" lon="2.53566">
        <ele>329</ele>
        <time>2020-09-07T15:58:19Z</time>
      </trkpt>
      <trkpt lat="43.33674" lon="2.53619">
        <ele>331</ele>
        <time>2020-09-07T15:58:26Z</time>
      </trkpt>
      <trkpt lat="43.3368" lon="2.53628">
        <ele>332</ele>
        <time>2020-09-07T15:58:28Z</time>
      </trkpt>
      <trkpt lat="43.33687" lon="2.53633">
        <ele>332</ele>
        <time>2020-09-07T15:58:29Z</time>
      </trkpt>
      <trkpt lat="43.33697" lon="2.53638">
        <ele>333</ele>
        <time>2020-09-07T15:58:31Z</time>
      </trkpt>
      <trkpt lat="43.33724" lon="2.53641">
        <ele>336</ele>
        <time>2020-09-07T15:58:36Z</time>
      </trkpt>
      <trkpt lat="43.33744" lon="2.53638">
        <ele>337</ele>
        <time>2020-09-07T15:58:40Z</time>
      </trkpt>
      <trkpt lat="43.33756" lon="2.53631">
        <ele>339</ele>
        <time>2020-09-07T15:58:42Z</time>
      </trkpt>
      <trkpt lat="43.33762" lon="2.53625">
        <ele>339</ele>
        <time>2020-09-07T15:58:43Z</time>
      </trkpt>
      <trkpt lat="43.33768" lon="2.53618">
        <ele>340</ele>
        <time>2020-09-07T15:58:45Z</time>
      </trkpt>
      <trkpt lat="43.33772" lon="2.53606">
        <ele>340</ele>
        <time>2020-09-07T15:58:46Z</time>
      </trkpt>
      <trkpt lat="43.33775" lon="2.53592">
        <ele>341</ele>
        <time>2020-09-07T15:58:48Z</time>
      </trkpt>
      <trkpt lat="43.33783" lon="2.53504">
        <ele>344</ele>
        <time>2020-09-07T15:59:00Z</time>
      </trkpt>
      <trkpt lat="43.33789" lon="2.53467">
        <ele>346</ele>
        <time>2020-09-07T15:59:05Z</time>
      </trkpt>
      <trkpt lat="43.33821" lon="2.5333">
        <ele>352</ele>
        <time>2020-09-07T15:59:23Z</time>
      </trkpt>
      <trkpt lat="43.33829" lon="2.53318">
        <ele>353</ele>
        <time>2020-09-07T15:59:25Z</time>
      </trkpt>
      <trkpt lat="43.33838" lon="2.53314">
        <ele>354</ele>
        <time>2020-09-07T15:59:27Z</time>
      </trkpt>
      <trkpt lat="43.33846" lon="2.53317">
        <ele>355</ele>
        <time>2020-09-07T15:59:29Z</time>
      </trkpt>
      <trkpt lat="43.33855" lon="2.53331">
        <ele>357</ele>
        <time>2020-09-07T15:59:31Z</time>
      </trkpt>
      <trkpt lat="43.33864" lon="2.5335">
        <ele>358</ele>
        <time>2020-09-07T15:59:34Z</time>
      </trkpt>
      <trkpt lat="43.33855" lon="2.53331">
        <ele>357</ele>
        <time>2020-09-07T15:59:37Z</time>
      </trkpt>
      <trkpt lat="43.33846" lon="2.53319">
        <ele>355</ele>
        <time>2020-09-07T15:59:39Z</time>
      </trkpt>
      <trkpt lat="43.33855" lon="2.53331">
        <ele>357</ele>
        <time>2020-09-07T15:59:41Z</time>
      </trkpt>
      <trkpt lat="43.33912" lon="2.53448">
        <ele>362</ele>
        <time>2020-09-07T16:00:00Z</time>
      </trkpt>
      <trkpt lat="43.33934" lon="2.53469">
        <ele>362</ele>
        <time>2020-09-07T16:00:04Z</time>
      </trkpt>
      <trkpt lat="43.33951" lon="2.53479">
        <ele>363</ele>
        <time>2020-09-07T16:00:08Z</time>
      </trkpt>
      <trkpt lat="43.33982" lon="2.53479">
        <ele>366</ele>
        <time>2020-09-07T16:00:13Z</time>
      </trkpt>
      <trkpt lat="43.3401" lon="2.5347">
        <ele>369</ele>
        <time>2020-09-07T16:00:18Z</time>
      </trkpt>
      <trkpt lat="43.34029" lon="2.53457">
        <ele>372</ele>
        <time>2020-09-07T16:00:22Z</time>
      </trkpt>
      <trkpt lat="43.34046" lon="2.53436">
        <ele>374</ele>
        <time>2020-09-07T16:00:26Z</time>
      </trkpt>
      <trkpt lat="43.34064" lon="2.53405">
        <ele>376</ele>
        <time>2020-09-07T16:00:31Z</time>
      </trkpt>
      <trkpt lat="43.34082" lon="2.53332">
        <ele>380</ele>
        <time>2020-09-07T16:00:41Z</time>
      </trkpt>
      <trkpt lat="43.34096" lon="2.53291">
        <ele>383</ele>
        <time>2020-09-07T16:00:47Z</time>
      </trkpt>
      <trkpt lat="43.34109" lon="2.53268">
        <ele>385</ele>
        <time>2020-09-07T16:00:51Z</time>
      </trkpt>
      <trkpt lat="43.34125" lon="2.53249">
        <ele>387</ele>
        <time>2020-09-07T16:00:55Z</time>
      </trkpt>
      <trkpt lat="43.34146" lon="2.53233">
        <ele>390</ele>
        <time>2020-09-07T16:00:59Z</time>
      </trkpt>
      <trkpt lat="43.34161" lon="2.53227">
        <ele>392</ele>
        <time>2020-09-07T16:01:02Z</time>
      </trkpt>
      <trkpt lat="43.34173" lon="2.53223">
        <ele>393</ele>
        <time>2020-09-07T16:01:04Z</time>
      </trkpt>
      <trkpt lat="43.34187" lon="2.53225">
        <ele>395</ele>
        <time>2020-09-07T16:01:06Z</time>
      </trkpt>
      <trkpt lat="43.34197" lon="2.5324">
        <ele>395</ele>
        <time>2020-09-07T16:01:09Z</time>
      </trkpt>
      <trkpt lat="43.34202" lon="2.53256">
        <ele>396</ele>
        <time>2020-09-07T16:01:11Z</time>
      </trkpt>
      <trkpt lat="43.34203" lon="2.53289">
        <ele>396</ele>
        <time>2020-09-07T16:01:16Z</time>
      </trkpt>
      <trkpt lat="43.34213" lon="2.53365">
        <ele>398</ele>
        <time>2020-09-07T16:01:26Z</time>
      </trkpt>
      <trkpt lat="43.34204" lon="2.53457">
        <ele>397</ele>
        <time>2020-09-07T16:01:38Z</time>
      </trkpt>
      <trkpt lat="43.34205" lon="2.53482">
        <ele>398</ele>
        <time>2020-09-07T16:01:41Z</time>
      </trkpt>
      <trkpt lat="43.34208" lon="2.53496">
        <ele>398</ele>
        <time>2020-09-07T16:01:43Z</time>
      </trkpt>
      <trkpt lat="43.34217" lon="2.535">
        <ele>400</ele>
        <time>2020-09-07T16:01:44Z</time>
      </trkpt>
      <trkpt lat="43.34252" lon="2.535">
        <ele>406</ele>
        <time>2020-09-07T16:01:51Z</time>
      </trkpt>
      <trkpt lat="43.34439" lon="2.53454">
        <ele>417</ele>
        <time>2020-09-07T16:02:24Z</time>
      </trkpt>
      <trkpt lat="43.34492" lon="2.5345">
        <ele>425</ele>
        <time>2020-09-07T16:02:34Z</time>
      </trkpt>
      <trkpt lat="43.34529" lon="2.53458">
        <ele>431</ele>
        <time>2020-09-07T16:02:40Z</time>
      </trkpt>
      <trkpt lat="43.3456" lon="2.53471">
        <ele>435</ele>
        <time>2020-09-07T16:02:46Z</time>
      </trkpt>
      <trkpt lat="43.34571" lon="2.53481">
        <ele>435</ele>
        <time>2020-09-07T16:02:49Z</time>
      </trkpt>
      <trkpt lat="43.34586" lon="2.53504">
        <ele>435</ele>
        <time>2020-09-07T16:02:53Z</time>
      </trkpt>
      <trkpt lat="43.34608" lon="2.53531">
        <ele>434</ele>
        <time>2020-09-07T16:02:58Z</time>
      </trkpt>
      <trkpt lat="43.3463" lon="2.5357">
        <ele>431</ele>
        <time>2020-09-07T16:03:04Z</time>
      </trkpt>
      <trkpt lat="43.34638" lon="2.53579">
        <ele>431</ele>
        <time>2020-09-07T16:03:06Z</time>
      </trkpt>
      <trkpt lat="43.34779" lon="2.53678">
        <ele>441</ele>
        <time>2020-09-07T16:03:34Z</time>
      </trkpt>
      <trkpt lat="43.34791" lon="2.5368">
        <ele>442</ele>
        <time>2020-09-07T16:03:36Z</time>
      </trkpt>
      <trkpt lat="43.34857" lon="2.53676">
        <ele>449</ele>
        <time>2020-09-07T16:03:48Z</time>
      </trkpt>
      <trkpt lat="43.34916" lon="2.53677">
        <ele>451</ele>
        <time>2020-09-07T16:03:59Z</time>
      </trkpt>
      <trkpt lat="43.34965" lon="2.53681">
        <ele>452</ele>
        <time>2020-09-07T16:04:07Z</time>
      </trkpt>
      <trkpt lat="43.35" lon="2.53688">
        <ele>452</ele>
        <time>2020-09-07T16:04:14Z</time>
      </trkpt>
      <trkpt lat="43.35017" lon="2.53689">
        <ele>451</ele>
        <time>2020-09-07T16:04:17Z</time>
      </trkpt>
      <trkpt lat="43.35034" lon="2.53686">
        <ele>451</ele>
        <time>2020-09-07T16:04:20Z</time>
      </trkpt>
      <trkpt lat="43.35073" lon="2.53665">
        <ele>455</ele>
        <time>2020-09-07T16:04:27Z</time>
      </trkpt>
      <trkpt lat="43.35081" lon="2.53663">
        <ele>455</ele>
        <time>2020-09-07T16:04:29Z</time>
      </trkpt>
      <trkpt lat="43.35092" lon="2.53665">
        <ele>455</ele>
        <time>2020-09-07T16:04:31Z</time>
      </trkpt>
      <trkpt lat="43.35126" lon="2.53679">
        <ele>452</ele>
        <time>2020-09-07T16:04:37Z</time>
      </trkpt>
      <trkpt lat="43.35134" lon="2.53681">
        <ele>452</ele>
        <time>2020-09-07T16:04:38Z</time>
      </trkpt>
      <trkpt lat="43.35146" lon="2.53679">
        <ele>453</ele>
        <time>2020-09-07T16:04:41Z</time>
      </trkpt>
      <trkpt lat="43.35169" lon="2.53663">
        <ele>457</ele>
        <time>2020-09-07T16:04:45Z</time>
      </trkpt>
      <trkpt lat="43.35193" lon="2.53643">
        <ele>462</ele>
        <time>2020-09-07T16:04:50Z</time>
      </trkpt>
      <trkpt lat="43.35201" lon="2.5364">
        <ele>463</ele>
        <time>2020-09-07T16:04:52Z</time>
      </trkpt>
      <trkpt lat="43.35215" lon="2.5364">
        <ele>463</ele>
        <time>2020-09-07T16:04:54Z</time>
      </trkpt>
      <trkpt lat="43.35246" lon="2.53653">
        <ele>463</ele>
        <time>2020-09-07T16:05:00Z</time>
      </trkpt>
      <trkpt lat="43.3527" lon="2.53651">
        <ele>465</ele>
        <time>2020-09-07T16:05:04Z</time>
      </trkpt>
      <trkpt lat="43.35285" lon="2.53651">
        <ele>466</ele>
        <time>2020-09-07T16:05:07Z</time>
      </trkpt>
      <trkpt lat="43.35302" lon="2.53659">
        <ele>467</ele>
        <time>2020-09-07T16:05:10Z</time>
      </trkpt>
      <trkpt lat="43.35327" lon="2.53676">
        <ele>469</ele>
        <time>2020-09-07T16:05:15Z</time>
      </trkpt>
      <trkpt lat="43.35337" lon="2.53686">
        <ele>470</ele>
        <time>2020-09-07T16:05:17Z</time>
      </trkpt>
      <trkpt lat="43.35364" lon="2.53724">
        <ele>472</ele>
        <time>2020-09-07T16:05:24Z</time>
      </trkpt>
      <trkpt lat="43.35408" lon="2.53755">
        <ele>474</ele>
        <time>2020-09-07T16:05:33Z</time>
      </trkpt>
      <trkpt lat="43.35421" lon="2.53775">
        <ele>475</ele>
        <time>2020-09-07T16:05:36Z</time>
      </trkpt>
      <trkpt lat="43.35439" lon="2.53806">
        <ele>475</ele>
        <time>2020-09-07T16:05:41Z</time>
      </trkpt>
      <trkpt lat="43.35449" lon="2.5383">
        <ele>475</ele>
        <time>2020-09-07T16:05:45Z</time>
      </trkpt>
      <trkpt lat="43.35458" lon="2.53865">
        <ele>477</ele>
        <time>2020-09-07T16:05:50Z</time>
      </trkpt>
      <trkpt lat="43.35464" lon="2.53896">
        <ele>479</ele>
        <time>2020-09-07T16:05:54Z</time>
      </trkpt>
      <trkpt lat="43.35478" lon="2.53937">
        <ele>480</ele>
        <time>2020-09-07T16:06:00Z</time>
      </trkpt>
      <trkpt lat="43.35492" lon="2.53958">
        <ele>480</ele>
        <time>2020-09-07T16:06:03Z</time>
      </trkpt>
      <trkpt lat="43.35518" lon="2.53985">
        <ele>479</ele>
        <time>2020-09-07T16:06:09Z</time>
      </trkpt>
      <trkpt lat="43.35571" lon="2.54033">
        <ele>478</ele>
        <time>2020-09-07T16:06:21Z</time>
      </trkpt>
      <trkpt lat="43.35594" lon="2.54055">
        <ele>478</ele>
        <time>2020-09-07T16:06:26Z</time>
      </trkpt>
      <trkpt lat="43.35632" lon="2.541">
        <ele>480</ele>
        <time>2020-09-07T16:06:34Z</time>
      </trkpt>
      <trkpt lat="43.35669" lon="2.54134">
        <ele>483</ele>
        <time>2020-09-07T16:06:42Z</time>
      </trkpt>
      <trkpt lat="43.35731" lon="2.54182">
        <ele>484</ele>
        <time>2020-09-07T16:06:55Z</time>
      </trkpt>
      <trkpt lat="43.35767" lon="2.54222">
        <ele>488</ele>
        <time>2020-09-07T16:07:03Z</time>
      </trkpt>
      <trkpt lat="43.35807" lon="2.54254">
        <ele>493</ele>
        <time>2020-09-07T16:07:12Z</time>
      </trkpt>
      <trkpt lat="43.35838" lon="2.54283">
        <ele>496</ele>
        <time>2020-09-07T16:07:18Z</time>
      </trkpt>
      <trkpt lat="43.35871" lon="2.54306">
        <ele>499</ele>
        <time>2020-09-07T16:07:25Z</time>
      </trkpt>
      <trkpt lat="43.3594" lon="2.54337">
        <ele>507</ele>
        <time>2020-09-07T16:07:38Z</time>
      </trkpt>
      <trkpt lat="43.35952" lon="2.5434">
        <ele>508</ele>
        <time>2020-09-07T16:07:40Z</time>
      </trkpt>
      <trkpt lat="43.35995" lon="2.54344">
        <ele>511</ele>
        <time>2020-09-07T16:07:48Z</time>
      </trkpt>
      <trkpt lat="43.36012" lon="2.54349">
        <ele>511</ele>
        <time>2020-09-07T16:07:51Z</time>
      </trkpt>
      <trkpt lat="43.36027" lon="2.5436">
        <ele>513</ele>
        <time>2020-09-07T16:07:54Z</time>
      </trkpt>
      <trkpt lat="43.36035" lon="2.54368">
        <ele>514</ele>
        <time>2020-09-07T16:07:55Z</time>
      </trkpt>
      <trkpt lat="43.36066" lon="2.54377">
        <ele>515</ele>
        <time>2020-09-07T16:08:01Z</time>
      </trkpt>
      <trkpt lat="43.36092" lon="2.54378">
        <ele>514</ele>
        <time>2020-09-07T16:08:06Z</time>
      </trkpt>
      <trkpt lat="43.36128" lon="2.54392">
        <ele>515</ele>
        <time>2020-09-07T16:08:12Z</time>
      </trkpt>
      <trkpt lat="43.36197" lon="2.5444">
        <ele>518</ele>
        <time>2020-09-07T16:08:26Z</time>
      </trkpt>
      <trkpt lat="43.36222" lon="2.54471">
        <ele>518</ele>
        <time>2020-09-07T16:08:32Z</time>
      </trkpt>
      <trkpt lat="43.36242" lon="2.54481">
        <ele>517</ele>
        <time>2020-09-07T16:08:36Z</time>
      </trkpt>
      <trkpt lat="43.36291" lon="2.54489">
        <ele>519</ele>
        <time>2020-09-07T16:08:45Z</time>
      </trkpt>
      <trkpt lat="43.36325" lon="2.54497">
        <ele>521</ele>
        <time>2020-09-07T16:08:51Z</time>
      </trkpt>
      <trkpt lat="43.36424" lon="2.54494">
        <ele>528</ele>
        <time>2020-09-07T16:09:08Z</time>
      </trkpt>
      <trkpt lat="43.36442" lon="2.54496">
        <ele>529</ele>
        <time>2020-09-07T16:09:12Z</time>
      </trkpt>
      <trkpt lat="43.36475" lon="2.54506">
        <ele>530</ele>
        <time>2020-09-07T16:09:18Z</time>
      </trkpt>
      <trkpt lat="43.36508" lon="2.54512">
        <ele>530</ele>
        <time>2020-09-07T16:09:24Z</time>
      </trkpt>
      <trkpt lat="43.3657" lon="2.54513">
        <ele>536</ele>
        <time>2020-09-07T16:09:35Z</time>
      </trkpt>
      <trkpt lat="43.36604" lon="2.54519">
        <ele>539</ele>
        <time>2020-09-07T16:09:41Z</time>
      </trkpt>
      <trkpt lat="43.36628" lon="2.54528">
        <ele>542</ele>
        <time>2020-09-07T16:09:45Z</time>
      </trkpt>
      <trkpt lat="43.36644" lon="2.54537">
        <ele>543</ele>
        <time>2020-09-07T16:09:48Z</time>
      </trkpt>
      <trkpt lat="43.36656" lon="2.54547">
        <ele>544</ele>
        <time>2020-09-07T16:09:51Z</time>
      </trkpt>
      <trkpt lat="43.36667" lon="2.54562">
        <ele>544</ele>
        <time>2020-09-07T16:09:53Z</time>
      </trkpt>
      <trkpt lat="43.36679" lon="2.54582">
        <ele>544</ele>
        <time>2020-09-07T16:09:57Z</time>
      </trkpt>
      <trkpt lat="43.36702" lon="2.5463">
        <ele>539</ele>
        <time>2020-09-07T16:10:04Z</time>
      </trkpt>
      <trkpt lat="43.3672" lon="2.54658">
        <ele>538</ele>
        <time>2020-09-07T16:10:09Z</time>
      </trkpt>
      <trkpt lat="43.36729" lon="2.54667">
        <ele>539</ele>
        <time>2020-09-07T16:10:11Z</time>
      </trkpt>
      <trkpt lat="43.36746" lon="2.54673">
        <ele>542</ele>
        <time>2020-09-07T16:10:14Z</time>
      </trkpt>
      <trkpt lat="43.36765" lon="2.54672">
        <ele>544</ele>
        <time>2020-09-07T16:10:18Z</time>
      </trkpt>
      <trkpt lat="43.36811" lon="2.54662">
        <ele>547</ele>
        <time>2020-09-07T16:10:26Z</time>
      </trkpt>
      <trkpt lat="43.36858" lon="2.54657">
        <ele>548</ele>
        <time>2020-09-07T16:10:34Z</time>
      </trkpt>
      <trkpt lat="43.36896" lon="2.54644">
        <ele>550</ele>
        <time>2020-09-07T16:10:41Z</time>
      </trkpt>
      <trkpt lat="43.36954" lon="2.54643">
        <ele>549</ele>
        <time>2020-09-07T16:10:52Z</time>
      </trkpt>
      <trkpt lat="43.36991" lon="2.54629">
        <ele>549</ele>
        <time>2020-09-07T16:10:58Z</time>
      </trkpt>
      <trkpt lat="43.37002" lon="2.54629">
        <ele>549</ele>
        <time>2020-09-07T16:11:00Z</time>
      </trkpt>
      <trkpt lat="43.37017" lon="2.54633">
        <ele>548</ele>
        <time>2020-09-07T16:11:03Z</time>
      </trkpt>
      <trkpt lat="43.37031" lon="2.54639">
        <ele>547</ele>
        <time>2020-09-07T16:11:06Z</time>
      </trkpt>
      <trkpt lat="43.37043" lon="2.54648">
        <ele>547</ele>
        <time>2020-09-07T16:11:08Z</time>
      </trkpt>
      <trkpt lat="43.37051" lon="2.54658">
        <ele>547</ele>
        <time>2020-09-07T16:11:10Z</time>
      </trkpt>
      <trkpt lat="43.37068" lon="2.54687">
        <ele>545</ele>
        <time>2020-09-07T16:11:15Z</time>
      </trkpt>
      <trkpt lat="43.37073" lon="2.54693">
        <ele>545</ele>
        <time>2020-09-07T16:11:16Z</time>
      </trkpt>
      <trkpt lat="43.37098" lon="2.54714">
        <ele>546</ele>
        <time>2020-09-07T16:11:21Z</time>
      </trkpt>
      <trkpt lat="43.37117" lon="2.54725">
        <ele>548</ele>
        <time>2020-09-07T16:11:25Z</time>
      </trkpt>
      <trkpt lat="43.37123" lon="2.54725">
        <ele>549</ele>
        <time>2020-09-07T16:11:26Z</time>
      </trkpt>
      <trkpt lat="43.3713" lon="2.54725">
        <ele>550</ele>
        <time>2020-09-07T16:11:27Z</time>
      </trkpt>
      <trkpt lat="43.37153" lon="2.54716">
        <ele>552</ele>
        <time>2020-09-07T16:11:31Z</time>
      </trkpt>
      <trkpt lat="43.37197" lon="2.54681">
        <ele>557</ele>
        <time>2020-09-07T16:11:40Z</time>
      </trkpt>
      <trkpt lat="43.37209" lon="2.54661">
        <ele>558</ele>
        <time>2020-09-07T16:11:44Z</time>
      </trkpt>
      <trkpt lat="43.37222" lon="2.54633">
        <ele>555</ele>
        <time>2020-09-07T16:11:48Z</time>
      </trkpt>
      <trkpt lat="43.37232" lon="2.54618">
        <ele>555</ele>
        <time>2020-09-07T16:11:51Z</time>
      </trkpt>
      <trkpt lat="43.37239" lon="2.54613">
        <ele>556</ele>
        <time>2020-09-07T16:11:52Z</time>
      </trkpt>
      <trkpt lat="43.37278" lon="2.54598">
        <ele>558</ele>
        <time>2020-09-07T16:11:59Z</time>
      </trkpt>
      <trkpt lat="43.37325" lon="2.54594">
        <ele>562</ele>
        <time>2020-09-07T16:12:08Z</time>
      </trkpt>
      <trkpt lat="43.37354" lon="2.54598">
        <ele>561</ele>
        <time>2020-09-07T16:12:13Z</time>
      </trkpt>
      <trkpt lat="43.37374" lon="2.5461">
        <ele>563</ele>
        <time>2020-09-07T16:12:17Z</time>
      </trkpt>
      <trkpt lat="43.37408" lon="2.54636">
        <ele>569</ele>
        <time>2020-09-07T16:12:24Z</time>
      </trkpt>
      <trkpt lat="43.37442" lon="2.54676">
        <ele>574</ele>
        <time>2020-09-07T16:12:32Z</time>
      </trkpt>
      <trkpt lat="43.37504" lon="2.54732">
        <ele>580</ele>
        <time>2020-09-07T16:12:45Z</time>
      </trkpt>
      <trkpt lat="43.37526" lon="2.54756">
        <ele>591</ele>
        <time>2020-09-07T16:12:50Z</time>
      </trkpt>
      <trkpt lat="43.37535" lon="2.5476">
        <ele>593</ele>
        <time>2020-09-07T16:12:52Z</time>
      </trkpt>
      <trkpt lat="43.37543" lon="2.54758">
        <ele>594</ele>
        <time>2020-09-07T16:12:53Z</time>
      </trkpt>
      <trkpt lat="43.37553" lon="2.5475">
        <ele>592</ele>
        <time>2020-09-07T16:12:55Z</time>
      </trkpt>
      <trkpt lat="43.37583" lon="2.54704">
        <ele>580</ele>
        <time>2020-09-07T16:13:03Z</time>
      </trkpt>
      <trkpt lat="43.37638" lon="2.5464">
        <ele>574</ele>
        <time>2020-09-07T16:13:16Z</time>
      </trkpt>
      <trkpt lat="43.3765" lon="2.5463">
        <ele>573</ele>
        <time>2020-09-07T16:13:18Z</time>
      </trkpt>
      <trkpt lat="43.37671" lon="2.54622">
        <ele>575</ele>
        <time>2020-09-07T16:13:22Z</time>
      </trkpt>
      <trkpt lat="43.37685" lon="2.54623">
        <ele>574</ele>
        <time>2020-09-07T16:13:25Z</time>
      </trkpt>
      <trkpt lat="43.37701" lon="2.54631">
        <ele>576</ele>
        <time>2020-09-07T16:13:28Z</time>
      </trkpt>
      <trkpt lat="43.37716" lon="2.54645">
        <ele>581</ele>
        <time>2020-09-07T16:13:31Z</time>
      </trkpt>
      <trkpt lat="43.37741" lon="2.54678">
        <ele>591</ele>
        <time>2020-09-07T16:13:37Z</time>
      </trkpt>
      <trkpt lat="43.37772" lon="2.54702">
        <ele>592</ele>
        <time>2020-09-07T16:13:44Z</time>
      </trkpt>
      <trkpt lat="43.37806" lon="2.54739">
        <ele>595</ele>
        <time>2020-09-07T16:13:51Z</time>
      </trkpt>
      <trkpt lat="43.37835" lon="2.54788">
        <ele>603</ele>
        <time>2020-09-07T16:13:59Z</time>
      </trkpt>
      <trkpt lat="43.37845" lon="2.54808">
        <ele>605</ele>
        <time>2020-09-07T16:14:03Z</time>
      </trkpt>
      <trkpt lat="43.37867" lon="2.5484">
        <ele>607</ele>
        <time>2020-09-07T16:14:08Z</time>
      </trkpt>
      <trkpt lat="43.37887" lon="2.54877">
        <ele>612</ele>
        <time>2020-09-07T16:14:14Z</time>
      </trkpt>
      <trkpt lat="43.37906" lon="2.54909">
        <ele>616</ele>
        <time>2020-09-07T16:14:20Z</time>
      </trkpt>
      <trkpt lat="43.37926" lon="2.54946">
        <ele>619</ele>
        <time>2020-09-07T16:14:25Z</time>
      </trkpt>
      <trkpt lat="43.37958" lon="2.55011">
        <ele>623</ele>
        <time>2020-09-07T16:14:36Z</time>
      </trkpt>
      <trkpt lat="43.37983" lon="2.55054">
        <ele>626</ele>
        <time>2020-09-07T16:14:43Z</time>
      </trkpt>
      <trkpt lat="43.38005" lon="2.55087">
        <ele>627</ele>
        <time>2020-09-07T16:14:49Z</time>
      </trkpt>
      <trkpt lat="43.38024" lon="2.55111">
        <ele>630</ele>
        <time>2020-09-07T16:14:53Z</time>
      </trkpt>
      <trkpt lat="43.38051" lon="2.55135">
        <ele>630</ele>
        <time>2020-09-07T16:14:59Z</time>
      </trkpt>
      <trkpt lat="43.3807" lon="2.55159">
        <ele>632</ele>
        <time>2020-09-07T16:15:03Z</time>
      </trkpt>
      <trkpt lat="43.38076" lon="2.55167">
        <ele>633</ele>
        <time>2020-09-07T16:15:05Z</time>
      </trkpt>
      <trkpt lat="43.38081" lon="2.55181">
        <ele>633</ele>
        <time>2020-09-07T16:15:07Z</time>
      </trkpt>
      <trkpt lat="43.38088" lon="2.55187">
        <ele>634</ele>
        <time>2020-09-07T16:15:08Z</time>
      </trkpt>
      <trkpt lat="43.38099" lon="2.55188">
        <ele>634</ele>
        <time>2020-09-07T16:15:10Z</time>
      </trkpt>
      <trkpt lat="43.38122" lon="2.55171">
        <ele>634</ele>
        <time>2020-09-07T16:15:15Z</time>
      </trkpt>
      <trkpt lat="43.3813" lon="2.55168">
        <ele>634</ele>
        <time>2020-09-07T16:15:17Z</time>
      </trkpt>
      <trkpt lat="43.38136" lon="2.55168">
        <ele>634</ele>
        <time>2020-09-07T16:15:18Z</time>
      </trkpt>
      <trkpt lat="43.38142" lon="2.55171">
        <ele>635</ele>
        <time>2020-09-07T16:15:19Z</time>
      </trkpt>
      <trkpt lat="43.38147" lon="2.55177">
        <ele>635</ele>
        <time>2020-09-07T16:15:20Z</time>
      </trkpt>
      <trkpt lat="43.38154" lon="2.5519">
        <ele>636</ele>
        <time>2020-09-07T16:15:22Z</time>
      </trkpt>
      <trkpt lat="43.38157" lon="2.552">
        <ele>637</ele>
        <time>2020-09-07T16:15:23Z</time>
      </trkpt>
      <trkpt lat="43.38166" lon="2.55248">
        <ele>638</ele>
        <time>2020-09-07T16:15:30Z</time>
      </trkpt>
      <trkpt lat="43.38172" lon="2.55265">
        <ele>638</ele>
        <time>2020-09-07T16:15:32Z</time>
      </trkpt>
      <trkpt lat="43.38181" lon="2.5528">
        <ele>638</ele>
        <time>2020-09-07T16:15:35Z</time>
      </trkpt>
      <trkpt lat="43.38193" lon="2.55294">
        <ele>638</ele>
        <time>2020-09-07T16:15:38Z</time>
      </trkpt>
      <trkpt lat="43.38231" lon="2.55332">
        <ele>639</ele>
        <time>2020-09-07T16:15:46Z</time>
      </trkpt>
      <trkpt lat="43.38253" lon="2.55348">
        <ele>640</ele>
        <time>2020-09-07T16:15:50Z</time>
      </trkpt>
      <trkpt lat="43.38262" lon="2.55354">
        <ele>640</ele>
        <time>2020-09-07T16:15:52Z</time>
      </trkpt>
      <trkpt lat="43.38327" lon="2.55387">
        <ele>649</ele>
        <time>2020-09-07T16:16:04Z</time>
      </trkpt>
      <trkpt lat="43.3836" lon="2.55407">
        <ele>654</ele>
        <time>2020-09-07T16:16:11Z</time>
      </trkpt>
      <trkpt lat="43.38388" lon="2.55413">
        <ele>656</ele>
        <time>2020-09-07T16:16:16Z</time>
      </trkpt>
      <trkpt lat="43.38421" lon="2.55425">
        <ele>662</ele>
        <time>2020-09-07T16:16:22Z</time>
      </trkpt>
      <trkpt lat="43.38436" lon="2.55423">
        <ele>663</ele>
        <time>2020-09-07T16:16:25Z</time>
      </trkpt>
      <trkpt lat="43.38478" lon="2.55401">
        <ele>664</ele>
        <time>2020-09-07T16:16:33Z</time>
      </trkpt>
      <trkpt lat="43.38505" lon="2.55384">
        <ele>663</ele>
        <time>2020-09-07T16:16:38Z</time>
      </trkpt>
      <trkpt lat="43.38517" lon="2.55379">
        <ele>665</ele>
        <time>2020-09-07T16:16:40Z</time>
      </trkpt>
      <trkpt lat="43.3854" lon="2.55363">
        <ele>666</ele>
        <time>2020-09-07T16:16:45Z</time>
      </trkpt>
      <trkpt lat="43.38607" lon="2.55328">
        <ele>671</ele>
        <time>2020-09-07T16:16:58Z</time>
      </trkpt>
      <trkpt lat="43.38694" lon="2.55266">
        <ele>672</ele>
        <time>2020-09-07T16:17:15Z</time>
      </trkpt>
      <trkpt lat="43.38734" lon="2.55245">
        <ele>674</ele>
        <time>2020-09-07T16:17:23Z</time>
      </trkpt>
      <trkpt lat="43.38787" lon="2.55227">
        <ele>675</ele>
        <time>2020-09-07T16:17:32Z</time>
      </trkpt>
      <trkpt lat="43.38819" lon="2.55221">
        <ele>677</ele>
        <time>2020-09-07T16:17:38Z</time>
      </trkpt>
      <trkpt lat="43.38856" lon="2.55219">
        <ele>676</ele>
        <time>2020-09-07T16:17:45Z</time>
      </trkpt>
      <trkpt lat="43.38897" lon="2.55225">
        <ele>675</ele>
        <time>2020-09-07T16:17:52Z</time>
      </trkpt>
      <trkpt lat="43.38907" lon="2.55229">
        <ele>676</ele>
        <time>2020-09-07T16:17:54Z</time>
      </trkpt>
      <trkpt lat="43.38916" lon="2.55235">
        <ele>677</ele>
        <time>2020-09-07T16:17:56Z</time>
      </trkpt>
      <trkpt lat="43.38922" lon="2.5525">
        <ele>679</ele>
        <time>2020-09-07T16:17:58Z</time>
      </trkpt>
      <trkpt lat="43.38927" lon="2.55272">
        <ele>683</ele>
        <time>2020-09-07T16:18:01Z</time>
      </trkpt>
      <trkpt lat="43.38939" lon="2.55309">
        <ele>689</ele>
        <time>2020-09-07T16:18:06Z</time>
      </trkpt>
      <trkpt lat="43.38968" lon="2.55381">
        <ele>702</ele>
        <time>2020-09-07T16:18:17Z</time>
      </trkpt>
      <trkpt lat="43.38975" lon="2.55389">
        <ele>703</ele>
        <time>2020-09-07T16:18:18Z</time>
      </trkpt>
      <trkpt lat="43.38985" lon="2.55394">
        <ele>703</ele>
        <time>2020-09-07T16:18:20Z</time>
      </trkpt>
      <trkpt lat="43.39012" lon="2.55388">
        <ele>697</ele>
        <time>2020-09-07T16:18:25Z</time>
      </trkpt>
      <trkpt lat="43.39066" lon="2.55385">
        <ele>696</ele>
        <time>2020-09-07T16:18:35Z</time>
      </trkpt>
      <trkpt lat="43.39101" lon="2.55392">
        <ele>698</ele>
        <time>2020-09-07T16:18:41Z</time>
      </trkpt>
      <trkpt lat="43.39152" lon="2.55394">
        <ele>697</ele>
        <time>2020-09-07T16:18:50Z</time>
      </trkpt>
      <trkpt lat="43.3916" lon="2.55399">
        <ele>699</ele>
        <time>2020-09-07T16:18:52Z</time>
      </trkpt>
      <trkpt lat="43.39167" lon="2.55412">
        <ele>702</ele>
        <time>2020-09-07T16:18:54Z</time>
      </trkpt>
      <trkpt lat="43.39176" lon="2.55462">
        <ele>711</ele>
        <time>2020-09-07T16:19:00Z</time>
      </trkpt>
      <trkpt lat="43.392" lon="2.55539">
        <ele>723</ele>
        <time>2020-09-07T16:19:11Z</time>
      </trkpt>
      <trkpt lat="43.39202" lon="2.55553">
        <ele>727</ele>
        <time>2020-09-07T16:19:13Z</time>
      </trkpt>
      <trkpt lat="43.3921" lon="2.55565">
        <ele>729</ele>
        <time>2020-09-07T16:19:15Z</time>
      </trkpt>
      <trkpt lat="43.39219" lon="2.55574">
        <ele>729</ele>
        <time>2020-09-07T16:19:17Z</time>
      </trkpt>
      <trkpt lat="43.39258" lon="2.55573">
        <ele>723</ele>
        <time>2020-09-07T16:19:24Z</time>
      </trkpt>
      <trkpt lat="43.39301" lon="2.55582">
        <ele>723</ele>
        <time>2020-09-07T16:19:32Z</time>
      </trkpt>
      <trkpt lat="43.39328" lon="2.55581">
        <ele>721</ele>
        <time>2020-09-07T16:19:37Z</time>
      </trkpt>
      <trkpt lat="43.39339" lon="2.55583">
        <ele>720</ele>
        <time>2020-09-07T16:19:39Z</time>
      </trkpt>
      <trkpt lat="43.39346" lon="2.55586">
        <ele>720</ele>
        <time>2020-09-07T16:19:40Z</time>
      </trkpt>
      <trkpt lat="43.39356" lon="2.55596">
        <ele>721</ele>
        <time>2020-09-07T16:19:42Z</time>
      </trkpt>
      <trkpt lat="43.39362" lon="2.55608">
        <ele>724</ele>
        <time>2020-09-07T16:19:44Z</time>
      </trkpt>
      <trkpt lat="43.3937" lon="2.55615">
        <ele>724</ele>
        <time>2020-09-07T16:19:46Z</time>
      </trkpt>
      <trkpt lat="43.39389" lon="2.55629">
        <ele>725</ele>
        <time>2020-09-07T16:19:49Z</time>
      </trkpt>
      <trkpt lat="43.39409" lon="2.5564">
        <ele>723</ele>
        <time>2020-09-07T16:19:53Z</time>
      </trkpt>
      <trkpt lat="43.39411" lon="2.55644">
        <ele>724</ele>
        <time>2020-09-07T16:19:54Z</time>
      </trkpt>
      <trkpt lat="43.39412" lon="2.55653">
        <ele>727</ele>
        <time>2020-09-07T16:19:55Z</time>
      </trkpt>
      <trkpt lat="43.3941" lon="2.55677">
        <ele>736</ele>
        <time>2020-09-07T16:19:58Z</time>
      </trkpt>
      <trkpt lat="43.39416" lon="2.55703">
        <ele>740</ele>
        <time>2020-09-07T16:20:02Z</time>
      </trkpt>
      <trkpt lat="43.39427" lon="2.55731">
        <ele>742</ele>
        <time>2020-09-07T16:20:06Z</time>
      </trkpt>
      <trkpt lat="43.39478" lon="2.55823">
        <ele>743</ele>
        <time>2020-09-07T16:20:21Z</time>
      </trkpt>
      <trkpt lat="43.39499" lon="2.55871">
        <ele>745</ele>
        <time>2020-09-07T16:20:28Z</time>
      </trkpt>
      <trkpt lat="43.39511" lon="2.55932">
        <ele>754</ele>
        <time>2020-09-07T16:20:36Z</time>
      </trkpt>
      <trkpt lat="43.39527" lon="2.55993">
        <ele>759</ele>
        <time>2020-09-07T16:20:45Z</time>
      </trkpt>
      <trkpt lat="43.3955" lon="2.56041">
        <ele>760</ele>
        <time>2020-09-07T16:20:52Z</time>
      </trkpt>
      <trkpt lat="43.39565" lon="2.56093">
        <ele>768</ele>
        <time>2020-09-07T16:20:59Z</time>
      </trkpt>
      <trkpt lat="43.39572" lon="2.56098">
        <ele>768</ele>
        <time>2020-09-07T16:21:01Z</time>
      </trkpt>
      <trkpt lat="43.39603" lon="2.56101">
        <ele>767</ele>
        <time>2020-09-07T16:21:06Z</time>
      </trkpt>
      <trkpt lat="43.39615" lon="2.56109">
        <ele>770</ele>
        <time>2020-09-07T16:21:09Z</time>
      </trkpt>
      <trkpt lat="43.39625" lon="2.56109">
        <ele>771</ele>
        <time>2020-09-07T16:21:10Z</time>
      </trkpt>
      <trkpt lat="43.3965" lon="2.56103">
        <ele>770</ele>
        <time>2020-09-07T16:21:15Z</time>
      </trkpt>
      <trkpt lat="43.3972" lon="2.56095">
        <ele>775</ele>
        <time>2020-09-07T16:21:27Z</time>
      </trkpt>
      <trkpt lat="43.39763" lon="2.56086">
        <ele>779</ele>
        <time>2020-09-07T16:21:35Z</time>
      </trkpt>
      <trkpt lat="43.39804" lon="2.56072">
        <ele>784</ele>
        <time>2020-09-07T16:21:43Z</time>
      </trkpt>
      <trkpt lat="43.39815" lon="2.56065">
        <ele>784</ele>
        <time>2020-09-07T16:21:45Z</time>
      </trkpt>
      <trkpt lat="43.39835" lon="2.56041">
        <ele>783</ele>
        <time>2020-09-07T16:21:50Z</time>
      </trkpt>
      <trkpt lat="43.39853" lon="2.56013">
        <ele>781</ele>
        <time>2020-09-07T16:21:54Z</time>
      </trkpt>
      <trkpt lat="43.39863" lon="2.55989">
        <ele>779</ele>
        <time>2020-09-07T16:21:58Z</time>
      </trkpt>
      <trkpt lat="43.39871" lon="2.55989">
        <ele>781</ele>
        <time>2020-09-07T16:21:59Z</time>
      </trkpt>
      <trkpt lat="43.39873" lon="2.55995">
        <ele>783</ele>
        <time>2020-09-07T16:22:00Z</time>
      </trkpt>
      <trkpt lat="43.3987" lon="2.56005">
        <ele>784</ele>
        <time>2020-09-07T16:22:02Z</time>
      </trkpt>
      <trkpt lat="43.39845" lon="2.5606">
        <ele>790</ele>
        <time>2020-09-07T16:22:10Z</time>
      </trkpt>
      <trkpt lat="43.39846" lon="2.56068">
        <ele>792</ele>
        <time>2020-09-07T16:22:11Z</time>
      </trkpt>
      <trkpt lat="43.39853" lon="2.5607">
        <ele>793</ele>
        <time>2020-09-07T16:22:12Z</time>
      </trkpt>
      <trkpt lat="43.39895" lon="2.56022">
        <ele>793</ele>
        <time>2020-09-07T16:22:22Z</time>
      </trkpt>
      <trkpt lat="43.39904" lon="2.56018">
        <ele>794</ele>
        <time>2020-09-07T16:22:24Z</time>
      </trkpt>
      <trkpt lat="43.39913" lon="2.56021">
        <ele>797</ele>
        <time>2020-09-07T16:22:25Z</time>
      </trkpt>
      <trkpt lat="43.39924" lon="2.5603">
        <ele>799</ele>
        <time>2020-09-07T16:22:28Z</time>
      </trkpt>
      <trkpt lat="43.39951" lon="2.56074">
        <ele>800</ele>
        <time>2020-09-07T16:22:35Z</time>
      </trkpt>
      <trkpt lat="43.39978" lon="2.5611">
        <ele>800</ele>
        <time>2020-09-07T16:22:42Z</time>
      </trkpt>
      <trkpt lat="43.39996" lon="2.56174">
        <ele>804</ele>
        <time>2020-09-07T16:22:51Z</time>
      </trkpt>
      <trkpt lat="43.4" lon="2.56198">
        <ele>805</ele>
        <time>2020-09-07T16:22:54Z</time>
      </trkpt>
      <trkpt lat="43.39989" lon="2.56276">
        <ele>816</ele>
        <time>2020-09-07T16:23:04Z</time>
      </trkpt>
      <trkpt lat="43.39985" lon="2.56356">
        <ele>824</ele>
        <time>2020-09-07T16:23:14Z</time>
      </trkpt>
      <trkpt lat="43.39965" lon="2.56431">
        <ele>836</ele>
        <time>2020-09-07T16:23:25Z</time>
      </trkpt>
      <trkpt lat="43.39965" lon="2.56461">
        <ele>837</ele>
        <time>2020-09-07T16:23:29Z</time>
      </trkpt>
      <trkpt lat="43.3997" lon="2.56513">
        <ele>840</ele>
        <time>2020-09-07T16:23:35Z</time>
      </trkpt>
      <trkpt lat="43.39988" lon="2.56565">
        <ele>843</ele>
        <time>2020-09-07T16:23:43Z</time>
      </trkpt>
      <trkpt lat="43.40018" lon="2.56603">
        <ele>844</ele>
        <time>2020-09-07T16:23:50Z</time>
      </trkpt>
      <trkpt lat="43.40066" lon="2.56642">
        <ele>845</ele>
        <time>2020-09-07T16:24:00Z</time>
      </trkpt>
      <trkpt lat="43.4014" lon="2.56666">
        <ele>840</ele>
        <time>2020-09-07T16:24:14Z</time>
      </trkpt>
      <trkpt lat="43.40183" lon="2.56695">
        <ele>840</ele>
        <time>2020-09-07T16:24:22Z</time>
      </trkpt>
      <trkpt lat="43.40238" lon="2.56795">
        <ele>852</ele>
        <time>2020-09-07T16:24:38Z</time>
      </trkpt>
      <trkpt lat="43.40272" lon="2.56824">
        <ele>850</ele>
        <time>2020-09-07T16:24:45Z</time>
      </trkpt>
      <trkpt lat="43.40336" lon="2.5686">
        <ele>838</ele>
        <time>2020-09-07T16:24:58Z</time>
      </trkpt>
      <trkpt lat="43.40342" lon="2.56886">
        <ele>841</ele>
        <time>2020-09-07T16:25:01Z</time>
      </trkpt>
      <trkpt lat="43.40336" lon="2.56913">
        <ele>846</ele>
        <time>2020-09-07T16:25:05Z</time>
      </trkpt>
      <trkpt lat="43.40263" lon="2.5698">
        <ele>860</ele>
        <time>2020-09-07T16:25:21Z</time>
      </trkpt>
      <trkpt lat="43.40232" lon="2.5709">
        <ele>851</ele>
        <time>2020-09-07T16:25:36Z</time>
      </trkpt>
      <trkpt lat="43.40206" lon="2.5714">
        <ele>849</ele>
        <time>2020-09-07T16:25:44Z</time>
      </trkpt>
      <trkpt lat="43.4012" lon="2.57208">
        <ele>859</ele>
        <time>2020-09-07T16:26:01Z</time>
      </trkpt>
      <trkpt lat="43.40082" lon="2.57256">
        <ele>859</ele>
        <time>2020-09-07T16:26:11Z</time>
      </trkpt>
      <trkpt lat="43.40063" lon="2.57316">
        <ele>853</ele>
        <time>2020-09-07T16:26:19Z</time>
      </trkpt>
      <trkpt lat="43.40035" lon="2.57432">
        <ele>852</ele>
        <time>2020-09-07T16:26:35Z</time>
      </trkpt>
      <trkpt lat="43.40007" lon="2.57705">
        <ele>843</ele>
        <time>2020-09-07T16:27:10Z</time>
      </trkpt>
      <trkpt lat="43.40008" lon="2.57771">
        <ele>838</ele>
        <time>2020-09-07T16:27:19Z</time>
      </trkpt>
      <trkpt lat="43.39986" lon="2.57916">
        <ele>832</ele>
        <time>2020-09-07T16:27:38Z</time>
      </trkpt>
      <trkpt lat="43.39968" lon="2.57978">
        <ele>835</ele>
        <time>2020-09-07T16:27:47Z</time>
      </trkpt>
      <trkpt lat="43.39969" lon="2.58025">
        <ele>832</ele>
        <time>2020-09-07T16:27:53Z</time>
      </trkpt>
      <trkpt lat="43.39974" lon="2.58057">
        <ele>829</ele>
        <time>2020-09-07T16:27:57Z</time>
      </trkpt>
      <trkpt lat="43.39988" lon="2.58124">
        <ele>827</ele>
        <time>2020-09-07T16:28:06Z</time>
      </trkpt>
      <trkpt lat="43.40007" lon="2.58188">
        <ele>825</ele>
        <time>2020-09-07T16:28:15Z</time>
      </trkpt>
      <trkpt lat="43.40009" lon="2.58199">
        <ele>825</ele>
        <time>2020-09-07T16:28:17Z</time>
      </trkpt>
      <trkpt lat="43.4002" lon="2.58363">
        <ele>835</ele>
        <time>2020-09-07T16:28:38Z</time>
      </trkpt>
      <trkpt lat="43.40023" lon="2.58378">
        <ele>837</ele>
        <time>2020-09-07T16:28:40Z</time>
      </trkpt>
      <trkpt lat="43.40039" lon="2.58401">
        <ele>833</ele>
        <time>2020-09-07T16:28:44Z</time>
      </trkpt>
      <trkpt lat="43.40077" lon="2.58495">
        <ele>840</ele>
        <time>2020-09-07T16:28:58Z</time>
      </trkpt>
      <trkpt lat="43.40091" lon="2.58519">
        <ele>841</ele>
        <time>2020-09-07T16:29:02Z</time>
      </trkpt>
      <trkpt lat="43.4012" lon="2.5856">
        <ele>841</ele>
        <time>2020-09-07T16:29:09Z</time>
      </trkpt>
      <trkpt lat="43.40128" lon="2.58569">
        <ele>840</ele>
        <time>2020-09-07T16:29:11Z</time>
      </trkpt>
      <trkpt lat="43.40168" lon="2.58598">
        <ele>835</ele>
        <time>2020-09-07T16:29:19Z</time>
      </trkpt>
      <trkpt lat="43.40194" lon="2.58626">
        <ele>833</ele>
        <time>2020-09-07T16:29:25Z</time>
      </trkpt>
      <trkpt lat="43.40223" lon="2.58665">
        <ele>833</ele>
        <time>2020-09-07T16:29:32Z</time>
      </trkpt>
      <trkpt lat="43.40248" lon="2.58703">
        <ele>833</ele>
        <time>2020-09-07T16:29:39Z</time>
      </trkpt>
      <trkpt lat="43.40263" lon="2.5873">
        <ele>832</ele>
        <time>2020-09-07T16:29:43Z</time>
      </trkpt>
      <trkpt lat="43.40278" lon="2.58766">
        <ele>833</ele>
        <time>2020-09-07T16:29:49Z</time>
      </trkpt>
      <trkpt lat="43.40305" lon="2.58841">
        <ele>835</ele>
        <time>2020-09-07T16:29:59Z</time>
      </trkpt>
      <trkpt lat="43.40329" lon="2.58927">
        <ele>849</ele>
        <time>2020-09-07T16:30:11Z</time>
      </trkpt>
      <trkpt lat="43.40336" lon="2.58933">
        <ele>849</ele>
        <time>2020-09-07T16:30:13Z</time>
      </trkpt>
      <trkpt lat="43.40358" lon="2.58936">
        <ele>845</ele>
        <time>2020-09-07T16:30:17Z</time>
      </trkpt>
      <trkpt lat="43.404" lon="2.58956">
        <ele>845</ele>
        <time>2020-09-07T16:30:25Z</time>
      </trkpt>
      <trkpt lat="43.40441" lon="2.58964">
        <ele>849</ele>
        <time>2020-09-07T16:30:32Z</time>
      </trkpt>
      <trkpt lat="43.40453" lon="2.58973">
        <ele>854</ele>
        <time>2020-09-07T16:30:34Z</time>
      </trkpt>
      <trkpt lat="43.40458" lon="2.58974">
        <ele>855</ele>
        <time>2020-09-07T16:30:35Z</time>
      </trkpt>
      <trkpt lat="43.40463" lon="2.58971">
        <ele>855</ele>
        <time>2020-09-07T16:30:36Z</time>
      </trkpt>
      <trkpt lat="43.40492" lon="2.58935">
        <ele>845</ele>
        <time>2020-09-07T16:30:43Z</time>
      </trkpt>
      <trkpt lat="43.40518" lon="2.58917">
        <ele>842</ele>
        <time>2020-09-07T16:30:48Z</time>
      </trkpt>
      <trkpt lat="43.40525" lon="2.58915">
        <ele>842</ele>
        <time>2020-09-07T16:30:50Z</time>
      </trkpt>
      <trkpt lat="43.40549" lon="2.58913">
        <ele>844</ele>
        <time>2020-09-07T16:30:54Z</time>
      </trkpt>
      <trkpt lat="43.40628" lon="2.58919">
        <ele>848</ele>
        <time>2020-09-07T16:31:08Z</time>
      </trkpt>
      <trkpt lat="43.40647" lon="2.58926">
        <ele>849</ele>
        <time>2020-09-07T16:31:12Z</time>
      </trkpt>
      <trkpt lat="43.40712" lon="2.58969">
        <ele>851</ele>
        <time>2020-09-07T16:31:24Z</time>
      </trkpt>
      <trkpt lat="43.40724" lon="2.58981">
        <ele>853</ele>
        <time>2020-09-07T16:31:27Z</time>
      </trkpt>
      <trkpt lat="43.40747" lon="2.59015">
        <ele>861</ele>
        <time>2020-09-07T16:31:33Z</time>
      </trkpt>
      <trkpt lat="43.40758" lon="2.59026">
        <ele>862</ele>
        <time>2020-09-07T16:31:35Z</time>
      </trkpt>
      <trkpt lat="43.40801" lon="2.59053">
        <ele>863</ele>
        <time>2020-09-07T16:31:44Z</time>
      </trkpt>
      <trkpt lat="43.40851" lon="2.59089">
        <ele>869</ele>
        <time>2020-09-07T16:31:54Z</time>
      </trkpt>
      <trkpt lat="43.4087" lon="2.59111">
        <ele>875</ele>
        <time>2020-09-07T16:31:58Z</time>
      </trkpt>
      <trkpt lat="43.40904" lon="2.59159">
        <ele>886</ele>
        <time>2020-09-07T16:32:07Z</time>
      </trkpt>
      <trkpt lat="43.40911" lon="2.59181">
        <ele>891</ele>
        <time>2020-09-07T16:32:10Z</time>
      </trkpt>
      <trkpt lat="43.40918" lon="2.59192">
        <ele>893</ele>
        <time>2020-09-07T16:32:12Z</time>
      </trkpt>
      <trkpt lat="43.40926" lon="2.59192">
        <ele>896</ele>
        <time>2020-09-07T16:32:13Z</time>
      </trkpt>
      <trkpt lat="43.40938" lon="2.59188">
        <ele>898</ele>
        <time>2020-09-07T16:32:16Z</time>
      </trkpt>
      <trkpt lat="43.40947" lon="2.5918">
        <ele>899</ele>
        <time>2020-09-07T16:32:17Z</time>
      </trkpt>
      <trkpt lat="43.40956" lon="2.59165">
        <ele>898</ele>
        <time>2020-09-07T16:32:20Z</time>
      </trkpt>
      <trkpt lat="43.40965" lon="2.59134">
        <ele>892</ele>
        <time>2020-09-07T16:32:24Z</time>
      </trkpt>
      <trkpt lat="43.41016" lon="2.59046">
        <ele>891</ele>
        <time>2020-09-07T16:32:39Z</time>
      </trkpt>
      <trkpt lat="43.41079" lon="2.58989">
        <ele>908</ele>
        <time>2020-09-07T16:32:52Z</time>
      </trkpt>
      <trkpt lat="43.41083" lon="2.58978">
        <ele>910</ele>
        <time>2020-09-07T16:32:54Z</time>
      </trkpt>
      <trkpt lat="43.41085" lon="2.58925">
        <ele>910</ele>
        <time>2020-09-07T16:33:01Z</time>
      </trkpt>
      <trkpt lat="43.41082" lon="2.58905">
        <ele>910</ele>
        <time>2020-09-07T16:33:03Z</time>
      </trkpt>
      <trkpt lat="43.41068" lon="2.58865">
        <ele>910</ele>
        <time>2020-09-07T16:33:09Z</time>
      </trkpt>
      <trkpt lat="43.41045" lon="2.58837">
        <ele>904</ele>
        <time>2020-09-07T16:33:15Z</time>
      </trkpt>
      <trkpt lat="43.41036" lon="2.58794">
        <ele>902</ele>
        <time>2020-09-07T16:33:20Z</time>
      </trkpt>
      <trkpt lat="43.41043" lon="2.58684">
        <ele>904</ele>
        <time>2020-09-07T16:33:35Z</time>
      </trkpt>
      <trkpt lat="43.41033" lon="2.58579">
        <ele>900</ele>
        <time>2020-09-07T16:33:48Z</time>
      </trkpt>
      <trkpt lat="43.41017" lon="2.58523">
        <ele>898</ele>
        <time>2020-09-07T16:33:56Z</time>
      </trkpt>
      <trkpt lat="43.41002" lon="2.58492">
        <ele>895</ele>
        <time>2020-09-07T16:34:01Z</time>
      </trkpt>
      <trkpt lat="43.40943" lon="2.58415">
        <ele>881</ele>
        <time>2020-09-07T16:34:15Z</time>
      </trkpt>
      <trkpt lat="43.40923" lon="2.58386">
        <ele>875</ele>
        <time>2020-09-07T16:34:21Z</time>
      </trkpt>
      <trkpt lat="43.40915" lon="2.58368">
        <ele>874</ele>
        <time>2020-09-07T16:34:23Z</time>
      </trkpt>
      <trkpt lat="43.40913" lon="2.58352">
        <ele>874</ele>
        <time>2020-09-07T16:34:25Z</time>
      </trkpt>
      <trkpt lat="43.40915" lon="2.58338">
        <ele>875</ele>
        <time>2020-09-07T16:34:27Z</time>
      </trkpt>
      <trkpt lat="43.40919" lon="2.58331">
        <ele>875</ele>
        <time>2020-09-07T16:34:28Z</time>
      </trkpt>
      <trkpt lat="43.4093" lon="2.58325">
        <ele>875</ele>
        <time>2020-09-07T16:34:30Z</time>
      </trkpt>
      <trkpt lat="43.40962" lon="2.58315">
        <ele>878</ele>
        <time>2020-09-07T16:34:36Z</time>
      </trkpt>
      <trkpt lat="43.40993" lon="2.58297">
        <ele>879</ele>
        <time>2020-09-07T16:34:42Z</time>
      </trkpt>
      <trkpt lat="43.41083" lon="2.582">
        <ele>877</ele>
        <time>2020-09-07T16:35:03Z</time>
      </trkpt>
      <trkpt lat="43.41107" lon="2.58163">
        <ele>879</ele>
        <time>2020-09-07T16:35:09Z</time>
      </trkpt>
      <trkpt lat="43.41112" lon="2.5815">
        <ele>880</ele>
        <time>2020-09-07T16:35:11Z</time>
      </trkpt>
      <trkpt lat="43.41115" lon="2.58118">
        <ele>881</ele>
        <time>2020-09-07T16:35:15Z</time>
      </trkpt>
      <trkpt lat="43.41106" lon="2.58064">
        <ele>876</ele>
        <time>2020-09-07T16:35:22Z</time>
      </trkpt>
      <trkpt lat="43.41096" lon="2.58025">
        <ele>874</ele>
        <time>2020-09-07T16:35:28Z</time>
      </trkpt>
      <trkpt lat="43.41082" lon="2.57992">
        <ele>871</ele>
        <time>2020-09-07T16:35:33Z</time>
      </trkpt>
      <trkpt lat="43.41049" lon="2.57943">
        <ele>864</ele>
        <time>2020-09-07T16:35:41Z</time>
      </trkpt>
      <trkpt lat="43.41042" lon="2.5792">
        <ele>864</ele>
        <time>2020-09-07T16:35:44Z</time>
      </trkpt>
      <trkpt lat="43.41043" lon="2.57907">
        <ele>863</ele>
        <time>2020-09-07T16:35:46Z</time>
      </trkpt>
      <trkpt lat="43.41048" lon="2.57896">
        <ele>863</ele>
        <time>2020-09-07T16:35:48Z</time>
      </trkpt>
      <trkpt lat="43.41065" lon="2.57881">
        <ele>864</ele>
        <time>2020-09-07T16:35:51Z</time>
      </trkpt>
      <trkpt lat="43.41142" lon="2.57836">
        <ele>873</ele>
        <time>2020-09-07T16:36:06Z</time>
      </trkpt>
      <trkpt lat="43.41176" lon="2.578">
        <ele>871</ele>
        <time>2020-09-07T16:36:14Z</time>
      </trkpt>
      <trkpt lat="43.4121" lon="2.57761">
        <ele>870</ele>
        <time>2020-09-07T16:36:22Z</time>
      </trkpt>
      <trkpt lat="43.4125" lon="2.57736">
        <ele>875</ele>
        <time>2020-09-07T16:36:30Z</time>
      </trkpt>
      <trkpt lat="43.41281" lon="2.57729">
        <ele>875</ele>
        <time>2020-09-07T16:36:35Z</time>
      </trkpt>
      <trkpt lat="43.41352" lon="2.57726">
        <ele>878</ele>
        <time>2020-09-07T16:36:48Z</time>
      </trkpt>
      <trkpt lat="43.41558" lon="2.57702">
        <ele>891</ele>
        <time>2020-09-07T16:37:25Z</time>
      </trkpt>
      <trkpt lat="43.41621" lon="2.57682">
        <ele>893</ele>
        <time>2020-09-07T16:37:36Z</time>
      </trkpt>
      <trkpt lat="43.41673" lon="2.57659">
        <ele>895</ele>
        <time>2020-09-07T16:37:46Z</time>
      </trkpt>
      <trkpt lat="43.41722" lon="2.57618">
        <ele>892</ele>
        <time>2020-09-07T16:37:56Z</time>
      </trkpt>
      <trkpt lat="43.41771" lon="2.57563">
        <ele>888</ele>
        <time>2020-09-07T16:38:07Z</time>
      </trkpt>
      <trkpt lat="43.41812" lon="2.57499">
        <ele>884</ele>
        <time>2020-09-07T16:38:18Z</time>
      </trkpt>
      <trkpt lat="43.41899" lon="2.57381">
        <ele>884</ele>
        <time>2020-09-07T16:38:40Z</time>
      </trkpt>
      <trkpt lat="43.41927" lon="2.5736">
        <ele>885</ele>
        <time>2020-09-07T16:38:46Z</time>
      </trkpt>
      <trkpt lat="43.41947" lon="2.57355">
        <ele>886</ele>
        <time>2020-09-07T16:38:49Z</time>
      </trkpt>
      <trkpt lat="43.41955" lon="2.57347">
        <ele>886</ele>
        <time>2020-09-07T16:38:51Z</time>
      </trkpt>
      <trkpt lat="43.41959" lon="2.57321">
        <ele>884</ele>
        <time>2020-09-07T16:38:55Z</time>
      </trkpt>
      <trkpt lat="43.41969" lon="2.57285">
        <ele>883</ele>
        <time>2020-09-07T16:38:59Z</time>
      </trkpt>
      <trkpt lat="43.41985" lon="2.57266">
        <ele>886</ele>
        <time>2020-09-07T16:39:03Z</time>
      </trkpt>
      <trkpt lat="43.42012" lon="2.57105">
        <ele>889</ele>
        <time>2020-09-07T16:39:25Z</time>
      </trkpt>
      <trkpt lat="43.42013" lon="2.57075">
        <ele>889</ele>
        <time>2020-09-07T16:39:28Z</time>
      </trkpt>
      <trkpt lat="43.42011" lon="2.57046">
        <ele>889</ele>
        <time>2020-09-07T16:39:32Z</time>
      </trkpt>
      <trkpt lat="43.42001" lon="2.57001">
        <ele>885</ele>
        <time>2020-09-07T16:39:38Z</time>
      </trkpt>
      <trkpt lat="43.41996" lon="2.5695">
        <ele>883</ele>
        <time>2020-09-07T16:39:45Z</time>
      </trkpt>
      <trkpt lat="43.41998" lon="2.56898">
        <ele>882</ele>
        <time>2020-09-07T16:39:52Z</time>
      </trkpt>
      <trkpt lat="43.42016" lon="2.56748">
        <ele>878</ele>
        <time>2020-09-07T16:40:11Z</time>
      </trkpt>
      <trkpt lat="43.4203" lon="2.56684">
        <ele>874</ele>
        <time>2020-09-07T16:40:20Z</time>
      </trkpt>
      <trkpt lat="43.42038" lon="2.56631">
        <ele>871</ele>
        <time>2020-09-07T16:40:27Z</time>
      </trkpt>
      <trkpt lat="43.42043" lon="2.56616">
        <ele>872</ele>
        <time>2020-09-07T16:40:29Z</time>
      </trkpt>
      <trkpt lat="43.42055" lon="2.56593">
        <ele>875</ele>
        <time>2020-09-07T16:40:33Z</time>
      </trkpt>
      <trkpt lat="43.42055" lon="2.56583">
        <ele>873</ele>
        <time>2020-09-07T16:40:34Z</time>
      </trkpt>
      <trkpt lat="43.42041" lon="2.56553">
        <ele>871</ele>
        <time>2020-09-07T16:40:39Z</time>
      </trkpt>
      <trkpt lat="43.42025" lon="2.56505">
        <ele>872</ele>
        <time>2020-09-07T16:40:46Z</time>
      </trkpt>
      <trkpt lat="43.41988" lon="2.56423">
        <ele>871</ele>
        <time>2020-09-07T16:40:58Z</time>
      </trkpt>
      <trkpt lat="43.41954" lon="2.56343">
        <ele>871</ele>
        <time>2020-09-07T16:41:10Z</time>
      </trkpt>
      <trkpt lat="43.41935" lon="2.56315">
        <ele>868</ele>
        <time>2020-09-07T16:41:15Z</time>
      </trkpt>
      <trkpt lat="43.4191" lon="2.56288">
        <ele>865</ele>
        <time>2020-09-07T16:41:21Z</time>
      </trkpt>
      <trkpt lat="43.41896" lon="2.56276">
        <ele>864</ele>
        <time>2020-09-07T16:41:24Z</time>
      </trkpt>
      <trkpt lat="43.41877" lon="2.56268">
        <ele>860</ele>
        <time>2020-09-07T16:41:27Z</time>
      </trkpt>
      <trkpt lat="43.41851" lon="2.56263">
        <ele>855</ele>
        <time>2020-09-07T16:41:32Z</time>
      </trkpt>
      <trkpt lat="43.41833" lon="2.56253">
        <ele>852</ele>
        <time>2020-09-07T16:41:35Z</time>
      </trkpt>
      <trkpt lat="43.41817" lon="2.56236">
        <ele>851</ele>
        <time>2020-09-07T16:41:39Z</time>
      </trkpt>
      <trkpt lat="43.41788" lon="2.56197">
        <ele>849</ele>
        <time>2020-09-07T16:41:46Z</time>
      </trkpt>
      <trkpt lat="43.41764" lon="2.56176">
        <ele>847</ele>
        <time>2020-09-07T16:41:51Z</time>
      </trkpt>
      <trkpt lat="43.41726" lon="2.56162">
        <ele>843</ele>
        <time>2020-09-07T16:41:58Z</time>
      </trkpt>
      <trkpt lat="43.41712" lon="2.56148">
        <ele>842</ele>
        <time>2020-09-07T16:42:01Z</time>
      </trkpt>
      <trkpt lat="43.417" lon="2.56119">
        <ele>841</ele>
        <time>2020-09-07T16:42:05Z</time>
      </trkpt>
      <trkpt lat="43.41697" lon="2.56099">
        <ele>841</ele>
        <time>2020-09-07T16:42:08Z</time>
      </trkpt>
      <trkpt lat="43.41699" lon="2.56075">
        <ele>840</ele>
        <time>2020-09-07T16:42:11Z</time>
      </trkpt>
      <trkpt lat="43.41708" lon="2.56046">
        <ele>839</ele>
        <time>2020-09-07T16:42:15Z</time>
      </trkpt>
      <trkpt lat="43.41746" lon="2.5599">
        <ele>837</ele>
        <time>2020-09-07T16:42:25Z</time>
      </trkpt>
      <trkpt lat="43.41779" lon="2.55947">
        <ele>838</ele>
        <time>2020-09-07T16:42:33Z</time>
      </trkpt>
      <trkpt lat="43.41822" lon="2.55905">
        <ele>839</ele>
        <time>2020-09-07T16:42:43Z</time>
      </trkpt>
      <trkpt lat="43.41849" lon="2.55873">
        <ele>840</ele>
        <time>2020-09-07T16:42:49Z</time>
      </trkpt>
      <trkpt lat="43.4187" lon="2.55816">
        <ele>835</ele>
        <time>2020-09-07T16:42:57Z</time>
      </trkpt>
      <trkpt lat="43.41897" lon="2.55702">
        <ele>828</ele>
        <time>2020-09-07T16:43:13Z</time>
      </trkpt>
      <trkpt lat="43.41918" lon="2.55596">
        <ele>823</ele>
        <time>2020-09-07T16:43:27Z</time>
      </trkpt>
      <trkpt lat="43.41934" lon="2.55547">
        <ele>819</ele>
        <time>2020-09-07T16:43:34Z</time>
      </trkpt>
      <trkpt lat="43.41966" lon="2.55498">
        <ele>814</ele>
        <time>2020-09-07T16:43:42Z</time>
      </trkpt>
      <trkpt lat="43.42001" lon="2.5546">
        <ele>808</ele>
        <time>2020-09-07T16:43:50Z</time>
      </trkpt>
      <trkpt lat="43.42037" lon="2.55441">
        <ele>807</ele>
        <time>2020-09-07T16:43:57Z</time>
      </trkpt>
      <trkpt lat="43.42085" lon="2.55431">
        <ele>811</ele>
        <time>2020-09-07T16:44:06Z</time>
      </trkpt>
      <trkpt lat="43.42117" lon="2.55414">
        <ele>817</ele>
        <time>2020-09-07T16:44:12Z</time>
      </trkpt>
      <trkpt lat="43.42133" lon="2.55383">
        <ele>815</ele>
        <time>2020-09-07T16:44:17Z</time>
      </trkpt>
      <trkpt lat="43.42157" lon="2.55276">
        <ele>810</ele>
        <time>2020-09-07T16:44:31Z</time>
      </trkpt>
      <trkpt lat="43.42153" lon="2.55238">
        <ele>810</ele>
        <time>2020-09-07T16:44:36Z</time>
      </trkpt>
      <trkpt lat="43.42126" lon="2.55206">
        <ele>807</ele>
        <time>2020-09-07T16:44:43Z</time>
      </trkpt>
      <trkpt lat="43.42102" lon="2.55197">
        <ele>800</ele>
        <time>2020-09-07T16:44:47Z</time>
      </trkpt>
      <trkpt lat="43.42066" lon="2.55174">
        <ele>792</ele>
        <time>2020-09-07T16:44:54Z</time>
      </trkpt>
      <trkpt lat="43.42048" lon="2.55152">
        <ele>787</ele>
        <time>2020-09-07T16:44:58Z</time>
      </trkpt>
      <trkpt lat="43.42049" lon="2.55128">
        <ele>787</ele>
        <time>2020-09-07T16:45:01Z</time>
      </trkpt>
      <trkpt lat="43.42061" lon="2.55103">
        <ele>790</ele>
        <time>2020-09-07T16:45:05Z</time>
      </trkpt>
      <trkpt lat="43.42071" lon="2.55052">
        <ele>791</ele>
        <time>2020-09-07T16:45:12Z</time>
      </trkpt>
      <trkpt lat="43.42084" lon="2.55005">
        <ele>793</ele>
        <time>2020-09-07T16:45:19Z</time>
      </trkpt>
      <trkpt lat="43.42086" lon="2.5497">
        <ele>797</ele>
        <time>2020-09-07T16:45:23Z</time>
      </trkpt>
      <trkpt lat="43.42075" lon="2.54941">
        <ele>795</ele>
        <time>2020-09-07T16:45:27Z</time>
      </trkpt>
      <trkpt lat="43.42051" lon="2.54928">
        <ele>788</ele>
        <time>2020-09-07T16:45:32Z</time>
      </trkpt>
      <trkpt lat="43.42025" lon="2.54927">
        <ele>778</ele>
        <time>2020-09-07T16:45:37Z</time>
      </trkpt>
      <trkpt lat="43.42008" lon="2.54921">
        <ele>772</ele>
        <time>2020-09-07T16:45:40Z</time>
      </trkpt>
      <trkpt lat="43.41997" lon="2.54909">
        <ele>769</ele>
        <time>2020-09-07T16:45:42Z</time>
      </trkpt>
      <trkpt lat="43.41986" lon="2.54882">
        <ele>766</ele>
        <time>2020-09-07T16:45:46Z</time>
      </trkpt>
      <trkpt lat="43.41983" lon="2.54853">
        <ele>766</ele>
        <time>2020-09-07T16:45:50Z</time>
      </trkpt>
      <trkpt lat="43.41984" lon="2.54828">
        <ele>767</ele>
        <time>2020-09-07T16:45:53Z</time>
      </trkpt>
      <trkpt lat="43.41988" lon="2.54803">
        <ele>767</ele>
        <time>2020-09-07T16:45:57Z</time>
      </trkpt>
      <trkpt lat="43.42007" lon="2.54755">
        <ele>772</ele>
        <time>2020-09-07T16:46:04Z</time>
      </trkpt>
      <trkpt lat="43.42028" lon="2.54689">
        <ele>773</ele>
        <time>2020-09-07T16:46:13Z</time>
      </trkpt>
      <trkpt lat="43.42033" lon="2.54651">
        <ele>776</ele>
        <time>2020-09-07T16:46:18Z</time>
      </trkpt>
      <trkpt lat="43.42034" lon="2.54622">
        <ele>782</ele>
        <time>2020-09-07T16:46:22Z</time>
      </trkpt>
      <trkpt lat="43.42028" lon="2.546">
        <ele>784</ele>
        <time>2020-09-07T16:46:25Z</time>
      </trkpt>
      <trkpt lat="43.42013" lon="2.54591">
        <ele>780</ele>
        <time>2020-09-07T16:46:28Z</time>
      </trkpt>
      <trkpt lat="43.41963" lon="2.54589">
        <ele>765</ele>
        <time>2020-09-07T16:46:37Z</time>
      </trkpt>
      <trkpt lat="43.41938" lon="2.54585">
        <ele>759</ele>
        <time>2020-09-07T16:46:41Z</time>
      </trkpt>
      <trkpt lat="43.41908" lon="2.54572">
        <ele>755</ele>
        <time>2020-09-07T16:46:47Z</time>
      </trkpt>
      <trkpt lat="43.41876" lon="2.54547">
        <ele>752</ele>
        <time>2020-09-07T16:46:53Z</time>
      </trkpt>
      <trkpt lat="43.41855" lon="2.54517">
        <ele>752</ele>
        <time>2020-09-07T16:46:59Z</time>
      </trkpt>
      <trkpt lat="43.41847" lon="2.54497">
        <ele>752</ele>
        <time>2020-09-07T16:47:02Z</time>
      </trkpt>
      <trkpt lat="43.41843" lon="2.54475">
        <ele>750</ele>
        <time>2020-09-07T16:47:04Z</time>
      </trkpt>
      <trkpt lat="43.41844" lon="2.54448">
        <ele>749</ele>
        <time>2020-09-07T16:47:08Z</time>
      </trkpt>
      <trkpt lat="43.41847" lon="2.54436">
        <ele>749</ele>
        <time>2020-09-07T16:47:10Z</time>
      </trkpt>
      <trkpt lat="43.41858" lon="2.54403">
        <ele>748</ele>
        <time>2020-09-07T16:47:14Z</time>
      </trkpt>
      <trkpt lat="43.41913" lon="2.54324">
        <ele>741</ele>
        <time>2020-09-07T16:47:28Z</time>
      </trkpt>
      <trkpt lat="43.41923" lon="2.54314">
        <ele>740</ele>
        <time>2020-09-07T16:47:31Z</time>
      </trkpt>
      <trkpt lat="43.41946" lon="2.54297">
        <ele>739</ele>
        <time>2020-09-07T16:47:35Z</time>
      </trkpt>
      <trkpt lat="43.42035" lon="2.54248">
        <ele>747</ele>
        <time>2020-09-07T16:47:52Z</time>
      </trkpt>
      <trkpt lat="43.42041" lon="2.54241">
        <ele>749</ele>
        <time>2020-09-07T16:47:54Z</time>
      </trkpt>
      <trkpt lat="43.42048" lon="2.54224">
        <ele>750</ele>
        <time>2020-09-07T16:47:56Z</time>
      </trkpt>
      <trkpt lat="43.42048" lon="2.54204">
        <ele>748</ele>
        <time>2020-09-07T16:47:59Z</time>
      </trkpt>
      <trkpt lat="43.42047" lon="2.54195">
        <ele>747</ele>
        <time>2020-09-07T16:48:00Z</time>
      </trkpt>
      <trkpt lat="43.42042" lon="2.5418">
        <ele>743</ele>
        <time>2020-09-07T16:48:02Z</time>
      </trkpt>
      <trkpt lat="43.42006" lon="2.54138">
        <ele>733</ele>
        <time>2020-09-07T16:48:11Z</time>
      </trkpt>
      <trkpt lat="43.41969" lon="2.54068">
        <ele>733</ele>
        <time>2020-09-07T16:48:22Z</time>
      </trkpt>
      <trkpt lat="43.41963" lon="2.54045">
        <ele>734</ele>
        <time>2020-09-07T16:48:25Z</time>
      </trkpt>
      <trkpt lat="43.41962" lon="2.54006">
        <ele>738</ele>
        <time>2020-09-07T16:48:30Z</time>
      </trkpt>
      <trkpt lat="43.41961" lon="2.53998">
        <ele>739</ele>
        <time>2020-09-07T16:48:31Z</time>
      </trkpt>
      <trkpt lat="43.41955" lon="2.53983">
        <ele>739</ele>
        <time>2020-09-07T16:48:33Z</time>
      </trkpt>
      <trkpt lat="43.41949" lon="2.53976">
        <ele>739</ele>
        <time>2020-09-07T16:48:35Z</time>
      </trkpt>
      <trkpt lat="43.41935" lon="2.53972">
        <ele>736</ele>
        <time>2020-09-07T16:48:37Z</time>
      </trkpt>
      <trkpt lat="43.41927" lon="2.53974">
        <ele>733</ele>
        <time>2020-09-07T16:48:39Z</time>
      </trkpt>
      <trkpt lat="43.4192" lon="2.53977">
        <ele>731</ele>
        <time>2020-09-07T16:48:40Z</time>
      </trkpt>
      <trkpt lat="43.41894" lon="2.54">
        <ele>723</ele>
        <time>2020-09-07T16:48:45Z</time>
      </trkpt>
      <trkpt lat="43.41865" lon="2.54014">
        <ele>719</ele>
        <time>2020-09-07T16:48:51Z</time>
      </trkpt>
      <trkpt lat="43.41841" lon="2.5402">
        <ele>715</ele>
        <time>2020-09-07T16:48:55Z</time>
      </trkpt>
      <trkpt lat="43.41823" lon="2.54021">
        <ele>713</ele>
        <time>2020-09-07T16:48:58Z</time>
      </trkpt>
      <trkpt lat="43.4181" lon="2.54019">
        <ele>712</ele>
        <time>2020-09-07T16:49:01Z</time>
      </trkpt>
      <trkpt lat="43.4179" lon="2.54013">
        <ele>711</ele>
        <time>2020-09-07T16:49:04Z</time>
      </trkpt>
      <trkpt lat="43.41779" lon="2.54007">
        <ele>712</ele>
        <time>2020-09-07T16:49:06Z</time>
      </trkpt>
      <trkpt lat="43.41701" lon="2.53955">
        <ele>714</ele>
        <time>2020-09-07T16:49:22Z</time>
      </trkpt>
      <trkpt lat="43.41683" lon="2.53948">
        <ele>712</ele>
        <time>2020-09-07T16:49:25Z</time>
      </trkpt>
      <trkpt lat="43.41632" lon="2.53941">
        <ele>704</ele>
        <time>2020-09-07T16:49:34Z</time>
      </trkpt>
      <trkpt lat="43.41622" lon="2.53937">
        <ele>703</ele>
        <time>2020-09-07T16:49:36Z</time>
      </trkpt>
      <trkpt lat="43.41574" lon="2.53901">
        <ele>703</ele>
        <time>2020-09-07T16:49:46Z</time>
      </trkpt>
      <trkpt lat="43.41538" lon="2.53884">
        <ele>697</ele>
        <time>2020-09-07T16:49:53Z</time>
      </trkpt>
      <trkpt lat="43.41525" lon="2.53874">
        <ele>694</ele>
        <time>2020-09-07T16:49:55Z</time>
      </trkpt>
      <trkpt lat="43.41515" lon="2.53853">
        <ele>694</ele>
        <time>2020-09-07T16:49:59Z</time>
      </trkpt>
      <trkpt lat="43.41511" lon="2.5383">
        <ele>695</ele>
        <time>2020-09-07T16:50:02Z</time>
      </trkpt>
      <trkpt lat="43.41531" lon="2.53685">
        <ele>700</ele>
        <time>2020-09-07T16:50:21Z</time>
      </trkpt>
      <trkpt lat="43.4153" lon="2.53676">
        <ele>700</ele>
        <time>2020-09-07T16:50:22Z</time>
      </trkpt>
      <trkpt lat="43.41517" lon="2.53632">
        <ele>691</ele>
        <time>2020-09-07T16:50:28Z</time>
      </trkpt>
      <trkpt lat="43.41515" lon="2.5362">
        <ele>689</ele>
        <time>2020-09-07T16:50:30Z</time>
      </trkpt>
      <trkpt lat="43.41515" lon="2.53595">
        <ele>688</ele>
        <time>2020-09-07T16:50:33Z</time>
      </trkpt>
      <trkpt lat="43.41528" lon="2.53484">
        <ele>692</ele>
        <time>2020-09-07T16:50:47Z</time>
      </trkpt>
      <trkpt lat="43.41531" lon="2.53468">
        <ele>694</ele>
        <time>2020-09-07T16:50:50Z</time>
      </trkpt>
      <trkpt lat="43.41542" lon="2.53428">
        <ele>698</ele>
        <time>2020-09-07T16:50:55Z</time>
      </trkpt>
      <trkpt lat="43.41543" lon="2.53416">
        <ele>698</ele>
        <time>2020-09-07T16:50:57Z</time>
      </trkpt>
      <trkpt lat="43.41542" lon="2.53407">
        <ele>699</ele>
        <time>2020-09-07T16:50:58Z</time>
      </trkpt>
      <trkpt lat="43.41535" lon="2.53393">
        <ele>700</ele>
        <time>2020-09-07T16:51:00Z</time>
      </trkpt>
      <trkpt lat="43.41529" lon="2.53388">
        <ele>700</ele>
        <time>2020-09-07T16:51:01Z</time>
      </trkpt>
      <trkpt lat="43.41523" lon="2.53386">
        <ele>700</ele>
        <time>2020-09-07T16:51:02Z</time>
      </trkpt>
      <trkpt lat="43.41515" lon="2.53387">
        <ele>699</ele>
        <time>2020-09-07T16:51:04Z</time>
      </trkpt>
      <trkpt lat="43.41455" lon="2.53445">
        <ele>691</ele>
        <time>2020-09-07T16:51:17Z</time>
      </trkpt>
      <trkpt lat="43.41418" lon="2.535">
        <ele>680</ele>
        <time>2020-09-07T16:51:27Z</time>
      </trkpt>
      <trkpt lat="43.4135" lon="2.53589">
        <ele>675</ele>
        <time>2020-09-07T16:51:43Z</time>
      </trkpt>
      <trkpt lat="43.41328" lon="2.53632">
        <ele>670</ele>
        <time>2020-09-07T16:51:50Z</time>
      </trkpt>
      <trkpt lat="43.41302" lon="2.53692">
        <ele>663</ele>
        <time>2020-09-07T16:51:59Z</time>
      </trkpt>
      <trkpt lat="43.41289" lon="2.53717">
        <ele>661</ele>
        <time>2020-09-07T16:52:03Z</time>
      </trkpt>
      <trkpt lat="43.41272" lon="2.53741">
        <ele>660</ele>
        <time>2020-09-07T16:52:07Z</time>
      </trkpt>
      <trkpt lat="43.4125" lon="2.53763">
        <ele>658</ele>
        <time>2020-09-07T16:52:12Z</time>
      </trkpt>
      <trkpt lat="43.41179" lon="2.53816">
        <ele>657</ele>
        <time>2020-09-07T16:52:27Z</time>
      </trkpt>
      <trkpt lat="43.41106" lon="2.53876">
        <ele>648</ele>
        <time>2020-09-07T16:52:42Z</time>
      </trkpt>
      <trkpt lat="43.41093" lon="2.53882">
        <ele>648</ele>
        <time>2020-09-07T16:52:44Z</time>
      </trkpt>
      <trkpt lat="43.41059" lon="2.53892">
        <ele>642</ele>
        <time>2020-09-07T16:52:50Z</time>
      </trkpt>
      <trkpt lat="43.41039" lon="2.53894">
        <ele>640</ele>
        <time>2020-09-07T16:52:54Z</time>
      </trkpt>
      <trkpt lat="43.41028" lon="2.53893">
        <ele>639</ele>
        <time>2020-09-07T16:52:56Z</time>
      </trkpt>
      <trkpt lat="43.4101" lon="2.53885">
        <ele>639</ele>
        <time>2020-09-07T16:52:59Z</time>
      </trkpt>
      <trkpt lat="43.40996" lon="2.53874">
        <ele>640</ele>
        <time>2020-09-07T16:53:02Z</time>
      </trkpt>
      <trkpt lat="43.40919" lon="2.53783">
        <ele>639</ele>
        <time>2020-09-07T16:53:20Z</time>
      </trkpt>
      <trkpt lat="43.40903" lon="2.5377">
        <ele>639</ele>
        <time>2020-09-07T16:53:23Z</time>
      </trkpt>
      <trkpt lat="43.40896" lon="2.53767">
        <ele>638</ele>
        <time>2020-09-07T16:53:25Z</time>
      </trkpt>
      <trkpt lat="43.4079" lon="2.53735">
        <ele>626</ele>
        <time>2020-09-07T16:53:44Z</time>
      </trkpt>
      <trkpt lat="43.40778" lon="2.53729">
        <ele>625</ele>
        <time>2020-09-07T16:53:46Z</time>
      </trkpt>
      <trkpt lat="43.4077" lon="2.53721">
        <ele>625</ele>
        <time>2020-09-07T16:53:48Z</time>
      </trkpt>
      <trkpt lat="43.40761" lon="2.53708">
        <ele>625</ele>
        <time>2020-09-07T16:53:50Z</time>
      </trkpt>
      <trkpt lat="43.40724" lon="2.53623">
        <ele>620</ele>
        <time>2020-09-07T16:54:03Z</time>
      </trkpt>
      <trkpt lat="43.40718" lon="2.53593">
        <ele>618</ele>
        <time>2020-09-07T16:54:07Z</time>
      </trkpt>
      <trkpt lat="43.40719" lon="2.53576">
        <ele>617</ele>
        <time>2020-09-07T16:54:09Z</time>
      </trkpt>
      <trkpt lat="43.40723" lon="2.53549">
        <ele>615</ele>
        <time>2020-09-07T16:54:13Z</time>
      </trkpt>
      <trkpt lat="43.40727" lon="2.53531">
        <ele>614</ele>
        <time>2020-09-07T16:54:15Z</time>
      </trkpt>
      <trkpt lat="43.4074" lon="2.53495">
        <ele>614</ele>
        <time>2020-09-07T16:54:21Z</time>
      </trkpt>
      <trkpt lat="43.40756" lon="2.53451">
        <ele>612</ele>
        <time>2020-09-07T16:54:27Z</time>
      </trkpt>
      <trkpt lat="43.40781" lon="2.53395">
        <ele>612</ele>
        <time>2020-09-07T16:54:35Z</time>
      </trkpt>
      <trkpt lat="43.40787" lon="2.53387">
        <ele>612</ele>
        <time>2020-09-07T16:54:37Z</time>
      </trkpt>
      <trkpt lat="43.40807" lon="2.5337">
        <ele>616</ele>
        <time>2020-09-07T16:54:41Z</time>
      </trkpt>
      <trkpt lat="43.40814" lon="2.53361">
        <ele>617</ele>
        <time>2020-09-07T16:54:43Z</time>
      </trkpt>
      <trkpt lat="43.40821" lon="2.53344">
        <ele>617</ele>
        <time>2020-09-07T16:54:45Z</time>
      </trkpt>
      <trkpt lat="43.40823" lon="2.53328">
        <ele>615</ele>
        <time>2020-09-07T16:54:47Z</time>
      </trkpt>
      <trkpt lat="43.40819" lon="2.53315">
        <ele>612</ele>
        <time>2020-09-07T16:54:49Z</time>
      </trkpt>
      <trkpt lat="43.40811" lon="2.53304">
        <ele>608</ele>
        <time>2020-09-07T16:54:51Z</time>
      </trkpt>
      <trkpt lat="43.40799" lon="2.533">
        <ele>605</ele>
        <time>2020-09-07T16:54:54Z</time>
      </trkpt>
      <trkpt lat="43.40788" lon="2.53301">
        <ele>602</ele>
        <time>2020-09-07T16:54:55Z</time>
      </trkpt>
      <trkpt lat="43.40778" lon="2.53307">
        <ele>601</ele>
        <time>2020-09-07T16:54:57Z</time>
      </trkpt>
      <trkpt lat="43.4077" lon="2.53318">
        <ele>600</ele>
        <time>2020-09-07T16:54:59Z</time>
      </trkpt>
      <trkpt lat="43.40726" lon="2.53428">
        <ele>599</ele>
        <time>2020-09-07T16:55:16Z</time>
      </trkpt>
      <trkpt lat="43.40644" lon="2.53569">
        <ele>593</ele>
        <time>2020-09-07T16:55:39Z</time>
      </trkpt>
      <trkpt lat="43.40638" lon="2.53584">
        <ele>593</ele>
        <time>2020-09-07T16:55:41Z</time>
      </trkpt>
      <trkpt lat="43.40634" lon="2.53608">
        <ele>593</ele>
        <time>2020-09-07T16:55:44Z</time>
      </trkpt>
      <trkpt lat="43.40631" lon="2.5364">
        <ele>593</ele>
        <time>2020-09-07T16:55:49Z</time>
      </trkpt>
      <trkpt lat="43.40633" lon="2.53674">
        <ele>594</ele>
        <time>2020-09-07T16:55:53Z</time>
      </trkpt>
      <trkpt lat="43.40684" lon="2.53881">
        <ele>574</ele>
        <time>2020-09-07T16:56:21Z</time>
      </trkpt>
      <trkpt lat="43.40693" lon="2.53892">
        <ele>573</ele>
        <time>2020-09-07T16:56:23Z</time>
      </trkpt>
      <trkpt lat="43.40702" lon="2.53895">
        <ele>574</ele>
        <time>2020-09-07T16:56:25Z</time>
      </trkpt>
      <trkpt lat="43.40711" lon="2.53894">
        <ele>575</ele>
        <time>2020-09-07T16:56:27Z</time>
      </trkpt>
      <trkpt lat="43.40749" lon="2.5387">
        <ele>584</ele>
        <time>2020-09-07T16:56:34Z</time>
      </trkpt>
      <trkpt lat="43.40761" lon="2.53867">
        <ele>586</ele>
        <time>2020-09-07T16:56:36Z</time>
      </trkpt>
      <trkpt lat="43.40769" lon="2.53868">
        <ele>586</ele>
        <time>2020-09-07T16:56:38Z</time>
      </trkpt>
      <trkpt lat="43.40777" lon="2.53875">
        <ele>585</ele>
        <time>2020-09-07T16:56:39Z</time>
      </trkpt>
      <trkpt lat="43.40783" lon="2.53886">
        <ele>583</ele>
        <time>2020-09-07T16:56:41Z</time>
      </trkpt>
      <trkpt lat="43.40794" lon="2.53917">
        <ele>576</ele>
        <time>2020-09-07T16:56:46Z</time>
      </trkpt>
      <trkpt lat="43.40799" lon="2.53925">
        <ele>575</ele>
        <time>2020-09-07T16:56:47Z</time>
      </trkpt>
      <trkpt lat="43.40806" lon="2.5393">
        <ele>574</ele>
        <time>2020-09-07T16:56:48Z</time>
      </trkpt>
      <trkpt lat="43.40816" lon="2.53932">
        <ele>575</ele>
        <time>2020-09-07T16:56:50Z</time>
      </trkpt>
      <trkpt lat="43.40841" lon="2.53935">
        <ele>578</ele>
        <time>2020-09-07T16:56:55Z</time>
      </trkpt>
      <trkpt lat="43.40852" lon="2.53943">
        <ele>580</ele>
        <time>2020-09-07T16:56:57Z</time>
      </trkpt>
      <trkpt lat="43.40858" lon="2.53954">
        <ele>581</ele>
        <time>2020-09-07T16:56:59Z</time>
      </trkpt>
      <trkpt lat="43.40861" lon="2.53968">
        <ele>579</ele>
        <time>2020-09-07T16:57:01Z</time>
      </trkpt>
      <trkpt lat="43.40856" lon="2.54029">
        <ele>567</ele>
        <time>2020-09-07T16:57:08Z</time>
      </trkpt>
      <trkpt lat="43.40857" lon="2.54045">
        <ele>565</ele>
        <time>2020-09-07T16:57:11Z</time>
      </trkpt>
      <trkpt lat="43.40861" lon="2.54065">
        <ele>562</ele>
        <time>2020-09-07T16:57:13Z</time>
      </trkpt>
      <trkpt lat="43.40868" lon="2.54084">
        <ele>560</ele>
        <time>2020-09-07T16:57:16Z</time>
      </trkpt>
      <trkpt lat="43.40877" lon="2.54097">
        <ele>560</ele>
        <time>2020-09-07T16:57:18Z</time>
      </trkpt>
      <trkpt lat="43.4092" lon="2.54139">
        <ele>563</ele>
        <time>2020-09-07T16:57:28Z</time>
      </trkpt>
      <trkpt lat="43.40924" lon="2.54148">
        <ele>561</ele>
        <time>2020-09-07T16:57:29Z</time>
      </trkpt>
      <trkpt lat="43.40924" lon="2.5416">
        <ele>558</ele>
        <time>2020-09-07T16:57:31Z</time>
      </trkpt>
      <trkpt lat="43.40921" lon="2.54171">
        <ele>556</ele>
        <time>2020-09-07T16:57:32Z</time>
      </trkpt>
      <trkpt lat="43.40914" lon="2.5418">
        <ele>552</ele>
        <time>2020-09-07T16:57:34Z</time>
      </trkpt>
      <trkpt lat="43.40905" lon="2.54183">
        <ele>549</ele>
        <time>2020-09-07T16:57:35Z</time>
      </trkpt>
      <trkpt lat="43.40895" lon="2.5418">
        <ele>548</ele>
        <time>2020-09-07T16:57:37Z</time>
      </trkpt>
      <trkpt lat="43.40887" lon="2.54173">
        <ele>547</ele>
        <time>2020-09-07T16:57:39Z</time>
      </trkpt>
      <trkpt lat="43.40882" lon="2.5416">
        <ele>549</ele>
        <time>2020-09-07T16:57:41Z</time>
      </trkpt>
      <trkpt lat="43.40875" lon="2.54134">
        <ele>552</ele>
        <time>2020-09-07T16:57:44Z</time>
      </trkpt>
      <trkpt lat="43.4087" lon="2.54123">
        <ele>553</ele>
        <time>2020-09-07T16:57:46Z</time>
      </trkpt>
      <trkpt lat="43.40851" lon="2.54096">
        <ele>553</ele>
        <time>2020-09-07T16:57:51Z</time>
      </trkpt>
      <trkpt lat="43.40847" lon="2.54088">
        <ele>553</ele>
        <time>2020-09-07T16:57:52Z</time>
      </trkpt>
      <trkpt lat="43.40841" lon="2.54042">
        <ele>560</ele>
        <time>2020-09-07T16:57:58Z</time>
      </trkpt>
      <trkpt lat="43.40836" lon="2.54029">
        <ele>561</ele>
        <time>2020-09-07T16:58:00Z</time>
      </trkpt>
      <trkpt lat="43.40826" lon="2.54016">
        <ele>562</ele>
        <time>2020-09-07T16:58:03Z</time>
      </trkpt>
      <trkpt lat="43.40818" lon="2.54014">
        <ele>561</ele>
        <time>2020-09-07T16:58:04Z</time>
      </trkpt>
      <trkpt lat="43.40808" lon="2.54014">
        <ele>560</ele>
        <time>2020-09-07T16:58:06Z</time>
      </trkpt>
      <trkpt lat="43.40793" lon="2.54022">
        <ele>556</ele>
        <time>2020-09-07T16:58:09Z</time>
      </trkpt>
      <trkpt lat="43.40785" lon="2.54022">
        <ele>555</ele>
        <time>2020-09-07T16:58:10Z</time>
      </trkpt>
      <trkpt lat="43.40777" lon="2.5402">
        <ele>554</ele>
        <time>2020-09-07T16:58:12Z</time>
      </trkpt>
      <trkpt lat="43.40766" lon="2.54014">
        <ele>554</ele>
        <time>2020-09-07T16:58:14Z</time>
      </trkpt>
      <trkpt lat="43.40748" lon="2.53998">
        <ele>555</ele>
        <time>2020-09-07T16:58:17Z</time>
      </trkpt>
      <trkpt lat="43.40739" lon="2.53995">
        <ele>556</ele>
        <time>2020-09-07T16:58:19Z</time>
      </trkpt>
      <trkpt lat="43.40729" lon="2.53997">
        <ele>556</ele>
        <time>2020-09-07T16:58:21Z</time>
      </trkpt>
      <trkpt lat="43.40692" lon="2.5402">
        <ele>549</ele>
        <time>2020-09-07T16:58:28Z</time>
      </trkpt>
      <trkpt lat="43.40672" lon="2.54029">
        <ele>546</ele>
        <time>2020-09-07T16:58:32Z</time>
      </trkpt>
      <trkpt lat="43.40645" lon="2.54036">
        <ele>543</ele>
        <time>2020-09-07T16:58:37Z</time>
      </trkpt>
      <trkpt lat="43.4056" lon="2.54038">
        <ele>533</ele>
        <time>2020-09-07T16:58:52Z</time>
      </trkpt>
      <trkpt lat="43.40549" lon="2.5403">
        <ele>531</ele>
        <time>2020-09-07T16:58:54Z</time>
      </trkpt>
      <trkpt lat="43.40544" lon="2.5402">
        <ele>530</ele>
        <time>2020-09-07T16:58:56Z</time>
      </trkpt>
      <trkpt lat="43.4054" lon="2.54004">
        <ele>529</ele>
        <time>2020-09-07T16:58:58Z</time>
      </trkpt>
      <trkpt lat="43.4054" lon="2.53992">
        <ele>529</ele>
        <time>2020-09-07T16:58:59Z</time>
      </trkpt>
      <trkpt lat="43.40542" lon="2.53981">
        <ele>529</ele>
        <time>2020-09-07T16:59:01Z</time>
      </trkpt>
      <trkpt lat="43.40575" lon="2.53874">
        <ele>539</ele>
        <time>2020-09-07T16:59:16Z</time>
      </trkpt>
      <trkpt lat="43.40578" lon="2.53859">
        <ele>541</ele>
        <time>2020-09-07T16:59:18Z</time>
      </trkpt>
      <trkpt lat="43.40578" lon="2.53845">
        <ele>541</ele>
        <time>2020-09-07T16:59:20Z</time>
      </trkpt>
      <trkpt lat="43.40575" lon="2.53831">
        <ele>541</ele>
        <time>2020-09-07T16:59:22Z</time>
      </trkpt>
      <trkpt lat="43.40569" lon="2.53823">
        <ele>541</ele>
        <time>2020-09-07T16:59:23Z</time>
      </trkpt>
      <trkpt lat="43.40553" lon="2.5381">
        <ele>538</ele>
        <time>2020-09-07T16:59:26Z</time>
      </trkpt>
      <trkpt lat="43.40534" lon="2.53802">
        <ele>534</ele>
        <time>2020-09-07T16:59:30Z</time>
      </trkpt>
      <trkpt lat="43.40517" lon="2.53775">
        <ele>535</ele>
        <time>2020-09-07T16:59:35Z</time>
      </trkpt>
      <trkpt lat="43.4051" lon="2.53769">
        <ele>534</ele>
        <time>2020-09-07T16:59:36Z</time>
      </trkpt>
      <trkpt lat="43.40501" lon="2.5377">
        <ele>531</ele>
        <time>2020-09-07T16:59:38Z</time>
      </trkpt>
      <trkpt lat="43.40483" lon="2.53777">
        <ele>525</ele>
        <time>2020-09-07T16:59:41Z</time>
      </trkpt>
      <trkpt lat="43.40451" lon="2.53776">
        <ele>519</ele>
        <time>2020-09-07T16:59:47Z</time>
      </trkpt>
      <trkpt lat="43.40438" lon="2.5377">
        <ele>517</ele>
        <time>2020-09-07T16:59:49Z</time>
      </trkpt>
      <trkpt lat="43.40428" lon="2.53756">
        <ele>518</ele>
        <time>2020-09-07T16:59:52Z</time>
      </trkpt>
      <trkpt lat="43.4041" lon="2.53715">
        <ele>522</ele>
        <time>2020-09-07T16:59:58Z</time>
      </trkpt>
      <trkpt lat="43.40401" lon="2.53709">
        <ele>522</ele>
        <time>2020-09-07T17:00:00Z</time>
      </trkpt>
      <trkpt lat="43.40391" lon="2.53705">
        <ele>520</ele>
        <time>2020-09-07T17:00:01Z</time>
      </trkpt>
      <trkpt lat="43.40344" lon="2.53706">
        <ele>509</ele>
        <time>2020-09-07T17:00:10Z</time>
      </trkpt>
      <trkpt lat="43.40328" lon="2.53701">
        <ele>506</ele>
        <time>2020-09-07T17:00:13Z</time>
      </trkpt>
      <trkpt lat="43.40321" lon="2.53695">
        <ele>505</ele>
        <time>2020-09-07T17:00:14Z</time>
      </trkpt>
      <trkpt lat="43.40313" lon="2.53683">
        <ele>506</ele>
        <time>2020-09-07T17:00:16Z</time>
      </trkpt>
      <trkpt lat="43.40309" lon="2.53668">
        <ele>507</ele>
        <time>2020-09-07T17:00:18Z</time>
      </trkpt>
      <trkpt lat="43.40307" lon="2.53653">
        <ele>505</ele>
        <time>2020-09-07T17:00:20Z</time>
      </trkpt>
      <trkpt lat="43.40308" lon="2.53641">
        <ele>504</ele>
        <time>2020-09-07T17:00:22Z</time>
      </trkpt>
      <trkpt lat="43.40313" lon="2.53622">
        <ele>503</ele>
        <time>2020-09-07T17:00:25Z</time>
      </trkpt>
      <trkpt lat="43.40357" lon="2.53552">
        <ele>510</ele>
        <time>2020-09-07T17:00:37Z</time>
      </trkpt>
      <trkpt lat="43.40361" lon="2.53539">
        <ele>509</ele>
        <time>2020-09-07T17:00:38Z</time>
      </trkpt>
      <trkpt lat="43.40362" lon="2.53522">
        <ele>507</ele>
        <time>2020-09-07T17:00:41Z</time>
      </trkpt>
      <trkpt lat="43.40363" lon="2.53457">
        <ele>500</ele>
        <time>2020-09-07T17:00:49Z</time>
      </trkpt>
      <trkpt lat="43.40368" lon="2.53426">
        <ele>498</ele>
        <time>2020-09-07T17:00:53Z</time>
      </trkpt>
      <trkpt lat="43.40379" lon="2.534">
        <ele>499</ele>
        <time>2020-09-07T17:00:57Z</time>
      </trkpt>
      <trkpt lat="43.40387" lon="2.5339">
        <ele>501</ele>
        <time>2020-09-07T17:00:59Z</time>
      </trkpt>
      <trkpt lat="43.40403" lon="2.53377">
        <ele>503</ele>
        <time>2020-09-07T17:01:02Z</time>
      </trkpt>
      <trkpt lat="43.40411" lon="2.53373">
        <ele>503</ele>
        <time>2020-09-07T17:01:04Z</time>
      </trkpt>
      <trkpt lat="43.40446" lon="2.5337">
        <ele>509</ele>
        <time>2020-09-07T17:01:10Z</time>
      </trkpt>
      <trkpt lat="43.40452" lon="2.53367">
        <ele>510</ele>
        <time>2020-09-07T17:01:11Z</time>
      </trkpt>
      <trkpt lat="43.40457" lon="2.53363">
        <ele>511</ele>
        <time>2020-09-07T17:01:12Z</time>
      </trkpt>
      <trkpt lat="43.40463" lon="2.53356">
        <ele>511</ele>
        <time>2020-09-07T17:01:13Z</time>
      </trkpt>
      <trkpt lat="43.40469" lon="2.53336">
        <ele>511</ele>
        <time>2020-09-07T17:01:16Z</time>
      </trkpt>
      <trkpt lat="43.40469" lon="2.53326">
        <ele>513</ele>
        <time>2020-09-07T17:01:18Z</time>
      </trkpt>
      <trkpt lat="43.40467" lon="2.53316">
        <ele>516</ele>
        <time>2020-09-07T17:01:19Z</time>
      </trkpt>
      <trkpt lat="43.40462" lon="2.53306">
        <ele>518</ele>
        <time>2020-09-07T17:01:20Z</time>
      </trkpt>
      <trkpt lat="43.40448" lon="2.53294">
        <ele>518</ele>
        <time>2020-09-07T17:01:23Z</time>
      </trkpt>
      <trkpt lat="43.4043" lon="2.53292">
        <ele>515</ele>
        <time>2020-09-07T17:01:27Z</time>
      </trkpt>
      <trkpt lat="43.40413" lon="2.53295">
        <ele>511</ele>
        <time>2020-09-07T17:01:30Z</time>
      </trkpt>
      <trkpt lat="43.40395" lon="2.53305">
        <ele>506</ele>
        <time>2020-09-07T17:01:33Z</time>
      </trkpt>
      <trkpt lat="43.40332" lon="2.53348">
        <ele>493</ele>
        <time>2020-09-07T17:01:46Z</time>
      </trkpt>
      <trkpt lat="43.40316" lon="2.53353">
        <ele>491</ele>
        <time>2020-09-07T17:01:49Z</time>
      </trkpt>
      <trkpt lat="43.40306" lon="2.53352">
        <ele>490</ele>
        <time>2020-09-07T17:01:50Z</time>
      </trkpt>
      <trkpt lat="43.403" lon="2.53349">
        <ele>490</ele>
        <time>2020-09-07T17:01:51Z</time>
      </trkpt>
      <trkpt lat="43.40293" lon="2.53342">
        <ele>490</ele>
        <time>2020-09-07T17:01:53Z</time>
      </trkpt>
      <trkpt lat="43.40289" lon="2.53331">
        <ele>491</ele>
        <time>2020-09-07T17:01:55Z</time>
      </trkpt>
      <trkpt lat="43.40287" lon="2.53317">
        <ele>493</ele>
        <time>2020-09-07T17:01:56Z</time>
      </trkpt>
      <trkpt lat="43.40284" lon="2.53279">
        <ele>498</ele>
        <time>2020-09-07T17:02:01Z</time>
      </trkpt>
      <trkpt lat="43.40281" lon="2.53267">
        <ele>499</ele>
        <time>2020-09-07T17:02:03Z</time>
      </trkpt>
      <trkpt lat="43.40275" lon="2.53258">
        <ele>499</ele>
        <time>2020-09-07T17:02:05Z</time>
      </trkpt>
      <trkpt lat="43.40265" lon="2.53254">
        <ele>499</ele>
        <time>2020-09-07T17:02:06Z</time>
      </trkpt>
      <trkpt lat="43.40258" lon="2.53254">
        <ele>498</ele>
        <time>2020-09-07T17:02:08Z</time>
      </trkpt>
      <trkpt lat="43.4025" lon="2.5326">
        <ele>496</ele>
        <time>2020-09-07T17:02:09Z</time>
      </trkpt>
      <trkpt lat="43.40247" lon="2.53265">
        <ele>497</ele>
        <time>2020-09-07T17:02:10Z</time>
      </trkpt>
      <trkpt lat="43.40244" lon="2.53274">
        <ele>497</ele>
        <time>2020-09-07T17:02:11Z</time>
      </trkpt>
      <trkpt lat="43.40242" lon="2.53319">
        <ele>493</ele>
        <time>2020-09-07T17:02:17Z</time>
      </trkpt>
      <trkpt lat="43.40218" lon="2.53528">
        <ele>482</ele>
        <time>2020-09-07T17:02:45Z</time>
      </trkpt>
      <trkpt lat="43.40214" lon="2.53543">
        <ele>481</ele>
        <time>2020-09-07T17:02:47Z</time>
      </trkpt>
      <trkpt lat="43.40208" lon="2.53555">
        <ele>480</ele>
        <time>2020-09-07T17:02:49Z</time>
      </trkpt>
      <trkpt lat="43.40199" lon="2.53564">
        <ele>479</ele>
        <time>2020-09-07T17:02:51Z</time>
      </trkpt>
      <trkpt lat="43.40186" lon="2.53569">
        <ele>479</ele>
        <time>2020-09-07T17:02:53Z</time>
      </trkpt>
      <trkpt lat="43.40129" lon="2.53565">
        <ele>488</ele>
        <time>2020-09-07T17:03:03Z</time>
      </trkpt>
      <trkpt lat="43.40119" lon="2.53568">
        <ele>489</ele>
        <time>2020-09-07T17:03:05Z</time>
      </trkpt>
      <trkpt lat="43.4011" lon="2.53574">
        <ele>488</ele>
        <time>2020-09-07T17:03:07Z</time>
      </trkpt>
      <trkpt lat="43.40103" lon="2.53581">
        <ele>487</ele>
        <time>2020-09-07T17:03:08Z</time>
      </trkpt>
      <trkpt lat="43.4004" lon="2.53683">
        <ele>484</ele>
        <time>2020-09-07T17:03:26Z</time>
      </trkpt>
      <trkpt lat="43.40032" lon="2.53706">
        <ele>483</ele>
        <time>2020-09-07T17:03:29Z</time>
      </trkpt>
      <trkpt lat="43.40016" lon="2.53801">
        <ele>466</ele>
        <time>2020-09-07T17:03:41Z</time>
      </trkpt>
      <trkpt lat="43.40007" lon="2.53836">
        <ele>458</ele>
        <time>2020-09-07T17:03:46Z</time>
      </trkpt>
      <trkpt lat="43.40001" lon="2.53849">
        <ele>456</ele>
        <time>2020-09-07T17:03:48Z</time>
      </trkpt>
      <trkpt lat="43.39991" lon="2.53863">
        <ele>455</ele>
        <time>2020-09-07T17:03:51Z</time>
      </trkpt>
      <trkpt lat="43.39982" lon="2.53872">
        <ele>454</ele>
        <time>2020-09-07T17:03:53Z</time>
      </trkpt>
      <trkpt lat="43.3996" lon="2.53885">
        <ele>453</ele>
        <time>2020-09-07T17:03:57Z</time>
      </trkpt>
      <trkpt lat="43.39943" lon="2.53888">
        <ele>453</ele>
        <time>2020-09-07T17:04:00Z</time>
      </trkpt>
      <trkpt lat="43.39879" lon="2.53874">
        <ele>460</ele>
        <time>2020-09-07T17:04:12Z</time>
      </trkpt>
      <trkpt lat="43.39858" lon="2.53874">
        <ele>460</ele>
        <time>2020-09-07T17:04:15Z</time>
      </trkpt>
      <trkpt lat="43.39843" lon="2.53879">
        <ele>458</ele>
        <time>2020-09-07T17:04:18Z</time>
      </trkpt>
      <trkpt lat="43.39794" lon="2.53904">
        <ele>451</ele>
        <time>2020-09-07T17:04:27Z</time>
      </trkpt>
      <trkpt lat="43.39779" lon="2.53906">
        <ele>451</ele>
        <time>2020-09-07T17:04:30Z</time>
      </trkpt>
      <trkpt lat="43.3965" lon="2.53896">
        <ele>450</ele>
        <time>2020-09-07T17:04:53Z</time>
      </trkpt>
      <trkpt lat="43.39635" lon="2.539">
        <ele>447</ele>
        <time>2020-09-07T17:04:56Z</time>
      </trkpt>
      <trkpt lat="43.39605" lon="2.53914">
        <ele>441</ele>
        <time>2020-09-07T17:05:01Z</time>
      </trkpt>
      <trkpt lat="43.39594" lon="2.53917">
        <ele>440</ele>
        <time>2020-09-07T17:05:03Z</time>
      </trkpt>
      <trkpt lat="43.39585" lon="2.53916">
        <ele>439</ele>
        <time>2020-09-07T17:05:05Z</time>
      </trkpt>
      <trkpt lat="43.39577" lon="2.53912">
        <ele>439</ele>
        <time>2020-09-07T17:05:07Z</time>
      </trkpt>
      <trkpt lat="43.39537" lon="2.53868">
        <ele>444</ele>
        <time>2020-09-07T17:05:16Z</time>
      </trkpt>
      <trkpt lat="43.39523" lon="2.53862">
        <ele>444</ele>
        <time>2020-09-07T17:05:18Z</time>
      </trkpt>
      <trkpt lat="43.39512" lon="2.53862">
        <ele>444</ele>
        <time>2020-09-07T17:05:20Z</time>
      </trkpt>
      <trkpt lat="43.39372" lon="2.53916">
        <ele>447</ele>
        <time>2020-09-07T17:05:46Z</time>
      </trkpt>
      <trkpt lat="43.39336" lon="2.53934">
        <ele>452</ele>
        <time>2020-09-07T17:05:53Z</time>
      </trkpt>
      <trkpt lat="43.39323" lon="2.53945">
        <ele>455</ele>
        <time>2020-09-07T17:05:56Z</time>
      </trkpt>
      <trkpt lat="43.39315" lon="2.53958">
        <ele>455</ele>
        <time>2020-09-07T17:05:58Z</time>
      </trkpt>
      <trkpt lat="43.39271" lon="2.54051">
        <ele>446</ele>
        <time>2020-09-07T17:06:12Z</time>
      </trkpt>
      <trkpt lat="43.39256" lon="2.54078">
        <ele>439</ele>
        <time>2020-09-07T17:06:17Z</time>
      </trkpt>
      <trkpt lat="43.39233" lon="2.54107">
        <ele>435</ele>
        <time>2020-09-07T17:06:22Z</time>
      </trkpt>
      <trkpt lat="43.39216" lon="2.5412">
        <ele>432</ele>
        <time>2020-09-07T17:06:26Z</time>
      </trkpt>
      <trkpt lat="43.39206" lon="2.54123">
        <ele>431</ele>
        <time>2020-09-07T17:06:27Z</time>
      </trkpt>
      <trkpt lat="43.39192" lon="2.5412">
        <ele>430</ele>
        <time>2020-09-07T17:06:30Z</time>
      </trkpt>
      <trkpt lat="43.39169" lon="2.54104">
        <ele>430</ele>
        <time>2020-09-07T17:06:35Z</time>
      </trkpt>
      <trkpt lat="43.39082" lon="2.54022">
        <ele>433</ele>
        <time>2020-09-07T17:06:53Z</time>
      </trkpt>
      <trkpt lat="43.39053" lon="2.54006">
        <ele>432</ele>
        <time>2020-09-07T17:06:59Z</time>
      </trkpt>
      <trkpt lat="43.39025" lon="2.53998">
        <ele>429</ele>
        <time>2020-09-07T17:07:04Z</time>
      </trkpt>
      <trkpt lat="43.38988" lon="2.53995">
        <ele>427</ele>
        <time>2020-09-07T17:07:11Z</time>
      </trkpt>
      <trkpt lat="43.38927" lon="2.54008">
        <ele>427</ele>
        <time>2020-09-07T17:07:22Z</time>
      </trkpt>
      <trkpt lat="43.38872" lon="2.54032">
        <ele>427</ele>
        <time>2020-09-07T17:07:32Z</time>
      </trkpt>
      <trkpt lat="43.38849" lon="2.54039">
        <ele>427</ele>
        <time>2020-09-07T17:07:36Z</time>
      </trkpt>
      <trkpt lat="43.38811" lon="2.54044">
        <ele>425</ele>
        <time>2020-09-07T17:07:43Z</time>
      </trkpt>
      <trkpt lat="43.38727" lon="2.54044">
        <ele>423</ele>
        <time>2020-09-07T17:07:58Z</time>
      </trkpt>
      <trkpt lat="43.38714" lon="2.54046">
        <ele>424</ele>
        <time>2020-09-07T17:08:00Z</time>
      </trkpt>
      <trkpt lat="43.38644" lon="2.54086">
        <ele>417</ele>
        <time>2020-09-07T17:08:14Z</time>
      </trkpt>
      <trkpt lat="43.38611" lon="2.54117">
        <ele>415</ele>
        <time>2020-09-07T17:08:21Z</time>
      </trkpt>
      <trkpt lat="43.386" lon="2.54121">
        <ele>414</ele>
        <time>2020-09-07T17:08:23Z</time>
      </trkpt>
      <trkpt lat="43.38546" lon="2.54114">
        <ele>421</ele>
        <time>2020-09-07T17:08:32Z</time>
      </trkpt>
      <trkpt lat="43.38533" lon="2.54116">
        <ele>421</ele>
        <time>2020-09-07T17:08:35Z</time>
      </trkpt>
      <trkpt lat="43.38522" lon="2.54122">
        <ele>420</ele>
        <time>2020-09-07T17:08:37Z</time>
      </trkpt>
      <trkpt lat="43.38496" lon="2.54148">
        <ele>415</ele>
        <time>2020-09-07T17:08:42Z</time>
      </trkpt>
      <trkpt lat="43.38484" lon="2.54174">
        <ele>409</ele>
        <time>2020-09-07T17:08:46Z</time>
      </trkpt>
      <trkpt lat="43.38475" lon="2.54184">
        <ele>408</ele>
        <time>2020-09-07T17:08:48Z</time>
      </trkpt>
      <trkpt lat="43.38465" lon="2.5419">
        <ele>407</ele>
        <time>2020-09-07T17:08:50Z</time>
      </trkpt>
      <trkpt lat="43.38455" lon="2.54192">
        <ele>406</ele>
        <time>2020-09-07T17:08:52Z</time>
      </trkpt>
      <trkpt lat="43.3839" lon="2.54192">
        <ele>402</ele>
        <time>2020-09-07T17:09:04Z</time>
      </trkpt>
      <trkpt lat="43.38378" lon="2.54188">
        <ele>401</ele>
        <time>2020-09-07T17:09:06Z</time>
      </trkpt>
      <trkpt lat="43.38367" lon="2.54181">
        <ele>399</ele>
        <time>2020-09-07T17:09:08Z</time>
      </trkpt>
      <trkpt lat="43.38331" lon="2.54124">
        <ele>395</ele>
        <time>2020-09-07T17:09:18Z</time>
      </trkpt>
      <trkpt lat="43.38325" lon="2.5411">
        <ele>397</ele>
        <time>2020-09-07T17:09:20Z</time>
      </trkpt>
      <trkpt lat="43.38322" lon="2.54091">
        <ele>397</ele>
        <time>2020-09-07T17:09:23Z</time>
      </trkpt>
      <trkpt lat="43.38323" lon="2.54076">
        <ele>397</ele>
        <time>2020-09-07T17:09:24Z</time>
      </trkpt>
      <trkpt lat="43.38322" lon="2.54065">
        <ele>396</ele>
        <time>2020-09-07T17:09:26Z</time>
      </trkpt>
      <trkpt lat="43.38319" lon="2.54059">
        <ele>395</ele>
        <time>2020-09-07T17:09:27Z</time>
      </trkpt>
      <trkpt lat="43.38314" lon="2.54054">
        <ele>395</ele>
        <time>2020-09-07T17:09:28Z</time>
      </trkpt>
      <trkpt lat="43.3824" lon="2.54036">
        <ele>390</ele>
        <time>2020-09-07T17:09:41Z</time>
      </trkpt>
      <trkpt lat="43.38226" lon="2.54036">
        <ele>391</ele>
        <time>2020-09-07T17:09:44Z</time>
      </trkpt>
      <trkpt lat="43.38198" lon="2.54046">
        <ele>393</ele>
        <time>2020-09-07T17:09:49Z</time>
      </trkpt>
      <trkpt lat="43.38152" lon="2.54053">
        <ele>393</ele>
        <time>2020-09-07T17:09:57Z</time>
      </trkpt>
      <trkpt lat="43.38134" lon="2.54053">
        <ele>392</ele>
        <time>2020-09-07T17:10:00Z</time>
      </trkpt>
      <trkpt lat="43.38123" lon="2.54056">
        <ele>391</ele>
        <time>2020-09-07T17:10:02Z</time>
      </trkpt>
      <trkpt lat="43.38053" lon="2.54099">
        <ele>391</ele>
        <time>2020-09-07T17:10:16Z</time>
      </trkpt>
      <trkpt lat="43.38042" lon="2.54102">
        <ele>393</ele>
        <time>2020-09-07T17:10:18Z</time>
      </trkpt>
      <trkpt lat="43.38023" lon="2.54102">
        <ele>394</ele>
        <time>2020-09-07T17:10:21Z</time>
      </trkpt>
      <trkpt lat="43.38015" lon="2.54099">
        <ele>393</ele>
        <time>2020-09-07T17:10:23Z</time>
      </trkpt>
      <trkpt lat="43.38001" lon="2.54089">
        <ele>389</ele>
        <time>2020-09-07T17:10:26Z</time>
      </trkpt>
      <trkpt lat="43.37983" lon="2.54071">
        <ele>390</ele>
        <time>2020-09-07T17:10:30Z</time>
      </trkpt>
      <trkpt lat="43.37976" lon="2.54061">
        <ele>392</ele>
        <time>2020-09-07T17:10:31Z</time>
      </trkpt>
      <trkpt lat="43.37973" lon="2.54047">
        <ele>391</ele>
        <time>2020-09-07T17:10:33Z</time>
      </trkpt>
      <trkpt lat="43.37974" lon="2.5397">
        <ele>382</ele>
        <time>2020-09-07T17:10:43Z</time>
      </trkpt>
      <trkpt lat="43.37971" lon="2.53932">
        <ele>379</ele>
        <time>2020-09-07T17:10:48Z</time>
      </trkpt>
      <trkpt lat="43.37965" lon="2.53906">
        <ele>378</ele>
        <time>2020-09-07T17:10:52Z</time>
      </trkpt>
      <trkpt lat="43.37959" lon="2.53895">
        <ele>379</ele>
        <time>2020-09-07T17:10:54Z</time>
      </trkpt>
      <trkpt lat="43.37952" lon="2.53891">
        <ele>379</ele>
        <time>2020-09-07T17:10:55Z</time>
      </trkpt>
      <trkpt lat="43.37943" lon="2.5389">
        <ele>379</ele>
        <time>2020-09-07T17:10:57Z</time>
      </trkpt>
      <trkpt lat="43.37924" lon="2.53894">
        <ele>378</ele>
        <time>2020-09-07T17:11:00Z</time>
      </trkpt>
      <trkpt lat="43.37902" lon="2.53902">
        <ele>378</ele>
        <time>2020-09-07T17:11:04Z</time>
      </trkpt>
      <trkpt lat="43.37875" lon="2.53918">
        <ele>377</ele>
        <time>2020-09-07T17:11:09Z</time>
      </trkpt>
      <trkpt lat="43.37852" lon="2.53938">
        <ele>379</ele>
        <time>2020-09-07T17:11:14Z</time>
      </trkpt>
      <trkpt lat="43.37804" lon="2.53997">
        <ele>383</ele>
        <time>2020-09-07T17:11:25Z</time>
      </trkpt>
      <trkpt lat="43.37785" lon="2.54025">
        <ele>383</ele>
        <time>2020-09-07T17:11:30Z</time>
      </trkpt>
      <trkpt lat="43.37779" lon="2.54025">
        <ele>382</ele>
        <time>2020-09-07T17:11:32Z</time>
      </trkpt>
      <trkpt lat="43.37765" lon="2.54034">
        <ele>379</ele>
        <time>2020-09-07T17:11:34Z</time>
      </trkpt>
      <trkpt lat="43.37725" lon="2.54075">
        <ele>377</ele>
        <time>2020-09-07T17:11:43Z</time>
      </trkpt>
      <trkpt lat="43.37703" lon="2.54092">
        <ele>375</ele>
        <time>2020-09-07T17:11:48Z</time>
      </trkpt>
      <trkpt lat="43.37685" lon="2.541">
        <ele>373</ele>
        <time>2020-09-07T17:11:51Z</time>
      </trkpt>
      <trkpt lat="43.3764" lon="2.54113">
        <ele>369</ele>
        <time>2020-09-07T17:11:59Z</time>
      </trkpt>
      <trkpt lat="43.37612" lon="2.54124">
        <ele>369</ele>
        <time>2020-09-07T17:12:04Z</time>
      </trkpt>
      <trkpt lat="43.37586" lon="2.54125">
        <ele>367</ele>
        <time>2020-09-07T17:12:09Z</time>
      </trkpt>
      <trkpt lat="43.37565" lon="2.54132">
        <ele>367</ele>
        <time>2020-09-07T17:12:13Z</time>
      </trkpt>
      <trkpt lat="43.37554" lon="2.54134">
        <ele>366</ele>
        <time>2020-09-07T17:12:15Z</time>
      </trkpt>
      <trkpt lat="43.37526" lon="2.54127">
        <ele>364</ele>
        <time>2020-09-07T17:12:20Z</time>
      </trkpt>
      <trkpt lat="43.3751" lon="2.54125">
        <ele>363</ele>
        <time>2020-09-07T17:12:23Z</time>
      </trkpt>
      <trkpt lat="43.37478" lon="2.54127">
        <ele>363</ele>
        <time>2020-09-07T17:12:28Z</time>
      </trkpt>
      <trkpt lat="43.37461" lon="2.54115">
        <ele>361</ele>
        <time>2020-09-07T17:12:32Z</time>
      </trkpt>
      <trkpt lat="43.37429" lon="2.54105">
        <ele>359</ele>
        <time>2020-09-07T17:12:38Z</time>
      </trkpt>
      <trkpt lat="43.37424" lon="2.54101">
        <ele>358</ele>
        <time>2020-09-07T17:12:39Z</time>
      </trkpt>
      <trkpt lat="43.37419" lon="2.54081">
        <ele>355</ele>
        <time>2020-09-07T17:12:41Z</time>
      </trkpt>
      <trkpt lat="43.37411" lon="2.54065">
        <ele>358</ele>
        <time>2020-09-07T17:12:44Z</time>
      </trkpt>
      <trkpt lat="43.37368" lon="2.54009">
        <ele>361</ele>
        <time>2020-09-07T17:12:54Z</time>
      </trkpt>
      <trkpt lat="43.37339" lon="2.53992">
        <ele>357</ele>
        <time>2020-09-07T17:13:00Z</time>
      </trkpt>
      <trkpt lat="43.37323" lon="2.53972">
        <ele>360</ele>
        <time>2020-09-07T17:13:04Z</time>
      </trkpt>
      <trkpt lat="43.37286" lon="2.53921">
        <ele>361</ele>
        <time>2020-09-07T17:13:13Z</time>
      </trkpt>
      <trkpt lat="43.37282" lon="2.5391">
        <ele>361</ele>
        <time>2020-09-07T17:13:15Z</time>
      </trkpt>
      <trkpt lat="43.37262" lon="2.53799">
        <ele>371</ele>
        <time>2020-09-07T17:13:30Z</time>
      </trkpt>
      <trkpt lat="43.37259" lon="2.5379">
        <ele>374</ele>
        <time>2020-09-07T17:13:31Z</time>
      </trkpt>
      <trkpt lat="43.37219" lon="2.53745">
        <ele>381</ele>
        <time>2020-09-07T17:13:40Z</time>
      </trkpt>
      <trkpt lat="43.37177" lon="2.53732">
        <ele>379</ele>
        <time>2020-09-07T17:13:48Z</time>
      </trkpt>
      <trkpt lat="43.3714" lon="2.53725">
        <ele>378</ele>
        <time>2020-09-07T17:13:54Z</time>
      </trkpt>
      <trkpt lat="43.37123" lon="2.53725">
        <ele>377</ele>
        <time>2020-09-07T17:13:57Z</time>
      </trkpt>
      <trkpt lat="43.37092" lon="2.53727">
        <ele>374</ele>
        <time>2020-09-07T17:14:03Z</time>
      </trkpt>
      <trkpt lat="43.37086" lon="2.5373">
        <ele>373</ele>
        <time>2020-09-07T17:14:04Z</time>
      </trkpt>
      <trkpt lat="43.37074" lon="2.53744">
        <ele>367</ele>
        <time>2020-09-07T17:14:07Z</time>
      </trkpt>
      <trkpt lat="43.37061" lon="2.53752">
        <ele>364</ele>
        <time>2020-09-07T17:14:09Z</time>
      </trkpt>
      <trkpt lat="43.36997" lon="2.53753">
        <ele>361</ele>
        <time>2020-09-07T17:14:21Z</time>
      </trkpt>
      <trkpt lat="43.3699" lon="2.5375">
        <ele>361</ele>
        <time>2020-09-07T17:14:22Z</time>
      </trkpt>
      <trkpt lat="43.36949" lon="2.5372">
        <ele>358</ele>
        <time>2020-09-07T17:14:30Z</time>
      </trkpt>
      <trkpt lat="43.36925" lon="2.53713">
        <ele>354</ele>
        <time>2020-09-07T17:14:35Z</time>
      </trkpt>
      <trkpt lat="43.36924" lon="2.53699">
        <ele>354</ele>
        <time>2020-09-07T17:14:37Z</time>
      </trkpt>
      <trkpt lat="43.36951" lon="2.53596">
        <ele>360</ele>
        <time>2020-09-07T17:14:51Z</time>
      </trkpt>
      <trkpt lat="43.37009" lon="2.53536">
        <ele>362</ele>
        <time>2020-09-07T17:15:04Z</time>
      </trkpt>
      <trkpt lat="43.37029" lon="2.53522">
        <ele>364</ele>
        <time>2020-09-07T17:15:08Z</time>
      </trkpt>
      <trkpt lat="43.37068" lon="2.53504">
        <ele>368</ele>
        <time>2020-09-07T17:15:15Z</time>
      </trkpt>
      <trkpt lat="43.37083" lon="2.5349">
        <ele>368</ele>
        <time>2020-09-07T17:15:18Z</time>
      </trkpt>
      <trkpt lat="43.3712" lon="2.53433">
        <ele>368</ele>
        <time>2020-09-07T17:15:28Z</time>
      </trkpt>
      <trkpt lat="43.37145" lon="2.53404">
        <ele>368</ele>
        <time>2020-09-07T17:15:34Z</time>
      </trkpt>
      <trkpt lat="43.37164" lon="2.53389">
        <ele>368</ele>
        <time>2020-09-07T17:15:38Z</time>
      </trkpt>
      <trkpt lat="43.37174" lon="2.53385">
        <ele>369</ele>
        <time>2020-09-07T17:15:40Z</time>
      </trkpt>
      <trkpt lat="43.37223" lon="2.53379">
        <ele>376</ele>
        <time>2020-09-07T17:15:48Z</time>
      </trkpt>
      <trkpt lat="43.37247" lon="2.5337">
        <ele>376</ele>
        <time>2020-09-07T17:15:53Z</time>
      </trkpt>
      <trkpt lat="43.37328" lon="2.53318">
        <ele>375</ele>
        <time>2020-09-07T17:16:09Z</time>
      </trkpt>
      <trkpt lat="43.37371" lon="2.53273">
        <ele>375</ele>
        <time>2020-09-07T17:16:18Z</time>
      </trkpt>
      <trkpt lat="43.37388" lon="2.53249">
        <ele>372</ele>
        <time>2020-09-07T17:16:23Z</time>
      </trkpt>
      <trkpt lat="43.37413" lon="2.53207">
        <ele>373</ele>
        <time>2020-09-07T17:16:30Z</time>
      </trkpt>
      <trkpt lat="43.37429" lon="2.53188">
        <ele>374</ele>
        <time>2020-09-07T17:16:33Z</time>
      </trkpt>
      <trkpt lat="43.37438" lon="2.5318">
        <ele>374</ele>
        <time>2020-09-07T17:16:35Z</time>
      </trkpt>
      <trkpt lat="43.37447" lon="2.53178">
        <ele>375</ele>
        <time>2020-09-07T17:16:37Z</time>
      </trkpt>
      <trkpt lat="43.37448" lon="2.53164">
        <ele>374</ele>
        <time>2020-09-07T17:16:39Z</time>
      </trkpt>
      <trkpt lat="43.37445" lon="2.53152">
        <ele>376</ele>
        <time>2020-09-07T17:16:40Z</time>
      </trkpt>
      <trkpt lat="43.37408" lon="2.53112">
        <ele>382</ele>
        <time>2020-09-07T17:16:49Z</time>
      </trkpt>
      <trkpt lat="43.374" lon="2.53109">
        <ele>384</ele>
        <time>2020-09-07T17:16:50Z</time>
      </trkpt>
      <trkpt lat="43.3739" lon="2.5311">
        <ele>386</ele>
        <time>2020-09-07T17:16:52Z</time>
      </trkpt>
      <trkpt lat="43.37326" lon="2.53141">
        <ele>386</ele>
        <time>2020-09-07T17:17:04Z</time>
      </trkpt>
      <trkpt lat="43.37314" lon="2.53143">
        <ele>387</ele>
        <time>2020-09-07T17:17:06Z</time>
      </trkpt>
      <trkpt lat="43.37204" lon="2.53138">
        <ele>400</ele>
        <time>2020-09-07T17:17:26Z</time>
      </trkpt>
      <trkpt lat="43.37154" lon="2.53146">
        <ele>399</ele>
        <time>2020-09-07T17:17:35Z</time>
      </trkpt>
      <trkpt lat="43.37142" lon="2.53142">
        <ele>401</ele>
        <time>2020-09-07T17:17:37Z</time>
      </trkpt>
      <trkpt lat="43.37082" lon="2.53085">
        <ele>415</ele>
        <time>2020-09-07T17:17:50Z</time>
      </trkpt>
      <trkpt lat="43.37069" lon="2.53076">
        <ele>419</ele>
        <time>2020-09-07T17:17:53Z</time>
      </trkpt>
      <trkpt lat="43.37057" lon="2.5307">
        <ele>422</ele>
        <time>2020-09-07T17:17:55Z</time>
      </trkpt>
      <trkpt lat="43.3705" lon="2.53071">
        <ele>422</ele>
        <time>2020-09-07T17:17:56Z</time>
      </trkpt>
      <trkpt lat="43.37044" lon="2.53076">
        <ele>421</ele>
        <time>2020-09-07T17:17:57Z</time>
      </trkpt>
      <trkpt lat="43.37026" lon="2.53136">
        <ele>409</ele>
        <time>2020-09-07T17:18:06Z</time>
      </trkpt>
      <trkpt lat="43.37021" lon="2.53139">
        <ele>408</ele>
        <time>2020-09-07T17:18:07Z</time>
      </trkpt>
      <trkpt lat="43.37014" lon="2.53137">
        <ele>409</ele>
        <time>2020-09-07T17:18:08Z</time>
      </trkpt>
      <trkpt lat="43.36959" lon="2.53055">
        <ele>439</ele>
        <time>2020-09-07T17:18:22Z</time>
      </trkpt>
      <trkpt lat="43.3695" lon="2.53051">
        <ele>441</ele>
        <time>2020-09-07T17:18:24Z</time>
      </trkpt>
      <trkpt lat="43.36943" lon="2.53055">
        <ele>442</ele>
        <time>2020-09-07T17:18:25Z</time>
      </trkpt>
      <trkpt lat="43.36934" lon="2.53097">
        <ele>434</ele>
        <time>2020-09-07T17:18:31Z</time>
      </trkpt>
      <trkpt lat="43.36927" lon="2.53113">
        <ele>433</ele>
        <time>2020-09-07T17:18:34Z</time>
      </trkpt>
      <trkpt lat="43.36893" lon="2.53169">
        <ele>435</ele>
        <time>2020-09-07T17:18:43Z</time>
      </trkpt>
      <trkpt lat="43.36871" lon="2.53222">
        <ele>435</ele>
        <time>2020-09-07T17:18:51Z</time>
      </trkpt>
      <trkpt lat="43.36862" lon="2.53239">
        <ele>435</ele>
        <time>2020-09-07T17:18:54Z</time>
      </trkpt>
      <trkpt lat="43.3683" lon="2.53279">
        <ele>442</ele>
        <time>2020-09-07T17:19:01Z</time>
      </trkpt>
      <trkpt lat="43.3682" lon="2.53298">
        <ele>443</ele>
        <time>2020-09-07T17:19:04Z</time>
      </trkpt>
      <trkpt lat="43.36815" lon="2.5333">
        <ele>441</ele>
        <time>2020-09-07T17:19:09Z</time>
      </trkpt>
      <trkpt lat="43.36808" lon="2.53354">
        <ele>440</ele>
        <time>2020-09-07T17:19:12Z</time>
      </trkpt>
      <trkpt lat="43.36797" lon="2.53378">
        <ele>439</ele>
        <time>2020-09-07T17:19:16Z</time>
      </trkpt>
      <trkpt lat="43.36784" lon="2.53396">
        <ele>439</ele>
        <time>2020-09-07T17:19:19Z</time>
      </trkpt>
      <trkpt lat="43.3677" lon="2.53402">
        <ele>441</ele>
        <time>2020-09-07T17:19:21Z</time>
      </trkpt>
      <trkpt lat="43.36687" lon="2.53398">
        <ele>454</ele>
        <time>2020-09-07T17:19:36Z</time>
      </trkpt>
      <trkpt lat="43.3665" lon="2.53405">
        <ele>455</ele>
        <time>2020-09-07T17:19:43Z</time>
      </trkpt>
      <trkpt lat="43.3657" lon="2.53396">
        <ele>459</ele>
        <time>2020-09-07T17:19:57Z</time>
      </trkpt>
      <trkpt lat="43.36561" lon="2.53392">
        <ele>460</ele>
        <time>2020-09-07T17:19:59Z</time>
      </trkpt>
      <trkpt lat="43.36554" lon="2.53384">
        <ele>462</ele>
        <time>2020-09-07T17:20:00Z</time>
      </trkpt>
      <trkpt lat="43.3652" lon="2.53333">
        <ele>475</ele>
        <time>2020-09-07T17:20:09Z</time>
      </trkpt>
      <trkpt lat="43.36513" lon="2.53326">
        <ele>478</ele>
        <time>2020-09-07T17:20:11Z</time>
      </trkpt>
      <trkpt lat="43.36504" lon="2.53323">
        <ele>479</ele>
        <time>2020-09-07T17:20:13Z</time>
      </trkpt>
      <trkpt lat="43.36467" lon="2.53332">
        <ele>481</ele>
        <time>2020-09-07T17:20:19Z</time>
      </trkpt>
      <trkpt lat="43.36453" lon="2.5334">
        <ele>481</ele>
        <time>2020-09-07T17:20:22Z</time>
      </trkpt>
      <trkpt lat="43.36423" lon="2.53364">
        <ele>481</ele>
        <time>2020-09-07T17:20:28Z</time>
      </trkpt>
      <trkpt lat="43.36411" lon="2.5338">
        <ele>478</ele>
        <time>2020-09-07T17:20:31Z</time>
      </trkpt>
      <trkpt lat="43.3639" lon="2.53431">
        <ele>470</ele>
        <time>2020-09-07T17:20:39Z</time>
      </trkpt>
      <trkpt lat="43.36375" lon="2.53452">
        <ele>468</ele>
        <time>2020-09-07T17:20:43Z</time>
      </trkpt>
      <trkpt lat="43.36363" lon="2.53462">
        <ele>469</ele>
        <time>2020-09-07T17:20:45Z</time>
      </trkpt>
      <trkpt lat="43.36351" lon="2.53467">
        <ele>470</ele>
        <time>2020-09-07T17:20:47Z</time>
      </trkpt>
      <trkpt lat="43.36338" lon="2.53467">
        <ele>472</ele>
        <time>2020-09-07T17:20:50Z</time>
      </trkpt>
      <trkpt lat="43.36326" lon="2.53464">
        <ele>472</ele>
        <time>2020-09-07T17:20:52Z</time>
      </trkpt>
      <trkpt lat="43.36319" lon="2.53459">
        <ele>471</ele>
        <time>2020-09-07T17:20:53Z</time>
      </trkpt>
      <trkpt lat="43.36314" lon="2.5345">
        <ele>470</ele>
        <time>2020-09-07T17:20:55Z</time>
      </trkpt>
      <trkpt lat="43.36313" lon="2.53439">
        <ele>471</ele>
        <time>2020-09-07T17:20:56Z</time>
      </trkpt>
      <trkpt lat="43.36314" lon="2.53431">
        <ele>471</ele>
        <time>2020-09-07T17:20:57Z</time>
      </trkpt>
      <trkpt lat="43.36319" lon="2.53421">
        <ele>473</ele>
        <time>2020-09-07T17:20:59Z</time>
      </trkpt>
      <trkpt lat="43.36359" lon="2.5337">
        <ele>477</ele>
        <time>2020-09-07T17:21:08Z</time>
      </trkpt>
      <trkpt lat="43.36368" lon="2.53356">
        <ele>478</ele>
        <time>2020-09-07T17:21:11Z</time>
      </trkpt>
      <trkpt lat="43.36373" lon="2.53342">
        <ele>480</ele>
        <time>2020-09-07T17:21:13Z</time>
      </trkpt>
      <trkpt lat="43.36375" lon="2.53326">
        <ele>483</ele>
        <time>2020-09-07T17:21:15Z</time>
      </trkpt>
      <trkpt lat="43.36375" lon="2.53312">
        <ele>485</ele>
        <time>2020-09-07T17:21:17Z</time>
      </trkpt>
      <trkpt lat="43.36359" lon="2.53253">
        <ele>492</ele>
        <time>2020-09-07T17:21:25Z</time>
      </trkpt>
      <trkpt lat="43.36339" lon="2.53218">
        <ele>494</ele>
        <time>2020-09-07T17:21:31Z</time>
      </trkpt>
      <trkpt lat="43.36329" lon="2.53187">
        <ele>498</ele>
        <time>2020-09-07T17:21:35Z</time>
      </trkpt>
      <trkpt lat="43.36308" lon="2.53148">
        <ele>498</ele>
        <time>2020-09-07T17:21:41Z</time>
      </trkpt>
      <trkpt lat="43.36303" lon="2.53136">
        <ele>498</ele>
        <time>2020-09-07T17:21:43Z</time>
      </trkpt>
      <trkpt lat="43.36301" lon="2.53127">
        <ele>499</ele>
        <time>2020-09-07T17:21:44Z</time>
      </trkpt>
      <trkpt lat="43.36305" lon="2.5307">
        <ele>511</ele>
        <time>2020-09-07T17:21:52Z</time>
      </trkpt>
      <trkpt lat="43.36305" lon="2.53054">
        <ele>514</ele>
        <time>2020-09-07T17:21:54Z</time>
      </trkpt>
      <trkpt lat="43.36302" lon="2.53039">
        <ele>516</ele>
        <time>2020-09-07T17:21:56Z</time>
      </trkpt>
      <trkpt lat="43.36288" lon="2.53002">
        <ele>519</ele>
        <time>2020-09-07T17:22:01Z</time>
      </trkpt>
      <trkpt lat="43.36285" lon="2.52996">
        <ele>519</ele>
        <time>2020-09-07T17:22:02Z</time>
      </trkpt>
      <trkpt lat="43.36279" lon="2.52994">
        <ele>517</ele>
        <time>2020-09-07T17:22:03Z</time>
      </trkpt>
      <trkpt lat="43.36225" lon="2.53003">
        <ele>502</ele>
        <time>2020-09-07T17:22:13Z</time>
      </trkpt>
      <trkpt lat="43.36212" lon="2.53001">
        <ele>499</ele>
        <time>2020-09-07T17:22:15Z</time>
      </trkpt>
      <trkpt lat="43.36204" lon="2.52995">
        <ele>498</ele>
        <time>2020-09-07T17:22:17Z</time>
      </trkpt>
      <trkpt lat="43.36199" lon="2.52986">
        <ele>498</ele>
        <time>2020-09-07T17:22:18Z</time>
      </trkpt>
      <trkpt lat="43.36194" lon="2.52972">
        <ele>497</ele>
        <time>2020-09-07T17:22:20Z</time>
      </trkpt>
      <trkpt lat="43.36191" lon="2.52953">
        <ele>498</ele>
        <time>2020-09-07T17:22:23Z</time>
      </trkpt>
      <trkpt lat="43.36191" lon="2.52923">
        <ele>500</ele>
        <time>2020-09-07T17:22:27Z</time>
      </trkpt>
      <trkpt lat="43.36194" lon="2.52906">
        <ele>504</ele>
        <time>2020-09-07T17:22:29Z</time>
      </trkpt>
      <trkpt lat="43.36211" lon="2.52852">
        <ele>519</ele>
        <time>2020-09-07T17:22:37Z</time>
      </trkpt>
      <trkpt lat="43.36212" lon="2.52836">
        <ele>523</ele>
        <time>2020-09-07T17:22:39Z</time>
      </trkpt>
      <trkpt lat="43.36209" lon="2.52828">
        <ele>523</ele>
        <time>2020-09-07T17:22:40Z</time>
      </trkpt>
      <trkpt lat="43.36202" lon="2.52821">
        <ele>523</ele>
        <time>2020-09-07T17:22:41Z</time>
      </trkpt>
      <trkpt lat="43.36188" lon="2.52816">
        <ele>519</ele>
        <time>2020-09-07T17:22:44Z</time>
      </trkpt>
      <trkpt lat="43.36168" lon="2.52792">
        <ele>518</ele>
        <time>2020-09-07T17:22:49Z</time>
      </trkpt>
      <trkpt lat="43.36163" lon="2.52779">
        <ele>518</ele>
        <time>2020-09-07T17:22:51Z</time>
      </trkpt>
      <trkpt lat="43.36159" lon="2.52749">
        <ele>523</ele>
        <time>2020-09-07T17:22:55Z</time>
      </trkpt>
      <trkpt lat="43.36155" lon="2.52735">
        <ele>525</ele>
        <time>2020-09-07T17:22:56Z</time>
      </trkpt>
      <trkpt lat="43.36126" lon="2.52664">
        <ele>531</ele>
        <time>2020-09-07T17:23:07Z</time>
      </trkpt>
      <trkpt lat="43.36101" lon="2.52625">
        <ele>533</ele>
        <time>2020-09-07T17:23:14Z</time>
      </trkpt>
      <trkpt lat="43.36092" lon="2.52607">
        <ele>535</ele>
        <time>2020-09-07T17:23:17Z</time>
      </trkpt>
      <trkpt lat="43.36074" lon="2.52552">
        <ele>544</ele>
        <time>2020-09-07T17:23:24Z</time>
      </trkpt>
      <trkpt lat="43.36062" lon="2.52525">
        <ele>547</ele>
        <time>2020-09-07T17:23:28Z</time>
      </trkpt>
      <trkpt lat="43.36021" lon="2.52471">
        <ele>550</ele>
        <time>2020-09-07T17:23:39Z</time>
      </trkpt>
      <trkpt lat="43.35963" lon="2.52428">
        <ele>555</ele>
        <time>2020-09-07T17:23:50Z</time>
      </trkpt>
      <trkpt lat="43.35904" lon="2.52408">
        <ele>554</ele>
        <time>2020-09-07T17:24:01Z</time>
      </trkpt>
      <trkpt lat="43.35883" lon="2.52396">
        <ele>552</ele>
        <time>2020-09-07T17:24:05Z</time>
      </trkpt>
      <trkpt lat="43.35866" lon="2.52382">
        <ele>550</ele>
        <time>2020-09-07T17:24:09Z</time>
      </trkpt>
      <trkpt lat="43.35861" lon="2.52367">
        <ele>550</ele>
        <time>2020-09-07T17:24:11Z</time>
      </trkpt>
      <trkpt lat="43.3586" lon="2.52347">
        <ele>551</ele>
        <time>2020-09-07T17:24:13Z</time>
      </trkpt>
      <trkpt lat="43.35864" lon="2.52331">
        <ele>552</ele>
        <time>2020-09-07T17:24:16Z</time>
      </trkpt>
      <trkpt lat="43.35872" lon="2.52315">
        <ele>551</ele>
        <time>2020-09-07T17:24:18Z</time>
      </trkpt>
      <trkpt lat="43.35937" lon="2.52252">
        <ele>558</ele>
        <time>2020-09-07T17:24:32Z</time>
      </trkpt>
      <trkpt lat="43.35951" lon="2.52243">
        <ele>559</ele>
        <time>2020-09-07T17:24:35Z</time>
      </trkpt>
      <trkpt lat="43.3602" lon="2.52213">
        <ele>565</ele>
        <time>2020-09-07T17:24:48Z</time>
      </trkpt>
      <trkpt lat="43.36089" lon="2.52196">
        <ele>573</ele>
        <time>2020-09-07T17:25:00Z</time>
      </trkpt>
      <trkpt lat="43.36216" lon="2.52135">
        <ele>589</ele>
        <time>2020-09-07T17:25:24Z</time>
      </trkpt>
      <trkpt lat="43.3628" lon="2.52092">
        <ele>593</ele>
        <time>2020-09-07T17:25:37Z</time>
      </trkpt>
      <trkpt lat="43.36306" lon="2.52079">
        <ele>596</ele>
        <time>2020-09-07T17:25:42Z</time>
      </trkpt>
      <trkpt lat="43.36324" lon="2.52073">
        <ele>601</ele>
        <time>2020-09-07T17:25:45Z</time>
      </trkpt>
      <trkpt lat="43.36335" lon="2.52072">
        <ele>604</ele>
        <time>2020-09-07T17:25:47Z</time>
      </trkpt>
      <trkpt lat="43.36352" lon="2.52075">
        <ele>611</ele>
        <time>2020-09-07T17:25:50Z</time>
      </trkpt>
      <trkpt lat="43.3636" lon="2.52073">
        <ele>613</ele>
        <time>2020-09-07T17:25:52Z</time>
      </trkpt>
      <trkpt lat="43.36365" lon="2.52066">
        <ele>612</ele>
        <time>2020-09-07T17:25:53Z</time>
      </trkpt>
      <trkpt lat="43.36422" lon="2.51922">
        <ele>605</ele>
        <time>2020-09-07T17:26:14Z</time>
      </trkpt>
      <trkpt lat="43.36424" lon="2.51913">
        <ele>604</ele>
        <time>2020-09-07T17:26:15Z</time>
      </trkpt>
      <trkpt lat="43.36423" lon="2.51903">
        <ele>603</ele>
        <time>2020-09-07T17:26:17Z</time>
      </trkpt>
      <trkpt lat="43.36414" lon="2.51874">
        <ele>595</ele>
        <time>2020-09-07T17:26:21Z</time>
      </trkpt>
      <trkpt lat="43.36412" lon="2.5186">
        <ele>593</ele>
        <time>2020-09-07T17:26:23Z</time>
      </trkpt>
      <trkpt lat="43.36413" lon="2.51845">
        <ele>591</ele>
        <time>2020-09-07T17:26:24Z</time>
      </trkpt>
      <trkpt lat="43.36418" lon="2.51829">
        <ele>592</ele>
        <time>2020-09-07T17:26:27Z</time>
      </trkpt>
      <trkpt lat="43.36479" lon="2.51706">
        <ele>591</ele>
        <time>2020-09-07T17:26:46Z</time>
      </trkpt>
      <trkpt lat="43.36487" lon="2.51691">
        <ele>590</ele>
        <time>2020-09-07T17:26:48Z</time>
      </trkpt>
      <trkpt lat="43.36536" lon="2.51629">
        <ele>590</ele>
        <time>2020-09-07T17:27:00Z</time>
      </trkpt>
      <trkpt lat="43.36591" lon="2.51583">
        <ele>590</ele>
        <time>2020-09-07T17:27:12Z</time>
      </trkpt>
      <trkpt lat="43.36608" lon="2.51571">
        <ele>590</ele>
        <time>2020-09-07T17:27:15Z</time>
      </trkpt>
      <trkpt lat="43.36685" lon="2.51531">
        <ele>589</ele>
        <time>2020-09-07T17:27:30Z</time>
      </trkpt>
      <trkpt lat="43.36749" lon="2.51501">
        <ele>589</ele>
        <time>2020-09-07T17:27:42Z</time>
      </trkpt>
      <trkpt lat="43.3677" lon="2.51488">
        <ele>591</ele>
        <time>2020-09-07T17:27:46Z</time>
      </trkpt>
      <trkpt lat="43.36797" lon="2.51467">
        <ele>593</ele>
        <time>2020-09-07T17:27:51Z</time>
      </trkpt>
      <trkpt lat="43.36839" lon="2.51415">
        <ele>590</ele>
        <time>2020-09-07T17:28:01Z</time>
      </trkpt>
      <trkpt lat="43.36865" lon="2.51369">
        <ele>588</ele>
        <time>2020-09-07T17:28:09Z</time>
      </trkpt>
      <trkpt lat="43.36874" lon="2.51338">
        <ele>585</ele>
        <time>2020-09-07T17:28:13Z</time>
      </trkpt>
      <trkpt lat="43.36879" lon="2.51292">
        <ele>582</ele>
        <time>2020-09-07T17:28:19Z</time>
      </trkpt>
      <trkpt lat="43.36893" lon="2.51254">
        <ele>581</ele>
        <time>2020-09-07T17:28:25Z</time>
      </trkpt>
      <trkpt lat="43.36895" lon="2.51236">
        <ele>580</ele>
        <time>2020-09-07T17:28:27Z</time>
      </trkpt>
      <trkpt lat="43.36911" lon="2.51197">
        <ele>577</ele>
        <time>2020-09-07T17:28:33Z</time>
      </trkpt>
      <trkpt lat="43.36917" lon="2.51177">
        <ele>574</ele>
        <time>2020-09-07T17:28:36Z</time>
      </trkpt>
      <trkpt lat="43.36928" lon="2.51159">
        <ele>575</ele>
        <time>2020-09-07T17:28:39Z</time>
      </trkpt>
      <trkpt lat="43.36931" lon="2.51148">
        <ele>576</ele>
        <time>2020-09-07T17:28:40Z</time>
      </trkpt>
      <trkpt lat="43.36935" lon="2.51111">
        <ele>576</ele>
        <time>2020-09-07T17:28:45Z</time>
      </trkpt>
      <trkpt lat="43.36954" lon="2.51032">
        <ele>580</ele>
        <time>2020-09-07T17:28:56Z</time>
      </trkpt>
      <trkpt lat="43.36975" lon="2.50939">
        <ele>583</ele>
        <time>2020-09-07T17:29:09Z</time>
      </trkpt>
      <trkpt lat="43.36975" lon="2.50894">
        <ele>585</ele>
        <time>2020-09-07T17:29:14Z</time>
      </trkpt>
      <trkpt lat="43.36981" lon="2.50842">
        <ele>587</ele>
        <time>2020-09-07T17:29:21Z</time>
      </trkpt>
      <trkpt lat="43.36985" lon="2.50821">
        <ele>587</ele>
        <time>2020-09-07T17:29:24Z</time>
      </trkpt>
      <trkpt lat="43.36986" lon="2.50794">
        <ele>588</ele>
        <time>2020-09-07T17:29:27Z</time>
      </trkpt>
      <trkpt lat="43.36986" lon="2.50763">
        <ele>589</ele>
        <time>2020-09-07T17:29:31Z</time>
      </trkpt>
      <trkpt lat="43.3698" lon="2.50738">
        <ele>592</ele>
        <time>2020-09-07T17:29:35Z</time>
      </trkpt>
      <trkpt lat="43.36976" lon="2.50732">
        <ele>594</ele>
        <time>2020-09-07T17:29:36Z</time>
      </trkpt>
      <trkpt lat="43.36975" lon="2.50696">
        <ele>598</ele>
        <time>2020-09-07T17:29:41Z</time>
      </trkpt>
      <trkpt lat="43.36978" lon="2.50657">
        <ele>600</ele>
        <time>2020-09-07T17:29:46Z</time>
      </trkpt>
      <trkpt lat="43.36985" lon="2.50629">
        <ele>599</ele>
        <time>2020-09-07T17:29:50Z</time>
      </trkpt>
      <trkpt lat="43.36987" lon="2.50603">
        <ele>599</ele>
        <time>2020-09-07T17:29:53Z</time>
      </trkpt>
      <trkpt lat="43.36984" lon="2.50569">
        <ele>601</ele>
        <time>2020-09-07T17:29:57Z</time>
      </trkpt>
      <trkpt lat="43.36978" lon="2.50547">
        <ele>604</ele>
        <time>2020-09-07T17:30:00Z</time>
      </trkpt>
      <trkpt lat="43.36971" lon="2.50529">
        <ele>607</ele>
        <time>2020-09-07T17:30:03Z</time>
      </trkpt>
      <trkpt lat="43.36969" lon="2.50512">
        <ele>607</ele>
        <time>2020-09-07T17:30:05Z</time>
      </trkpt>
      <trkpt lat="43.36968" lon="2.50485">
        <ele>608</ele>
        <time>2020-09-07T17:30:09Z</time>
      </trkpt>
      <trkpt lat="43.36959" lon="2.50424">
        <ele>611</ele>
        <time>2020-09-07T17:30:17Z</time>
      </trkpt>
      <trkpt lat="43.36954" lon="2.50373">
        <ele>612</ele>
        <time>2020-09-07T17:30:23Z</time>
      </trkpt>
      <trkpt lat="43.36952" lon="2.5033">
        <ele>612</ele>
        <time>2020-09-07T17:30:29Z</time>
      </trkpt>
      <trkpt lat="43.36945" lon="2.50288">
        <ele>615</ele>
        <time>2020-09-07T17:30:35Z</time>
      </trkpt>
      <trkpt lat="43.36948" lon="2.50268">
        <ele>615</ele>
        <time>2020-09-07T17:30:37Z</time>
      </trkpt>
      <trkpt lat="43.36964" lon="2.50204">
        <ele>616</ele>
        <time>2020-09-07T17:30:46Z</time>
      </trkpt>
      <trkpt lat="43.36967" lon="2.50185">
        <ele>616</ele>
        <time>2020-09-07T17:30:48Z</time>
      </trkpt>
      <trkpt lat="43.36971" lon="2.50121">
        <ele>619</ele>
        <time>2020-09-07T17:30:57Z</time>
      </trkpt>
      <trkpt lat="43.36967" lon="2.50086">
        <ele>623</ele>
        <time>2020-09-07T17:31:01Z</time>
      </trkpt>
      <trkpt lat="43.36973" lon="2.50051">
        <ele>622</ele>
        <time>2020-09-07T17:31:06Z</time>
      </trkpt>
      <trkpt lat="43.36973" lon="2.50016">
        <ele>623</ele>
        <time>2020-09-07T17:31:11Z</time>
      </trkpt>
      <trkpt lat="43.36995" lon="2.49834">
        <ele>632</ele>
        <time>2020-09-07T17:31:34Z</time>
      </trkpt>
      <trkpt lat="43.36996" lon="2.49628">
        <ele>646</ele>
        <time>2020-09-07T17:32:01Z</time>
      </trkpt>
      <trkpt lat="43.37003" lon="2.49557">
        <ele>649</ele>
        <time>2020-09-07T17:32:10Z</time>
      </trkpt>
      <trkpt lat="43.37013" lon="2.49526">
        <ele>650</ele>
        <time>2020-09-07T17:32:15Z</time>
      </trkpt>
      <trkpt lat="43.37033" lon="2.49493">
        <ele>649</ele>
        <time>2020-09-07T17:32:20Z</time>
      </trkpt>
      <trkpt lat="43.371" lon="2.49435">
        <ele>651</ele>
        <time>2020-09-07T17:32:34Z</time>
      </trkpt>
      <trkpt lat="43.37112" lon="2.49428">
        <ele>653</ele>
        <time>2020-09-07T17:32:37Z</time>
      </trkpt>
      <trkpt lat="43.37118" lon="2.4942">
        <ele>655</ele>
        <time>2020-09-07T17:32:38Z</time>
      </trkpt>
      <trkpt lat="43.37119" lon="2.49412">
        <ele>657</ele>
        <time>2020-09-07T17:32:39Z</time>
      </trkpt>
      <trkpt lat="43.37114" lon="2.49402">
        <ele>658</ele>
        <time>2020-09-07T17:32:41Z</time>
      </trkpt>
      <trkpt lat="43.37102" lon="2.49403">
        <ele>657</ele>
        <time>2020-09-07T17:32:43Z</time>
      </trkpt>
      <trkpt lat="43.37057" lon="2.49442">
        <ele>654</ele>
        <time>2020-09-07T17:32:52Z</time>
      </trkpt>
      <trkpt lat="43.37045" lon="2.49449">
        <ele>654</ele>
        <time>2020-09-07T17:32:55Z</time>
      </trkpt>
      <trkpt lat="43.36997" lon="2.49463">
        <ele>661</ele>
        <time>2020-09-07T17:33:03Z</time>
      </trkpt>
      <trkpt lat="43.36981" lon="2.49477">
        <ele>663</ele>
        <time>2020-09-07T17:33:07Z</time>
      </trkpt>
      <trkpt lat="43.36965" lon="2.49503">
        <ele>665</ele>
        <time>2020-09-07T17:33:11Z</time>
      </trkpt>
      <trkpt lat="43.36956" lon="2.49508">
        <ele>667</ele>
        <time>2020-09-07T17:33:13Z</time>
      </trkpt>
      <trkpt lat="43.36948" lon="2.49504">
        <ele>669</ele>
        <time>2020-09-07T17:33:14Z</time>
      </trkpt>
      <trkpt lat="43.36944" lon="2.4949">
        <ele>670</ele>
        <time>2020-09-07T17:33:16Z</time>
      </trkpt>
      <trkpt lat="43.36962" lon="2.49354">
        <ele>667</ele>
        <time>2020-09-07T17:33:34Z</time>
      </trkpt>
      <trkpt lat="43.36982" lon="2.49338">
        <ele>668</ele>
        <time>2020-09-07T17:33:38Z</time>
      </trkpt>
      <trkpt lat="43.37059" lon="2.49299">
        <ele>667</ele>
        <time>2020-09-07T17:33:53Z</time>
      </trkpt>
      <trkpt lat="43.37078" lon="2.49295">
        <ele>667</ele>
        <time>2020-09-07T17:33:56Z</time>
      </trkpt>
      <trkpt lat="43.37095" lon="2.49295">
        <ele>668</ele>
        <time>2020-09-07T17:33:59Z</time>
      </trkpt>
      <trkpt lat="43.37109" lon="2.49303">
        <ele>669</ele>
        <time>2020-09-07T17:34:02Z</time>
      </trkpt>
      <trkpt lat="43.37166" lon="2.49368">
        <ele>665</ele>
        <time>2020-09-07T17:34:15Z</time>
      </trkpt>
      <trkpt lat="43.37178" lon="2.49393">
        <ele>662</ele>
        <time>2020-09-07T17:34:19Z</time>
      </trkpt>
      <trkpt lat="43.37189" lon="2.49423">
        <ele>658</ele>
        <time>2020-09-07T17:34:24Z</time>
      </trkpt>
      <trkpt lat="43.37198" lon="2.49433">
        <ele>657</ele>
        <time>2020-09-07T17:34:26Z</time>
      </trkpt>
      <trkpt lat="43.3721" lon="2.49433">
        <ele>658</ele>
        <time>2020-09-07T17:34:28Z</time>
      </trkpt>
      <trkpt lat="43.37246" lon="2.49418">
        <ele>663</ele>
        <time>2020-09-07T17:34:34Z</time>
      </trkpt>
      <trkpt lat="43.37283" lon="2.49408">
        <ele>666</ele>
        <time>2020-09-07T17:34:41Z</time>
      </trkpt>
      <trkpt lat="43.37304" lon="2.494">
        <ele>669</ele>
        <time>2020-09-07T17:34:45Z</time>
      </trkpt>
      <trkpt lat="43.37344" lon="2.49382">
        <ele>674</ele>
        <time>2020-09-07T17:34:52Z</time>
      </trkpt>
      <trkpt lat="43.37398" lon="2.4935">
        <ele>681</ele>
        <time>2020-09-07T17:35:03Z</time>
      </trkpt>
      <trkpt lat="43.37459" lon="2.49331">
        <ele>683</ele>
        <time>2020-09-07T17:35:14Z</time>
      </trkpt>
      <trkpt lat="43.37472" lon="2.49332">
        <ele>682</ele>
        <time>2020-09-07T17:35:16Z</time>
      </trkpt>
      <trkpt lat="43.37477" lon="2.49336">
        <ele>682</ele>
        <time>2020-09-07T17:35:17Z</time>
      </trkpt>
      <trkpt lat="43.37478" lon="2.49342">
        <ele>683</ele>
        <time>2020-09-07T17:35:18Z</time>
      </trkpt>
      <trkpt lat="43.37477" lon="2.4935">
        <ele>683</ele>
        <time>2020-09-07T17:35:19Z</time>
      </trkpt>
      <trkpt lat="43.37472" lon="2.49358">
        <ele>684</ele>
        <time>2020-09-07T17:35:21Z</time>
      </trkpt>
      <trkpt lat="43.37463" lon="2.49365">
        <ele>683</ele>
        <time>2020-09-07T17:35:22Z</time>
      </trkpt>
      <trkpt lat="43.37449" lon="2.49382">
        <ele>682</ele>
        <time>2020-09-07T17:35:26Z</time>
      </trkpt>
      <trkpt lat="43.37422" lon="2.4942">
        <ele>677</ele>
        <time>2020-09-07T17:35:33Z</time>
      </trkpt>
      <trkpt lat="43.37378" lon="2.49466">
        <ele>677</ele>
        <time>2020-09-07T17:35:43Z</time>
      </trkpt>
      <trkpt lat="43.37368" lon="2.49478">
        <ele>677</ele>
        <time>2020-09-07T17:35:45Z</time>
      </trkpt>
      <trkpt lat="43.3736" lon="2.49493">
        <ele>677</ele>
        <time>2020-09-07T17:35:47Z</time>
      </trkpt>
      <trkpt lat="43.37344" lon="2.4953">
        <ele>678</ele>
        <time>2020-09-07T17:35:53Z</time>
      </trkpt>
      <trkpt lat="43.37311" lon="2.49579">
        <ele>677</ele>
        <time>2020-09-07T17:36:01Z</time>
      </trkpt>
      <trkpt lat="43.37306" lon="2.49593">
        <ele>676</ele>
        <time>2020-09-07T17:36:04Z</time>
      </trkpt>
      <trkpt lat="43.37304" lon="2.49605">
        <ele>677</ele>
        <time>2020-09-07T17:36:05Z</time>
      </trkpt>
      <trkpt lat="43.37312" lon="2.49679">
        <ele>682</ele>
        <time>2020-09-07T17:36:15Z</time>
      </trkpt>
      <trkpt lat="43.37322" lon="2.49732">
        <ele>684</ele>
        <time>2020-09-07T17:36:22Z</time>
      </trkpt>
      <trkpt lat="43.37339" lon="2.49783">
        <ele>689</ele>
        <time>2020-09-07T17:36:29Z</time>
      </trkpt>
      <trkpt lat="43.37343" lon="2.49802">
        <ele>691</ele>
        <time>2020-09-07T17:36:32Z</time>
      </trkpt>
      <trkpt lat="43.37344" lon="2.49826">
        <ele>692</ele>
        <time>2020-09-07T17:36:35Z</time>
      </trkpt>
      <trkpt lat="43.37343" lon="2.49864">
        <ele>692</ele>
        <time>2020-09-07T17:36:40Z</time>
      </trkpt>
      <trkpt lat="43.37333" lon="2.49992">
        <ele>694</ele>
        <time>2020-09-07T17:36:56Z</time>
      </trkpt>
      <trkpt lat="43.37314" lon="2.50079">
        <ele>693</ele>
        <time>2020-09-07T17:37:08Z</time>
      </trkpt>
      <trkpt lat="43.37313" lon="2.50108">
        <ele>694</ele>
        <time>2020-09-07T17:37:12Z</time>
      </trkpt>
      <trkpt lat="43.37321" lon="2.50175">
        <ele>699</ele>
        <time>2020-09-07T17:37:21Z</time>
      </trkpt>
      <trkpt lat="43.37346" lon="2.50338">
        <ele>701</ele>
        <time>2020-09-07T17:37:42Z</time>
      </trkpt>
      <trkpt lat="43.37342" lon="2.50442">
        <ele>698</ele>
        <time>2020-09-07T17:37:56Z</time>
      </trkpt>
      <trkpt lat="43.37345" lon="2.50484">
        <ele>699</ele>
        <time>2020-09-07T17:38:01Z</time>
      </trkpt>
      <trkpt lat="43.37346" lon="2.5063">
        <ele>696</ele>
        <time>2020-09-07T17:38:20Z</time>
      </trkpt>
      <trkpt lat="43.37371" lon="2.50795">
        <ele>691</ele>
        <time>2020-09-07T17:38:42Z</time>
      </trkpt>
      <trkpt lat="43.37391" lon="2.50856">
        <ele>689</ele>
        <time>2020-09-07T17:38:50Z</time>
      </trkpt>
      <trkpt lat="43.37407" lon="2.50899">
        <ele>689</ele>
        <time>2020-09-07T17:38:57Z</time>
      </trkpt>
      <trkpt lat="43.37419" lon="2.50922">
        <ele>688</ele>
        <time>2020-09-07T17:39:00Z</time>
      </trkpt>
      <trkpt lat="43.37427" lon="2.50925">
        <ele>687</ele>
        <time>2020-09-07T17:39:02Z</time>
      </trkpt>
      <trkpt lat="43.37437" lon="2.50924">
        <ele>686</ele>
        <time>2020-09-07T17:39:04Z</time>
      </trkpt>
      <trkpt lat="43.37444" lon="2.50911">
        <ele>686</ele>
        <time>2020-09-07T17:39:06Z</time>
      </trkpt>
      <trkpt lat="43.37452" lon="2.50893">
        <ele>687</ele>
        <time>2020-09-07T17:39:08Z</time>
      </trkpt>
      <trkpt lat="43.37461" lon="2.50877">
        <ele>689</ele>
        <time>2020-09-07T17:39:11Z</time>
      </trkpt>
      <trkpt lat="43.37483" lon="2.50857">
        <ele>689</ele>
        <time>2020-09-07T17:39:16Z</time>
      </trkpt>
      <trkpt lat="43.37492" lon="2.50844">
        <ele>691</ele>
        <time>2020-09-07T17:39:18Z</time>
      </trkpt>
      <trkpt lat="43.37535" lon="2.50748">
        <ele>696</ele>
        <time>2020-09-07T17:39:33Z</time>
      </trkpt>
      <trkpt lat="43.37572" lon="2.50672">
        <ele>701</ele>
        <time>2020-09-07T17:39:44Z</time>
      </trkpt>
      <trkpt lat="43.37613" lon="2.50594">
        <ele>709</ele>
        <time>2020-09-07T17:39:57Z</time>
      </trkpt>
      <trkpt lat="43.37652" lon="2.50547">
        <ele>705</ele>
        <time>2020-09-07T17:40:06Z</time>
      </trkpt>
      <trkpt lat="43.37675" lon="2.50524">
        <ele>701</ele>
        <time>2020-09-07T17:40:11Z</time>
      </trkpt>
      <trkpt lat="43.37683" lon="2.50508">
        <ele>702</ele>
        <time>2020-09-07T17:40:14Z</time>
      </trkpt>
      <trkpt lat="43.37684" lon="2.50489">
        <ele>706</ele>
        <time>2020-09-07T17:40:16Z</time>
      </trkpt>
      <trkpt lat="43.37687" lon="2.50471">
        <ele>709</ele>
        <time>2020-09-07T17:40:19Z</time>
      </trkpt>
      <trkpt lat="43.37699" lon="2.50446">
        <ele>710</ele>
        <time>2020-09-07T17:40:22Z</time>
      </trkpt>
      <trkpt lat="43.37702" lon="2.50427">
        <ele>713</ele>
        <time>2020-09-07T17:40:25Z</time>
      </trkpt>
      <trkpt lat="43.37701" lon="2.50398">
        <ele>722</ele>
        <time>2020-09-07T17:40:29Z</time>
      </trkpt>
      <trkpt lat="43.37704" lon="2.50374">
        <ele>729</ele>
        <time>2020-09-07T17:40:32Z</time>
      </trkpt>
      <trkpt lat="43.37712" lon="2.50347">
        <ele>734</ele>
        <time>2020-09-07T17:40:36Z</time>
      </trkpt>
      <trkpt lat="43.37728" lon="2.50331">
        <ele>735</ele>
        <time>2020-09-07T17:40:39Z</time>
      </trkpt>
      <trkpt lat="43.37743" lon="2.50324">
        <ele>734</ele>
        <time>2020-09-07T17:40:42Z</time>
      </trkpt>
      <trkpt lat="43.3776" lon="2.50324">
        <ele>731</ele>
        <time>2020-09-07T17:40:45Z</time>
      </trkpt>
      <trkpt lat="43.37779" lon="2.50334">
        <ele>725</ele>
        <time>2020-09-07T17:40:49Z</time>
      </trkpt>
      <trkpt lat="43.37799" lon="2.50351">
        <ele>717</ele>
        <time>2020-09-07T17:40:53Z</time>
      </trkpt>
      <trkpt lat="43.3781" lon="2.50357">
        <ele>714</ele>
        <time>2020-09-07T17:40:55Z</time>
      </trkpt>
      <trkpt lat="43.3782" lon="2.50355">
        <ele>715</ele>
        <time>2020-09-07T17:40:57Z</time>
      </trkpt>
      <trkpt lat="43.37855" lon="2.50331">
        <ele>719</ele>
        <time>2020-09-07T17:41:04Z</time>
      </trkpt>
      <trkpt lat="43.37899" lon="2.50287">
        <ele>726</ele>
        <time>2020-09-07T17:41:13Z</time>
      </trkpt>
      <trkpt lat="43.37918" lon="2.50269">
        <ele>727</ele>
        <time>2020-09-07T17:41:17Z</time>
      </trkpt>
      <trkpt lat="43.37973" lon="2.50238">
        <ele>724</ele>
        <time>2020-09-07T17:41:28Z</time>
      </trkpt>
      <trkpt lat="43.3801" lon="2.50202">
        <ele>730</ele>
        <time>2020-09-07T17:41:36Z</time>
      </trkpt>
      <trkpt lat="43.38025" lon="2.50173">
        <ele>740</ele>
        <time>2020-09-07T17:41:41Z</time>
      </trkpt>
      <trkpt lat="43.38034" lon="2.50166">
        <ele>741</ele>
        <time>2020-09-07T17:41:43Z</time>
      </trkpt>
      <trkpt lat="43.38053" lon="2.50165">
        <ele>739</ele>
        <time>2020-09-07T17:41:46Z</time>
      </trkpt>
      <trkpt lat="43.38069" lon="2.50161">
        <ele>738</ele>
        <time>2020-09-07T17:41:49Z</time>
      </trkpt>
      <trkpt lat="43.38102" lon="2.50133">
        <ele>745</ele>
        <time>2020-09-07T17:41:56Z</time>
      </trkpt>
      <trkpt lat="43.3813" lon="2.50119">
        <ele>749</ele>
        <time>2020-09-07T17:42:01Z</time>
      </trkpt>
      <trkpt lat="43.38146" lon="2.50115">
        <ele>749</ele>
        <time>2020-09-07T17:42:04Z</time>
      </trkpt>
      <trkpt lat="43.38159" lon="2.50118">
        <ele>747</ele>
        <time>2020-09-07T17:42:06Z</time>
      </trkpt>
      <trkpt lat="43.38169" lon="2.50125">
        <ele>745</ele>
        <time>2020-09-07T17:42:08Z</time>
      </trkpt>
      <trkpt lat="43.3818" lon="2.50125">
        <ele>748</ele>
        <time>2020-09-07T17:42:10Z</time>
      </trkpt>
      <trkpt lat="43.38188" lon="2.50129">
        <ele>749</ele>
        <time>2020-09-07T17:42:12Z</time>
      </trkpt>
      <trkpt lat="43.38193" lon="2.50136">
        <ele>749</ele>
        <time>2020-09-07T17:42:13Z</time>
      </trkpt>
      <trkpt lat="43.3822" lon="2.50153">
        <ele>753</ele>
        <time>2020-09-07T17:42:18Z</time>
      </trkpt>
      <trkpt lat="43.38227" lon="2.50162">
        <ele>753</ele>
        <time>2020-09-07T17:42:20Z</time>
      </trkpt>
      <trkpt lat="43.3823" lon="2.50167">
        <ele>752</ele>
        <time>2020-09-07T17:42:21Z</time>
      </trkpt>
      <trkpt lat="43.3823" lon="2.50176">
        <ele>752</ele>
        <time>2020-09-07T17:42:22Z</time>
      </trkpt>
      <trkpt lat="43.38224" lon="2.50197">
        <ele>748</ele>
        <time>2020-09-07T17:42:25Z</time>
      </trkpt>
      <trkpt lat="43.38176" lon="2.50486">
        <ele>738</ele>
        <time>2020-09-07T17:43:03Z</time>
      </trkpt>
      <trkpt lat="43.38174" lon="2.50537">
        <ele>735</ele>
        <time>2020-09-07T17:43:10Z</time>
      </trkpt>
      <trkpt lat="43.38176" lon="2.50552">
        <ele>734</ele>
        <time>2020-09-07T17:43:12Z</time>
      </trkpt>
      <trkpt lat="43.38182" lon="2.50561">
        <ele>734</ele>
        <time>2020-09-07T17:43:13Z</time>
      </trkpt>
      <trkpt lat="43.3819" lon="2.50565">
        <ele>735</ele>
        <time>2020-09-07T17:43:15Z</time>
      </trkpt>
      <trkpt lat="43.38202" lon="2.50565">
        <ele>737</ele>
        <time>2020-09-07T17:43:17Z</time>
      </trkpt>
      <trkpt lat="43.38227" lon="2.50559">
        <ele>743</ele>
        <time>2020-09-07T17:43:22Z</time>
      </trkpt>
      <trkpt lat="43.38281" lon="2.50541">
        <ele>750</ele>
        <time>2020-09-07T17:43:31Z</time>
      </trkpt>
      <trkpt lat="43.38367" lon="2.50486">
        <ele>760</ele>
        <time>2020-09-07T17:43:48Z</time>
      </trkpt>
      <trkpt lat="43.38381" lon="2.50481">
        <ele>760</ele>
        <time>2020-09-07T17:43:51Z</time>
      </trkpt>
      <trkpt lat="43.38408" lon="2.50477">
        <ele>759</ele>
        <time>2020-09-07T17:43:56Z</time>
      </trkpt>
      <trkpt lat="43.38444" lon="2.50478">
        <ele>760</ele>
        <time>2020-09-07T17:44:02Z</time>
      </trkpt>
      <trkpt lat="43.38477" lon="2.50481">
        <ele>761</ele>
        <time>2020-09-07T17:44:08Z</time>
      </trkpt>
      <trkpt lat="43.38492" lon="2.50488">
        <ele>759</ele>
        <time>2020-09-07T17:44:11Z</time>
      </trkpt>
      <trkpt lat="43.38504" lon="2.50497">
        <ele>757</ele>
        <time>2020-09-07T17:44:13Z</time>
      </trkpt>
      <trkpt lat="43.3853" lon="2.5051">
        <ele>762</ele>
        <time>2020-09-07T17:44:18Z</time>
      </trkpt>
      <trkpt lat="43.38537" lon="2.50515">
        <ele>764</ele>
        <time>2020-09-07T17:44:20Z</time>
      </trkpt>
      <trkpt lat="43.38541" lon="2.50521">
        <ele>764</ele>
        <time>2020-09-07T17:44:21Z</time>
      </trkpt>
      <trkpt lat="43.38544" lon="2.5053">
        <ele>764</ele>
        <time>2020-09-07T17:44:22Z</time>
      </trkpt>
      <trkpt lat="43.38543" lon="2.50576">
        <ele>756</ele>
        <time>2020-09-07T17:44:28Z</time>
      </trkpt>
      <trkpt lat="43.38549" lon="2.50637">
        <ele>753</ele>
        <time>2020-09-07T17:44:36Z</time>
      </trkpt>
      <trkpt lat="43.38575" lon="2.50747">
        <ele>757</ele>
        <time>2020-09-07T17:44:51Z</time>
      </trkpt>
      <trkpt lat="43.38578" lon="2.50765">
        <ele>756</ele>
        <time>2020-09-07T17:44:53Z</time>
      </trkpt>
      <trkpt lat="43.38581" lon="2.50805">
        <ele>753</ele>
        <time>2020-09-07T17:44:58Z</time>
      </trkpt>
      <trkpt lat="43.38593" lon="2.50848">
        <ele>758</ele>
        <time>2020-09-07T17:45:04Z</time>
      </trkpt>
      <trkpt lat="43.38594" lon="2.50856">
        <ele>759</ele>
        <time>2020-09-07T17:45:05Z</time>
      </trkpt>
      <trkpt lat="43.3859" lon="2.50868">
        <ele>759</ele>
        <time>2020-09-07T17:45:07Z</time>
      </trkpt>
      <trkpt lat="43.38578" lon="2.50878">
        <ele>755</ele>
        <time>2020-09-07T17:45:10Z</time>
      </trkpt>
      <trkpt lat="43.38526" lon="2.50901">
        <ele>743</ele>
        <time>2020-09-07T17:45:19Z</time>
      </trkpt>
      <trkpt lat="43.38515" lon="2.50907">
        <ele>741</ele>
        <time>2020-09-07T17:45:21Z</time>
      </trkpt>
      <trkpt lat="43.38503" lon="2.5092">
        <ele>741</ele>
        <time>2020-09-07T17:45:24Z</time>
      </trkpt>
      <trkpt lat="43.38485" lon="2.50951">
        <ele>741</ele>
        <time>2020-09-07T17:45:29Z</time>
      </trkpt>
      <trkpt lat="43.38472" lon="2.50978">
        <ele>743</ele>
        <time>2020-09-07T17:45:33Z</time>
      </trkpt>
      <trkpt lat="43.38439" lon="2.51033">
        <ele>742</ele>
        <time>2020-09-07T17:45:43Z</time>
      </trkpt>
      <trkpt lat="43.38426" lon="2.5108">
        <ele>746</ele>
        <time>2020-09-07T17:45:49Z</time>
      </trkpt>
      <trkpt lat="43.38421" lon="2.51186">
        <ele>748</ele>
        <time>2020-09-07T17:46:03Z</time>
      </trkpt>
      <trkpt lat="43.38434" lon="2.51312">
        <ele>747</ele>
        <time>2020-09-07T17:46:19Z</time>
      </trkpt>
      <trkpt lat="43.38436" lon="2.51362">
        <ele>747</ele>
        <time>2020-09-07T17:46:26Z</time>
      </trkpt>
      <trkpt lat="43.38449" lon="2.5142">
        <ele>754</ele>
        <time>2020-09-07T17:46:34Z</time>
      </trkpt>
      <trkpt lat="43.3845" lon="2.51434">
        <ele>756</ele>
        <time>2020-09-07T17:46:35Z</time>
      </trkpt>
      <trkpt lat="43.38448" lon="2.51444">
        <ele>756</ele>
        <time>2020-09-07T17:46:37Z</time>
      </trkpt>
      <trkpt lat="43.38444" lon="2.51452">
        <ele>756</ele>
        <time>2020-09-07T17:46:38Z</time>
      </trkpt>
      <trkpt lat="43.38435" lon="2.51457">
        <ele>753</ele>
        <time>2020-09-07T17:46:40Z</time>
      </trkpt>
      <trkpt lat="43.38372" lon="2.51474">
        <ele>740</ele>
        <time>2020-09-07T17:46:51Z</time>
      </trkpt>
      <trkpt lat="43.38335" lon="2.51491">
        <ele>738</ele>
        <time>2020-09-07T17:46:58Z</time>
      </trkpt>
      <trkpt lat="43.38287" lon="2.51527">
        <ele>736</ele>
        <time>2020-09-07T17:47:08Z</time>
      </trkpt>
      <trkpt lat="43.38256" lon="2.51544">
        <ele>732</ele>
        <time>2020-09-07T17:47:14Z</time>
      </trkpt>
      <trkpt lat="43.3825" lon="2.51551">
        <ele>732</ele>
        <time>2020-09-07T17:47:15Z</time>
      </trkpt>
      <trkpt lat="43.38246" lon="2.51561">
        <ele>733</ele>
        <time>2020-09-07T17:47:17Z</time>
      </trkpt>
      <trkpt lat="43.38246" lon="2.51571">
        <ele>735</ele>
        <time>2020-09-07T17:47:18Z</time>
      </trkpt>
      <trkpt lat="43.38249" lon="2.51584">
        <ele>738</ele>
        <time>2020-09-07T17:47:20Z</time>
      </trkpt>
      <trkpt lat="43.38254" lon="2.51597">
        <ele>737</ele>
        <time>2020-09-07T17:47:22Z</time>
      </trkpt>
      <trkpt lat="43.38274" lon="2.51627">
        <ele>739</ele>
        <time>2020-09-07T17:47:27Z</time>
      </trkpt>
      <trkpt lat="43.38325" lon="2.51728">
        <ele>741</ele>
        <time>2020-09-07T17:47:43Z</time>
      </trkpt>
      <trkpt lat="43.38349" lon="2.51797">
        <ele>738</ele>
        <time>2020-09-07T17:47:53Z</time>
      </trkpt>
      <trkpt lat="43.38361" lon="2.51837">
        <ele>734</ele>
        <time>2020-09-07T17:47:58Z</time>
      </trkpt>
      <trkpt lat="43.38379" lon="2.51877">
        <ele>731</ele>
        <time>2020-09-07T17:48:04Z</time>
      </trkpt>
      <trkpt lat="43.38388" lon="2.51886">
        <ele>730</ele>
        <time>2020-09-07T17:48:06Z</time>
      </trkpt>
      <trkpt lat="43.38398" lon="2.51889">
        <ele>730</ele>
        <time>2020-09-07T17:48:08Z</time>
      </trkpt>
      <trkpt lat="43.38409" lon="2.51889">
        <ele>731</ele>
        <time>2020-09-07T17:48:10Z</time>
      </trkpt>
      <trkpt lat="43.3842" lon="2.51883">
        <ele>733</ele>
        <time>2020-09-07T17:48:12Z</time>
      </trkpt>
      <trkpt lat="43.3844" lon="2.51868">
        <ele>732</ele>
        <time>2020-09-07T17:48:16Z</time>
      </trkpt>
      <trkpt lat="43.38449" lon="2.5186">
        <ele>733</ele>
        <time>2020-09-07T17:48:18Z</time>
      </trkpt>
      <trkpt lat="43.38471" lon="2.51829">
        <ele>737</ele>
        <time>2020-09-07T17:48:24Z</time>
      </trkpt>
      <trkpt lat="43.3849" lon="2.51809">
        <ele>739</ele>
        <time>2020-09-07T17:48:28Z</time>
      </trkpt>
      <trkpt lat="43.38521" lon="2.51779">
        <ele>740</ele>
        <time>2020-09-07T17:48:35Z</time>
      </trkpt>
      <trkpt lat="43.38545" lon="2.51762">
        <ele>738</ele>
        <time>2020-09-07T17:48:40Z</time>
      </trkpt>
      <trkpt lat="43.38582" lon="2.51728">
        <ele>738</ele>
        <time>2020-09-07T17:48:48Z</time>
      </trkpt>
      <trkpt lat="43.38617" lon="2.51683">
        <ele>742</ele>
        <time>2020-09-07T17:48:56Z</time>
      </trkpt>
      <trkpt lat="43.38627" lon="2.51678">
        <ele>741</ele>
        <time>2020-09-07T17:48:58Z</time>
      </trkpt>
      <trkpt lat="43.38658" lon="2.51667">
        <ele>735</ele>
        <time>2020-09-07T17:49:04Z</time>
      </trkpt>
      <trkpt lat="43.38759" lon="2.51583">
        <ele>730</ele>
        <time>2020-09-07T17:49:25Z</time>
      </trkpt>
      <trkpt lat="43.38771" lon="2.5157">
        <ele>729</ele>
        <time>2020-09-07T17:49:27Z</time>
      </trkpt>
      <trkpt lat="43.38788" lon="2.51546">
        <ele>728</ele>
        <time>2020-09-07T17:49:32Z</time>
      </trkpt>
      <trkpt lat="43.38803" lon="2.51514">
        <ele>729</ele>
        <time>2020-09-07T17:49:37Z</time>
      </trkpt>
      <trkpt lat="43.38818" lon="2.5147">
        <ele>733</ele>
        <time>2020-09-07T17:49:43Z</time>
      </trkpt>
      <trkpt lat="43.38825" lon="2.51444">
        <ele>737</ele>
        <time>2020-09-07T17:49:47Z</time>
      </trkpt>
      <trkpt lat="43.38837" lon="2.51426">
        <ele>736</ele>
        <time>2020-09-07T17:49:50Z</time>
      </trkpt>
      <trkpt lat="43.38844" lon="2.51418">
        <ele>737</ele>
        <time>2020-09-07T17:49:51Z</time>
      </trkpt>
      <trkpt lat="43.38858" lon="2.5141">
        <ele>736</ele>
        <time>2020-09-07T17:49:54Z</time>
      </trkpt>
      <trkpt lat="43.38917" lon="2.51386">
        <ele>732</ele>
        <time>2020-09-07T17:50:05Z</time>
      </trkpt>
      <trkpt lat="43.38955" lon="2.51375">
        <ele>736</ele>
        <time>2020-09-07T17:50:12Z</time>
      </trkpt>
      <trkpt lat="43.38991" lon="2.51368">
        <ele>737</ele>
        <time>2020-09-07T17:50:18Z</time>
      </trkpt>
      <trkpt lat="43.39006" lon="2.51373">
        <ele>736</ele>
        <time>2020-09-07T17:50:21Z</time>
      </trkpt>
      <trkpt lat="43.39021" lon="2.51385">
        <ele>736</ele>
        <time>2020-09-07T17:50:24Z</time>
      </trkpt>
      <trkpt lat="43.39027" lon="2.51392">
        <ele>735</ele>
        <time>2020-09-07T17:50:26Z</time>
      </trkpt>
      <trkpt lat="43.39038" lon="2.51422">
        <ele>727</ele>
        <time>2020-09-07T17:50:30Z</time>
      </trkpt>
      <trkpt lat="43.39042" lon="2.51429">
        <ele>726</ele>
        <time>2020-09-07T17:50:31Z</time>
      </trkpt>
      <trkpt lat="43.39047" lon="2.51435">
        <ele>726</ele>
        <time>2020-09-07T17:50:32Z</time>
      </trkpt>
      <trkpt lat="43.39068" lon="2.51447">
        <ele>729</ele>
        <time>2020-09-07T17:50:36Z</time>
      </trkpt>
      <trkpt lat="43.39077" lon="2.51457">
        <ele>729</ele>
        <time>2020-09-07T17:50:38Z</time>
      </trkpt>
      <trkpt lat="43.39091" lon="2.51507">
        <ele>722</ele>
        <time>2020-09-07T17:50:45Z</time>
      </trkpt>
      <trkpt lat="43.39094" lon="2.51538">
        <ele>719</ele>
        <time>2020-09-07T17:50:49Z</time>
      </trkpt>
      <trkpt lat="43.39098" lon="2.51548">
        <ele>719</ele>
        <time>2020-09-07T17:50:51Z</time>
      </trkpt>
      <trkpt lat="43.39134" lon="2.51647">
        <ele>711</ele>
        <time>2020-09-07T17:51:05Z</time>
      </trkpt>
      <trkpt lat="43.39147" lon="2.51664">
        <ele>710</ele>
        <time>2020-09-07T17:51:08Z</time>
      </trkpt>
      <trkpt lat="43.39172" lon="2.51681">
        <ele>709</ele>
        <time>2020-09-07T17:51:13Z</time>
      </trkpt>
      <trkpt lat="43.39192" lon="2.51686">
        <ele>709</ele>
        <time>2020-09-07T17:51:17Z</time>
      </trkpt>
      <trkpt lat="43.39209" lon="2.51687">
        <ele>709</ele>
        <time>2020-09-07T17:51:20Z</time>
      </trkpt>
      <trkpt lat="43.39241" lon="2.51684">
        <ele>713</ele>
        <time>2020-09-07T17:51:26Z</time>
      </trkpt>
      <trkpt lat="43.39249" lon="2.51679">
        <ele>715</ele>
        <time>2020-09-07T17:51:27Z</time>
      </trkpt>
      <trkpt lat="43.39269" lon="2.51662">
        <ele>726</ele>
        <time>2020-09-07T17:51:31Z</time>
      </trkpt>
      <trkpt lat="43.39279" lon="2.51661">
        <ele>728</ele>
        <time>2020-09-07T17:51:33Z</time>
      </trkpt>
      <trkpt lat="43.39285" lon="2.51664">
        <ele>728</ele>
        <time>2020-09-07T17:51:34Z</time>
      </trkpt>
      <trkpt lat="43.39297" lon="2.51694">
        <ele>723</ele>
        <time>2020-09-07T17:51:39Z</time>
      </trkpt>
      <trkpt lat="43.39328" lon="2.51719">
        <ele>725</ele>
        <time>2020-09-07T17:51:45Z</time>
      </trkpt>
      <trkpt lat="43.39331" lon="2.51729">
        <ele>724</ele>
        <time>2020-09-07T17:51:46Z</time>
      </trkpt>
      <trkpt lat="43.3933" lon="2.51735">
        <ele>722</ele>
        <time>2020-09-07T17:51:47Z</time>
      </trkpt>
      <trkpt lat="43.39298" lon="2.51802">
        <ele>710</ele>
        <time>2020-09-07T17:51:58Z</time>
      </trkpt>
      <trkpt lat="43.39272" lon="2.51863">
        <ele>705</ele>
        <time>2020-09-07T17:52:07Z</time>
      </trkpt>
      <trkpt lat="43.3924" lon="2.51924">
        <ele>703</ele>
        <time>2020-09-07T17:52:17Z</time>
      </trkpt>
      <trkpt lat="43.39203" lon="2.51979">
        <ele>703</ele>
        <time>2020-09-07T17:52:26Z</time>
      </trkpt>
      <trkpt lat="43.39158" lon="2.52026">
        <ele>696</ele>
        <time>2020-09-07T17:52:36Z</time>
      </trkpt>
      <trkpt lat="43.39144" lon="2.5205">
        <ele>696</ele>
        <time>2020-09-07T17:52:40Z</time>
      </trkpt>
      <trkpt lat="43.39138" lon="2.52066">
        <ele>697</ele>
        <time>2020-09-07T17:52:43Z</time>
      </trkpt>
      <trkpt lat="43.39118" lon="2.52128">
        <ele>698</ele>
        <time>2020-09-07T17:52:51Z</time>
      </trkpt>
      <trkpt lat="43.39105" lon="2.52162">
        <ele>696</ele>
        <time>2020-09-07T17:52:56Z</time>
      </trkpt>
      <trkpt lat="43.39095" lon="2.52199">
        <ele>697</ele>
        <time>2020-09-07T17:53:01Z</time>
      </trkpt>
      <trkpt lat="43.39087" lon="2.52241">
        <ele>699</ele>
        <time>2020-09-07T17:53:07Z</time>
      </trkpt>
      <trkpt lat="43.39075" lon="2.52267">
        <ele>699</ele>
        <time>2020-09-07T17:53:11Z</time>
      </trkpt>
      <trkpt lat="43.39058" lon="2.52289">
        <ele>697</ele>
        <time>2020-09-07T17:53:15Z</time>
      </trkpt>
      <trkpt lat="43.39041" lon="2.52316">
        <ele>697</ele>
        <time>2020-09-07T17:53:20Z</time>
      </trkpt>
      <trkpt lat="43.38978" lon="2.52441">
        <ele>696</ele>
        <time>2020-09-07T17:53:39Z</time>
      </trkpt>
      <trkpt lat="43.38945" lon="2.52511">
        <ele>695</ele>
        <time>2020-09-07T17:53:50Z</time>
      </trkpt>
      <trkpt lat="43.38906" lon="2.52608">
        <ele>692</ele>
        <time>2020-09-07T17:54:05Z</time>
      </trkpt>
      <trkpt lat="43.389" lon="2.52652">
        <ele>695</ele>
        <time>2020-09-07T17:54:10Z</time>
      </trkpt>
      <trkpt lat="43.38892" lon="2.52681">
        <ele>695</ele>
        <time>2020-09-07T17:54:14Z</time>
      </trkpt>
      <trkpt lat="43.38891" lon="2.52695">
        <ele>695</ele>
        <time>2020-09-07T17:54:16Z</time>
      </trkpt>
      <trkpt lat="43.38895" lon="2.52723">
        <ele>698</ele>
        <time>2020-09-07T17:54:20Z</time>
      </trkpt>
      <trkpt lat="43.38903" lon="2.52747">
        <ele>701</ele>
        <time>2020-09-07T17:54:23Z</time>
      </trkpt>
      <trkpt lat="43.38947" lon="2.52822">
        <ele>702</ele>
        <time>2020-09-07T17:54:36Z</time>
      </trkpt>
      <trkpt lat="43.38954" lon="2.52829">
        <ele>703</ele>
        <time>2020-09-07T17:54:37Z</time>
      </trkpt>
      <trkpt lat="43.38972" lon="2.52838">
        <ele>705</ele>
        <time>2020-09-07T17:54:41Z</time>
      </trkpt>
      <trkpt lat="43.38991" lon="2.52843">
        <ele>709</ele>
        <time>2020-09-07T17:54:44Z</time>
      </trkpt>
      <trkpt lat="43.39011" lon="2.52852">
        <ele>713</ele>
        <time>2020-09-07T17:54:48Z</time>
      </trkpt>
      <trkpt lat="43.39021" lon="2.52858">
        <ele>715</ele>
        <time>2020-09-07T17:54:50Z</time>
      </trkpt>
      <trkpt lat="43.39031" lon="2.52869">
        <ele>716</ele>
        <time>2020-09-07T17:54:52Z</time>
      </trkpt>
      <trkpt lat="43.39052" lon="2.52902">
        <ele>717</ele>
        <time>2020-09-07T17:54:58Z</time>
      </trkpt>
      <trkpt lat="43.39068" lon="2.52936">
        <ele>717</ele>
        <time>2020-09-07T17:55:03Z</time>
      </trkpt>
      <trkpt lat="43.39082" lon="2.52974">
        <ele>715</ele>
        <time>2020-09-07T17:55:09Z</time>
      </trkpt>
      <trkpt lat="43.39091" lon="2.53002">
        <ele>712</ele>
        <time>2020-09-07T17:55:12Z</time>
      </trkpt>
      <trkpt lat="43.39105" lon="2.53054">
        <ele>708</ele>
        <time>2020-09-07T17:55:20Z</time>
      </trkpt>
      <trkpt lat="43.39109" lon="2.53061">
        <ele>707</ele>
        <time>2020-09-07T17:55:21Z</time>
      </trkpt>
      <trkpt lat="43.39114" lon="2.53065">
        <ele>707</ele>
        <time>2020-09-07T17:55:22Z</time>
      </trkpt>
      <trkpt lat="43.39123" lon="2.53066">
        <ele>708</ele>
        <time>2020-09-07T17:55:23Z</time>
      </trkpt>
      <trkpt lat="43.39128" lon="2.53064">
        <ele>709</ele>
        <time>2020-09-07T17:55:24Z</time>
      </trkpt>
      <trkpt lat="43.39142" lon="2.53053">
        <ele>713</ele>
        <time>2020-09-07T17:55:27Z</time>
      </trkpt>
      <trkpt lat="43.39197" lon="2.52991">
        <ele>725</ele>
        <time>2020-09-07T17:55:40Z</time>
      </trkpt>
      <trkpt lat="43.39273" lon="2.52895">
        <ele>737</ele>
        <time>2020-09-07T17:55:58Z</time>
      </trkpt>
      <trkpt lat="43.39337" lon="2.52827">
        <ele>739</ele>
        <time>2020-09-07T17:56:13Z</time>
      </trkpt>
      <trkpt lat="43.39348" lon="2.52814">
        <ele>739</ele>
        <time>2020-09-07T17:56:15Z</time>
      </trkpt>
      <trkpt lat="43.39364" lon="2.52783">
        <ele>743</ele>
        <time>2020-09-07T17:56:20Z</time>
      </trkpt>
      <trkpt lat="43.3937" lon="2.52763">
        <ele>746</ele>
        <time>2020-09-07T17:56:23Z</time>
      </trkpt>
      <trkpt lat="43.39384" lon="2.52699">
        <ele>752</ele>
        <time>2020-09-07T17:56:32Z</time>
      </trkpt>
      <trkpt lat="43.3939" lon="2.52659">
        <ele>757</ele>
        <time>2020-09-07T17:56:37Z</time>
      </trkpt>
      <trkpt lat="43.39393" lon="2.52647">
        <ele>759</ele>
        <time>2020-09-07T17:56:38Z</time>
      </trkpt>
      <trkpt lat="43.39404" lon="2.52624">
        <ele>761</ele>
        <time>2020-09-07T17:56:42Z</time>
      </trkpt>
      <trkpt lat="43.39412" lon="2.52614">
        <ele>761</ele>
        <time>2020-09-07T17:56:44Z</time>
      </trkpt>
      <trkpt lat="43.3942" lon="2.52607">
        <ele>761</ele>
        <time>2020-09-07T17:56:46Z</time>
      </trkpt>
      <trkpt lat="43.3943" lon="2.52602">
        <ele>761</ele>
        <time>2020-09-07T17:56:48Z</time>
      </trkpt>
      <trkpt lat="43.39466" lon="2.5259">
        <ele>760</ele>
        <time>2020-09-07T17:56:54Z</time>
      </trkpt>
      <trkpt lat="43.39539" lon="2.52556">
        <ele>767</ele>
        <time>2020-09-07T17:57:08Z</time>
      </trkpt>
      <trkpt lat="43.39587" lon="2.52546">
        <ele>768</ele>
        <time>2020-09-07T17:57:16Z</time>
      </trkpt>
      <trkpt lat="43.39608" lon="2.52534">
        <ele>775</ele>
        <time>2020-09-07T17:57:21Z</time>
      </trkpt>
      <trkpt lat="43.39613" lon="2.52534">
        <ele>775</ele>
        <time>2020-09-07T17:57:21Z</time>
      </trkpt>
      <trkpt lat="43.39621" lon="2.52537">
        <ele>775</ele>
        <time>2020-09-07T17:57:23Z</time>
      </trkpt>
      <trkpt lat="43.39632" lon="2.52556">
        <ele>771</ele>
        <time>2020-09-07T17:57:26Z</time>
      </trkpt>
      <trkpt lat="43.39645" lon="2.52569">
        <ele>770</ele>
        <time>2020-09-07T17:57:29Z</time>
      </trkpt>
      <trkpt lat="43.39691" lon="2.52607">
        <ele>769</ele>
        <time>2020-09-07T17:57:38Z</time>
      </trkpt>
      <trkpt lat="43.39701" lon="2.52612">
        <ele>769</ele>
        <time>2020-09-07T17:57:40Z</time>
      </trkpt>
      <trkpt lat="43.39723" lon="2.52618">
        <ele>770</ele>
        <time>2020-09-07T17:57:44Z</time>
      </trkpt>
      <trkpt lat="43.39749" lon="2.52615">
        <ele>773</ele>
        <time>2020-09-07T17:57:49Z</time>
      </trkpt>
      <trkpt lat="43.39765" lon="2.52609">
        <ele>772</ele>
        <time>2020-09-07T17:57:52Z</time>
      </trkpt>
      <trkpt lat="43.39776" lon="2.52602">
        <ele>772</ele>
        <time>2020-09-07T17:57:54Z</time>
      </trkpt>
      <trkpt lat="43.39787" lon="2.52592">
        <ele>773</ele>
        <time>2020-09-07T17:57:56Z</time>
      </trkpt>
      <trkpt lat="43.39794" lon="2.5258">
        <ele>775</ele>
        <time>2020-09-07T17:57:58Z</time>
      </trkpt>
      <trkpt lat="43.39799" lon="2.52565">
        <ele>776</ele>
        <time>2020-09-07T17:58:01Z</time>
      </trkpt>
      <trkpt lat="43.39802" lon="2.52549">
        <ele>777</ele>
        <time>2020-09-07T17:58:03Z</time>
      </trkpt>
      <trkpt lat="43.39809" lon="2.52492">
        <ele>783</ele>
        <time>2020-09-07T17:58:10Z</time>
      </trkpt>
      <trkpt lat="43.39811" lon="2.52465">
        <ele>785</ele>
        <time>2020-09-07T17:58:14Z</time>
      </trkpt>
      <trkpt lat="43.39812" lon="2.5244">
        <ele>788</ele>
        <time>2020-09-07T17:58:17Z</time>
      </trkpt>
      <trkpt lat="43.39809" lon="2.52352">
        <ele>794</ele>
        <time>2020-09-07T17:58:28Z</time>
      </trkpt>
      <trkpt lat="43.39814" lon="2.52277">
        <ele>798</ele>
        <time>2020-09-07T17:58:38Z</time>
      </trkpt>
      <trkpt lat="43.39817" lon="2.52217">
        <ele>804</ele>
        <time>2020-09-07T17:58:46Z</time>
      </trkpt>
      <trkpt lat="43.39823" lon="2.52179">
        <ele>808</ele>
        <time>2020-09-07T17:58:51Z</time>
      </trkpt>
      <trkpt lat="43.39828" lon="2.52164">
        <ele>808</ele>
        <time>2020-09-07T17:58:53Z</time>
      </trkpt>
      <trkpt lat="43.39869" lon="2.52084">
        <ele>807</ele>
        <time>2020-09-07T17:59:06Z</time>
      </trkpt>
      <trkpt lat="43.39905" lon="2.52008">
        <ele>813</ele>
        <time>2020-09-07T17:59:17Z</time>
      </trkpt>
      <trkpt lat="43.39935" lon="2.51925">
        <ele>821</ele>
        <time>2020-09-07T17:59:29Z</time>
      </trkpt>
      <trkpt lat="43.39942" lon="2.5191">
        <ele>823</ele>
        <time>2020-09-07T17:59:32Z</time>
      </trkpt>
      <trkpt lat="43.39953" lon="2.51893">
        <ele>824</ele>
        <time>2020-09-07T17:59:35Z</time>
      </trkpt>
      <trkpt lat="43.39968" lon="2.51876">
        <ele>824</ele>
        <time>2020-09-07T17:59:38Z</time>
      </trkpt>
      <trkpt lat="43.4002" lon="2.51835">
        <ele>818</ele>
        <time>2020-09-07T17:59:49Z</time>
      </trkpt>
      <trkpt lat="43.40033" lon="2.51815">
        <ele>818</ele>
        <time>2020-09-07T17:59:52Z</time>
      </trkpt>
      <trkpt lat="43.4004" lon="2.51791">
        <ele>821</ele>
        <time>2020-09-07T17:59:56Z</time>
      </trkpt>
      <trkpt lat="43.40057" lon="2.51668">
        <ele>839</ele>
        <time>2020-09-07T18:00:12Z</time>
      </trkpt>
      <trkpt lat="43.40069" lon="2.51626">
        <ele>845</ele>
        <time>2020-09-07T18:00:18Z</time>
      </trkpt>
      <trkpt lat="43.40077" lon="2.51611">
        <ele>845</ele>
        <time>2020-09-07T18:00:20Z</time>
      </trkpt>
      <trkpt lat="43.40136" lon="2.51532">
        <ele>853</ele>
        <time>2020-09-07T18:00:35Z</time>
      </trkpt>
      <trkpt lat="43.40143" lon="2.51527">
        <ele>854</ele>
        <time>2020-09-07T18:00:36Z</time>
      </trkpt>
      <trkpt lat="43.40159" lon="2.51525">
        <ele>851</ele>
        <time>2020-09-07T18:00:39Z</time>
      </trkpt>
      <trkpt lat="43.40197" lon="2.51537">
        <ele>843</ele>
        <time>2020-09-07T18:00:46Z</time>
      </trkpt>
      <trkpt lat="43.40212" lon="2.51538">
        <ele>842</ele>
        <time>2020-09-07T18:00:48Z</time>
      </trkpt>
      <trkpt lat="43.40233" lon="2.51527">
        <ele>847</ele>
        <time>2020-09-07T18:00:52Z</time>
      </trkpt>
      <trkpt lat="43.40256" lon="2.51499">
        <ele>859</ele>
        <time>2020-09-07T18:00:58Z</time>
      </trkpt>
      <trkpt lat="43.40283" lon="2.51472">
        <ele>868</ele>
        <time>2020-09-07T18:01:04Z</time>
      </trkpt>
      <trkpt lat="43.40289" lon="2.51469">
        <ele>869</ele>
        <time>2020-09-07T18:01:05Z</time>
      </trkpt>
      <trkpt lat="43.40295" lon="2.51469">
        <ele>869</ele>
        <time>2020-09-07T18:01:06Z</time>
      </trkpt>
      <trkpt lat="43.40301" lon="2.51472">
        <ele>868</ele>
        <time>2020-09-07T18:01:07Z</time>
      </trkpt>
      <trkpt lat="43.40328" lon="2.51506">
        <ele>857</ele>
        <time>2020-09-07T18:01:14Z</time>
      </trkpt>
      <trkpt lat="43.40343" lon="2.51521">
        <ele>854</ele>
        <time>2020-09-07T18:01:17Z</time>
      </trkpt>
      <trkpt lat="43.40358" lon="2.51531">
        <ele>853</ele>
        <time>2020-09-07T18:01:20Z</time>
      </trkpt>
      <trkpt lat="43.40371" lon="2.5153">
        <ele>856</ele>
        <time>2020-09-07T18:01:22Z</time>
      </trkpt>
      <trkpt lat="43.40407" lon="2.51514">
        <ele>864</ele>
        <time>2020-09-07T18:01:29Z</time>
      </trkpt>
      <trkpt lat="43.40417" lon="2.51514">
        <ele>866</ele>
        <time>2020-09-07T18:01:31Z</time>
      </trkpt>
      <trkpt lat="43.40428" lon="2.51516">
        <ele>868</ele>
        <time>2020-09-07T18:01:33Z</time>
      </trkpt>
      <trkpt lat="43.40438" lon="2.51522">
        <ele>869</ele>
        <time>2020-09-07T18:01:35Z</time>
      </trkpt>
      <trkpt lat="43.40448" lon="2.51531">
        <ele>869</ele>
        <time>2020-09-07T18:01:37Z</time>
      </trkpt>
      <trkpt lat="43.40462" lon="2.5155">
        <ele>868</ele>
        <time>2020-09-07T18:01:40Z</time>
      </trkpt>
      <trkpt lat="43.40473" lon="2.51569">
        <ele>866</ele>
        <time>2020-09-07T18:01:43Z</time>
      </trkpt>
      <trkpt lat="43.40521" lon="2.51679">
        <ele>855</ele>
        <time>2020-09-07T18:02:00Z</time>
      </trkpt>
      <trkpt lat="43.40531" lon="2.51694">
        <ele>855</ele>
        <time>2020-09-07T18:02:03Z</time>
      </trkpt>
      <trkpt lat="43.40563" lon="2.51725">
        <ele>856</ele>
        <time>2020-09-07T18:02:10Z</time>
      </trkpt>
      <trkpt lat="43.40582" lon="2.51739">
        <ele>857</ele>
        <time>2020-09-07T18:02:13Z</time>
      </trkpt>
      <trkpt lat="43.40607" lon="2.5175">
        <ele>857</ele>
        <time>2020-09-07T18:02:18Z</time>
      </trkpt>
      <trkpt lat="43.40644" lon="2.5176">
        <ele>857</ele>
        <time>2020-09-07T18:02:25Z</time>
      </trkpt>
      <trkpt lat="43.40659" lon="2.51759">
        <ele>859</ele>
        <time>2020-09-07T18:02:28Z</time>
      </trkpt>
      <trkpt lat="43.40678" lon="2.51753">
        <ele>863</ele>
        <time>2020-09-07T18:02:31Z</time>
      </trkpt>
      <trkpt lat="43.40771" lon="2.51776">
        <ele>864</ele>
        <time>2020-09-07T18:02:48Z</time>
      </trkpt>
      <trkpt lat="43.40783" lon="2.51777">
        <ele>863</ele>
        <time>2020-09-07T18:02:50Z</time>
      </trkpt>
      <trkpt lat="43.40794" lon="2.51774">
        <ele>864</ele>
        <time>2020-09-07T18:02:52Z</time>
      </trkpt>
      <trkpt lat="43.4081" lon="2.51767">
        <ele>866</ele>
        <time>2020-09-07T18:02:55Z</time>
      </trkpt>
      <trkpt lat="43.40836" lon="2.5175">
        <ele>871</ele>
        <time>2020-09-07T18:03:00Z</time>
      </trkpt>
      <trkpt lat="43.40845" lon="2.51747">
        <ele>872</ele>
        <time>2020-09-07T18:03:02Z</time>
      </trkpt>
      <trkpt lat="43.40865" lon="2.51745">
        <ele>872</ele>
        <time>2020-09-07T18:03:05Z</time>
      </trkpt>
      <trkpt lat="43.40893" lon="2.51748">
        <ele>873</ele>
        <time>2020-09-07T18:03:10Z</time>
      </trkpt>
      <trkpt lat="43.40918" lon="2.51746">
        <ele>873</ele>
        <time>2020-09-07T18:03:15Z</time>
      </trkpt>
      <trkpt lat="43.41035" lon="2.5172">
        <ele>877</ele>
        <time>2020-09-07T18:03:36Z</time>
      </trkpt>
      <trkpt lat="43.4108" lon="2.51708">
        <ele>877</ele>
        <time>2020-09-07T18:03:44Z</time>
      </trkpt>
      <trkpt lat="43.41089" lon="2.51701">
        <ele>878</ele>
        <time>2020-09-07T18:03:46Z</time>
      </trkpt>
      <trkpt lat="43.41101" lon="2.51683">
        <ele>879</ele>
        <time>2020-09-07T18:03:49Z</time>
      </trkpt>
      <trkpt lat="43.41111" lon="2.51666">
        <ele>880</ele>
        <time>2020-09-07T18:03:52Z</time>
      </trkpt>
      <trkpt lat="43.41131" lon="2.51622">
        <ele>879</ele>
        <time>2020-09-07T18:03:59Z</time>
      </trkpt>
      <trkpt lat="43.4117" lon="2.51579">
        <ele>881</ele>
        <time>2020-09-07T18:04:07Z</time>
      </trkpt>
      <trkpt lat="43.41192" lon="2.51558">
        <ele>882</ele>
        <time>2020-09-07T18:04:12Z</time>
      </trkpt>
      <trkpt lat="43.41216" lon="2.51542">
        <ele>883</ele>
        <time>2020-09-07T18:04:17Z</time>
      </trkpt>
      <trkpt lat="43.41235" lon="2.51536">
        <ele>885</ele>
        <time>2020-09-07T18:04:20Z</time>
      </trkpt>
      <trkpt lat="43.4126" lon="2.5154">
        <ele>889</ele>
        <time>2020-09-07T18:04:25Z</time>
      </trkpt>
      <trkpt lat="43.41277" lon="2.5155">
        <ele>891</ele>
        <time>2020-09-07T18:04:28Z</time>
      </trkpt>
      <trkpt lat="43.41295" lon="2.51567">
        <ele>893</ele>
        <time>2020-09-07T18:04:32Z</time>
      </trkpt>
      <trkpt lat="43.4131" lon="2.51588">
        <ele>895</ele>
        <time>2020-09-07T18:04:36Z</time>
      </trkpt>
      <trkpt lat="43.41347" lon="2.51651">
        <ele>901</ele>
        <time>2020-09-07T18:04:46Z</time>
      </trkpt>
      <trkpt lat="43.41348" lon="2.51656">
        <ele>902</ele>
        <time>2020-09-07T18:04:47Z</time>
      </trkpt>
      <trkpt lat="43.41352" lon="2.5166">
        <ele>902</ele>
        <time>2020-09-07T18:04:48Z</time>
      </trkpt>
      <trkpt lat="43.41407" lon="2.51744">
        <ele>904</ele>
        <time>2020-09-07T18:05:02Z</time>
      </trkpt>
      <trkpt lat="43.41418" lon="2.51753">
        <ele>904</ele>
        <time>2020-09-07T18:05:05Z</time>
      </trkpt>
      <trkpt lat="43.4143" lon="2.51758">
        <ele>905</ele>
        <time>2020-09-07T18:05:07Z</time>
      </trkpt>
      <trkpt lat="43.41447" lon="2.51759">
        <ele>906</ele>
        <time>2020-09-07T18:05:10Z</time>
      </trkpt>
      <trkpt lat="43.41465" lon="2.51756">
        <ele>907</ele>
        <time>2020-09-07T18:05:13Z</time>
      </trkpt>
      <trkpt lat="43.41483" lon="2.51749">
        <ele>909</ele>
        <time>2020-09-07T18:05:17Z</time>
      </trkpt>
      <trkpt lat="43.41539" lon="2.51709">
        <ele>918</ele>
        <time>2020-09-07T18:05:28Z</time>
      </trkpt>
      <trkpt lat="43.41551" lon="2.51698">
        <ele>920</ele>
        <time>2020-09-07T18:05:30Z</time>
      </trkpt>
      <trkpt lat="43.41555" lon="2.51691">
        <ele>921</ele>
        <time>2020-09-07T18:05:32Z</time>
      </trkpt>
      <trkpt lat="43.41555" lon="2.51683">
        <ele>921</ele>
        <time>2020-09-07T18:05:33Z</time>
      </trkpt>
      <trkpt lat="43.41552" lon="2.51676">
        <ele>921</ele>
        <time>2020-09-07T18:05:34Z</time>
      </trkpt>
      <trkpt lat="43.41546" lon="2.5167">
        <ele>920</ele>
        <time>2020-09-07T18:05:35Z</time>
      </trkpt>
      <trkpt lat="43.41538" lon="2.51666">
        <ele>919</ele>
        <time>2020-09-07T18:05:36Z</time>
      </trkpt>
      <trkpt lat="43.41533" lon="2.51661">
        <ele>919</ele>
        <time>2020-09-07T18:05:38Z</time>
      </trkpt>
      <trkpt lat="43.41522" lon="2.5162">
        <ele>920</ele>
        <time>2020-09-07T18:05:43Z</time>
      </trkpt>
      <trkpt lat="43.41521" lon="2.51608">
        <ele>920</ele>
        <time>2020-09-07T18:05:45Z</time>
      </trkpt>
      <trkpt lat="43.41521" lon="2.51587">
        <ele>922</ele>
        <time>2020-09-07T18:05:47Z</time>
      </trkpt>
      <trkpt lat="43.41523" lon="2.51568">
        <ele>923</ele>
        <time>2020-09-07T18:05:50Z</time>
      </trkpt>
      <trkpt lat="43.41536" lon="2.51511">
        <ele>927</ele>
        <time>2020-09-07T18:05:58Z</time>
      </trkpt>
      <trkpt lat="43.41542" lon="2.51498">
        <ele>929</ele>
        <time>2020-09-07T18:06:00Z</time>
      </trkpt>
      <trkpt lat="43.41616" lon="2.51371">
        <ele>939</ele>
        <time>2020-09-07T18:06:21Z</time>
      </trkpt>
      <trkpt lat="43.41624" lon="2.51362">
        <ele>940</ele>
        <time>2020-09-07T18:06:23Z</time>
      </trkpt>
      <trkpt lat="43.41715" lon="2.51299">
        <ele>951</ele>
        <time>2020-09-07T18:06:41Z</time>
      </trkpt>
      <trkpt lat="43.41758" lon="2.51274">
        <ele>955</ele>
        <time>2020-09-07T18:06:49Z</time>
      </trkpt>
      <trkpt lat="43.41763" lon="2.51273">
        <ele>955</ele>
        <time>2020-09-07T18:06:50Z</time>
      </trkpt>
      <trkpt lat="43.41767" lon="2.51277">
        <ele>956</ele>
        <time>2020-09-07T18:06:51Z</time>
      </trkpt>
      <trkpt lat="43.4177" lon="2.51285">
        <ele>957</ele>
        <time>2020-09-07T18:06:52Z</time>
      </trkpt>
      <trkpt lat="43.41769" lon="2.51292">
        <ele>958</ele>
        <time>2020-09-07T18:06:53Z</time>
      </trkpt>
      <trkpt lat="43.4176" lon="2.51313">
        <ele>959</ele>
        <time>2020-09-07T18:06:56Z</time>
      </trkpt>
      <trkpt lat="43.41756" lon="2.51329">
        <ele>960</ele>
        <time>2020-09-07T18:06:58Z</time>
      </trkpt>
      <trkpt lat="43.41753" lon="2.51352">
        <ele>962</ele>
        <time>2020-09-07T18:07:01Z</time>
      </trkpt>
      <trkpt lat="43.41753" lon="2.51374">
        <ele>963</ele>
        <time>2020-09-07T18:07:04Z</time>
      </trkpt>
      <trkpt lat="43.41758" lon="2.51402">
        <ele>966</ele>
        <time>2020-09-07T18:07:08Z</time>
      </trkpt>
      <trkpt lat="43.41764" lon="2.51426">
        <ele>968</ele>
        <time>2020-09-07T18:07:11Z</time>
      </trkpt>
      <trkpt lat="43.41768" lon="2.5143">
        <ele>969</ele>
        <time>2020-09-07T18:07:12Z</time>
      </trkpt>
      <trkpt lat="43.41774" lon="2.51432">
        <ele>970</ele>
        <time>2020-09-07T18:07:13Z</time>
      </trkpt>
      <trkpt lat="43.41778" lon="2.51429">
        <ele>970</ele>
        <time>2020-09-07T18:07:14Z</time>
      </trkpt>
      <trkpt lat="43.41801" lon="2.51396">
        <ele>972</ele>
        <time>2020-09-07T18:07:20Z</time>
      </trkpt>
      <trkpt lat="43.41825" lon="2.51364">
        <ele>974</ele>
        <time>2020-09-07T18:07:26Z</time>
      </trkpt>
      <trkpt lat="43.41857" lon="2.51334">
        <ele>976</ele>
        <time>2020-09-07T18:07:33Z</time>
      </trkpt>
      <trkpt lat="43.41914" lon="2.5131">
        <ele>981</ele>
        <time>2020-09-07T18:07:43Z</time>
      </trkpt>
      <trkpt lat="43.41945" lon="2.51293">
        <ele>985</ele>
        <time>2020-09-07T18:07:49Z</time>
      </trkpt>
      <trkpt lat="43.41979" lon="2.51266">
        <ele>987</ele>
        <time>2020-09-07T18:07:56Z</time>
      </trkpt>
      <trkpt lat="43.42012" lon="2.51235">
        <ele>989</ele>
        <time>2020-09-07T18:08:03Z</time>
      </trkpt>
      <trkpt lat="43.42041" lon="2.51204">
        <ele>991</ele>
        <time>2020-09-07T18:08:10Z</time>
      </trkpt>
      <trkpt lat="43.42144" lon="2.51076">
        <ele>995</ele>
        <time>2020-09-07T18:08:34Z</time>
      </trkpt>
      <trkpt lat="43.42176" lon="2.51044">
        <ele>994</ele>
        <time>2020-09-07T18:08:41Z</time>
      </trkpt>
      <trkpt lat="43.42222" lon="2.51006">
        <ele>990</ele>
        <time>2020-09-07T18:08:51Z</time>
      </trkpt>
      <trkpt lat="43.4224" lon="2.50999">
        <ele>988</ele>
        <time>2020-09-07T18:08:54Z</time>
      </trkpt>
      <trkpt lat="43.42258" lon="2.50995">
        <ele>987</ele>
        <time>2020-09-07T18:08:58Z</time>
      </trkpt>
      <trkpt lat="43.42275" lon="2.50998">
        <ele>985</ele>
        <time>2020-09-07T18:09:01Z</time>
      </trkpt>
      <trkpt lat="43.42326" lon="2.51021">
        <ele>981</ele>
        <time>2020-09-07T18:09:10Z</time>
      </trkpt>
      <trkpt lat="43.42444" lon="2.51089">
        <ele>970</ele>
        <time>2020-09-07T18:09:33Z</time>
      </trkpt>
      <trkpt lat="43.42488" lon="2.51121">
        <ele>968</ele>
        <time>2020-09-07T18:09:42Z</time>
      </trkpt>
      <trkpt lat="43.42547" lon="2.51186">
        <ele>966</ele>
        <time>2020-09-07T18:09:55Z</time>
      </trkpt>
      <trkpt lat="43.42607" lon="2.51202">
        <ele>962</ele>
        <time>2020-09-07T18:10:06Z</time>
      </trkpt>
      <trkpt lat="43.42614" lon="2.51201">
        <ele>962</ele>
        <time>2020-09-07T18:10:07Z</time>
      </trkpt>
      <trkpt lat="43.42618" lon="2.51199">
        <ele>962</ele>
        <time>2020-09-07T18:10:08Z</time>
      </trkpt>
      <trkpt lat="43.42628" lon="2.51169">
        <ele>959</ele>
        <time>2020-09-07T18:10:12Z</time>
      </trkpt>
      <trkpt lat="43.42632" lon="2.51166">
        <ele>959</ele>
        <time>2020-09-07T18:10:13Z</time>
      </trkpt>
      <trkpt lat="43.42637" lon="2.51168">
        <ele>959</ele>
        <time>2020-09-07T18:10:14Z</time>
      </trkpt>
      <trkpt lat="43.42646" lon="2.5118">
        <ele>961</ele>
        <time>2020-09-07T18:10:16Z</time>
      </trkpt>
      <trkpt lat="43.42653" lon="2.51195">
        <ele>962</ele>
        <time>2020-09-07T18:10:19Z</time>
      </trkpt>
      <trkpt lat="43.42678" lon="2.51261">
        <ele>969</ele>
        <time>2020-09-07T18:10:28Z</time>
      </trkpt>
      <trkpt lat="43.42682" lon="2.51276">
        <ele>971</ele>
        <time>2020-09-07T18:10:30Z</time>
      </trkpt>
      <trkpt lat="43.42688" lon="2.51283">
        <ele>972</ele>
        <time>2020-09-07T18:10:32Z</time>
      </trkpt>
      <trkpt lat="43.42696" lon="2.51288">
        <ele>973</ele>
        <time>2020-09-07T18:10:33Z</time>
      </trkpt>
      <trkpt lat="43.42753" lon="2.51292">
        <ele>980</ele>
        <time>2020-09-07T18:10:43Z</time>
      </trkpt>
      <trkpt lat="43.42766" lon="2.51288">
        <ele>982</ele>
        <time>2020-09-07T18:10:46Z</time>
      </trkpt>
      <trkpt lat="43.42782" lon="2.51277">
        <ele>983</ele>
        <time>2020-09-07T18:10:49Z</time>
      </trkpt>
      <trkpt lat="43.428" lon="2.51259">
        <ele>985</ele>
        <time>2020-09-07T18:10:53Z</time>
      </trkpt>
      <trkpt lat="43.42778" lon="2.51347">
        <ele>986</ele>
        <time>2020-09-07T18:11:05Z</time>
      </trkpt>
      <trkpt lat="43.42763" lon="2.51416">
        <ele>987</ele>
        <time>2020-09-07T18:11:14Z</time>
      </trkpt>
      <trkpt lat="43.42753" lon="2.51448">
        <ele>986</ele>
        <time>2020-09-07T18:11:19Z</time>
      </trkpt>
      <trkpt lat="43.42716" lon="2.51537">
        <ele>985</ele>
        <time>2020-09-07T18:11:32Z</time>
      </trkpt>
      <trkpt lat="43.427" lon="2.51583">
        <ele>988</ele>
        <time>2020-09-07T18:11:39Z</time>
      </trkpt>
      <trkpt lat="43.42677" lon="2.51716">
        <ele>995</ele>
        <time>2020-09-07T18:11:56Z</time>
      </trkpt>
      <trkpt lat="43.42673" lon="2.51828">
        <ele>1002</ele>
        <time>2020-09-07T18:12:11Z</time>
      </trkpt>
      <trkpt lat="43.42659" lon="2.51889">
        <ele>1006</ele>
        <time>2020-09-07T18:12:19Z</time>
      </trkpt>
      <trkpt lat="43.42645" lon="2.51932">
        <ele>1007</ele>
        <time>2020-09-07T18:12:25Z</time>
      </trkpt>
      <trkpt lat="43.42631" lon="2.51963">
        <ele>1007</ele>
        <time>2020-09-07T18:12:30Z</time>
      </trkpt>
      <trkpt lat="43.426" lon="2.52015">
        <ele>1007</ele>
        <time>2020-09-07T18:12:39Z</time>
      </trkpt>
      <trkpt lat="43.42568" lon="2.52057">
        <ele>1008</ele>
        <time>2020-09-07T18:12:46Z</time>
      </trkpt>
      <trkpt lat="43.42407" lon="2.52222">
        <ele>1006</ele>
        <time>2020-09-07T18:13:22Z</time>
      </trkpt>
      <trkpt lat="43.4238" lon="2.52256">
        <ele>1005</ele>
        <time>2020-09-07T18:13:29Z</time>
      </trkpt>
      <trkpt lat="43.42365" lon="2.52287">
        <ele>1001</ele>
        <time>2020-09-07T18:13:33Z</time>
      </trkpt>
      <trkpt lat="43.42357" lon="2.5232">
        <ele>997</ele>
        <time>2020-09-07T18:13:38Z</time>
      </trkpt>
      <trkpt lat="43.42347" lon="2.52371">
        <ele>993</ele>
        <time>2020-09-07T18:13:45Z</time>
      </trkpt>
      <trkpt lat="43.42352" lon="2.52429">
        <ele>990</ele>
        <time>2020-09-07T18:13:52Z</time>
      </trkpt>
      <trkpt lat="43.42352" lon="2.52501">
        <ele>989</ele>
        <time>2020-09-07T18:14:02Z</time>
      </trkpt>
      <trkpt lat="43.42349" lon="2.5262">
        <ele>988</ele>
        <time>2020-09-07T18:14:17Z</time>
      </trkpt>
      <trkpt lat="43.42339" lon="2.52678">
        <ele>989</ele>
        <time>2020-09-07T18:14:25Z</time>
      </trkpt>
      <trkpt lat="43.42323" lon="2.52796">
        <ele>988</ele>
        <time>2020-09-07T18:14:40Z</time>
      </trkpt>
      <trkpt lat="43.42318" lon="2.52817">
        <ele>988</ele>
        <time>2020-09-07T18:14:43Z</time>
      </trkpt>
      <trkpt lat="43.42314" lon="2.52834">
        <ele>988</ele>
        <time>2020-09-07T18:14:45Z</time>
      </trkpt>
      <trkpt lat="43.42292" lon="2.52879">
        <ele>986</ele>
        <time>2020-09-07T18:14:52Z</time>
      </trkpt>
      <trkpt lat="43.42283" lon="2.52912">
        <ele>986</ele>
        <time>2020-09-07T18:14:57Z</time>
      </trkpt>
      <trkpt lat="43.42301" lon="2.52941">
        <ele>988</ele>
        <time>2020-09-07T18:15:02Z</time>
      </trkpt>
      <trkpt lat="43.42327" lon="2.53011">
        <ele>992</ele>
        <time>2020-09-07T18:15:12Z</time>
      </trkpt>
      <trkpt lat="43.42339" lon="2.53028">
        <ele>991</ele>
        <time>2020-09-07T18:15:15Z</time>
      </trkpt>
      <trkpt lat="43.42345" lon="2.53043">
        <ele>990</ele>
        <time>2020-09-07T18:15:17Z</time>
      </trkpt>
      <trkpt lat="43.42344" lon="2.53058">
        <ele>989</ele>
        <time>2020-09-07T18:15:19Z</time>
      </trkpt>
      <trkpt lat="43.42339" lon="2.53071">
        <ele>989</ele>
        <time>2020-09-07T18:15:21Z</time>
      </trkpt>
      <trkpt lat="43.42337" lon="2.5308">
        <ele>989</ele>
        <time>2020-09-07T18:15:22Z</time>
      </trkpt>
      <trkpt lat="43.42339" lon="2.53092">
        <ele>987</ele>
        <time>2020-09-07T18:15:24Z</time>
      </trkpt>
      <trkpt lat="43.42355" lon="2.53115">
        <ele>983</ele>
        <time>2020-09-07T18:15:28Z</time>
      </trkpt>
      <trkpt lat="43.42362" lon="2.53132">
        <ele>981</ele>
        <time>2020-09-07T18:15:31Z</time>
      </trkpt>
      <trkpt lat="43.4237" lon="2.53157">
        <ele>977</ele>
        <time>2020-09-07T18:15:34Z</time>
      </trkpt>
      <trkpt lat="43.4239" lon="2.53244">
        <ele>968</ele>
        <time>2020-09-07T18:15:46Z</time>
      </trkpt>
      <trkpt lat="43.42401" lon="2.53279">
        <ele>966</ele>
        <time>2020-09-07T18:15:51Z</time>
      </trkpt>
      <trkpt lat="43.42419" lon="2.53351">
        <ele>963</ele>
        <time>2020-09-07T18:16:01Z</time>
      </trkpt>
      <trkpt lat="43.42433" lon="2.53459">
        <ele>961</ele>
        <time>2020-09-07T18:16:15Z</time>
      </trkpt>
      <trkpt lat="43.42435" lon="2.53588">
        <ele>963</ele>
        <time>2020-09-07T18:16:32Z</time>
      </trkpt>
      <trkpt lat="43.42443" lon="2.53643">
        <ele>961</ele>
        <time>2020-09-07T18:16:39Z</time>
      </trkpt>
      <trkpt lat="43.42447" lon="2.53703">
        <ele>961</ele>
        <time>2020-09-07T18:16:47Z</time>
      </trkpt>
      <trkpt lat="43.42443" lon="2.53759">
        <ele>961</ele>
        <time>2020-09-07T18:16:54Z</time>
      </trkpt>
      <trkpt lat="43.42434" lon="2.53798">
        <ele>961</ele>
        <time>2020-09-07T18:16:59Z</time>
      </trkpt>
      <trkpt lat="43.42436" lon="2.5386">
        <ele>960</ele>
        <time>2020-09-07T18:17:07Z</time>
      </trkpt>
      <trkpt lat="43.42439" lon="2.53909">
        <ele>959</ele>
        <time>2020-09-07T18:17:14Z</time>
      </trkpt>
      <trkpt lat="43.42445" lon="2.53945">
        <ele>957</ele>
        <time>2020-09-07T18:17:18Z</time>
      </trkpt>
      <trkpt lat="43.42457" lon="2.54008">
        <ele>953</ele>
        <time>2020-09-07T18:17:27Z</time>
      </trkpt>
      <trkpt lat="43.42484" lon="2.54113">
        <ele>943</ele>
        <time>2020-09-07T18:17:41Z</time>
      </trkpt>
      <trkpt lat="43.42487" lon="2.54133">
        <ele>942</ele>
        <time>2020-09-07T18:17:44Z</time>
      </trkpt>
      <trkpt lat="43.42486" lon="2.54157">
        <ele>940</ele>
        <time>2020-09-07T18:17:47Z</time>
      </trkpt>
      <trkpt lat="43.42446" lon="2.54276">
        <ele>933</ele>
        <time>2020-09-07T18:18:04Z</time>
      </trkpt>
      <trkpt lat="43.4242" lon="2.54374">
        <ele>930</ele>
        <time>2020-09-07T18:18:17Z</time>
      </trkpt>
      <trkpt lat="43.4241" lon="2.54461">
        <ele>928</ele>
        <time>2020-09-07T18:18:29Z</time>
      </trkpt>
      <trkpt lat="43.42413" lon="2.54527">
        <ele>927</ele>
        <time>2020-09-07T18:18:37Z</time>
      </trkpt>
      <trkpt lat="43.42431" lon="2.54589">
        <ele>925</ele>
        <time>2020-09-07T18:18:46Z</time>
      </trkpt>
      <trkpt lat="43.42438" lon="2.54605">
        <ele>924</ele>
        <time>2020-09-07T18:18:48Z</time>
      </trkpt>
      <trkpt lat="43.42453" lon="2.54689">
        <ele>922</ele>
        <time>2020-09-07T18:18:59Z</time>
      </trkpt>
      <trkpt lat="43.42468" lon="2.54747">
        <ele>922</ele>
        <time>2020-09-07T18:19:07Z</time>
      </trkpt>
      <trkpt lat="43.42478" lon="2.54763">
        <ele>922</ele>
        <time>2020-09-07T18:19:10Z</time>
      </trkpt>
      <trkpt lat="43.42521" lon="2.5479">
        <ele>921</ele>
        <time>2020-09-07T18:19:19Z</time>
      </trkpt>
      <trkpt lat="43.4254" lon="2.54815">
        <ele>920</ele>
        <time>2020-09-07T18:19:23Z</time>
      </trkpt>
      <trkpt lat="43.42548" lon="2.54835">
        <ele>920</ele>
        <time>2020-09-07T18:19:26Z</time>
      </trkpt>
      <trkpt lat="43.4256" lon="2.54886">
        <ele>922</ele>
        <time>2020-09-07T18:19:33Z</time>
      </trkpt>
      <trkpt lat="43.42566" lon="2.54937">
        <ele>923</ele>
        <time>2020-09-07T18:19:40Z</time>
      </trkpt>
      <trkpt lat="43.42569" lon="2.54988">
        <ele>925</ele>
        <time>2020-09-07T18:19:46Z</time>
      </trkpt>
      <trkpt lat="43.42565" lon="2.55019">
        <ele>925</ele>
        <time>2020-09-07T18:19:50Z</time>
      </trkpt>
      <trkpt lat="43.42549" lon="2.55076">
        <ele>926</ele>
        <time>2020-09-07T18:19:58Z</time>
      </trkpt>
      <trkpt lat="43.42538" lon="2.55122">
        <ele>925</ele>
        <time>2020-09-07T18:20:05Z</time>
      </trkpt>
      <trkpt lat="43.42527" lon="2.55149">
        <ele>925</ele>
        <time>2020-09-07T18:20:09Z</time>
      </trkpt>
      <trkpt lat="43.42497" lon="2.55187">
        <ele>928</ele>
        <time>2020-09-07T18:20:16Z</time>
      </trkpt>
      <trkpt lat="43.42468" lon="2.55238">
        <ele>925</ele>
        <time>2020-09-07T18:20:24Z</time>
      </trkpt>
      <trkpt lat="43.42448" lon="2.55277">
        <ele>926</ele>
        <time>2020-09-07T18:20:30Z</time>
      </trkpt>
      <trkpt lat="43.42417" lon="2.5541">
        <ele>932</ele>
        <time>2020-09-07T18:20:48Z</time>
      </trkpt>
      <trkpt lat="43.42398" lon="2.55458">
        <ele>929</ele>
        <time>2020-09-07T18:20:56Z</time>
      </trkpt>
      <trkpt lat="43.42306" lon="2.55636">
        <ele>928</ele>
        <time>2020-09-07T18:21:24Z</time>
      </trkpt>
      <trkpt lat="43.42105" lon="2.55952">
        <ele>917</ele>
        <time>2020-09-07T18:22:18Z</time>
      </trkpt>
      <trkpt lat="43.42036" lon="2.56049">
        <ele>912</ele>
        <time>2020-09-07T18:22:36Z</time>
      </trkpt>
      <trkpt lat="43.42031" lon="2.56063">
        <ele>912</ele>
        <time>2020-09-07T18:22:38Z</time>
      </trkpt>
      <trkpt lat="43.42031" lon="2.56078">
        <ele>912</ele>
        <time>2020-09-07T18:22:40Z</time>
      </trkpt>
      <trkpt lat="43.42034" lon="2.56089">
        <ele>913</ele>
        <time>2020-09-07T18:22:41Z</time>
      </trkpt>
      <trkpt lat="43.42145" lon="2.56281">
        <ele>918</ele>
        <time>2020-09-07T18:23:13Z</time>
      </trkpt>
      <trkpt lat="43.42227" lon="2.56413">
        <ele>919</ele>
        <time>2020-09-07T18:23:35Z</time>
      </trkpt>
      <trkpt lat="43.42254" lon="2.56464">
        <ele>921</ele>
        <time>2020-09-07T18:23:43Z</time>
      </trkpt>
      <trkpt lat="43.42263" lon="2.56493">
        <ele>923</ele>
        <time>2020-09-07T18:23:47Z</time>
      </trkpt>
      <trkpt lat="43.4227" lon="2.56526">
        <ele>925</ele>
        <time>2020-09-07T18:23:52Z</time>
      </trkpt>
      <trkpt lat="43.42273" lon="2.56566">
        <ele>926</ele>
        <time>2020-09-07T18:23:57Z</time>
      </trkpt>
      <trkpt lat="43.42267" lon="2.56613">
        <ele>927</ele>
        <time>2020-09-07T18:24:03Z</time>
      </trkpt>
      <trkpt lat="43.4225" lon="2.56701">
        <ele>926</ele>
        <time>2020-09-07T18:24:15Z</time>
      </trkpt>
      <trkpt lat="43.42251" lon="2.56726">
        <ele>927</ele>
        <time>2020-09-07T18:24:18Z</time>
      </trkpt>
      <trkpt lat="43.42256" lon="2.56736">
        <ele>928</ele>
        <time>2020-09-07T18:24:20Z</time>
      </trkpt>
      <trkpt lat="43.42267" lon="2.56747">
        <ele>929</ele>
        <time>2020-09-07T18:24:22Z</time>
      </trkpt>
      <trkpt lat="43.42311" lon="2.56738">
        <ele>931</ele>
        <time>2020-09-07T18:24:30Z</time>
      </trkpt>
      <trkpt lat="43.42383" lon="2.5673">
        <ele>938</ele>
        <time>2020-09-07T18:24:43Z</time>
      </trkpt>
      <trkpt lat="43.42405" lon="2.56737">
        <ele>940</ele>
        <time>2020-09-07T18:24:47Z</time>
      </trkpt>
      <trkpt lat="43.4245" lon="2.56781">
        <ele>944</ele>
        <time>2020-09-07T18:24:57Z</time>
      </trkpt>
      <trkpt lat="43.42481" lon="2.56796">
        <ele>948</ele>
        <time>2020-09-07T18:25:03Z</time>
      </trkpt>
      <trkpt lat="43.42501" lon="2.56812">
        <ele>950</ele>
        <time>2020-09-07T18:25:07Z</time>
      </trkpt>
      <trkpt lat="43.42548" lon="2.56862">
        <ele>953</ele>
        <time>2020-09-07T18:25:17Z</time>
      </trkpt>
      <trkpt lat="43.42569" lon="2.56896">
        <ele>952</ele>
        <time>2020-09-07T18:25:23Z</time>
      </trkpt>
      <trkpt lat="43.42614" lon="2.56959">
        <ele>951</ele>
        <time>2020-09-07T18:25:35Z</time>
      </trkpt>
      <trkpt lat="43.42632" lon="2.56974">
        <ele>950</ele>
        <time>2020-09-07T18:25:38Z</time>
      </trkpt>
      <trkpt lat="43.42764" lon="2.56983">
        <ele>951</ele>
        <time>2020-09-07T18:26:02Z</time>
      </trkpt>
      <trkpt lat="43.42788" lon="2.56979">
        <ele>950</ele>
        <time>2020-09-07T18:26:06Z</time>
      </trkpt>
      <trkpt lat="43.42835" lon="2.56977">
        <ele>948</ele>
        <time>2020-09-07T18:26:14Z</time>
      </trkpt>
      <trkpt lat="43.42941" lon="2.57">
        <ele>943</ele>
        <time>2020-09-07T18:26:34Z</time>
      </trkpt>
      <trkpt lat="43.43056" lon="2.57054">
        <ele>947</ele>
        <time>2020-09-07T18:26:55Z</time>
      </trkpt>
      <trkpt lat="43.43147" lon="2.57143">
        <ele>950</ele>
        <time>2020-09-07T18:27:15Z</time>
      </trkpt>
      <trkpt lat="43.43168" lon="2.57154">
        <ele>950</ele>
        <time>2020-09-07T18:27:19Z</time>
      </trkpt>
      <trkpt lat="43.43193" lon="2.57172">
        <ele>950</ele>
        <time>2020-09-07T18:27:24Z</time>
      </trkpt>
      <trkpt lat="43.43239" lon="2.57227">
        <ele>952</ele>
        <time>2020-09-07T18:27:35Z</time>
      </trkpt>
      <trkpt lat="43.43256" lon="2.57235">
        <ele>952</ele>
        <time>2020-09-07T18:27:38Z</time>
      </trkpt>
      <trkpt lat="43.43278" lon="2.57234">
        <ele>954</ele>
        <time>2020-09-07T18:27:42Z</time>
      </trkpt>
      <trkpt lat="43.43296" lon="2.57222">
        <ele>954</ele>
        <time>2020-09-07T18:27:46Z</time>
      </trkpt>
      <trkpt lat="43.43293" lon="2.57232">
        <ele>955</ele>
        <time>2020-09-07T18:27:47Z</time>
      </trkpt>
      <trkpt lat="43.43279" lon="2.57261">
        <ele>955</ele>
        <time>2020-09-07T18:27:51Z</time>
      </trkpt>
      <trkpt lat="43.43266" lon="2.57303">
        <ele>955</ele>
        <time>2020-09-07T18:27:57Z</time>
      </trkpt>
      <trkpt lat="43.43264" lon="2.57317">
        <ele>955</ele>
        <time>2020-09-07T18:27:59Z</time>
      </trkpt>
      <trkpt lat="43.43265" lon="2.57355">
        <ele>954</ele>
        <time>2020-09-07T18:28:04Z</time>
      </trkpt>
      <trkpt lat="43.43262" lon="2.57385">
        <ele>952</ele>
        <time>2020-09-07T18:28:08Z</time>
      </trkpt>
      <trkpt lat="43.43239" lon="2.57501">
        <ele>948</ele>
        <time>2020-09-07T18:28:24Z</time>
      </trkpt>
      <trkpt lat="43.43211" lon="2.57608">
        <ele>943</ele>
        <time>2020-09-07T18:28:38Z</time>
      </trkpt>
      <trkpt lat="43.43205" lon="2.57637">
        <ele>942</ele>
        <time>2020-09-07T18:28:42Z</time>
      </trkpt>
      <trkpt lat="43.432" lon="2.57666">
        <ele>941</ele>
        <time>2020-09-07T18:28:46Z</time>
      </trkpt>
      <trkpt lat="43.43198" lon="2.57694">
        <ele>940</ele>
        <time>2020-09-07T18:28:50Z</time>
      </trkpt>
      <trkpt lat="43.43192" lon="2.57813">
        <ele>933</ele>
        <time>2020-09-07T18:29:05Z</time>
      </trkpt>
      <trkpt lat="43.43197" lon="2.57864">
        <ele>926</ele>
        <time>2020-09-07T18:29:12Z</time>
      </trkpt>
      <trkpt lat="43.43196" lon="2.579">
        <ele>923</ele>
        <time>2020-09-07T18:29:16Z</time>
      </trkpt>
      <trkpt lat="43.43186" lon="2.5795">
        <ele>919</ele>
        <time>2020-09-07T18:29:23Z</time>
      </trkpt>
      <trkpt lat="43.43179" lon="2.57996">
        <ele>916</ele>
        <time>2020-09-07T18:29:29Z</time>
      </trkpt>
      <trkpt lat="43.43181" lon="2.58038">
        <ele>913</ele>
        <time>2020-09-07T18:29:35Z</time>
      </trkpt>
      <trkpt lat="43.43184" lon="2.58056">
        <ele>912</ele>
        <time>2020-09-07T18:29:37Z</time>
      </trkpt>
      <trkpt lat="43.43197" lon="2.58106">
        <ele>910</ele>
        <time>2020-09-07T18:29:44Z</time>
      </trkpt>
      <trkpt lat="43.43205" lon="2.58129">
        <ele>910</ele>
        <time>2020-09-07T18:29:47Z</time>
      </trkpt>
      <trkpt lat="43.43245" lon="2.58212">
        <ele>911</ele>
        <time>2020-09-07T18:30:00Z</time>
      </trkpt>
      <trkpt lat="43.43268" lon="2.58266">
        <ele>910</ele>
        <time>2020-09-07T18:30:08Z</time>
      </trkpt>
      <trkpt lat="43.43282" lon="2.58293">
        <ele>910</ele>
        <time>2020-09-07T18:30:12Z</time>
      </trkpt>
      <trkpt lat="43.43352" lon="2.58411">
        <ele>909</ele>
        <time>2020-09-07T18:30:32Z</time>
      </trkpt>
      <trkpt lat="43.43361" lon="2.58419">
        <ele>908</ele>
        <time>2020-09-07T18:30:34Z</time>
      </trkpt>
      <trkpt lat="43.43436" lon="2.58462">
        <ele>902</ele>
        <time>2020-09-07T18:30:48Z</time>
      </trkpt>
      <trkpt lat="43.43472" lon="2.58488">
        <ele>900</ele>
        <time>2020-09-07T18:30:56Z</time>
      </trkpt>
      <trkpt lat="43.43524" lon="2.58518">
        <ele>898</ele>
        <time>2020-09-07T18:31:06Z</time>
      </trkpt>
      <trkpt lat="43.43548" lon="2.58528">
        <ele>897</ele>
        <time>2020-09-07T18:31:10Z</time>
      </trkpt>
      <trkpt lat="43.43582" lon="2.58535">
        <ele>894</ele>
        <time>2020-09-07T18:31:16Z</time>
      </trkpt>
      <trkpt lat="43.43596" lon="2.58536">
        <ele>894</ele>
        <time>2020-09-07T18:31:19Z</time>
      </trkpt>
      <trkpt lat="43.43653" lon="2.58527">
        <ele>889</ele>
        <time>2020-09-07T18:31:29Z</time>
      </trkpt>
      <trkpt lat="43.4367" lon="2.58529">
        <ele>888</ele>
        <time>2020-09-07T18:31:32Z</time>
      </trkpt>
      <trkpt lat="43.43684" lon="2.58532">
        <ele>886</ele>
        <time>2020-09-07T18:31:35Z</time>
      </trkpt>
      <trkpt lat="43.43699" lon="2.58539">
        <ele>885</ele>
        <time>2020-09-07T18:31:37Z</time>
      </trkpt>
      <trkpt lat="43.43711" lon="2.58549">
        <ele>884</ele>
        <time>2020-09-07T18:31:40Z</time>
      </trkpt>
      <trkpt lat="43.43722" lon="2.58564">
        <ele>884</ele>
        <time>2020-09-07T18:31:43Z</time>
      </trkpt>
      <trkpt lat="43.43739" lon="2.58595">
        <ele>884</ele>
        <time>2020-09-07T18:31:48Z</time>
      </trkpt>
      <trkpt lat="43.43754" lon="2.58629">
        <ele>883</ele>
        <time>2020-09-07T18:31:53Z</time>
      </trkpt>
      <trkpt lat="43.43786" lon="2.58727">
        <ele>879</ele>
        <time>2020-09-07T18:32:07Z</time>
      </trkpt>
      <trkpt lat="43.43794" lon="2.58747">
        <ele>879</ele>
        <time>2020-09-07T18:32:10Z</time>
      </trkpt>
      <trkpt lat="43.43805" lon="2.58767">
        <ele>879</ele>
        <time>2020-09-07T18:32:13Z</time>
      </trkpt>
      <trkpt lat="43.43822" lon="2.58784">
        <ele>878</ele>
        <time>2020-09-07T18:32:17Z</time>
      </trkpt>
      <trkpt lat="43.4383" lon="2.58788">
        <ele>877</ele>
        <time>2020-09-07T18:32:18Z</time>
      </trkpt>
      <trkpt lat="43.4384" lon="2.58789">
        <ele>877</ele>
        <time>2020-09-07T18:32:20Z</time>
      </trkpt>
      <trkpt lat="43.43865" lon="2.58785">
        <ele>875</ele>
        <time>2020-09-07T18:32:24Z</time>
      </trkpt>
      <trkpt lat="43.4391" lon="2.58784">
        <ele>873</ele>
        <time>2020-09-07T18:32:32Z</time>
      </trkpt>
      <trkpt lat="43.43954" lon="2.58772">
        <ele>867</ele>
        <time>2020-09-07T18:32:40Z</time>
      </trkpt>
      <trkpt lat="43.4398" lon="2.58767">
        <ele>864</ele>
        <time>2020-09-07T18:32:45Z</time>
      </trkpt>
      <trkpt lat="43.4401" lon="2.58768">
        <ele>861</ele>
        <time>2020-09-07T18:32:50Z</time>
      </trkpt>
      <trkpt lat="43.44021" lon="2.58772">
        <ele>861</ele>
        <time>2020-09-07T18:32:52Z</time>
      </trkpt>
      <trkpt lat="43.44036" lon="2.5878">
        <ele>861</ele>
        <time>2020-09-07T18:32:55Z</time>
      </trkpt>
      <trkpt lat="43.44072" lon="2.58806">
        <ele>861</ele>
        <time>2020-09-07T18:33:02Z</time>
      </trkpt>
      <trkpt lat="43.44103" lon="2.58823">
        <ele>858</ele>
        <time>2020-09-07T18:33:08Z</time>
      </trkpt>
      <trkpt lat="43.44113" lon="2.58832">
        <ele>858</ele>
        <time>2020-09-07T18:33:11Z</time>
      </trkpt>
      <trkpt lat="43.44147" lon="2.58868">
        <ele>854</ele>
        <time>2020-09-07T18:33:18Z</time>
      </trkpt>
      <trkpt lat="43.44173" lon="2.58888">
        <ele>850</ele>
        <time>2020-09-07T18:33:23Z</time>
      </trkpt>
      <trkpt lat="43.4418" lon="2.58897">
        <ele>849</ele>
        <time>2020-09-07T18:33:25Z</time>
      </trkpt>
      <trkpt lat="43.44188" lon="2.5891">
        <ele>849</ele>
        <time>2020-09-07T18:33:27Z</time>
      </trkpt>
      <trkpt lat="43.44193" lon="2.58923">
        <ele>848</ele>
        <time>2020-09-07T18:33:29Z</time>
      </trkpt>
      <trkpt lat="43.44196" lon="2.58948">
        <ele>846</ele>
        <time>2020-09-07T18:33:33Z</time>
      </trkpt>
      <trkpt lat="43.44188" lon="2.58975">
        <ele>847</ele>
        <time>2020-09-07T18:33:36Z</time>
      </trkpt>
      <trkpt lat="43.44179" lon="2.58989">
        <ele>849</ele>
        <time>2020-09-07T18:33:39Z</time>
      </trkpt>
      <trkpt lat="43.44153" lon="2.59023">
        <ele>851</ele>
        <time>2020-09-07T18:33:45Z</time>
      </trkpt>
      <trkpt lat="43.44119" lon="2.59063">
        <ele>851</ele>
        <time>2020-09-07T18:33:53Z</time>
      </trkpt>
      <trkpt lat="43.44095" lon="2.59081">
        <ele>854</ele>
        <time>2020-09-07T18:33:58Z</time>
      </trkpt>
      <trkpt lat="43.4406" lon="2.59103">
        <ele>856</ele>
        <time>2020-09-07T18:34:05Z</time>
      </trkpt>
      <trkpt lat="43.43968" lon="2.59139">
        <ele>868</ele>
        <time>2020-09-07T18:34:22Z</time>
      </trkpt>
      <trkpt lat="43.43959" lon="2.59165">
        <ele>866</ele>
        <time>2020-09-07T18:34:26Z</time>
      </trkpt>
      <trkpt lat="43.43952" lon="2.59207">
        <ele>863</ele>
        <time>2020-09-07T18:34:31Z</time>
      </trkpt>
      <trkpt lat="43.43949" lon="2.59246">
        <ele>859</ele>
        <time>2020-09-07T18:34:36Z</time>
      </trkpt>
      <trkpt lat="43.43941" lon="2.59298">
        <ele>858</ele>
        <time>2020-09-07T18:34:43Z</time>
      </trkpt>
      <trkpt lat="43.43937" lon="2.59315">
        <ele>858</ele>
        <time>2020-09-07T18:34:45Z</time>
      </trkpt>
      <trkpt lat="43.43914" lon="2.59363">
        <ele>861</ele>
        <time>2020-09-07T18:34:53Z</time>
      </trkpt>
      <trkpt lat="43.43904" lon="2.59389">
        <ele>861</ele>
        <time>2020-09-07T18:34:57Z</time>
      </trkpt>
      <trkpt lat="43.439" lon="2.59402">
        <ele>861</ele>
        <time>2020-09-07T18:34:58Z</time>
      </trkpt>
      <trkpt lat="43.43898" lon="2.59437">
        <ele>860</ele>
        <time>2020-09-07T18:35:03Z</time>
      </trkpt>
      <trkpt lat="43.43894" lon="2.59456">
        <ele>860</ele>
        <time>2020-09-07T18:35:05Z</time>
      </trkpt>
      <trkpt lat="43.43891" lon="2.59467">
        <ele>860</ele>
        <time>2020-09-07T18:35:07Z</time>
      </trkpt>
      <trkpt lat="43.43885" lon="2.59474">
        <ele>860</ele>
        <time>2020-09-07T18:35:08Z</time>
      </trkpt>
      <trkpt lat="43.43851" lon="2.59496">
        <ele>857</ele>
        <time>2020-09-07T18:35:15Z</time>
      </trkpt>
      <trkpt lat="43.43854" lon="2.59509">
        <ele>857</ele>
        <time>2020-09-07T18:35:17Z</time>
      </trkpt>
      <trkpt lat="43.43856" lon="2.59534">
        <ele>856</ele>
        <time>2020-09-07T18:35:20Z</time>
      </trkpt>
      <trkpt lat="43.43854" lon="2.59559">
        <ele>854</ele>
        <time>2020-09-07T18:35:23Z</time>
      </trkpt>
      <trkpt lat="43.43854" lon="2.59578">
        <ele>853</ele>
        <time>2020-09-07T18:35:26Z</time>
      </trkpt>
      <trkpt lat="43.43863" lon="2.59615">
        <ele>855</ele>
        <time>2020-09-07T18:35:31Z</time>
      </trkpt>
      <trkpt lat="43.43862" lon="2.59626">
        <ele>855</ele>
        <time>2020-09-07T18:35:32Z</time>
      </trkpt>
      <trkpt lat="43.43857" lon="2.59638">
        <ele>855</ele>
        <time>2020-09-07T18:35:34Z</time>
      </trkpt>
      <trkpt lat="43.43841" lon="2.59665">
        <ele>854</ele>
        <time>2020-09-07T18:35:39Z</time>
      </trkpt>
      <trkpt lat="43.43804" lon="2.59718">
        <ele>855</ele>
        <time>2020-09-07T18:35:48Z</time>
      </trkpt>
      <trkpt lat="43.43793" lon="2.59737">
        <ele>855</ele>
        <time>2020-09-07T18:35:51Z</time>
      </trkpt>
      <trkpt lat="43.43779" lon="2.59769">
        <ele>856</ele>
        <time>2020-09-07T18:35:56Z</time>
      </trkpt>
      <trkpt lat="43.4377" lon="2.59799">
        <ele>857</ele>
        <time>2020-09-07T18:36:00Z</time>
      </trkpt>
      <trkpt lat="43.43763" lon="2.59833">
        <ele>858</ele>
        <time>2020-09-07T18:36:05Z</time>
      </trkpt>
      <trkpt lat="43.43761" lon="2.59855">
        <ele>858</ele>
        <time>2020-09-07T18:36:08Z</time>
      </trkpt>
      <trkpt lat="43.43761" lon="2.59899">
        <ele>859</ele>
        <time>2020-09-07T18:36:13Z</time>
      </trkpt>
      <trkpt lat="43.43763" lon="2.59942">
        <ele>857</ele>
        <time>2020-09-07T18:36:19Z</time>
      </trkpt>
      <trkpt lat="43.43768" lon="2.59985">
        <ele>853</ele>
        <time>2020-09-07T18:36:25Z</time>
      </trkpt>
      <trkpt lat="43.43778" lon="2.59996">
        <ele>852</ele>
        <time>2020-09-07T18:36:27Z</time>
      </trkpt>
      <trkpt lat="43.43779" lon="2.60012">
        <ele>850</ele>
        <time>2020-09-07T18:36:29Z</time>
      </trkpt>
      <trkpt lat="43.4377" lon="2.60056">
        <ele>844</ele>
        <time>2020-09-07T18:36:35Z</time>
      </trkpt>
      <trkpt lat="43.43762" lon="2.60083">
        <ele>840</ele>
        <time>2020-09-07T18:36:39Z</time>
      </trkpt>
      <trkpt lat="43.43757" lon="2.60092">
        <ele>840</ele>
        <time>2020-09-07T18:36:40Z</time>
      </trkpt>
      <trkpt lat="43.43747" lon="2.60099">
        <ele>840</ele>
        <time>2020-09-07T18:36:42Z</time>
      </trkpt>
      <trkpt lat="43.43754" lon="2.60123">
        <ele>839</ele>
        <time>2020-09-07T18:36:45Z</time>
      </trkpt>
      <trkpt lat="43.43772" lon="2.60149">
        <ele>837</ele>
        <time>2020-09-07T18:36:50Z</time>
      </trkpt>
      <trkpt lat="43.43774" lon="2.60175">
        <ele>835</ele>
        <time>2020-09-07T18:36:53Z</time>
      </trkpt>
      <trkpt lat="43.43764" lon="2.60216">
        <ele>834</ele>
        <time>2020-09-07T18:36:59Z</time>
      </trkpt>
      <trkpt lat="43.43744" lon="2.60317">
        <ele>831</ele>
        <time>2020-09-07T18:37:12Z</time>
      </trkpt>
      <trkpt lat="43.43725" lon="2.60389">
        <ele>823</ele>
        <time>2020-09-07T18:37:22Z</time>
      </trkpt>
      <trkpt lat="43.4371" lon="2.60429">
        <ele>818</ele>
        <time>2020-09-07T18:37:28Z</time>
      </trkpt>
      <trkpt lat="43.43686" lon="2.60469">
        <ele>815</ele>
        <time>2020-09-07T18:37:35Z</time>
      </trkpt>
      <trkpt lat="43.43651" lon="2.6049">
        <ele>815</ele>
        <time>2020-09-07T18:37:42Z</time>
      </trkpt>
      <trkpt lat="43.43584" lon="2.6051">
        <ele>813</ele>
        <time>2020-09-07T18:37:54Z</time>
      </trkpt>
      <trkpt lat="43.4357" lon="2.60521">
        <ele>810</ele>
        <time>2020-09-07T18:37:57Z</time>
      </trkpt>
      <trkpt lat="43.43558" lon="2.60536">
        <ele>808</ele>
        <time>2020-09-07T18:38:00Z</time>
      </trkpt>
      <trkpt lat="43.43547" lon="2.60559">
        <ele>805</ele>
        <time>2020-09-07T18:38:03Z</time>
      </trkpt>
      <trkpt lat="43.43519" lon="2.60635">
        <ele>794</ele>
        <time>2020-09-07T18:38:14Z</time>
      </trkpt>
      <trkpt lat="43.43511" lon="2.60646">
        <ele>793</ele>
        <time>2020-09-07T18:38:16Z</time>
      </trkpt>
      <trkpt lat="43.43501" lon="2.60653">
        <ele>792</ele>
        <time>2020-09-07T18:38:18Z</time>
      </trkpt>
      <trkpt lat="43.43475" lon="2.60664">
        <ele>792</ele>
        <time>2020-09-07T18:38:23Z</time>
      </trkpt>
      <trkpt lat="43.43466" lon="2.6069">
        <ele>790</ele>
        <time>2020-09-07T18:38:27Z</time>
      </trkpt>
      <trkpt lat="43.43429" lon="2.60719">
        <ele>790</ele>
        <time>2020-09-07T18:38:34Z</time>
      </trkpt>
      <trkpt lat="43.43418" lon="2.6073">
        <ele>790</ele>
        <time>2020-09-07T18:38:37Z</time>
      </trkpt>
      <trkpt lat="43.434" lon="2.60738">
        <ele>789</ele>
        <time>2020-09-07T18:38:40Z</time>
      </trkpt>
      <trkpt lat="43.43377" lon="2.60737">
        <ele>789</ele>
        <time>2020-09-07T18:38:44Z</time>
      </trkpt>
      <trkpt lat="43.43356" lon="2.60724">
        <ele>790</ele>
        <time>2020-09-07T18:38:48Z</time>
      </trkpt>
      <trkpt lat="43.43287" lon="2.60655">
        <ele>792</ele>
        <time>2020-09-07T18:39:03Z</time>
      </trkpt>
      <trkpt lat="43.43266" lon="2.6062">
        <ele>792</ele>
        <time>2020-09-07T18:39:09Z</time>
      </trkpt>
      <trkpt lat="43.43238" lon="2.60562">
        <ele>792</ele>
        <time>2020-09-07T18:39:18Z</time>
      </trkpt>
      <trkpt lat="43.43221" lon="2.60492">
        <ele>793</ele>
        <time>2020-09-07T18:39:28Z</time>
      </trkpt>
      <trkpt lat="43.43211" lon="2.60416">
        <ele>793</ele>
        <time>2020-09-07T18:39:38Z</time>
      </trkpt>
      <trkpt lat="43.43213" lon="2.60372">
        <ele>794</ele>
        <time>2020-09-07T18:39:44Z</time>
      </trkpt>
      <trkpt lat="43.4322" lon="2.60337">
        <ele>794</ele>
        <time>2020-09-07T18:39:48Z</time>
      </trkpt>
      <trkpt lat="43.43237" lon="2.60303">
        <ele>795</ele>
        <time>2020-09-07T18:39:54Z</time>
      </trkpt>
      <trkpt lat="43.43283" lon="2.60249">
        <ele>795</ele>
        <time>2020-09-07T18:40:04Z</time>
      </trkpt>
      <trkpt lat="43.43304" lon="2.60219">
        <ele>796</ele>
        <time>2020-09-07T18:40:10Z</time>
      </trkpt>
      <trkpt lat="43.43318" lon="2.60182">
        <ele>796</ele>
        <time>2020-09-07T18:40:15Z</time>
      </trkpt>
      <trkpt lat="43.43364" lon="2.59999">
        <ele>798</ele>
        <time>2020-09-07T18:40:40Z</time>
      </trkpt>
      <trkpt lat="43.43356" lon="2.59968">
        <ele>796</ele>
        <time>2020-09-07T18:40:44Z</time>
      </trkpt>
      <trkpt lat="43.43351" lon="2.59915">
        <ele>795</ele>
        <time>2020-09-07T18:40:51Z</time>
      </trkpt>
      <trkpt lat="43.43345" lon="2.59907">
        <ele>794</ele>
        <time>2020-09-07T18:40:53Z</time>
      </trkpt>
      <trkpt lat="43.43338" lon="2.59905">
        <ele>794</ele>
        <time>2020-09-07T18:40:54Z</time>
      </trkpt>
      <trkpt lat="43.4333" lon="2.59909">
        <ele>793</ele>
        <time>2020-09-07T18:40:56Z</time>
      </trkpt>
      <trkpt lat="43.43271" lon="2.59965">
        <ele>799</ele>
        <time>2020-09-07T18:41:08Z</time>
      </trkpt>
      <trkpt lat="43.43259" lon="2.59973">
        <ele>800</ele>
        <time>2020-09-07T18:41:11Z</time>
      </trkpt>
      <trkpt lat="43.43219" lon="2.59983">
        <ele>807</ele>
        <time>2020-09-07T18:41:18Z</time>
      </trkpt>
      <trkpt lat="43.43134" lon="2.60035">
        <ele>817</ele>
        <time>2020-09-07T18:41:34Z</time>
      </trkpt>
      <trkpt lat="43.4312" lon="2.60039">
        <ele>818</ele>
        <time>2020-09-07T18:41:37Z</time>
      </trkpt>
      <trkpt lat="43.43112" lon="2.6004">
        <ele>819</ele>
        <time>2020-09-07T18:41:38Z</time>
      </trkpt>
      <trkpt lat="43.43101" lon="2.60035">
        <ele>820</ele>
        <time>2020-09-07T18:41:41Z</time>
      </trkpt>
      <trkpt lat="43.43043" lon="2.5998">
        <ele>827</ele>
        <time>2020-09-07T18:41:53Z</time>
      </trkpt>
      <trkpt lat="43.42957" lon="2.59892">
        <ele>830</ele>
        <time>2020-09-07T18:42:12Z</time>
      </trkpt>
      <trkpt lat="43.42933" lon="2.59871">
        <ele>831</ele>
        <time>2020-09-07T18:42:17Z</time>
      </trkpt>
      <trkpt lat="43.42903" lon="2.5985">
        <ele>831</ele>
        <time>2020-09-07T18:42:23Z</time>
      </trkpt>
      <trkpt lat="43.42866" lon="2.59839">
        <ele>831</ele>
        <time>2020-09-07T18:42:30Z</time>
      </trkpt>
      <trkpt lat="43.42845" lon="2.5984">
        <ele>831</ele>
        <time>2020-09-07T18:42:34Z</time>
      </trkpt>
      <trkpt lat="43.42783" lon="2.59854">
        <ele>831</ele>
        <time>2020-09-07T18:42:45Z</time>
      </trkpt>
      <trkpt lat="43.42723" lon="2.59885">
        <ele>831</ele>
        <time>2020-09-07T18:42:56Z</time>
      </trkpt>
      <trkpt lat="43.42695" lon="2.59914">
        <ele>831</ele>
        <time>2020-09-07T18:43:02Z</time>
      </trkpt>
      <trkpt lat="43.42641" lon="2.59961">
        <ele>831</ele>
        <time>2020-09-07T18:43:14Z</time>
      </trkpt>
      <trkpt lat="43.42462" lon="2.60098">
        <ele>839</ele>
        <time>2020-09-07T18:43:50Z</time>
      </trkpt>
      <trkpt lat="43.42348" lon="2.60196">
        <ele>840</ele>
        <time>2020-09-07T18:44:14Z</time>
      </trkpt>
      <trkpt lat="43.4228" lon="2.60263">
        <ele>840</ele>
        <time>2020-09-07T18:44:29Z</time>
      </trkpt>
      <trkpt lat="43.42221" lon="2.60293">
        <ele>842</ele>
        <time>2020-09-07T18:44:40Z</time>
      </trkpt>
      <trkpt lat="43.42149" lon="2.60336">
        <ele>846</ele>
        <time>2020-09-07T18:44:54Z</time>
      </trkpt>
      <trkpt lat="43.42117" lon="2.60351">
        <ele>847</ele>
        <time>2020-09-07T18:45:00Z</time>
      </trkpt>
      <trkpt lat="43.42099" lon="2.60357">
        <ele>849</ele>
        <time>2020-09-07T18:45:04Z</time>
      </trkpt>
      <trkpt lat="43.42078" lon="2.60354">
        <ele>850</ele>
        <time>2020-09-07T18:45:07Z</time>
      </trkpt>
      <trkpt lat="43.42073" lon="2.60348">
        <ele>849</ele>
        <time>2020-09-07T18:45:08Z</time>
      </trkpt>
      <trkpt lat="43.42069" lon="2.6034">
        <ele>849</ele>
        <time>2020-09-07T18:45:10Z</time>
      </trkpt>
      <trkpt lat="43.42063" lon="2.60263">
        <ele>856</ele>
        <time>2020-09-07T18:45:20Z</time>
      </trkpt>
      <trkpt lat="43.42063" lon="2.60248">
        <ele>857</ele>
        <time>2020-09-07T18:45:22Z</time>
      </trkpt>
      <trkpt lat="43.42094" lon="2.6005">
        <ele>878</ele>
        <time>2020-09-07T18:45:48Z</time>
      </trkpt>
      <trkpt lat="43.42095" lon="2.60032">
        <ele>879</ele>
        <time>2020-09-07T18:45:50Z</time>
      </trkpt>
      <trkpt lat="43.42093" lon="2.60011">
        <ele>880</ele>
        <time>2020-09-07T18:45:53Z</time>
      </trkpt>
      <trkpt lat="43.42064" lon="2.59883">
        <ele>881</ele>
        <time>2020-09-07T18:46:10Z</time>
      </trkpt>
      <trkpt lat="43.42051" lon="2.59807">
        <ele>881</ele>
        <time>2020-09-07T18:46:20Z</time>
      </trkpt>
      <trkpt lat="43.42034" lon="2.59744">
        <ele>882</ele>
        <time>2020-09-07T18:46:29Z</time>
      </trkpt>
      <trkpt lat="43.42001" lon="2.59605">
        <ele>891</ele>
        <time>2020-09-07T18:46:48Z</time>
      </trkpt>
      <trkpt lat="43.41986" lon="2.59552">
        <ele>894</ele>
        <time>2020-09-07T18:46:55Z</time>
      </trkpt>
      <trkpt lat="43.41981" lon="2.59516">
        <ele>898</ele>
        <time>2020-09-07T18:47:00Z</time>
      </trkpt>
      <trkpt lat="43.41973" lon="2.59492">
        <ele>900</ele>
        <time>2020-09-07T18:47:03Z</time>
      </trkpt>
      <trkpt lat="43.41955" lon="2.59464">
        <ele>902</ele>
        <time>2020-09-07T18:47:08Z</time>
      </trkpt>
      <trkpt lat="43.41919" lon="2.59419">
        <ele>909</ele>
        <time>2020-09-07T18:47:17Z</time>
      </trkpt>
      <trkpt lat="43.41888" lon="2.59395">
        <ele>914</ele>
        <time>2020-09-07T18:47:23Z</time>
      </trkpt>
      <trkpt lat="43.4187" lon="2.59387">
        <ele>916</ele>
        <time>2020-09-07T18:47:27Z</time>
      </trkpt>
      <trkpt lat="43.41842" lon="2.59394">
        <ele>917</ele>
        <time>2020-09-07T18:47:32Z</time>
      </trkpt>
      <trkpt lat="43.41833" lon="2.59389">
        <ele>918</ele>
        <time>2020-09-07T18:47:33Z</time>
      </trkpt>
      <trkpt lat="43.41717" lon="2.5938">
        <ele>928</ele>
        <time>2020-09-07T18:47:54Z</time>
      </trkpt>
      <trkpt lat="43.41698" lon="2.59377">
        <ele>930</ele>
        <time>2020-09-07T18:47:57Z</time>
      </trkpt>
      <trkpt lat="43.41681" lon="2.59381">
        <ele>931</ele>
        <time>2020-09-07T18:48:01Z</time>
      </trkpt>
      <trkpt lat="43.41579" lon="2.59462">
        <ele>929</ele>
        <time>2020-09-07T18:48:21Z</time>
      </trkpt>
      <trkpt lat="43.4155" lon="2.59497">
        <ele>925</ele>
        <time>2020-09-07T18:48:28Z</time>
      </trkpt>
      <trkpt lat="43.41526" lon="2.59508">
        <ele>925</ele>
        <time>2020-09-07T18:48:33Z</time>
      </trkpt>
      <trkpt lat="43.41483" lon="2.59503">
        <ele>932</ele>
        <time>2020-09-07T18:48:41Z</time>
      </trkpt>
      <trkpt lat="43.41442" lon="2.59505">
        <ele>937</ele>
        <time>2020-09-07T18:48:48Z</time>
      </trkpt>
      <trkpt lat="43.41391" lon="2.59535">
        <ele>933</ele>
        <time>2020-09-07T18:48:58Z</time>
      </trkpt>
      <trkpt lat="43.41342" lon="2.59587">
        <ele>925</ele>
        <time>2020-09-07T18:49:09Z</time>
      </trkpt>
      <trkpt lat="43.41284" lon="2.59676">
        <ele>911</ele>
        <time>2020-09-07T18:49:24Z</time>
      </trkpt>
      <trkpt lat="43.41256" lon="2.59698">
        <ele>912</ele>
        <time>2020-09-07T18:49:30Z</time>
      </trkpt>
      <trkpt lat="43.41234" lon="2.59726">
        <ele>909</ele>
        <time>2020-09-07T18:49:35Z</time>
      </trkpt>
      <trkpt lat="43.41222" lon="2.5975">
        <ele>904</ele>
        <time>2020-09-07T18:49:39Z</time>
      </trkpt>
      <trkpt lat="43.41207" lon="2.59769">
        <ele>904</ele>
        <time>2020-09-07T18:49:43Z</time>
      </trkpt>
      <trkpt lat="43.41191" lon="2.59803">
        <ele>900</ele>
        <time>2020-09-07T18:49:48Z</time>
      </trkpt>
      <trkpt lat="43.41163" lon="2.59835">
        <ele>903</ele>
        <time>2020-09-07T18:49:54Z</time>
      </trkpt>
      <trkpt lat="43.4114" lon="2.59916">
        <ele>889</ele>
        <time>2020-09-07T18:50:06Z</time>
      </trkpt>
      <trkpt lat="43.41134" lon="2.59971">
        <ele>881</ele>
        <time>2020-09-07T18:50:13Z</time>
      </trkpt>
      <trkpt lat="43.41126" lon="2.60004">
        <ele>877</ele>
        <time>2020-09-07T18:50:17Z</time>
      </trkpt>
      <trkpt lat="43.411" lon="2.60058">
        <ele>876</ele>
        <time>2020-09-07T18:50:26Z</time>
      </trkpt>
      <trkpt lat="43.41083" lon="2.60083">
        <ele>874</ele>
        <time>2020-09-07T18:50:30Z</time>
      </trkpt>
      <trkpt lat="43.41073" lon="2.6009">
        <ele>873</ele>
        <time>2020-09-07T18:50:32Z</time>
      </trkpt>
      <trkpt lat="43.4106" lon="2.60097">
        <ele>872</ele>
        <time>2020-09-07T18:50:35Z</time>
      </trkpt>
      <trkpt lat="43.41029" lon="2.60108">
        <ele>869</ele>
        <time>2020-09-07T18:50:40Z</time>
      </trkpt>
      <trkpt lat="43.41018" lon="2.60125">
        <ele>867</ele>
        <time>2020-09-07T18:50:43Z</time>
      </trkpt>
      <trkpt lat="43.41004" lon="2.60151">
        <ele>863</ele>
        <time>2020-09-07T18:50:47Z</time>
      </trkpt>
      <trkpt lat="43.40999" lon="2.60175">
        <ele>860</ele>
        <time>2020-09-07T18:50:51Z</time>
      </trkpt>
      <trkpt lat="43.40994" lon="2.60208">
        <ele>857</ele>
        <time>2020-09-07T18:50:55Z</time>
      </trkpt>
      <trkpt lat="43.40986" lon="2.6025">
        <ele>851</ele>
        <time>2020-09-07T18:51:01Z</time>
      </trkpt>
      <trkpt lat="43.40952" lon="2.60328">
        <ele>837</ele>
        <time>2020-09-07T18:51:12Z</time>
      </trkpt>
      <trkpt lat="43.40945" lon="2.6035">
        <ele>834</ele>
        <time>2020-09-07T18:51:15Z</time>
      </trkpt>
      <trkpt lat="43.40941" lon="2.60409">
        <ele>827</ele>
        <time>2020-09-07T18:51:23Z</time>
      </trkpt>
      <trkpt lat="43.40937" lon="2.60428">
        <ele>825</ele>
        <time>2020-09-07T18:51:26Z</time>
      </trkpt>
      <trkpt lat="43.40909" lon="2.60481">
        <ele>816</ele>
        <time>2020-09-07T18:51:34Z</time>
      </trkpt>
      <trkpt lat="43.40884" lon="2.60509">
        <ele>810</ele>
        <time>2020-09-07T18:51:40Z</time>
      </trkpt>
      <trkpt lat="43.40866" lon="2.60532">
        <ele>804</ele>
        <time>2020-09-07T18:51:44Z</time>
      </trkpt>
      <trkpt lat="43.4086" lon="2.60536">
        <ele>803</ele>
        <time>2020-09-07T18:51:45Z</time>
      </trkpt>
      <trkpt lat="43.40853" lon="2.60534">
        <ele>802</ele>
        <time>2020-09-07T18:51:47Z</time>
      </trkpt>
      <trkpt lat="43.40818" lon="2.60511">
        <ele>797</ele>
        <time>2020-09-07T18:51:54Z</time>
      </trkpt>
      <trkpt lat="43.40798" lon="2.60484">
        <ele>794</ele>
        <time>2020-09-07T18:51:59Z</time>
      </trkpt>
      <trkpt lat="43.40784" lon="2.60476">
        <ele>790</ele>
        <time>2020-09-07T18:52:01Z</time>
      </trkpt>
      <trkpt lat="43.4078" lon="2.60479">
        <ele>789</ele>
        <time>2020-09-07T18:52:02Z</time>
      </trkpt>
      <trkpt lat="43.40778" lon="2.6049">
        <ele>788</ele>
        <time>2020-09-07T18:52:04Z</time>
      </trkpt>
      <trkpt lat="43.40774" lon="2.60536">
        <ele>782</ele>
        <time>2020-09-07T18:52:09Z</time>
      </trkpt>
      <trkpt lat="43.40773" lon="2.60557">
        <ele>779</ele>
        <time>2020-09-07T18:52:12Z</time>
      </trkpt>
      <trkpt lat="43.40782" lon="2.60609">
        <ele>775</ele>
        <time>2020-09-07T18:52:19Z</time>
      </trkpt>
      <trkpt lat="43.40795" lon="2.60652">
        <ele>773</ele>
        <time>2020-09-07T18:52:25Z</time>
      </trkpt>
      <trkpt lat="43.40824" lon="2.60726">
        <ele>764</ele>
        <time>2020-09-07T18:52:36Z</time>
      </trkpt>
      <trkpt lat="43.40831" lon="2.60738">
        <ele>763</ele>
        <time>2020-09-07T18:52:38Z</time>
      </trkpt>
      <trkpt lat="43.40855" lon="2.60765">
        <ele>760</ele>
        <time>2020-09-07T18:52:44Z</time>
      </trkpt>
      <trkpt lat="43.40873" lon="2.60776">
        <ele>760</ele>
        <time>2020-09-07T18:52:47Z</time>
      </trkpt>
      <trkpt lat="43.40902" lon="2.60796">
        <ele>760</ele>
        <time>2020-09-07T18:52:53Z</time>
      </trkpt>
      <trkpt lat="43.40965" lon="2.60852">
        <ele>753</ele>
        <time>2020-09-07T18:53:06Z</time>
      </trkpt>
      <trkpt lat="43.40977" lon="2.60858">
        <ele>752</ele>
        <time>2020-09-07T18:53:08Z</time>
      </trkpt>
      <trkpt lat="43.40989" lon="2.6086">
        <ele>752</ele>
        <time>2020-09-07T18:53:11Z</time>
      </trkpt>
      <trkpt lat="43.41032" lon="2.60857">
        <ele>753</ele>
        <time>2020-09-07T18:53:18Z</time>
      </trkpt>
      <trkpt lat="43.41046" lon="2.60858">
        <ele>753</ele>
        <time>2020-09-07T18:53:21Z</time>
      </trkpt>
      <trkpt lat="43.41058" lon="2.60863">
        <ele>752</ele>
        <time>2020-09-07T18:53:23Z</time>
      </trkpt>
      <trkpt lat="43.41099" lon="2.60885">
        <ele>745</ele>
        <time>2020-09-07T18:53:31Z</time>
      </trkpt>
      <trkpt lat="43.41109" lon="2.60892">
        <ele>743</ele>
        <time>2020-09-07T18:53:33Z</time>
      </trkpt>
      <trkpt lat="43.41119" lon="2.60905">
        <ele>740</ele>
        <time>2020-09-07T18:53:35Z</time>
      </trkpt>
      <trkpt lat="43.4113" lon="2.60915">
        <ele>738</ele>
        <time>2020-09-07T18:53:38Z</time>
      </trkpt>
      <trkpt lat="43.41144" lon="2.60923">
        <ele>736</ele>
        <time>2020-09-07T18:53:40Z</time>
      </trkpt>
      <trkpt lat="43.41179" lon="2.60937">
        <ele>732</ele>
        <time>2020-09-07T18:53:47Z</time>
      </trkpt>
      <trkpt lat="43.41183" lon="2.60941">
        <ele>730</ele>
        <time>2020-09-07T18:53:48Z</time>
      </trkpt>
      <trkpt lat="43.41185" lon="2.60946">
        <ele>729</ele>
        <time>2020-09-07T18:53:48Z</time>
      </trkpt>
      <trkpt lat="43.41185" lon="2.60958">
        <ele>727</ele>
        <time>2020-09-07T18:53:50Z</time>
      </trkpt>
      <trkpt lat="43.41176" lon="2.60988">
        <ele>723</ele>
        <time>2020-09-07T18:53:54Z</time>
      </trkpt>
      <trkpt lat="43.41174" lon="2.60991">
        <ele>722</ele>
        <time>2020-09-07T18:53:55Z</time>
      </trkpt>
      <trkpt lat="43.41144" lon="2.61015">
        <ele>717</ele>
        <time>2020-09-07T18:54:01Z</time>
      </trkpt>
      <trkpt lat="43.41127" lon="2.61022">
        <ele>715</ele>
        <time>2020-09-07T18:54:04Z</time>
      </trkpt>
      <trkpt lat="43.41046" lon="2.61027">
        <ele>712</ele>
        <time>2020-09-07T18:54:18Z</time>
      </trkpt>
      <trkpt lat="43.4096" lon="2.6105">
        <ele>705</ele>
        <time>2020-09-07T18:54:34Z</time>
      </trkpt>
      <trkpt lat="43.4092" lon="2.61078">
        <ele>699</ele>
        <time>2020-09-07T18:54:42Z</time>
      </trkpt>
      <trkpt lat="43.40879" lon="2.61129">
        <ele>692</ele>
        <time>2020-09-07T18:54:52Z</time>
      </trkpt>
      <trkpt lat="43.40859" lon="2.61173">
        <ele>689</ele>
        <time>2020-09-07T18:54:59Z</time>
      </trkpt>
      <trkpt lat="43.40868" lon="2.61187">
        <ele>688</ele>
        <time>2020-09-07T18:55:01Z</time>
      </trkpt>
      <trkpt lat="43.40888" lon="2.61235">
        <ele>687</ele>
        <time>2020-09-07T18:55:08Z</time>
      </trkpt>
      <trkpt lat="43.40913" lon="2.61318">
        <ele>686</ele>
        <time>2020-09-07T18:55:20Z</time>
      </trkpt>
      <trkpt lat="43.40934" lon="2.61362">
        <ele>683</ele>
        <time>2020-09-07T18:55:26Z</time>
      </trkpt>
      <trkpt lat="43.40955" lon="2.61419">
        <ele>680</ele>
        <time>2020-09-07T18:55:35Z</time>
      </trkpt>
      <trkpt lat="43.4099" lon="2.61483">
        <ele>672</ele>
        <time>2020-09-07T18:55:45Z</time>
      </trkpt>
      <trkpt lat="43.4101" lon="2.61567">
        <ele>668</ele>
        <time>2020-09-07T18:55:57Z</time>
      </trkpt>
      <trkpt lat="43.4104" lon="2.61664">
        <ele>663</ele>
        <time>2020-09-07T18:56:10Z</time>
      </trkpt>
      <trkpt lat="43.41048" lon="2.61669">
        <ele>662</ele>
        <time>2020-09-07T18:56:12Z</time>
      </trkpt>
      <trkpt lat="43.41056" lon="2.61668">
        <ele>661</ele>
        <time>2020-09-07T18:56:13Z</time>
      </trkpt>
      <trkpt lat="43.41062" lon="2.61661">
        <ele>660</ele>
        <time>2020-09-07T18:56:15Z</time>
      </trkpt>
      <trkpt lat="43.41067" lon="2.6165">
        <ele>659</ele>
        <time>2020-09-07T18:56:16Z</time>
      </trkpt>
      <trkpt lat="43.41071" lon="2.61624">
        <ele>657</ele>
        <time>2020-09-07T18:56:20Z</time>
      </trkpt>
      <trkpt lat="43.41072" lon="2.6161">
        <ele>656</ele>
        <time>2020-09-07T18:56:21Z</time>
      </trkpt>
      <trkpt lat="43.4107" lon="2.61599">
        <ele>656</ele>
        <time>2020-09-07T18:56:23Z</time>
      </trkpt>
      <trkpt lat="43.41066" lon="2.61585">
        <ele>656</ele>
        <time>2020-09-07T18:56:25Z</time>
      </trkpt>
      <trkpt lat="43.41048" lon="2.61537">
        <ele>657</ele>
        <time>2020-09-07T18:56:32Z</time>
      </trkpt>
      <trkpt lat="43.41046" lon="2.61521">
        <ele>657</ele>
        <time>2020-09-07T18:56:34Z</time>
      </trkpt>
      <trkpt lat="43.41048" lon="2.61434">
        <ele>654</ele>
        <time>2020-09-07T18:56:45Z</time>
      </trkpt>
      <trkpt lat="43.41051" lon="2.61425">
        <ele>653</ele>
        <time>2020-09-07T18:56:47Z</time>
      </trkpt>
      <trkpt lat="43.41054" lon="2.61422">
        <ele>652</ele>
        <time>2020-09-07T18:56:47Z</time>
      </trkpt>
      <trkpt lat="43.41059" lon="2.61423">
        <ele>651</ele>
        <time>2020-09-07T18:56:48Z</time>
      </trkpt>
      <trkpt lat="43.41063" lon="2.61429">
        <ele>649</ele>
        <time>2020-09-07T18:56:49Z</time>
      </trkpt>
      <trkpt lat="43.41071" lon="2.61459">
        <ele>647</ele>
        <time>2020-09-07T18:56:53Z</time>
      </trkpt>
      <trkpt lat="43.41089" lon="2.61515">
        <ele>644</ele>
        <time>2020-09-07T18:57:01Z</time>
      </trkpt>
      <trkpt lat="43.41113" lon="2.61566">
        <ele>641</ele>
        <time>2020-09-07T18:57:09Z</time>
      </trkpt>
      <trkpt lat="43.41171" lon="2.61647">
        <ele>629</ele>
        <time>2020-09-07T18:57:24Z</time>
      </trkpt>
      <trkpt lat="43.41212" lon="2.61743">
        <ele>619</ele>
        <time>2020-09-07T18:57:38Z</time>
      </trkpt>
      <trkpt lat="43.41239" lon="2.61819">
        <ele>609</ele>
        <time>2020-09-07T18:57:49Z</time>
      </trkpt>
      <trkpt lat="43.41249" lon="2.61856">
        <ele>604</ele>
        <time>2020-09-07T18:57:54Z</time>
      </trkpt>
      <trkpt lat="43.41253" lon="2.61886">
        <ele>603</ele>
        <time>2020-09-07T18:57:58Z</time>
      </trkpt>
      <trkpt lat="43.41256" lon="2.61924">
        <ele>602</ele>
        <time>2020-09-07T18:58:03Z</time>
      </trkpt>
      <trkpt lat="43.4126" lon="2.61949">
        <ele>602</ele>
        <time>2020-09-07T18:58:06Z</time>
      </trkpt>
      <trkpt lat="43.41302" lon="2.62053">
        <ele>594</ele>
        <time>2020-09-07T18:58:22Z</time>
      </trkpt>
      <trkpt lat="43.41308" lon="2.6205">
        <ele>591</ele>
        <time>2020-09-07T18:58:23Z</time>
      </trkpt>
      <trkpt lat="43.41309" lon="2.61994">
        <ele>588</ele>
        <time>2020-09-07T18:58:30Z</time>
      </trkpt>
      <trkpt lat="43.41316" lon="2.61968">
        <ele>584</ele>
        <time>2020-09-07T18:58:34Z</time>
      </trkpt>
      <trkpt lat="43.4133" lon="2.62009">
        <ele>581</ele>
        <time>2020-09-07T18:58:40Z</time>
      </trkpt>
      <trkpt lat="43.41337" lon="2.62078">
        <ele>582</ele>
        <time>2020-09-07T18:58:49Z</time>
      </trkpt>
      <trkpt lat="43.41336" lon="2.62116">
        <ele>579</ele>
        <time>2020-09-07T18:58:53Z</time>
      </trkpt>
      <trkpt lat="43.41329" lon="2.62165">
        <ele>577</ele>
        <time>2020-09-07T18:59:00Z</time>
      </trkpt>
      <trkpt lat="43.4131" lon="2.62221">
        <ele>574</ele>
        <time>2020-09-07T18:59:08Z</time>
      </trkpt>
      <trkpt lat="43.41285" lon="2.62271">
        <ele>573</ele>
        <time>2020-09-07T18:59:16Z</time>
      </trkpt>
      <trkpt lat="43.41275" lon="2.62282">
        <ele>573</ele>
        <time>2020-09-07T18:59:18Z</time>
      </trkpt>
      <trkpt lat="43.41258" lon="2.62289">
        <ele>573</ele>
        <time>2020-09-07T18:59:21Z</time>
      </trkpt>
      <trkpt lat="43.41233" lon="2.62321">
        <ele>567</ele>
        <time>2020-09-07T18:59:27Z</time>
      </trkpt>
      <trkpt lat="43.4122" lon="2.62332">
        <ele>566</ele>
        <time>2020-09-07T18:59:30Z</time>
      </trkpt>
      <trkpt lat="43.41204" lon="2.62341">
        <ele>568</ele>
        <time>2020-09-07T18:59:33Z</time>
      </trkpt>
      <trkpt lat="43.41166" lon="2.62396">
        <ele>558</ele>
        <time>2020-09-07T18:59:43Z</time>
      </trkpt>
      <trkpt lat="43.41164" lon="2.62404">
        <ele>556</ele>
        <time>2020-09-07T18:59:44Z</time>
      </trkpt>
      <trkpt lat="43.41139" lon="2.62422">
        <ele>559</ele>
        <time>2020-09-07T18:59:49Z</time>
      </trkpt>
      <trkpt lat="43.41097" lon="2.62535">
        <ele>539</ele>
        <time>2020-09-07T19:00:05Z</time>
      </trkpt>
      <trkpt lat="43.41082" lon="2.62547">
        <ele>534</ele>
        <time>2020-09-07T19:00:08Z</time>
      </trkpt>
      <trkpt lat="43.41014" lon="2.62539">
        <ele>530</ele>
        <time>2020-09-07T19:00:21Z</time>
      </trkpt>
      <trkpt lat="43.4098" lon="2.62543">
        <ele>526</ele>
        <time>2020-09-07T19:00:27Z</time>
      </trkpt>
      <trkpt lat="43.40962" lon="2.62539">
        <ele>524</ele>
        <time>2020-09-07T19:00:30Z</time>
      </trkpt>
      <trkpt lat="43.40891" lon="2.62453">
        <ele>523</ele>
        <time>2020-09-07T19:00:47Z</time>
      </trkpt>
      <trkpt lat="43.40873" lon="2.6244">
        <ele>522</ele>
        <time>2020-09-07T19:00:50Z</time>
      </trkpt>
      <trkpt lat="43.40806" lon="2.62424">
        <ele>515</ele>
        <time>2020-09-07T19:01:02Z</time>
      </trkpt>
      <trkpt lat="43.40794" lon="2.62426">
        <ele>514</ele>
        <time>2020-09-07T19:01:05Z</time>
      </trkpt>
      <trkpt lat="43.40751" lon="2.62447">
        <ele>510</ele>
        <time>2020-09-07T19:01:13Z</time>
      </trkpt>
      <trkpt lat="43.4067" lon="2.62455">
        <ele>503</ele>
        <time>2020-09-07T19:01:27Z</time>
      </trkpt>
      <trkpt lat="43.40625" lon="2.62474">
        <ele>502</ele>
        <time>2020-09-07T19:01:36Z</time>
      </trkpt>
      <trkpt lat="43.40464" lon="2.62641">
        <ele>482</ele>
        <time>2020-09-07T19:02:11Z</time>
      </trkpt>
      <trkpt lat="43.40422" lon="2.62671">
        <ele>479</ele>
        <time>2020-09-07T19:02:20Z</time>
      </trkpt>
      <trkpt lat="43.40369" lon="2.62728">
        <ele>477</ele>
        <time>2020-09-07T19:02:32Z</time>
      </trkpt>
      <trkpt lat="43.40342" lon="2.62744">
        <ele>476</ele>
        <time>2020-09-07T19:02:37Z</time>
      </trkpt>
      <trkpt lat="43.40273" lon="2.62822">
        <ele>468</ele>
        <time>2020-09-07T19:02:53Z</time>
      </trkpt>
      <trkpt lat="43.40255" lon="2.62866">
        <ele>459</ele>
        <time>2020-09-07T19:02:59Z</time>
      </trkpt>
      <trkpt lat="43.40238" lon="2.62931">
        <ele>449</ele>
        <time>2020-09-07T19:03:08Z</time>
      </trkpt>
      <trkpt lat="43.40238" lon="2.62939">
        <ele>448</ele>
        <time>2020-09-07T19:03:09Z</time>
      </trkpt>
      <trkpt lat="43.40239" lon="2.62943">
        <ele>448</ele>
        <time>2020-09-07T19:03:10Z</time>
      </trkpt>
      <trkpt lat="43.40257" lon="2.62969">
        <ele>450</ele>
        <time>2020-09-07T19:03:15Z</time>
      </trkpt>
      <trkpt lat="43.40258" lon="2.62976">
        <ele>451</ele>
        <time>2020-09-07T19:03:16Z</time>
      </trkpt>
      <trkpt lat="43.4025" lon="2.63011">
        <ele>449</ele>
        <time>2020-09-07T19:03:20Z</time>
      </trkpt>
      <trkpt lat="43.40232" lon="2.63057">
        <ele>449</ele>
        <time>2020-09-07T19:03:27Z</time>
      </trkpt>
      <trkpt lat="43.40224" lon="2.63054">
        <ele>448</ele>
        <time>2020-09-07T19:03:29Z</time>
      </trkpt>
      <trkpt lat="43.40187" lon="2.63071">
        <ele>443</ele>
        <time>2020-09-07T19:03:35Z</time>
      </trkpt>
      <trkpt lat="43.40177" lon="2.63079">
        <ele>441</ele>
        <time>2020-09-07T19:03:38Z</time>
      </trkpt>
      <trkpt lat="43.40171" lon="2.63094">
        <ele>440</ele>
        <time>2020-09-07T19:03:40Z</time>
      </trkpt>
      <trkpt lat="43.40163" lon="2.63125">
        <ele>440</ele>
        <time>2020-09-07T19:03:44Z</time>
      </trkpt>
      <trkpt lat="43.40158" lon="2.63135">
        <ele>440</ele>
        <time>2020-09-07T19:03:46Z</time>
      </trkpt>
      <trkpt lat="43.40147" lon="2.63138">
        <ele>440</ele>
        <time>2020-09-07T19:03:48Z</time>
      </trkpt>
      <trkpt lat="43.4013" lon="2.63137">
        <ele>438</ele>
        <time>2020-09-07T19:03:51Z</time>
      </trkpt>
      <trkpt lat="43.40073" lon="2.63143">
        <ele>433</ele>
        <time>2020-09-07T19:04:01Z</time>
      </trkpt>
      <trkpt lat="43.40064" lon="2.63148">
        <ele>432</ele>
        <time>2020-09-07T19:04:02Z</time>
      </trkpt>
      <trkpt lat="43.40028" lon="2.6318">
        <ele>430</ele>
        <time>2020-09-07T19:04:10Z</time>
      </trkpt>
      <trkpt lat="43.40014" lon="2.63185">
        <ele>431</ele>
        <time>2020-09-07T19:04:13Z</time>
      </trkpt>
      <trkpt lat="43.40003" lon="2.63186">
        <ele>431</ele>
        <time>2020-09-07T19:04:15Z</time>
      </trkpt>
      <trkpt lat="43.39994" lon="2.63183">
        <ele>430</ele>
        <time>2020-09-07T19:04:16Z</time>
      </trkpt>
      <trkpt lat="43.39989" lon="2.63177">
        <ele>428</ele>
        <time>2020-09-07T19:04:17Z</time>
      </trkpt>
      <trkpt lat="43.39963" lon="2.63135">
        <ele>429</ele>
        <time>2020-09-07T19:04:25Z</time>
      </trkpt>
      <trkpt lat="43.39955" lon="2.63125">
        <ele>430</ele>
        <time>2020-09-07T19:04:27Z</time>
      </trkpt>
      <trkpt lat="43.39948" lon="2.6312">
        <ele>431</ele>
        <time>2020-09-07T19:04:28Z</time>
      </trkpt>
      <trkpt lat="43.39898" lon="2.63141">
        <ele>427</ele>
        <time>2020-09-07T19:04:37Z</time>
      </trkpt>
      <trkpt lat="43.39863" lon="2.63138">
        <ele>428</ele>
        <time>2020-09-07T19:04:43Z</time>
      </trkpt>
      <trkpt lat="43.3975" lon="2.631">
        <ele>434</ele>
        <time>2020-09-07T19:05:04Z</time>
      </trkpt>
      <trkpt lat="43.39732" lon="2.63098">
        <ele>435</ele>
        <time>2020-09-07T19:05:07Z</time>
      </trkpt>
      <trkpt lat="43.39716" lon="2.63099">
        <ele>435</ele>
        <time>2020-09-07T19:05:10Z</time>
      </trkpt>
      <trkpt lat="43.39703" lon="2.63102">
        <ele>434</ele>
        <time>2020-09-07T19:05:13Z</time>
      </trkpt>
      <trkpt lat="43.39692" lon="2.63107">
        <ele>433</ele>
        <time>2020-09-07T19:05:15Z</time>
      </trkpt>
      <trkpt lat="43.39634" lon="2.6314">
        <ele>427</ele>
        <time>2020-09-07T19:05:26Z</time>
      </trkpt>
      <trkpt lat="43.39619" lon="2.63145">
        <ele>426</ele>
        <time>2020-09-07T19:05:29Z</time>
      </trkpt>
      <trkpt lat="43.39554" lon="2.63157">
        <ele>426</ele>
        <time>2020-09-07T19:05:40Z</time>
      </trkpt>
      <trkpt lat="43.39523" lon="2.63173">
        <ele>422</ele>
        <time>2020-09-07T19:05:46Z</time>
      </trkpt>
      <trkpt lat="43.39492" lon="2.63192">
        <ele>419</ele>
        <time>2020-09-07T19:05:52Z</time>
      </trkpt>
      <trkpt lat="43.39477" lon="2.63198">
        <ele>419</ele>
        <time>2020-09-07T19:05:55Z</time>
      </trkpt>
      <trkpt lat="43.39461" lon="2.63197">
        <ele>420</ele>
        <time>2020-09-07T19:05:58Z</time>
      </trkpt>
      <trkpt lat="43.39421" lon="2.63184">
        <ele>426</ele>
        <time>2020-09-07T19:06:05Z</time>
      </trkpt>
      <trkpt lat="43.394" lon="2.63181">
        <ele>425</ele>
        <time>2020-09-07T19:06:09Z</time>
      </trkpt>
      <trkpt lat="43.3935" lon="2.63179">
        <ele>419</ele>
        <time>2020-09-07T19:06:18Z</time>
      </trkpt>
      <trkpt lat="43.39326" lon="2.63186">
        <ele>414</ele>
        <time>2020-09-07T19:06:22Z</time>
      </trkpt>
      <trkpt lat="43.3931" lon="2.63186">
        <ele>409</ele>
        <time>2020-09-07T19:06:25Z</time>
      </trkpt>
      <trkpt lat="43.39305" lon="2.63183">
        <ele>408</ele>
        <time>2020-09-07T19:06:26Z</time>
      </trkpt>
      <trkpt lat="43.39298" lon="2.6317">
        <ele>408</ele>
        <time>2020-09-07T19:06:28Z</time>
      </trkpt>
      <trkpt lat="43.39292" lon="2.63084">
        <ele>419</ele>
        <time>2020-09-07T19:06:39Z</time>
      </trkpt>
      <trkpt lat="43.39285" lon="2.63049">
        <ele>423</ele>
        <time>2020-09-07T19:06:44Z</time>
      </trkpt>
      <trkpt lat="43.3928" lon="2.63034">
        <ele>423</ele>
        <time>2020-09-07T19:06:46Z</time>
      </trkpt>
      <trkpt lat="43.3927" lon="2.63012">
        <ele>422</ele>
        <time>2020-09-07T19:06:49Z</time>
      </trkpt>
      <trkpt lat="43.39237" lon="2.6296">
        <ele>425</ele>
        <time>2020-09-07T19:06:58Z</time>
      </trkpt>
      <trkpt lat="43.39225" lon="2.62947">
        <ele>427</ele>
        <time>2020-09-07T19:07:01Z</time>
      </trkpt>
      <trkpt lat="43.39195" lon="2.62933">
        <ele>424</ele>
        <time>2020-09-07T19:07:07Z</time>
      </trkpt>
      <trkpt lat="43.3918" lon="2.62929">
        <ele>421</ele>
        <time>2020-09-07T19:07:09Z</time>
      </trkpt>
      <trkpt lat="43.39131" lon="2.62926">
        <ele>422</ele>
        <time>2020-09-07T19:07:18Z</time>
      </trkpt>
      <trkpt lat="43.39116" lon="2.62932">
        <ele>421</ele>
        <time>2020-09-07T19:07:21Z</time>
      </trkpt>
      <trkpt lat="43.39111" lon="2.62938">
        <ele>419</ele>
        <time>2020-09-07T19:07:22Z</time>
      </trkpt>
      <trkpt lat="43.39085" lon="2.62985">
        <ele>404</ele>
        <time>2020-09-07T19:07:30Z</time>
      </trkpt>
      <trkpt lat="43.39073" lon="2.62996">
        <ele>400</ele>
        <time>2020-09-07T19:07:32Z</time>
      </trkpt>
      <trkpt lat="43.39038" lon="2.63004">
        <ele>399</ele>
        <time>2020-09-07T19:07:39Z</time>
      </trkpt>
      <trkpt lat="43.38909" lon="2.6301">
        <ele>394</ele>
        <time>2020-09-07T19:08:02Z</time>
      </trkpt>
      <trkpt lat="43.38887" lon="2.63009">
        <ele>391</ele>
        <time>2020-09-07T19:08:05Z</time>
      </trkpt>
      <trkpt lat="43.38878" lon="2.63007">
        <ele>390</ele>
        <time>2020-09-07T19:08:07Z</time>
      </trkpt>
      <trkpt lat="43.38862" lon="2.62998">
        <ele>389</ele>
        <time>2020-09-07T19:08:10Z</time>
      </trkpt>
      <trkpt lat="43.38842" lon="2.62978">
        <ele>388</ele>
        <time>2020-09-07T19:08:15Z</time>
      </trkpt>
      <trkpt lat="43.38835" lon="2.62969">
        <ele>388</ele>
        <time>2020-09-07T19:08:16Z</time>
      </trkpt>
      <trkpt lat="43.38814" lon="2.62927">
        <ele>390</ele>
        <time>2020-09-07T19:08:23Z</time>
      </trkpt>
      <trkpt lat="43.38809" lon="2.62909">
        <ele>390</ele>
        <time>2020-09-07T19:08:25Z</time>
      </trkpt>
      <trkpt lat="43.38803" lon="2.62873">
        <ele>393</ele>
        <time>2020-09-07T19:08:30Z</time>
      </trkpt>
      <trkpt lat="43.38799" lon="2.62866">
        <ele>393</ele>
        <time>2020-09-07T19:08:31Z</time>
      </trkpt>
      <trkpt lat="43.38792" lon="2.62858">
        <ele>393</ele>
        <time>2020-09-07T19:08:33Z</time>
      </trkpt>
      <trkpt lat="43.38787" lon="2.62854">
        <ele>393</ele>
        <time>2020-09-07T19:08:34Z</time>
      </trkpt>
      <trkpt lat="43.38776" lon="2.62852">
        <ele>392</ele>
        <time>2020-09-07T19:08:36Z</time>
      </trkpt>
      <trkpt lat="43.38773" lon="2.62847">
        <ele>392</ele>
        <time>2020-09-07T19:08:37Z</time>
      </trkpt>
      <trkpt lat="43.38763" lon="2.62843">
        <ele>392</ele>
        <time>2020-09-07T19:08:39Z</time>
      </trkpt>
      <trkpt lat="43.38685" lon="2.62847">
        <ele>389</ele>
        <time>2020-09-07T19:08:52Z</time>
      </trkpt>
      <trkpt lat="43.38666" lon="2.62845">
        <ele>389</ele>
        <time>2020-09-07T19:08:56Z</time>
      </trkpt>
      <trkpt lat="43.38651" lon="2.6284">
        <ele>389</ele>
        <time>2020-09-07T19:08:59Z</time>
      </trkpt>
      <trkpt lat="43.38574" lon="2.62802">
        <ele>389</ele>
        <time>2020-09-07T19:09:13Z</time>
      </trkpt>
      <trkpt lat="43.38563" lon="2.62793">
        <ele>390</ele>
        <time>2020-09-07T19:09:15Z</time>
      </trkpt>
      <trkpt lat="43.38551" lon="2.62775">
        <ele>392</ele>
        <time>2020-09-07T19:09:19Z</time>
      </trkpt>
      <trkpt lat="43.38541" lon="2.62745">
        <ele>395</ele>
        <time>2020-09-07T19:09:23Z</time>
      </trkpt>
      <trkpt lat="43.38538" lon="2.6272">
        <ele>397</ele>
        <time>2020-09-07T19:09:26Z</time>
      </trkpt>
      <trkpt lat="43.38539" lon="2.62708">
        <ele>399</ele>
        <time>2020-09-07T19:09:28Z</time>
      </trkpt>
      <trkpt lat="43.38545" lon="2.62681">
        <ele>403</ele>
        <time>2020-09-07T19:09:31Z</time>
      </trkpt>
      <trkpt lat="43.38545" lon="2.62674">
        <ele>404</ele>
        <time>2020-09-07T19:09:32Z</time>
      </trkpt>
      <trkpt lat="43.38544" lon="2.62667">
        <ele>404</ele>
        <time>2020-09-07T19:09:33Z</time>
      </trkpt>
      <trkpt lat="43.38537" lon="2.62655">
        <ele>406</ele>
        <time>2020-09-07T19:09:35Z</time>
      </trkpt>
      <trkpt lat="43.38526" lon="2.62653">
        <ele>405</ele>
        <time>2020-09-07T19:09:37Z</time>
      </trkpt>
      <trkpt lat="43.38487" lon="2.6266">
        <ele>400</ele>
        <time>2020-09-07T19:09:44Z</time>
      </trkpt>
      <trkpt lat="43.38455" lon="2.62662">
        <ele>400</ele>
        <time>2020-09-07T19:09:50Z</time>
      </trkpt>
      <trkpt lat="43.38403" lon="2.62651">
        <ele>400</ele>
        <time>2020-09-07T19:09:59Z</time>
      </trkpt>
      <trkpt lat="43.38376" lon="2.62639">
        <ele>400</ele>
        <time>2020-09-07T19:10:04Z</time>
      </trkpt>
      <trkpt lat="43.38359" lon="2.62628">
        <ele>400</ele>
        <time>2020-09-07T19:10:08Z</time>
      </trkpt>
      <trkpt lat="43.38342" lon="2.62606">
        <ele>401</ele>
        <time>2020-09-07T19:10:12Z</time>
      </trkpt>
      <trkpt lat="43.3833" lon="2.6258">
        <ele>402</ele>
        <time>2020-09-07T19:10:16Z</time>
      </trkpt>
      <trkpt lat="43.38322" lon="2.6255">
        <ele>403</ele>
        <time>2020-09-07T19:10:20Z</time>
      </trkpt>
      <trkpt lat="43.3832" lon="2.62525">
        <ele>404</ele>
        <time>2020-09-07T19:10:23Z</time>
      </trkpt>
      <trkpt lat="43.3832" lon="2.62507">
        <ele>405</ele>
        <time>2020-09-07T19:10:25Z</time>
      </trkpt>
      <trkpt lat="43.38327" lon="2.62439">
        <ele>407</ele>
        <time>2020-09-07T19:10:34Z</time>
      </trkpt>
      <trkpt lat="43.3834" lon="2.62404">
        <ele>410</ele>
        <time>2020-09-07T19:10:39Z</time>
      </trkpt>
      <trkpt lat="43.38377" lon="2.62262">
        <ele>412</ele>
        <time>2020-09-07T19:10:59Z</time>
      </trkpt>
      <trkpt lat="43.38402" lon="2.62194">
        <ele>412</ele>
        <time>2020-09-07T19:11:09Z</time>
      </trkpt>
      <trkpt lat="43.38431" lon="2.62135">
        <ele>414</ele>
        <time>2020-09-07T19:11:18Z</time>
      </trkpt>
      <trkpt lat="43.3845" lon="2.62101">
        <ele>413</ele>
        <time>2020-09-07T19:11:24Z</time>
      </trkpt>
      <trkpt lat="43.38488" lon="2.62063">
        <ele>416</ele>
        <time>2020-09-07T19:11:32Z</time>
      </trkpt>
      <trkpt lat="43.38506" lon="2.62052">
        <ele>419</ele>
        <time>2020-09-07T19:11:35Z</time>
      </trkpt>
      <trkpt lat="43.38532" lon="2.62044">
        <ele>424</ele>
        <time>2020-09-07T19:11:40Z</time>
      </trkpt>
      <trkpt lat="43.38542" lon="2.62036">
        <ele>425</ele>
        <time>2020-09-07T19:11:42Z</time>
      </trkpt>
      <trkpt lat="43.38553" lon="2.62018">
        <ele>424</ele>
        <time>2020-09-07T19:11:45Z</time>
      </trkpt>
      <trkpt lat="43.38558" lon="2.62006">
        <ele>423</ele>
        <time>2020-09-07T19:11:47Z</time>
      </trkpt>
      <trkpt lat="43.38558" lon="2.61991">
        <ele>422</ele>
        <time>2020-09-07T19:11:49Z</time>
      </trkpt>
      <trkpt lat="43.3855" lon="2.61991">
        <ele>420</ele>
        <time>2020-09-07T19:11:50Z</time>
      </trkpt>
      <trkpt lat="43.38534" lon="2.61985">
        <ele>418</ele>
        <time>2020-09-07T19:11:53Z</time>
      </trkpt>
      <trkpt lat="43.3852" lon="2.61971">
        <ele>415</ele>
        <time>2020-09-07T19:11:56Z</time>
      </trkpt>
      <trkpt lat="43.38499" lon="2.61961">
        <ele>411</ele>
        <time>2020-09-07T19:12:00Z</time>
      </trkpt>
      <trkpt lat="43.38486" lon="2.61958">
        <ele>409</ele>
        <time>2020-09-07T19:12:03Z</time>
      </trkpt>
      <trkpt lat="43.38399" lon="2.61981">
        <ele>398</ele>
        <time>2020-09-07T19:12:18Z</time>
      </trkpt>
      <trkpt lat="43.38383" lon="2.61994">
        <ele>397</ele>
        <time>2020-09-07T19:12:22Z</time>
      </trkpt>
      <trkpt lat="43.38376" lon="2.61997">
        <ele>396</ele>
        <time>2020-09-07T19:12:23Z</time>
      </trkpt>
      <trkpt lat="43.3837" lon="2.61991">
        <ele>395</ele>
        <time>2020-09-07T19:12:24Z</time>
      </trkpt>
      <trkpt lat="43.38363" lon="2.61972">
        <ele>395</ele>
        <time>2020-09-07T19:12:27Z</time>
      </trkpt>
      <trkpt lat="43.38362" lon="2.61954">
        <ele>395</ele>
        <time>2020-09-07T19:12:29Z</time>
      </trkpt>
      <trkpt lat="43.38364" lon="2.61943">
        <ele>395</ele>
        <time>2020-09-07T19:12:31Z</time>
      </trkpt>
      <trkpt lat="43.38368" lon="2.61935">
        <ele>396</ele>
        <time>2020-09-07T19:12:32Z</time>
      </trkpt>
      <trkpt lat="43.38389" lon="2.61915">
        <ele>397</ele>
        <time>2020-09-07T19:12:37Z</time>
      </trkpt>
      <trkpt lat="43.3839" lon="2.61909">
        <ele>398</ele>
        <time>2020-09-07T19:12:38Z</time>
      </trkpt>
      <trkpt lat="43.38388" lon="2.61893">
        <ele>399</ele>
        <time>2020-09-07T19:12:40Z</time>
      </trkpt>
      <trkpt lat="43.38378" lon="2.61874">
        <ele>401</ele>
        <time>2020-09-07T19:12:43Z</time>
      </trkpt>
      <trkpt lat="43.38371" lon="2.61867">
        <ele>402</ele>
        <time>2020-09-07T19:12:44Z</time>
      </trkpt>
      <trkpt lat="43.38342" lon="2.61864">
        <ele>403</ele>
        <time>2020-09-07T19:12:49Z</time>
      </trkpt>
      <trkpt lat="43.383" lon="2.61847">
        <ele>407</ele>
        <time>2020-09-07T19:12:57Z</time>
      </trkpt>
      <trkpt lat="43.38284" lon="2.61846">
        <ele>408</ele>
        <time>2020-09-07T19:13:00Z</time>
      </trkpt>
      <trkpt lat="43.38199" lon="2.61864">
        <ele>415</ele>
        <time>2020-09-07T19:13:15Z</time>
      </trkpt>
      <trkpt lat="43.38179" lon="2.61877">
        <ele>416</ele>
        <time>2020-09-07T19:13:19Z</time>
      </trkpt>
      <trkpt lat="43.38167" lon="2.61892">
        <ele>416</ele>
        <time>2020-09-07T19:13:22Z</time>
      </trkpt>
      <trkpt lat="43.38162" lon="2.61891">
        <ele>417</ele>
        <time>2020-09-07T19:13:23Z</time>
      </trkpt>
      <trkpt lat="43.3816" lon="2.61885">
        <ele>418</ele>
        <time>2020-09-07T19:13:24Z</time>
      </trkpt>
      <trkpt lat="43.3816" lon="2.61877">
        <ele>420</ele>
        <time>2020-09-07T19:13:25Z</time>
      </trkpt>
      <trkpt lat="43.38183" lon="2.61842">
        <ele>423</ele>
        <time>2020-09-07T19:13:31Z</time>
      </trkpt>
      <trkpt lat="43.38183" lon="2.61836">
        <ele>424</ele>
        <time>2020-09-07T19:13:32Z</time>
      </trkpt>
      <trkpt lat="43.3818" lon="2.61832">
        <ele>425</ele>
        <time>2020-09-07T19:13:33Z</time>
      </trkpt>
      <trkpt lat="43.38174" lon="2.61832">
        <ele>426</ele>
        <time>2020-09-07T19:13:34Z</time>
      </trkpt>
      <trkpt lat="43.38165" lon="2.61839">
        <ele>426</ele>
        <time>2020-09-07T19:13:35Z</time>
      </trkpt>
      <trkpt lat="43.38159" lon="2.61848">
        <ele>426</ele>
        <time>2020-09-07T19:13:37Z</time>
      </trkpt>
      <trkpt lat="43.38147" lon="2.61872">
        <ele>423</ele>
        <time>2020-09-07T19:13:41Z</time>
      </trkpt>
      <trkpt lat="43.3814" lon="2.61879">
        <ele>423</ele>
        <time>2020-09-07T19:13:42Z</time>
      </trkpt>
      <trkpt lat="43.38131" lon="2.61884">
        <ele>424</ele>
        <time>2020-09-07T19:13:44Z</time>
      </trkpt>
      <trkpt lat="43.38083" lon="2.61892">
        <ele>432</ele>
        <time>2020-09-07T19:13:53Z</time>
      </trkpt>
      <trkpt lat="43.38069" lon="2.61898">
        <ele>432</ele>
        <time>2020-09-07T19:13:55Z</time>
      </trkpt>
      <trkpt lat="43.38056" lon="2.61913">
        <ele>431</ele>
        <time>2020-09-07T19:13:58Z</time>
      </trkpt>
      <trkpt lat="43.38042" lon="2.61922">
        <ele>432</ele>
        <time>2020-09-07T19:14:01Z</time>
      </trkpt>
      <trkpt lat="43.38025" lon="2.61922">
        <ele>434</ele>
        <time>2020-09-07T19:14:04Z</time>
      </trkpt>
      <trkpt lat="43.38029" lon="2.61912">
        <ele>435</ele>
        <time>2020-09-07T19:14:06Z</time>
      </trkpt>
      <trkpt lat="43.38045" lon="2.61896">
        <ele>435</ele>
        <time>2020-09-07T19:14:09Z</time>
      </trkpt>
      <trkpt lat="43.38055" lon="2.61871">
        <ele>438</ele>
        <time>2020-09-07T19:14:13Z</time>
      </trkpt>
      <trkpt lat="43.38076" lon="2.61836">
        <ele>443</ele>
        <time>2020-09-07T19:14:19Z</time>
      </trkpt>
      <trkpt lat="43.38084" lon="2.61808">
        <ele>447</ele>
        <time>2020-09-07T19:14:23Z</time>
      </trkpt>
      <trkpt lat="43.38086" lon="2.61782">
        <ele>450</ele>
        <time>2020-09-07T19:14:26Z</time>
      </trkpt>
      <trkpt lat="43.38093" lon="2.61762">
        <ele>452</ele>
        <time>2020-09-07T19:14:29Z</time>
      </trkpt>
      <trkpt lat="43.38194" lon="2.61621">
        <ele>472</ele>
        <time>2020-09-07T19:14:54Z</time>
      </trkpt>
      <trkpt lat="43.38225" lon="2.61619">
        <ele>469</ele>
        <time>2020-09-07T19:15:00Z</time>
      </trkpt>
      <trkpt lat="43.38253" lon="2.616">
        <ele>471</ele>
        <time>2020-09-07T19:15:05Z</time>
      </trkpt>
      <trkpt lat="43.38354" lon="2.61506">
        <ele>492</ele>
        <time>2020-09-07T19:15:27Z</time>
      </trkpt>
      <trkpt lat="43.3837" lon="2.61503">
        <ele>494</ele>
        <time>2020-09-07T19:15:30Z</time>
      </trkpt>
      <trkpt lat="43.38405" lon="2.61524">
        <ele>491</ele>
        <time>2020-09-07T19:15:37Z</time>
      </trkpt>
      <trkpt lat="43.38428" lon="2.61549">
        <ele>486</ele>
        <time>2020-09-07T19:15:42Z</time>
      </trkpt>
      <trkpt lat="43.38453" lon="2.61554">
        <ele>489</ele>
        <time>2020-09-07T19:15:47Z</time>
      </trkpt>
      <trkpt lat="43.38494" lon="2.61551">
        <ele>496</ele>
        <time>2020-09-07T19:15:54Z</time>
      </trkpt>
      <trkpt lat="43.38513" lon="2.61538">
        <ele>500</ele>
        <time>2020-09-07T19:15:58Z</time>
      </trkpt>
      <trkpt lat="43.38597" lon="2.61446">
        <ele>514</ele>
        <time>2020-09-07T19:16:17Z</time>
      </trkpt>
      <trkpt lat="43.38602" lon="2.61429">
        <ele>516</ele>
        <time>2020-09-07T19:16:19Z</time>
      </trkpt>
      <trkpt lat="43.38588" lon="2.61425">
        <ele>523</ele>
        <time>2020-09-07T19:16:22Z</time>
      </trkpt>
      <trkpt lat="43.38558" lon="2.61437">
        <ele>525</ele>
        <time>2020-09-07T19:16:27Z</time>
      </trkpt>
      <trkpt lat="43.38511" lon="2.6144">
        <ele>528</ele>
        <time>2020-09-07T19:16:36Z</time>
      </trkpt>
      <trkpt lat="43.38486" lon="2.61434">
        <ele>529</ele>
        <time>2020-09-07T19:16:40Z</time>
      </trkpt>
      <trkpt lat="43.38464" lon="2.61414">
        <ele>533</ele>
        <time>2020-09-07T19:16:45Z</time>
      </trkpt>
      <trkpt lat="43.38446" lon="2.61358">
        <ele>546</ele>
        <time>2020-09-07T19:16:53Z</time>
      </trkpt>
      <trkpt lat="43.38411" lon="2.61314">
        <ele>555</ele>
        <time>2020-09-07T19:17:01Z</time>
      </trkpt>
      <trkpt lat="43.38386" lon="2.61297">
        <ele>560</ele>
        <time>2020-09-07T19:17:06Z</time>
      </trkpt>
      <trkpt lat="43.38365" lon="2.61274">
        <ele>566</ele>
        <time>2020-09-07T19:17:11Z</time>
      </trkpt>
      <trkpt lat="43.38316" lon="2.61235">
        <ele>577</ele>
        <time>2020-09-07T19:17:21Z</time>
      </trkpt>
      <trkpt lat="43.3827" lon="2.61217">
        <ele>584</ele>
        <time>2020-09-07T19:17:29Z</time>
      </trkpt>
      <trkpt lat="43.38205" lon="2.61182">
        <ele>587</ele>
        <time>2020-09-07T19:17:42Z</time>
      </trkpt>
      <trkpt lat="43.38191" lon="2.61166">
        <ele>588</ele>
        <time>2020-09-07T19:17:45Z</time>
      </trkpt>
      <trkpt lat="43.38208" lon="2.61113">
        <ele>597</ele>
        <time>2020-09-07T19:17:53Z</time>
      </trkpt>
      <trkpt lat="43.38206" lon="2.61067">
        <ele>602</ele>
        <time>2020-09-07T19:17:59Z</time>
      </trkpt>
      <trkpt lat="43.38214" lon="2.60998">
        <ele>613</ele>
        <time>2020-09-07T19:18:08Z</time>
      </trkpt>
      <trkpt lat="43.38229" lon="2.60977">
        <ele>620</ele>
        <time>2020-09-07T19:18:11Z</time>
      </trkpt>
      <trkpt lat="43.38226" lon="2.60966">
        <ele>621</ele>
        <time>2020-09-07T19:18:13Z</time>
      </trkpt>
      <trkpt lat="43.38227" lon="2.60943">
        <ele>625</ele>
        <time>2020-09-07T19:18:16Z</time>
      </trkpt>
      <trkpt lat="43.38241" lon="2.60876">
        <ele>637</ele>
        <time>2020-09-07T19:18:25Z</time>
      </trkpt>
      <trkpt lat="43.3824" lon="2.6085">
        <ele>639</ele>
        <time>2020-09-07T19:18:28Z</time>
      </trkpt>
      <trkpt lat="43.38244" lon="2.60825">
        <ele>642</ele>
        <time>2020-09-07T19:18:32Z</time>
      </trkpt>
      <trkpt lat="43.38272" lon="2.60786">
        <ele>645</ele>
        <time>2020-09-07T19:18:39Z</time>
      </trkpt>
      <trkpt lat="43.38279" lon="2.60755">
        <ele>646</ele>
        <time>2020-09-07T19:18:43Z</time>
      </trkpt>
      <trkpt lat="43.38274" lon="2.60719">
        <ele>640</ele>
        <time>2020-09-07T19:18:48Z</time>
      </trkpt>
      <trkpt lat="43.38269" lon="2.60693">
        <ele>635</ele>
        <time>2020-09-07T19:18:51Z</time>
      </trkpt>
      <trkpt lat="43.38256" lon="2.60653">
        <ele>625</ele>
        <time>2020-09-07T19:18:57Z</time>
      </trkpt>
      <trkpt lat="43.38254" lon="2.60615">
        <ele>615</ele>
        <time>2020-09-07T19:19:02Z</time>
      </trkpt>
      <trkpt lat="43.38254" lon="2.60574">
        <ele>604</ele>
        <time>2020-09-07T19:19:07Z</time>
      </trkpt>
      <trkpt lat="43.38249" lon="2.60535">
        <ele>595</ele>
        <time>2020-09-07T19:19:12Z</time>
      </trkpt>
      <trkpt lat="43.38251" lon="2.60489">
        <ele>585</ele>
        <time>2020-09-07T19:19:18Z</time>
      </trkpt>
      <trkpt lat="43.38249" lon="2.60475">
        <ele>583</ele>
        <time>2020-09-07T19:19:20Z</time>
      </trkpt>
      <trkpt lat="43.38251" lon="2.60444">
        <ele>578</ele>
        <time>2020-09-07T19:19:24Z</time>
      </trkpt>
      <trkpt lat="43.38258" lon="2.60423">
        <ele>575</ele>
        <time>2020-09-07T19:19:27Z</time>
      </trkpt>
      <trkpt lat="43.38267" lon="2.6041">
        <ele>574</ele>
        <time>2020-09-07T19:19:29Z</time>
      </trkpt>
      <trkpt lat="43.38278" lon="2.60407">
        <ele>575</ele>
        <time>2020-09-07T19:19:31Z</time>
      </trkpt>
      <trkpt lat="43.38297" lon="2.60408">
        <ele>578</ele>
        <time>2020-09-07T19:19:35Z</time>
      </trkpt>
      <trkpt lat="43.38322" lon="2.60406">
        <ele>581</ele>
        <time>2020-09-07T19:19:39Z</time>
      </trkpt>
      <trkpt lat="43.38346" lon="2.60401">
        <ele>586</ele>
        <time>2020-09-07T19:19:43Z</time>
      </trkpt>
      <trkpt lat="43.38356" lon="2.60394">
        <ele>588</ele>
        <time>2020-09-07T19:19:45Z</time>
      </trkpt>
      <trkpt lat="43.38361" lon="2.60386">
        <ele>589</ele>
        <time>2020-09-07T19:19:47Z</time>
      </trkpt>
      <trkpt lat="43.38363" lon="2.60374">
        <ele>589</ele>
        <time>2020-09-07T19:19:48Z</time>
      </trkpt>
      <trkpt lat="43.3836" lon="2.60317">
        <ele>588</ele>
        <time>2020-09-07T19:19:56Z</time>
      </trkpt>
      <trkpt lat="43.38362" lon="2.603">
        <ele>588</ele>
        <time>2020-09-07T19:19:58Z</time>
      </trkpt>
      <trkpt lat="43.38367" lon="2.60289">
        <ele>589</ele>
        <time>2020-09-07T19:20:00Z</time>
      </trkpt>
      <trkpt lat="43.38412" lon="2.60248">
        <ele>597</ele>
        <time>2020-09-07T19:20:09Z</time>
      </trkpt>
      <trkpt lat="43.38442" lon="2.60212">
        <ele>600</ele>
        <time>2020-09-07T19:20:16Z</time>
      </trkpt>
      <trkpt lat="43.38444" lon="2.60224">
        <ele>601</ele>
        <time>2020-09-07T19:20:18Z</time>
      </trkpt>
      <trkpt lat="43.38432" lon="2.60358">
        <ele>608</ele>
        <time>2020-09-07T19:20:35Z</time>
      </trkpt>
      <trkpt lat="43.38434" lon="2.60366">
        <ele>609</ele>
        <time>2020-09-07T19:20:36Z</time>
      </trkpt>
      <trkpt lat="43.38438" lon="2.60367">
        <ele>610</ele>
        <time>2020-09-07T19:20:37Z</time>
      </trkpt>
      <trkpt lat="43.38442" lon="2.60359">
        <ele>611</ele>
        <time>2020-09-07T19:20:38Z</time>
      </trkpt>
      <trkpt lat="43.38449" lon="2.60341">
        <ele>612</ele>
        <time>2020-09-07T19:20:41Z</time>
      </trkpt>
      <trkpt lat="43.38519" lon="2.60256">
        <ele>620</ele>
        <time>2020-09-07T19:20:58Z</time>
      </trkpt>
      <trkpt lat="43.3854" lon="2.60246">
        <ele>624</ele>
        <time>2020-09-07T19:21:02Z</time>
      </trkpt>
      <trkpt lat="43.38571" lon="2.60237">
        <ele>630</ele>
        <time>2020-09-07T19:21:07Z</time>
      </trkpt>
      <trkpt lat="43.38589" lon="2.60225">
        <ele>632</ele>
        <time>2020-09-07T19:21:11Z</time>
      </trkpt>
      <trkpt lat="43.38632" lon="2.60145">
        <ele>632</ele>
        <time>2020-09-07T19:21:24Z</time>
      </trkpt>
      <trkpt lat="43.38666" lon="2.601">
        <ele>634</ele>
        <time>2020-09-07T19:21:32Z</time>
      </trkpt>
      <trkpt lat="43.38688" lon="2.60079">
        <ele>634</ele>
        <time>2020-09-07T19:21:37Z</time>
      </trkpt>
      <trkpt lat="43.38713" lon="2.60064">
        <ele>636</ele>
        <time>2020-09-07T19:21:42Z</time>
      </trkpt>
      <trkpt lat="43.38711" lon="2.60042">
        <ele>637</ele>
        <time>2020-09-07T19:21:45Z</time>
      </trkpt>
      <trkpt lat="43.38722" lon="2.59958">
        <ele>642</ele>
        <time>2020-09-07T19:21:56Z</time>
      </trkpt>
      <trkpt lat="43.38721" lon="2.59942">
        <ele>643</ele>
        <time>2020-09-07T19:21:58Z</time>
      </trkpt>
      <trkpt lat="43.38717" lon="2.5993">
        <ele>644</ele>
        <time>2020-09-07T19:21:59Z</time>
      </trkpt>
      <trkpt lat="43.38685" lon="2.59876">
        <ele>650</ele>
        <time>2020-09-07T19:22:08Z</time>
      </trkpt>
      <trkpt lat="43.38683" lon="2.59869">
        <ele>650</ele>
        <time>2020-09-07T19:22:09Z</time>
      </trkpt>
      <trkpt lat="43.38684" lon="2.59858">
        <ele>651</ele>
        <time>2020-09-07T19:22:11Z</time>
      </trkpt>
      <trkpt lat="43.38691" lon="2.59853">
        <ele>652</ele>
        <time>2020-09-07T19:22:12Z</time>
      </trkpt>
      <trkpt lat="43.3872" lon="2.59864">
        <ele>652</ele>
        <time>2020-09-07T19:22:18Z</time>
      </trkpt>
      <trkpt lat="43.38732" lon="2.59863">
        <ele>653</ele>
        <time>2020-09-07T19:22:20Z</time>
      </trkpt>
      <trkpt lat="43.3875" lon="2.59852">
        <ele>655</ele>
        <time>2020-09-07T19:22:23Z</time>
      </trkpt>
      <trkpt lat="43.38763" lon="2.59827">
        <ele>657</ele>
        <time>2020-09-07T19:22:27Z</time>
      </trkpt>
      <trkpt lat="43.38773" lon="2.59818">
        <ele>657</ele>
        <time>2020-09-07T19:22:29Z</time>
      </trkpt>
      <trkpt lat="43.38779" lon="2.5981">
        <ele>658</ele>
        <time>2020-09-07T19:22:31Z</time>
      </trkpt>
      <trkpt lat="43.38785" lon="2.59796">
        <ele>659</ele>
        <time>2020-09-07T19:22:33Z</time>
      </trkpt>
      <trkpt lat="43.38797" lon="2.59753">
        <ele>665</ele>
        <time>2020-09-07T19:22:39Z</time>
      </trkpt>
      <trkpt lat="43.388" lon="2.59745">
        <ele>665</ele>
        <time>2020-09-07T19:22:40Z</time>
      </trkpt>
      <trkpt lat="43.38817" lon="2.59719">
        <ele>665</ele>
        <time>2020-09-07T19:22:45Z</time>
      </trkpt>
      <trkpt lat="43.3882" lon="2.59705">
        <ele>666</ele>
        <time>2020-09-07T19:22:46Z</time>
      </trkpt>
      <trkpt lat="43.38818" lon="2.59649">
        <ele>672</ele>
        <time>2020-09-07T19:22:54Z</time>
      </trkpt>
      <trkpt lat="43.38822" lon="2.59616">
        <ele>675</ele>
        <time>2020-09-07T19:22:58Z</time>
      </trkpt>
      <trkpt lat="43.3882" lon="2.59571">
        <ele>681</ele>
        <time>2020-09-07T19:23:04Z</time>
      </trkpt>
      <trkpt lat="43.38823" lon="2.59543">
        <ele>683</ele>
        <time>2020-09-07T19:23:08Z</time>
      </trkpt>
      <trkpt lat="43.38839" lon="2.59508">
        <ele>685</ele>
        <time>2020-09-07T19:23:13Z</time>
      </trkpt>
      <trkpt lat="43.38831" lon="2.59494">
        <ele>687</ele>
        <time>2020-09-07T19:23:15Z</time>
      </trkpt>
      <trkpt lat="43.38802" lon="2.59496">
        <ele>690</ele>
        <time>2020-09-07T19:23:20Z</time>
      </trkpt>
      <trkpt lat="43.38791" lon="2.59485">
        <ele>692</ele>
        <time>2020-09-07T19:23:23Z</time>
      </trkpt>
      <trkpt lat="43.38793" lon="2.59466">
        <ele>694</ele>
        <time>2020-09-07T19:23:25Z</time>
      </trkpt>
      <trkpt lat="43.38819" lon="2.5943">
        <ele>695</ele>
        <time>2020-09-07T19:23:32Z</time>
      </trkpt>
      <trkpt lat="43.38846" lon="2.59387">
        <ele>698</ele>
        <time>2020-09-07T19:23:39Z</time>
      </trkpt>
      <trkpt lat="43.38856" lon="2.59361">
        <ele>699</ele>
        <time>2020-09-07T19:23:43Z</time>
      </trkpt>
      <trkpt lat="43.38858" lon="2.59341">
        <ele>700</ele>
        <time>2020-09-07T19:23:46Z</time>
      </trkpt>
      <trkpt lat="43.38852" lon="2.59307">
        <ele>702</ele>
        <time>2020-09-07T19:23:50Z</time>
      </trkpt>
      <trkpt lat="43.38827" lon="2.59236">
        <ele>707</ele>
        <time>2020-09-07T19:24:00Z</time>
      </trkpt>
      <trkpt lat="43.38803" lon="2.59158">
        <ele>714</ele>
        <time>2020-09-07T19:24:11Z</time>
      </trkpt>
      <trkpt lat="43.38786" lon="2.59098">
        <ele>721</ele>
        <time>2020-09-07T19:24:20Z</time>
      </trkpt>
      <trkpt lat="43.38792" lon="2.58938">
        <ele>729</ele>
        <time>2020-09-07T19:24:40Z</time>
      </trkpt>
      <trkpt lat="43.38791" lon="2.58899">
        <ele>730</ele>
        <time>2020-09-07T19:24:45Z</time>
      </trkpt>
      <trkpt lat="43.38782" lon="2.58814">
        <ele>731</ele>
        <time>2020-09-07T19:24:56Z</time>
      </trkpt>
      <trkpt lat="43.38724" lon="2.58828">
        <ele>729</ele>
        <time>2020-09-07T19:25:07Z</time>
      </trkpt>
      <trkpt lat="43.38715" lon="2.58832">
        <ele>729</ele>
        <time>2020-09-07T19:25:09Z</time>
      </trkpt>
      <trkpt lat="43.38704" lon="2.58841">
        <ele>729</ele>
        <time>2020-09-07T19:25:11Z</time>
      </trkpt>
      <trkpt lat="43.38673" lon="2.58888">
        <ele>731</ele>
        <time>2020-09-07T19:25:19Z</time>
      </trkpt>
      <trkpt lat="43.38642" lon="2.58919">
        <ele>732</ele>
        <time>2020-09-07T19:25:26Z</time>
      </trkpt>
      <trkpt lat="43.38634" lon="2.58924">
        <ele>733</ele>
        <time>2020-09-07T19:25:27Z</time>
      </trkpt>
      <trkpt lat="43.38619" lon="2.58927">
        <ele>733</ele>
        <time>2020-09-07T19:25:30Z</time>
      </trkpt>
      <trkpt lat="43.38609" lon="2.58925">
        <ele>733</ele>
        <time>2020-09-07T19:25:32Z</time>
      </trkpt>
      <trkpt lat="43.38597" lon="2.58918">
        <ele>733</ele>
        <time>2020-09-07T19:25:34Z</time>
      </trkpt>
      <trkpt lat="43.38546" lon="2.58855">
        <ele>733</ele>
        <time>2020-09-07T19:25:46Z</time>
      </trkpt>
      <trkpt lat="43.38533" lon="2.58843">
        <ele>733</ele>
        <time>2020-09-07T19:25:49Z</time>
      </trkpt>
      <trkpt lat="43.38487" lon="2.58813">
        <ele>732</ele>
        <time>2020-09-07T19:25:58Z</time>
      </trkpt>
      <trkpt lat="43.38458" lon="2.58788">
        <ele>733</ele>
        <time>2020-09-07T19:26:04Z</time>
      </trkpt>
      <trkpt lat="43.38444" lon="2.58771">
        <ele>734</ele>
        <time>2020-09-07T19:26:08Z</time>
      </trkpt>
      <trkpt lat="43.38378" lon="2.58672">
        <ele>736</ele>
        <time>2020-09-07T19:26:25Z</time>
      </trkpt>
      <trkpt lat="43.38335" lon="2.5862">
        <ele>735</ele>
        <time>2020-09-07T19:26:35Z</time>
      </trkpt>
      <trkpt lat="43.38318" lon="2.58609">
        <ele>734</ele>
        <time>2020-09-07T19:26:39Z</time>
      </trkpt>
      <trkpt lat="43.38247" lon="2.58581">
        <ele>731</ele>
        <time>2020-09-07T19:26:52Z</time>
      </trkpt>
      <trkpt lat="43.3818" lon="2.5854">
        <ele>720</ele>
        <time>2020-09-07T19:27:05Z</time>
      </trkpt>
      <trkpt lat="43.38139" lon="2.58502">
        <ele>712</ele>
        <time>2020-09-07T19:27:14Z</time>
      </trkpt>
      <trkpt lat="43.3812" lon="2.58489">
        <ele>708</ele>
        <time>2020-09-07T19:27:17Z</time>
      </trkpt>
      <trkpt lat="43.38118" lon="2.58483">
        <ele>708</ele>
        <time>2020-09-07T19:27:18Z</time>
      </trkpt>
      <trkpt lat="43.38121" lon="2.58477">
        <ele>708</ele>
        <time>2020-09-07T19:27:19Z</time>
      </trkpt>
      <trkpt lat="43.38128" lon="2.58477">
        <ele>709</ele>
        <time>2020-09-07T19:27:20Z</time>
      </trkpt>
      <trkpt lat="43.38139" lon="2.58485">
        <ele>711</ele>
        <time>2020-09-07T19:27:23Z</time>
      </trkpt>
      <trkpt lat="43.38148" lon="2.58489">
        <ele>712</ele>
        <time>2020-09-07T19:27:24Z</time>
      </trkpt>
      <trkpt lat="43.38162" lon="2.58486">
        <ele>714</ele>
        <time>2020-09-07T19:27:27Z</time>
      </trkpt>
      <trkpt lat="43.38167" lon="2.58481">
        <ele>715</ele>
        <time>2020-09-07T19:27:28Z</time>
      </trkpt>
      <trkpt lat="43.38171" lon="2.58472">
        <ele>715</ele>
        <time>2020-09-07T19:27:29Z</time>
      </trkpt>
      <trkpt lat="43.38173" lon="2.58462">
        <ele>715</ele>
        <time>2020-09-07T19:27:31Z</time>
      </trkpt>
      <trkpt lat="43.38171" lon="2.58452">
        <ele>714</ele>
        <time>2020-09-07T19:27:32Z</time>
      </trkpt>
      <trkpt lat="43.38167" lon="2.58439">
        <ele>712</ele>
        <time>2020-09-07T19:27:34Z</time>
      </trkpt>
      <trkpt lat="43.38142" lon="2.58405">
        <ele>707</ele>
        <time>2020-09-07T19:27:40Z</time>
      </trkpt>
      <trkpt lat="43.38105" lon="2.58321">
        <ele>697</ele>
        <time>2020-09-07T19:27:53Z</time>
      </trkpt>
      <trkpt lat="43.38096" lon="2.58293">
        <ele>694</ele>
        <time>2020-09-07T19:27:57Z</time>
      </trkpt>
      <trkpt lat="43.38097" lon="2.58268">
        <ele>694</ele>
        <time>2020-09-07T19:28:00Z</time>
      </trkpt>
      <trkpt lat="43.38093" lon="2.5825">
        <ele>693</ele>
        <time>2020-09-07T19:28:02Z</time>
      </trkpt>
      <trkpt lat="43.38079" lon="2.58219">
        <ele>691</ele>
        <time>2020-09-07T19:28:07Z</time>
      </trkpt>
      <trkpt lat="43.38069" lon="2.58207">
        <ele>690</ele>
        <time>2020-09-07T19:28:09Z</time>
      </trkpt>
      <trkpt lat="43.38063" lon="2.58214">
        <ele>688</ele>
        <time>2020-09-07T19:28:11Z</time>
      </trkpt>
      <trkpt lat="43.38057" lon="2.58266">
        <ele>685</ele>
        <time>2020-09-07T19:28:18Z</time>
      </trkpt>
      <trkpt lat="43.38059" lon="2.5829">
        <ele>686</ele>
        <time>2020-09-07T19:28:21Z</time>
      </trkpt>
      <trkpt lat="43.38053" lon="2.58297">
        <ele>685</ele>
        <time>2020-09-07T19:28:22Z</time>
      </trkpt>
      <trkpt lat="43.38046" lon="2.58289">
        <ele>684</ele>
        <time>2020-09-07T19:28:24Z</time>
      </trkpt>
      <trkpt lat="43.38025" lon="2.5823">
        <ele>678</ele>
        <time>2020-09-07T19:28:32Z</time>
      </trkpt>
      <trkpt lat="43.37986" lon="2.58162">
        <ele>672</ele>
        <time>2020-09-07T19:28:44Z</time>
      </trkpt>
      <trkpt lat="43.37971" lon="2.5813">
        <ele>672</ele>
        <time>2020-09-07T19:28:48Z</time>
      </trkpt>
      <trkpt lat="43.37961" lon="2.58124">
        <ele>671</ele>
        <time>2020-09-07T19:28:50Z</time>
      </trkpt>
      <trkpt lat="43.37931" lon="2.58116">
        <ele>667</ele>
        <time>2020-09-07T19:28:56Z</time>
      </trkpt>
      <trkpt lat="43.379" lon="2.58118">
        <ele>663</ele>
        <time>2020-09-07T19:29:01Z</time>
      </trkpt>
      <trkpt lat="43.37876" lon="2.58125">
        <ele>659</ele>
        <time>2020-09-07T19:29:06Z</time>
      </trkpt>
      <trkpt lat="43.37869" lon="2.58131">
        <ele>657</ele>
        <time>2020-09-07T19:29:07Z</time>
      </trkpt>
      <trkpt lat="43.37856" lon="2.58155">
        <ele>651</ele>
        <time>2020-09-07T19:29:11Z</time>
      </trkpt>
      <trkpt lat="43.37849" lon="2.5816">
        <ele>649</ele>
        <time>2020-09-07T19:29:12Z</time>
      </trkpt>
      <trkpt lat="43.37839" lon="2.58161">
        <ele>647</ele>
        <time>2020-09-07T19:29:14Z</time>
      </trkpt>
      <trkpt lat="43.37823" lon="2.58157">
        <ele>646</ele>
        <time>2020-09-07T19:29:17Z</time>
      </trkpt>
      <trkpt lat="43.378" lon="2.58146">
        <ele>645</ele>
        <time>2020-09-07T19:29:21Z</time>
      </trkpt>
      <trkpt lat="43.37765" lon="2.58123">
        <ele>644</ele>
        <time>2020-09-07T19:29:28Z</time>
      </trkpt>
      <trkpt lat="43.37721" lon="2.58075">
        <ele>646</ele>
        <time>2020-09-07T19:29:38Z</time>
      </trkpt>
      <trkpt lat="43.37691" lon="2.5806">
        <ele>642</ele>
        <time>2020-09-07T19:29:44Z</time>
      </trkpt>
      <trkpt lat="43.37598" lon="2.58029">
        <ele>629</ele>
        <time>2020-09-07T19:30:01Z</time>
      </trkpt>
      <trkpt lat="43.37589" lon="2.58028">
        <ele>628</ele>
        <time>2020-09-07T19:30:03Z</time>
      </trkpt>
      <trkpt lat="43.37574" lon="2.58032">
        <ele>627</ele>
        <time>2020-09-07T19:30:05Z</time>
      </trkpt>
      <trkpt lat="43.37569" lon="2.58036">
        <ele>626</ele>
        <time>2020-09-07T19:30:06Z</time>
      </trkpt>
      <trkpt lat="43.37565" lon="2.58042">
        <ele>626</ele>
        <time>2020-09-07T19:30:07Z</time>
      </trkpt>
      <trkpt lat="43.37561" lon="2.58053">
        <ele>626</ele>
        <time>2020-09-07T19:30:09Z</time>
      </trkpt>
      <trkpt lat="43.37557" lon="2.58055">
        <ele>625</ele>
        <time>2020-09-07T19:30:10Z</time>
      </trkpt>
      <trkpt lat="43.37552" lon="2.58052">
        <ele>625</ele>
        <time>2020-09-07T19:30:11Z</time>
      </trkpt>
      <trkpt lat="43.37549" lon="2.58045">
        <ele>624</ele>
        <time>2020-09-07T19:30:12Z</time>
      </trkpt>
      <trkpt lat="43.37551" lon="2.58033">
        <ele>624</ele>
        <time>2020-09-07T19:30:13Z</time>
      </trkpt>
      <trkpt lat="43.37556" lon="2.58018">
        <ele>624</ele>
        <time>2020-09-07T19:30:16Z</time>
      </trkpt>
      <trkpt lat="43.3756" lon="2.58011">
        <ele>625</ele>
        <time>2020-09-07T19:30:17Z</time>
      </trkpt>
      <trkpt lat="43.37566" lon="2.58006">
        <ele>625</ele>
        <time>2020-09-07T19:30:18Z</time>
      </trkpt>
      <trkpt lat="43.37586" lon="2.57996">
        <ele>626</ele>
        <time>2020-09-07T19:30:22Z</time>
      </trkpt>
      <trkpt lat="43.37597" lon="2.5798">
        <ele>626</ele>
        <time>2020-09-07T19:30:25Z</time>
      </trkpt>
      <trkpt lat="43.3763" lon="2.57896">
        <ele>623</ele>
        <time>2020-09-07T19:30:37Z</time>
      </trkpt>
      <trkpt lat="43.37637" lon="2.57872">
        <ele>622</ele>
        <time>2020-09-07T19:30:40Z</time>
      </trkpt>
      <trkpt lat="43.37648" lon="2.57821">
        <ele>619</ele>
        <time>2020-09-07T19:30:47Z</time>
      </trkpt>
      <trkpt lat="43.37664" lon="2.57765">
        <ele>617</ele>
        <time>2020-09-07T19:30:55Z</time>
      </trkpt>
      <trkpt lat="43.37669" lon="2.57744">
        <ele>616</ele>
        <time>2020-09-07T19:30:58Z</time>
      </trkpt>
      <trkpt lat="43.37667" lon="2.57712">
        <ele>615</ele>
        <time>2020-09-07T19:31:02Z</time>
      </trkpt>
      <trkpt lat="43.37664" lon="2.57698">
        <ele>614</ele>
        <time>2020-09-07T19:31:04Z</time>
      </trkpt>
      <trkpt lat="43.3766" lon="2.57686">
        <ele>613</ele>
        <time>2020-09-07T19:31:06Z</time>
      </trkpt>
      <trkpt lat="43.3764" lon="2.57654">
        <ele>611</ele>
        <time>2020-09-07T19:31:11Z</time>
      </trkpt>
      <trkpt lat="43.37611" lon="2.57628">
        <ele>610</ele>
        <time>2020-09-07T19:31:17Z</time>
      </trkpt>
      <trkpt lat="43.37603" lon="2.57623">
        <ele>610</ele>
        <time>2020-09-07T19:31:19Z</time>
      </trkpt>
      <trkpt lat="43.37582" lon="2.57624">
        <ele>607</ele>
        <time>2020-09-07T19:31:22Z</time>
      </trkpt>
      <trkpt lat="43.37559" lon="2.57651">
        <ele>597</ele>
        <time>2020-09-07T19:31:28Z</time>
      </trkpt>
      <trkpt lat="43.37548" lon="2.57655">
        <ele>594</ele>
        <time>2020-09-07T19:31:30Z</time>
      </trkpt>
      <trkpt lat="43.3753" lon="2.57651">
        <ele>592</ele>
        <time>2020-09-07T19:31:33Z</time>
      </trkpt>
      <trkpt lat="43.37469" lon="2.57626">
        <ele>588</ele>
        <time>2020-09-07T19:31:44Z</time>
      </trkpt>
      <trkpt lat="43.3742" lon="2.57612">
        <ele>585</ele>
        <time>2020-09-07T19:31:53Z</time>
      </trkpt>
      <trkpt lat="43.37395" lon="2.576">
        <ele>585</ele>
        <time>2020-09-07T19:31:58Z</time>
      </trkpt>
      <trkpt lat="43.37389" lon="2.57602">
        <ele>584</ele>
        <time>2020-09-07T19:31:59Z</time>
      </trkpt>
      <trkpt lat="43.37388" lon="2.57609">
        <ele>583</ele>
        <time>2020-09-07T19:32:00Z</time>
      </trkpt>
      <trkpt lat="43.37391" lon="2.57618">
        <ele>581</ele>
        <time>2020-09-07T19:32:01Z</time>
      </trkpt>
      <trkpt lat="43.37431" lon="2.57671">
        <ele>572</ele>
        <time>2020-09-07T19:32:11Z</time>
      </trkpt>
      <trkpt lat="43.37443" lon="2.57683">
        <ele>573</ele>
        <time>2020-09-07T19:32:14Z</time>
      </trkpt>
      <trkpt lat="43.37456" lon="2.57693">
        <ele>574</ele>
        <time>2020-09-07T19:32:17Z</time>
      </trkpt>
      <trkpt lat="43.3746" lon="2.57705">
        <ele>574</ele>
        <time>2020-09-07T19:32:18Z</time>
      </trkpt>
      <trkpt lat="43.37456" lon="2.57751">
        <ele>570</ele>
        <time>2020-09-07T19:32:24Z</time>
      </trkpt>
      <trkpt lat="43.37453" lon="2.57759">
        <ele>570</ele>
        <time>2020-09-07T19:32:25Z</time>
      </trkpt>
      <trkpt lat="43.37449" lon="2.57765">
        <ele>570</ele>
        <time>2020-09-07T19:32:26Z</time>
      </trkpt>
      <trkpt lat="43.37442" lon="2.57767">
        <ele>569</ele>
        <time>2020-09-07T19:32:28Z</time>
      </trkpt>
      <trkpt lat="43.3743" lon="2.57767">
        <ele>567</ele>
        <time>2020-09-07T19:32:30Z</time>
      </trkpt>
      <trkpt lat="43.37401" lon="2.57779">
        <ele>564</ele>
        <time>2020-09-07T19:32:35Z</time>
      </trkpt>
      <trkpt lat="43.37361" lon="2.57808">
        <ele>560</ele>
        <time>2020-09-07T19:32:43Z</time>
      </trkpt>
      <trkpt lat="43.37339" lon="2.57818">
        <ele>556</ele>
        <time>2020-09-07T19:32:47Z</time>
      </trkpt>
      <trkpt lat="43.37297" lon="2.57832">
        <ele>548</ele>
        <time>2020-09-07T19:32:55Z</time>
      </trkpt>
      <trkpt lat="43.37262" lon="2.57849">
        <ele>544</ele>
        <time>2020-09-07T19:33:02Z</time>
      </trkpt>
      <trkpt lat="43.37188" lon="2.57892">
        <ele>538</ele>
        <time>2020-09-07T19:33:16Z</time>
      </trkpt>
      <trkpt lat="43.37098" lon="2.57952">
        <ele>525</ele>
        <time>2020-09-07T19:33:34Z</time>
      </trkpt>
      <trkpt lat="43.37081" lon="2.57967">
        <ele>524</ele>
        <time>2020-09-07T19:33:37Z</time>
      </trkpt>
      <trkpt lat="43.37066" lon="2.57985">
        <ele>525</ele>
        <time>2020-09-07T19:33:41Z</time>
      </trkpt>
      <trkpt lat="43.37051" lon="2.58008">
        <ele>526</ele>
        <time>2020-09-07T19:33:45Z</time>
      </trkpt>
      <trkpt lat="43.37035" lon="2.58041">
        <ele>527</ele>
        <time>2020-09-07T19:33:50Z</time>
      </trkpt>
      <trkpt lat="43.37027" lon="2.58072">
        <ele>530</ele>
        <time>2020-09-07T19:33:54Z</time>
      </trkpt>
      <trkpt lat="43.37014" lon="2.58183">
        <ele>532</ele>
        <time>2020-09-07T19:34:09Z</time>
      </trkpt>
      <trkpt lat="43.3701" lon="2.58203">
        <ele>531</ele>
        <time>2020-09-07T19:34:12Z</time>
      </trkpt>
      <trkpt lat="43.36984" lon="2.58276">
        <ele>526</ele>
        <time>2020-09-07T19:34:22Z</time>
      </trkpt>
      <trkpt lat="43.36975" lon="2.58293">
        <ele>524</ele>
        <time>2020-09-07T19:34:25Z</time>
      </trkpt>
      <trkpt lat="43.36954" lon="2.58323">
        <ele>521</ele>
        <time>2020-09-07T19:34:30Z</time>
      </trkpt>
      <trkpt lat="43.36948" lon="2.5833">
        <ele>521</ele>
        <time>2020-09-07T19:34:32Z</time>
      </trkpt>
      <trkpt lat="43.36902" lon="2.5836">
        <ele>515</ele>
        <time>2020-09-07T19:34:41Z</time>
      </trkpt>
      <trkpt lat="43.36889" lon="2.58365">
        <ele>513</ele>
        <time>2020-09-07T19:34:43Z</time>
      </trkpt>
      <trkpt lat="43.3687" lon="2.58367">
        <ele>512</ele>
        <time>2020-09-07T19:34:46Z</time>
      </trkpt>
      <trkpt lat="43.36807" lon="2.58359">
        <ele>511</ele>
        <time>2020-09-07T19:34:58Z</time>
      </trkpt>
      <trkpt lat="43.36772" lon="2.58352">
        <ele>507</ele>
        <time>2020-09-07T19:35:04Z</time>
      </trkpt>
      <trkpt lat="43.36739" lon="2.5834">
        <ele>505</ele>
        <time>2020-09-07T19:35:10Z</time>
      </trkpt>
      <trkpt lat="43.36719" lon="2.58327">
        <ele>506</ele>
        <time>2020-09-07T19:35:14Z</time>
      </trkpt>
      <trkpt lat="43.36715" lon="2.58328">
        <ele>505</ele>
        <time>2020-09-07T19:35:15Z</time>
      </trkpt>
      <trkpt lat="43.36713" lon="2.58334">
        <ele>503</ele>
        <time>2020-09-07T19:35:16Z</time>
      </trkpt>
      <trkpt lat="43.36715" lon="2.58339">
        <ele>502</ele>
        <time>2020-09-07T19:35:16Z</time>
      </trkpt>
      <trkpt lat="43.36722" lon="2.58347">
        <ele>501</ele>
        <time>2020-09-07T19:35:18Z</time>
      </trkpt>
      <trkpt lat="43.36773" lon="2.58392">
        <ele>496</ele>
        <time>2020-09-07T19:35:29Z</time>
      </trkpt>
      <trkpt lat="43.36783" lon="2.58397">
        <ele>496</ele>
        <time>2020-09-07T19:35:31Z</time>
      </trkpt>
      <trkpt lat="43.36803" lon="2.58403">
        <ele>497</ele>
        <time>2020-09-07T19:35:34Z</time>
      </trkpt>
      <trkpt lat="43.36812" lon="2.58409">
        <ele>497</ele>
        <time>2020-09-07T19:35:36Z</time>
      </trkpt>
      <trkpt lat="43.36817" lon="2.58416">
        <ele>496</ele>
        <time>2020-09-07T19:35:37Z</time>
      </trkpt>
      <trkpt lat="43.36836" lon="2.58455">
        <ele>489</ele>
        <time>2020-09-07T19:35:43Z</time>
      </trkpt>
      <trkpt lat="43.36837" lon="2.5846">
        <ele>488</ele>
        <time>2020-09-07T19:35:44Z</time>
      </trkpt>
      <trkpt lat="43.36834" lon="2.58467">
        <ele>486</ele>
        <time>2020-09-07T19:35:45Z</time>
      </trkpt>
      <trkpt lat="43.36829" lon="2.58466">
        <ele>486</ele>
        <time>2020-09-07T19:35:46Z</time>
      </trkpt>
      <trkpt lat="43.36823" lon="2.58462">
        <ele>486</ele>
        <time>2020-09-07T19:35:47Z</time>
      </trkpt>
      <trkpt lat="43.3681" lon="2.58443">
        <ele>488</ele>
        <time>2020-09-07T19:35:51Z</time>
      </trkpt>
      <trkpt lat="43.36803" lon="2.58436">
        <ele>489</ele>
        <time>2020-09-07T19:35:52Z</time>
      </trkpt>
      <trkpt lat="43.36796" lon="2.58433">
        <ele>488</ele>
        <time>2020-09-07T19:35:53Z</time>
      </trkpt>
      <trkpt lat="43.36773" lon="2.5844">
        <ele>483</ele>
        <time>2020-09-07T19:35:58Z</time>
      </trkpt>
      <trkpt lat="43.36761" lon="2.58437">
        <ele>481</ele>
        <time>2020-09-07T19:36:00Z</time>
      </trkpt>
      <trkpt lat="43.36751" lon="2.58438">
        <ele>480</ele>
        <time>2020-09-07T19:36:02Z</time>
      </trkpt>
      <trkpt lat="43.36722" lon="2.58444">
        <ele>473</ele>
        <time>2020-09-07T19:36:07Z</time>
      </trkpt>
      <trkpt lat="43.36706" lon="2.5844">
        <ele>472</ele>
        <time>2020-09-07T19:36:10Z</time>
      </trkpt>
      <trkpt lat="43.36695" lon="2.58433">
        <ele>472</ele>
        <time>2020-09-07T19:36:12Z</time>
      </trkpt>
      <trkpt lat="43.36691" lon="2.58435">
        <ele>471</ele>
        <time>2020-09-07T19:36:13Z</time>
      </trkpt>
      <trkpt lat="43.36689" lon="2.58441">
        <ele>469</ele>
        <time>2020-09-07T19:36:13Z</time>
      </trkpt>
      <trkpt lat="43.36692" lon="2.58446">
        <ele>468</ele>
        <time>2020-09-07T19:36:14Z</time>
      </trkpt>
      <trkpt lat="43.36702" lon="2.58455">
        <ele>467</ele>
        <time>2020-09-07T19:36:16Z</time>
      </trkpt>
      <trkpt lat="43.36713" lon="2.58463">
        <ele>467</ele>
        <time>2020-09-07T19:36:19Z</time>
      </trkpt>
      <trkpt lat="43.36747" lon="2.58476">
        <ele>469</ele>
        <time>2020-09-07T19:36:25Z</time>
      </trkpt>
      <trkpt lat="43.36763" lon="2.58484">
        <ele>470</ele>
        <time>2020-09-07T19:36:28Z</time>
      </trkpt>
      <trkpt lat="43.3677" lon="2.58491">
        <ele>469</ele>
        <time>2020-09-07T19:36:29Z</time>
      </trkpt>
      <trkpt lat="43.36774" lon="2.58499">
        <ele>468</ele>
        <time>2020-09-07T19:36:31Z</time>
      </trkpt>
      <trkpt lat="43.36777" lon="2.58514">
        <ele>466</ele>
        <time>2020-09-07T19:36:33Z</time>
      </trkpt>
      <trkpt lat="43.36778" lon="2.58537">
        <ele>463</ele>
        <time>2020-09-07T19:36:36Z</time>
      </trkpt>
      <trkpt lat="43.36773" lon="2.58569">
        <ele>457</ele>
        <time>2020-09-07T19:36:40Z</time>
      </trkpt>
      <trkpt lat="43.36755" lon="2.58614">
        <ele>452</ele>
        <time>2020-09-07T19:36:47Z</time>
      </trkpt>
      <trkpt lat="43.36725" lon="2.58738">
        <ele>441</ele>
        <time>2020-09-07T19:37:03Z</time>
      </trkpt>
      <trkpt lat="43.36721" lon="2.58747">
        <ele>439</ele>
        <time>2020-09-07T19:37:05Z</time>
      </trkpt>
      <trkpt lat="43.3668" lon="2.58804">
        <ele>432</ele>
        <time>2020-09-07T19:37:15Z</time>
      </trkpt>
      <trkpt lat="43.36647" lon="2.58865">
        <ele>428</ele>
        <time>2020-09-07T19:37:25Z</time>
      </trkpt>
      <trkpt lat="43.36638" lon="2.58892">
        <ele>425</ele>
        <time>2020-09-07T19:37:29Z</time>
      </trkpt>
      <trkpt lat="43.36633" lon="2.58909">
        <ele>425</ele>
        <time>2020-09-07T19:37:31Z</time>
      </trkpt>
      <trkpt lat="43.36633" lon="2.58939">
        <ele>422</ele>
        <time>2020-09-07T19:37:35Z</time>
      </trkpt>
      <trkpt lat="43.3663" lon="2.58943">
        <ele>420</ele>
        <time>2020-09-07T19:37:36Z</time>
      </trkpt>
      <trkpt lat="43.36626" lon="2.58943">
        <ele>419</ele>
        <time>2020-09-07T19:37:37Z</time>
      </trkpt>
      <trkpt lat="43.36623" lon="2.58939">
        <ele>419</ele>
        <time>2020-09-07T19:37:37Z</time>
      </trkpt>
      <trkpt lat="43.36621" lon="2.5893">
        <ele>419</ele>
        <time>2020-09-07T19:37:39Z</time>
      </trkpt>
      <trkpt lat="43.36622" lon="2.58899">
        <ele>420</ele>
        <time>2020-09-07T19:37:43Z</time>
      </trkpt>
      <trkpt lat="43.36629" lon="2.58867">
        <ele>421</ele>
        <time>2020-09-07T19:37:47Z</time>
      </trkpt>
      <trkpt lat="43.36629" lon="2.5886">
        <ele>420</ele>
        <time>2020-09-07T19:37:48Z</time>
      </trkpt>
      <trkpt lat="43.36625" lon="2.58856">
        <ele>418</ele>
        <time>2020-09-07T19:37:49Z</time>
      </trkpt>
      <trkpt lat="43.36621" lon="2.58855">
        <ele>417</ele>
        <time>2020-09-07T19:37:49Z</time>
      </trkpt>
      <trkpt lat="43.36617" lon="2.58859">
        <ele>416</ele>
        <time>2020-09-07T19:37:50Z</time>
      </trkpt>
      <trkpt lat="43.36598" lon="2.58919">
        <ele>414</ele>
        <time>2020-09-07T19:37:59Z</time>
      </trkpt>
      <trkpt lat="43.36595" lon="2.58933">
        <ele>412</ele>
        <time>2020-09-07T19:38:01Z</time>
      </trkpt>
      <trkpt lat="43.36594" lon="2.58949">
        <ele>410</ele>
        <time>2020-09-07T19:38:03Z</time>
      </trkpt>
      <trkpt lat="43.36593" lon="2.5899">
        <ele>408</ele>
        <time>2020-09-07T19:38:08Z</time>
      </trkpt>
      <trkpt lat="43.36588" lon="2.59062">
        <ele>401</ele>
        <time>2020-09-07T19:38:17Z</time>
      </trkpt>
      <trkpt lat="43.3659" lon="2.59088">
        <ele>398</ele>
        <time>2020-09-07T19:38:21Z</time>
      </trkpt>
      <trkpt lat="43.36589" lon="2.59093">
        <ele>398</ele>
        <time>2020-09-07T19:38:21Z</time>
      </trkpt>
      <trkpt lat="43.36586" lon="2.59096">
        <ele>398</ele>
        <time>2020-09-07T19:38:22Z</time>
      </trkpt>
      <trkpt lat="43.3658" lon="2.59097">
        <ele>397</ele>
        <time>2020-09-07T19:38:23Z</time>
      </trkpt>
      <trkpt lat="43.36575" lon="2.59092">
        <ele>396</ele>
        <time>2020-09-07T19:38:24Z</time>
      </trkpt>
      <trkpt lat="43.36567" lon="2.59069">
        <ele>396</ele>
        <time>2020-09-07T19:38:28Z</time>
      </trkpt>
      <trkpt lat="43.36556" lon="2.59026">
        <ele>396</ele>
        <time>2020-09-07T19:38:33Z</time>
      </trkpt>
      <trkpt lat="43.36541" lon="2.5899">
        <ele>394</ele>
        <time>2020-09-07T19:38:39Z</time>
      </trkpt>
      <trkpt lat="43.36537" lon="2.58987">
        <ele>392</ele>
        <time>2020-09-07T19:38:40Z</time>
      </trkpt>
      <trkpt lat="43.36532" lon="2.58989">
        <ele>391</ele>
        <time>2020-09-07T19:38:41Z</time>
      </trkpt>
      <trkpt lat="43.36529" lon="2.58995">
        <ele>390</ele>
        <time>2020-09-07T19:38:41Z</time>
      </trkpt>
      <trkpt lat="43.36529" lon="2.59005">
        <ele>390</ele>
        <time>2020-09-07T19:38:43Z</time>
      </trkpt>
      <trkpt lat="43.3653" lon="2.59029">
        <ele>389</ele>
        <time>2020-09-07T19:38:46Z</time>
      </trkpt>
      <trkpt lat="43.36529" lon="2.59047">
        <ele>388</ele>
        <time>2020-09-07T19:38:48Z</time>
      </trkpt>
      <trkpt lat="43.36521" lon="2.59103">
        <ele>384</ele>
        <time>2020-09-07T19:38:56Z</time>
      </trkpt>
      <trkpt lat="43.36508" lon="2.59147">
        <ele>380</ele>
        <time>2020-09-07T19:39:02Z</time>
      </trkpt>
      <trkpt lat="43.36472" lon="2.59226">
        <ele>372</ele>
        <time>2020-09-07T19:39:14Z</time>
      </trkpt>
      <trkpt lat="43.36468" lon="2.59239">
        <ele>371</ele>
        <time>2020-09-07T19:39:16Z</time>
      </trkpt>
      <trkpt lat="43.36464" lon="2.59258">
        <ele>370</ele>
        <time>2020-09-07T19:39:18Z</time>
      </trkpt>
      <trkpt lat="43.36461" lon="2.59265">
        <ele>369</ele>
        <time>2020-09-07T19:39:19Z</time>
      </trkpt>
      <trkpt lat="43.36458" lon="2.5927">
        <ele>368</ele>
        <time>2020-09-07T19:39:20Z</time>
      </trkpt>
      <trkpt lat="43.36454" lon="2.59271">
        <ele>367</ele>
        <time>2020-09-07T19:39:21Z</time>
      </trkpt>
      <trkpt lat="43.36433" lon="2.59262">
        <ele>365</ele>
        <time>2020-09-07T19:39:25Z</time>
      </trkpt>
      <trkpt lat="43.36428" lon="2.59263">
        <ele>364</ele>
        <time>2020-09-07T19:39:26Z</time>
      </trkpt>
      <trkpt lat="43.36417" lon="2.59268">
        <ele>362</ele>
        <time>2020-09-07T19:39:28Z</time>
      </trkpt>
      <trkpt lat="43.36395" lon="2.59286">
        <ele>359</ele>
        <time>2020-09-07T19:39:32Z</time>
      </trkpt>
      <trkpt lat="43.36376" lon="2.59307">
        <ele>357</ele>
        <time>2020-09-07T19:39:37Z</time>
      </trkpt>
      <trkpt lat="43.3631" lon="2.59396">
        <ele>357</ele>
        <time>2020-09-07T19:39:53Z</time>
      </trkpt>
      <trkpt lat="43.36304" lon="2.59401">
        <ele>357</ele>
        <time>2020-09-07T19:39:54Z</time>
      </trkpt>
      <trkpt lat="43.36295" lon="2.59403">
        <ele>357</ele>
        <time>2020-09-07T19:39:56Z</time>
      </trkpt>
      <trkpt lat="43.36278" lon="2.59399">
        <ele>356</ele>
        <time>2020-09-07T19:39:59Z</time>
      </trkpt>
      <trkpt lat="43.36267" lon="2.59393">
        <ele>355</ele>
        <time>2020-09-07T19:40:01Z</time>
      </trkpt>
      <trkpt lat="43.36246" lon="2.59374">
        <ele>352</ele>
        <time>2020-09-07T19:40:06Z</time>
      </trkpt>
      <trkpt lat="43.36241" lon="2.59362">
        <ele>350</ele>
        <time>2020-09-07T19:40:07Z</time>
      </trkpt>
      <trkpt lat="43.36243" lon="2.59354">
        <ele>349</ele>
        <time>2020-09-07T19:40:08Z</time>
      </trkpt>
      <trkpt lat="43.36248" lon="2.59351">
        <ele>349</ele>
        <time>2020-09-07T19:40:09Z</time>
      </trkpt>
      <trkpt lat="43.3627" lon="2.59349">
        <ele>351</ele>
        <time>2020-09-07T19:40:13Z</time>
      </trkpt>
      <trkpt lat="43.36279" lon="2.59342">
        <ele>351</ele>
        <time>2020-09-07T19:40:15Z</time>
      </trkpt>
      <trkpt lat="43.36318" lon="2.59291">
        <ele>348</ele>
        <time>2020-09-07T19:40:25Z</time>
      </trkpt>
      <trkpt lat="43.36327" lon="2.59271">
        <ele>347</ele>
        <time>2020-09-07T19:40:28Z</time>
      </trkpt>
      <trkpt lat="43.36338" lon="2.5924">
        <ele>345</ele>
        <time>2020-09-07T19:40:32Z</time>
      </trkpt>
      <trkpt lat="43.36341" lon="2.59224">
        <ele>345</ele>
        <time>2020-09-07T19:40:34Z</time>
      </trkpt>
      <trkpt lat="43.36344" lon="2.59174">
        <ele>342</ele>
        <time>2020-09-07T19:40:41Z</time>
      </trkpt>
      <trkpt lat="43.36342" lon="2.59156">
        <ele>341</ele>
        <time>2020-09-07T19:40:43Z</time>
      </trkpt>
      <trkpt lat="43.36328" lon="2.59106">
        <ele>341</ele>
        <time>2020-09-07T19:40:50Z</time>
      </trkpt>
      <trkpt lat="43.36322" lon="2.59096">
        <ele>342</ele>
        <time>2020-09-07T19:40:52Z</time>
      </trkpt>
      <trkpt lat="43.36306" lon="2.59088">
        <ele>345</ele>
        <time>2020-09-07T19:40:55Z</time>
      </trkpt>
      <trkpt lat="43.36266" lon="2.59168">
        <ele>341</ele>
        <time>2020-09-07T19:41:07Z</time>
      </trkpt>
      <trkpt lat="43.36258" lon="2.5918">
        <ele>340</ele>
        <time>2020-09-07T19:41:10Z</time>
      </trkpt>
      <trkpt lat="43.36242" lon="2.59191">
        <ele>339</ele>
        <time>2020-09-07T19:41:13Z</time>
      </trkpt>
      <trkpt lat="43.36214" lon="2.59205">
        <ele>338</ele>
        <time>2020-09-07T19:41:18Z</time>
      </trkpt>
      <trkpt lat="43.36186" lon="2.5921">
        <ele>337</ele>
        <time>2020-09-07T19:41:23Z</time>
      </trkpt>
      <trkpt lat="43.3617" lon="2.59209">
        <ele>337</ele>
        <time>2020-09-07T19:41:26Z</time>
      </trkpt>
      <trkpt lat="43.36163" lon="2.59205">
        <ele>338</ele>
        <time>2020-09-07T19:41:27Z</time>
      </trkpt>
      <trkpt lat="43.36145" lon="2.59174">
        <ele>346</ele>
        <time>2020-09-07T19:41:32Z</time>
      </trkpt>
      <trkpt lat="43.36138" lon="2.5917">
        <ele>347</ele>
        <time>2020-09-07T19:41:34Z</time>
      </trkpt>
      <trkpt lat="43.36131" lon="2.59171">
        <ele>347</ele>
        <time>2020-09-07T19:41:35Z</time>
      </trkpt>
      <trkpt lat="43.36048" lon="2.59225">
        <ele>335</ele>
        <time>2020-09-07T19:41:51Z</time>
      </trkpt>
      <trkpt lat="43.36015" lon="2.59244">
        <ele>333</ele>
        <time>2020-09-07T19:41:58Z</time>
      </trkpt>
      <trkpt lat="43.35996" lon="2.59251">
        <ele>333</ele>
        <time>2020-09-07T19:42:01Z</time>
      </trkpt>
      <trkpt lat="43.35958" lon="2.59245">
        <ele>333</ele>
        <time>2020-09-07T19:42:08Z</time>
      </trkpt>
      <trkpt lat="43.35942" lon="2.59247">
        <ele>332</ele>
        <time>2020-09-07T19:42:11Z</time>
      </trkpt>
      <trkpt lat="43.35846" lon="2.59283">
        <ele>321</ele>
        <time>2020-09-07T19:42:29Z</time>
      </trkpt>
      <trkpt lat="43.35777" lon="2.59315">
        <ele>310</ele>
        <time>2020-09-07T19:42:41Z</time>
      </trkpt>
      <trkpt lat="43.35756" lon="2.59318">
        <ele>308</ele>
        <time>2020-09-07T19:42:45Z</time>
      </trkpt>
      <trkpt lat="43.35749" lon="2.59316">
        <ele>307</ele>
        <time>2020-09-07T19:42:47Z</time>
      </trkpt>
      <trkpt lat="43.35743" lon="2.59309">
        <ele>307</ele>
        <time>2020-09-07T19:42:48Z</time>
      </trkpt>
      <trkpt lat="43.35739" lon="2.59302">
        <ele>307</ele>
        <time>2020-09-07T19:42:49Z</time>
      </trkpt>
      <trkpt lat="43.35736" lon="2.59287">
        <ele>308</ele>
        <time>2020-09-07T19:42:51Z</time>
      </trkpt>
      <trkpt lat="43.35732" lon="2.59258">
        <ele>310</ele>
        <time>2020-09-07T19:42:55Z</time>
      </trkpt>
      <trkpt lat="43.35728" lon="2.5925">
        <ele>311</ele>
        <time>2020-09-07T19:42:56Z</time>
      </trkpt>
      <trkpt lat="43.35721" lon="2.59241">
        <ele>311</ele>
        <time>2020-09-07T19:42:58Z</time>
      </trkpt>
      <trkpt lat="43.35713" lon="2.59236">
        <ele>310</ele>
        <time>2020-09-07T19:42:59Z</time>
      </trkpt>
      <trkpt lat="43.35706" lon="2.59237">
        <ele>310</ele>
        <time>2020-09-07T19:43:01Z</time>
      </trkpt>
      <trkpt lat="43.35667" lon="2.59265">
        <ele>305</ele>
        <time>2020-09-07T19:43:09Z</time>
      </trkpt>
      <trkpt lat="43.35646" lon="2.59277">
        <ele>301</ele>
        <time>2020-09-07T19:43:13Z</time>
      </trkpt>
      <trkpt lat="43.35636" lon="2.59278">
        <ele>300</ele>
        <time>2020-09-07T19:43:14Z</time>
      </trkpt>
      <trkpt lat="43.35626" lon="2.59274">
        <ele>300</ele>
        <time>2020-09-07T19:43:16Z</time>
      </trkpt>
      <trkpt lat="43.35622" lon="2.59268">
        <ele>300</ele>
        <time>2020-09-07T19:43:17Z</time>
      </trkpt>
      <trkpt lat="43.35621" lon="2.59259">
        <ele>300</ele>
        <time>2020-09-07T19:43:18Z</time>
      </trkpt>
      <trkpt lat="43.35627" lon="2.59239">
        <ele>302</ele>
        <time>2020-09-07T19:43:21Z</time>
      </trkpt>
      <trkpt lat="43.35689" lon="2.59135">
        <ele>312</ele>
        <time>2020-09-07T19:43:39Z</time>
      </trkpt>
      <trkpt lat="43.35711" lon="2.59092">
        <ele>317</ele>
        <time>2020-09-07T19:43:45Z</time>
      </trkpt>
      <trkpt lat="43.35725" lon="2.59056">
        <ele>322</ele>
        <time>2020-09-07T19:43:51Z</time>
      </trkpt>
      <trkpt lat="43.3574" lon="2.58986">
        <ele>329</ele>
        <time>2020-09-07T19:44:00Z</time>
      </trkpt>
      <trkpt lat="43.35739" lon="2.58979">
        <ele>330</ele>
        <time>2020-09-07T19:44:01Z</time>
      </trkpt>
      <trkpt lat="43.35736" lon="2.58972">
        <ele>330</ele>
        <time>2020-09-07T19:44:02Z</time>
      </trkpt>
      <trkpt lat="43.35729" lon="2.5897">
        <ele>331</ele>
        <time>2020-09-07T19:44:03Z</time>
      </trkpt>
      <trkpt lat="43.35722" lon="2.5897">
        <ele>331</ele>
        <time>2020-09-07T19:44:05Z</time>
      </trkpt>
      <trkpt lat="43.35717" lon="2.58975">
        <ele>331</ele>
        <time>2020-09-07T19:44:06Z</time>
      </trkpt>
      <trkpt lat="43.35699" lon="2.59017">
        <ele>325</ele>
        <time>2020-09-07T19:44:12Z</time>
      </trkpt>
      <trkpt lat="43.35662" lon="2.59067">
        <ele>315</ele>
        <time>2020-09-07T19:44:21Z</time>
      </trkpt>
      <trkpt lat="43.35639" lon="2.59085">
        <ele>312</ele>
        <time>2020-09-07T19:44:26Z</time>
      </trkpt>
      <trkpt lat="43.35624" lon="2.5909">
        <ele>311</ele>
        <time>2020-09-07T19:44:29Z</time>
      </trkpt>
      <trkpt lat="43.35613" lon="2.5909">
        <ele>311</ele>
        <time>2020-09-07T19:44:31Z</time>
      </trkpt>
      <trkpt lat="43.35607" lon="2.59086">
        <ele>312</ele>
        <time>2020-09-07T19:44:32Z</time>
      </trkpt>
      <trkpt lat="43.35601" lon="2.5908">
        <ele>313</ele>
        <time>2020-09-07T19:44:33Z</time>
      </trkpt>
      <trkpt lat="43.35597" lon="2.5907">
        <ele>315</ele>
        <time>2020-09-07T19:44:35Z</time>
      </trkpt>
      <trkpt lat="43.35587" lon="2.59031">
        <ele>322</ele>
        <time>2020-09-07T19:44:40Z</time>
      </trkpt>
      <trkpt lat="43.35582" lon="2.59026">
        <ele>323</ele>
        <time>2020-09-07T19:44:41Z</time>
      </trkpt>
      <trkpt lat="43.35576" lon="2.59026">
        <ele>324</ele>
        <time>2020-09-07T19:44:42Z</time>
      </trkpt>
      <trkpt lat="43.35571" lon="2.59031">
        <ele>324</ele>
        <time>2020-09-07T19:44:43Z</time>
      </trkpt>
      <trkpt lat="43.35564" lon="2.59052">
        <ele>321</ele>
        <time>2020-09-07T19:44:46Z</time>
      </trkpt>
      <trkpt lat="43.3554" lon="2.59103">
        <ele>317</ele>
        <time>2020-09-07T19:44:54Z</time>
      </trkpt>
      <trkpt lat="43.35502" lon="2.59164">
        <ele>314</ele>
        <time>2020-09-07T19:45:05Z</time>
      </trkpt>
      <trkpt lat="43.35482" lon="2.59191">
        <ele>308</ele>
        <time>2020-09-07T19:45:10Z</time>
      </trkpt>
      <trkpt lat="43.3547" lon="2.59197">
        <ele>306</ele>
        <time>2020-09-07T19:45:12Z</time>
      </trkpt>
      <trkpt lat="43.35458" lon="2.592">
        <ele>306</ele>
        <time>2020-09-07T19:45:14Z</time>
      </trkpt>
      <trkpt lat="43.35444" lon="2.59198">
        <ele>306</ele>
        <time>2020-09-07T19:45:16Z</time>
      </trkpt>
      <trkpt lat="43.35429" lon="2.59193">
        <ele>307</ele>
        <time>2020-09-07T19:45:19Z</time>
      </trkpt>
      <trkpt lat="43.35416" lon="2.59183">
        <ele>309</ele>
        <time>2020-09-07T19:45:22Z</time>
      </trkpt>
      <trkpt lat="43.3541" lon="2.59175">
        <ele>310</ele>
        <time>2020-09-07T19:45:23Z</time>
      </trkpt>
      <trkpt lat="43.35407" lon="2.59164">
        <ele>312</ele>
        <time>2020-09-07T19:45:25Z</time>
      </trkpt>
      <trkpt lat="43.35405" lon="2.5914">
        <ele>315</ele>
        <time>2020-09-07T19:45:28Z</time>
      </trkpt>
      <trkpt lat="43.35409" lon="2.59089">
        <ele>322</ele>
        <time>2020-09-07T19:45:35Z</time>
      </trkpt>
      <trkpt lat="43.35406" lon="2.59082">
        <ele>323</ele>
        <time>2020-09-07T19:45:36Z</time>
      </trkpt>
      <trkpt lat="43.354" lon="2.59077">
        <ele>323</ele>
        <time>2020-09-07T19:45:37Z</time>
      </trkpt>
      <trkpt lat="43.35389" lon="2.59075">
        <ele>322</ele>
        <time>2020-09-07T19:45:39Z</time>
      </trkpt>
      <trkpt lat="43.35375" lon="2.59077">
        <ele>321</ele>
        <time>2020-09-07T19:45:41Z</time>
      </trkpt>
      <trkpt lat="43.35366" lon="2.59084">
        <ele>320</ele>
        <time>2020-09-07T19:45:43Z</time>
      </trkpt>
      <trkpt lat="43.35359" lon="2.59096">
        <ele>318</ele>
        <time>2020-09-07T19:45:45Z</time>
      </trkpt>
      <trkpt lat="43.35343" lon="2.59116">
        <ele>314</ele>
        <time>2020-09-07T19:45:49Z</time>
      </trkpt>
      <trkpt lat="43.35301" lon="2.59154">
        <ele>306</ele>
        <time>2020-09-07T19:45:58Z</time>
      </trkpt>
      <trkpt lat="43.35301" lon="2.59129">
        <ele>308</ele>
        <time>2020-09-07T19:46:01Z</time>
      </trkpt>
      <trkpt lat="43.35304" lon="2.59116">
        <ele>310</ele>
        <time>2020-09-07T19:46:03Z</time>
      </trkpt>
      <trkpt lat="43.3531" lon="2.59107">
        <ele>312</ele>
        <time>2020-09-07T19:46:05Z</time>
      </trkpt>
      <trkpt lat="43.35337" lon="2.59088">
        <ele>318</ele>
        <time>2020-09-07T19:46:10Z</time>
      </trkpt>
      <trkpt lat="43.3535" lon="2.59073">
        <ele>320</ele>
        <time>2020-09-07T19:46:13Z</time>
      </trkpt>
      <trkpt lat="43.35351" lon="2.59066">
        <ele>321</ele>
        <time>2020-09-07T19:46:14Z</time>
      </trkpt>
      <trkpt lat="43.35347" lon="2.59065">
        <ele>321</ele>
        <time>2020-09-07T19:46:15Z</time>
      </trkpt>
      <trkpt lat="43.35338" lon="2.5907">
        <ele>320</ele>
        <time>2020-09-07T19:46:16Z</time>
      </trkpt>
      <trkpt lat="43.35329" lon="2.59072">
        <ele>318</ele>
        <time>2020-09-07T19:46:18Z</time>
      </trkpt>
      <trkpt lat="43.35319" lon="2.59069">
        <ele>317</ele>
        <time>2020-09-07T19:46:20Z</time>
      </trkpt>
      <trkpt lat="43.35313" lon="2.59062">
        <ele>317</ele>
        <time>2020-09-07T19:46:21Z</time>
      </trkpt>
      <trkpt lat="43.35308" lon="2.59046">
        <ele>318</ele>
        <time>2020-09-07T19:46:23Z</time>
      </trkpt>
      <trkpt lat="43.35305" lon="2.59027">
        <ele>319</ele>
        <time>2020-09-07T19:46:26Z</time>
      </trkpt>
      <trkpt lat="43.35306" lon="2.59012">
        <ele>320</ele>
        <time>2020-09-07T19:46:28Z</time>
      </trkpt>
      <trkpt lat="43.35311" lon="2.58997">
        <ele>322</ele>
        <time>2020-09-07T19:46:30Z</time>
      </trkpt>
      <trkpt lat="43.35319" lon="2.58988">
        <ele>322</ele>
        <time>2020-09-07T19:46:32Z</time>
      </trkpt>
      <trkpt lat="43.35334" lon="2.5898">
        <ele>324</ele>
        <time>2020-09-07T19:46:35Z</time>
      </trkpt>
      <trkpt lat="43.3534" lon="2.58974">
        <ele>324</ele>
        <time>2020-09-07T19:46:36Z</time>
      </trkpt>
      <trkpt lat="43.35372" lon="2.58935">
        <ele>328</ele>
        <time>2020-09-07T19:46:44Z</time>
      </trkpt>
      <trkpt lat="43.35399" lon="2.58919">
        <ele>334</ele>
        <time>2020-09-07T19:46:49Z</time>
      </trkpt>
      <trkpt lat="43.35433" lon="2.5888">
        <ele>338</ele>
        <time>2020-09-07T19:46:57Z</time>
      </trkpt>
      <trkpt lat="43.35439" lon="2.58867">
        <ele>339</ele>
        <time>2020-09-07T19:46:59Z</time>
      </trkpt>
      <trkpt lat="43.35454" lon="2.58814">
        <ele>342</ele>
        <time>2020-09-07T19:47:06Z</time>
      </trkpt>
      <trkpt lat="43.35455" lon="2.588">
        <ele>342</ele>
        <time>2020-09-07T19:47:08Z</time>
      </trkpt>
      <trkpt lat="43.35453" lon="2.5876">
        <ele>341</ele>
        <time>2020-09-07T19:47:13Z</time>
      </trkpt>
      <trkpt lat="43.35456" lon="2.58746">
        <ele>342</ele>
        <time>2020-09-07T19:47:15Z</time>
      </trkpt>
      <trkpt lat="43.35468" lon="2.58721">
        <ele>347</ele>
        <time>2020-09-07T19:47:19Z</time>
      </trkpt>
      <trkpt lat="43.35469" lon="2.58711">
        <ele>348</ele>
        <time>2020-09-07T19:47:20Z</time>
      </trkpt>
      <trkpt lat="43.35466" lon="2.58689">
        <ele>347</ele>
        <time>2020-09-07T19:47:23Z</time>
      </trkpt>
      <trkpt lat="43.35462" lon="2.58673">
        <ele>345</ele>
        <time>2020-09-07T19:47:25Z</time>
      </trkpt>
      <trkpt lat="43.3545" lon="2.58642">
        <ele>342</ele>
        <time>2020-09-07T19:47:30Z</time>
      </trkpt>
      <trkpt lat="43.35449" lon="2.58633">
        <ele>343</ele>
        <time>2020-09-07T19:47:31Z</time>
      </trkpt>
      <trkpt lat="43.35453" lon="2.58603">
        <ele>349</ele>
        <time>2020-09-07T19:47:35Z</time>
      </trkpt>
      <trkpt lat="43.35451" lon="2.58595">
        <ele>349</ele>
        <time>2020-09-07T19:47:36Z</time>
      </trkpt>
      <trkpt lat="43.35446" lon="2.5859">
        <ele>347</ele>
        <time>2020-09-07T19:47:37Z</time>
      </trkpt>
      <trkpt lat="43.35414" lon="2.58575">
        <ele>336</ele>
        <time>2020-09-07T19:47:43Z</time>
      </trkpt>
      <trkpt lat="43.35408" lon="2.58567">
        <ele>336</ele>
        <time>2020-09-07T19:47:45Z</time>
      </trkpt>
      <trkpt lat="43.35405" lon="2.58557">
        <ele>337</ele>
        <time>2020-09-07T19:47:46Z</time>
      </trkpt>
      <trkpt lat="43.354" lon="2.58524">
        <ele>343</ele>
        <time>2020-09-07T19:47:50Z</time>
      </trkpt>
      <trkpt lat="43.35388" lon="2.58493">
        <ele>347</ele>
        <time>2020-09-07T19:47:55Z</time>
      </trkpt>
      <trkpt lat="43.35382" lon="2.5845">
        <ele>356</ele>
        <time>2020-09-07T19:48:01Z</time>
      </trkpt>
      <trkpt lat="43.35378" lon="2.58445">
        <ele>357</ele>
        <time>2020-09-07T19:48:02Z</time>
      </trkpt>
      <trkpt lat="43.35372" lon="2.58445">
        <ele>356</ele>
        <time>2020-09-07T19:48:03Z</time>
      </trkpt>
      <trkpt lat="43.35366" lon="2.58449">
        <ele>355</ele>
        <time>2020-09-07T19:48:04Z</time>
      </trkpt>
      <trkpt lat="43.3534" lon="2.58495">
        <ele>337</ele>
        <time>2020-09-07T19:48:11Z</time>
      </trkpt>
      <trkpt lat="43.35327" lon="2.58512">
        <ele>330</ele>
        <time>2020-09-07T19:48:15Z</time>
      </trkpt>
      <trkpt lat="43.35314" lon="2.58524">
        <ele>325</ele>
        <time>2020-09-07T19:48:17Z</time>
      </trkpt>
      <trkpt lat="43.35303" lon="2.58531">
        <ele>322</ele>
        <time>2020-09-07T19:48:20Z</time>
      </trkpt>
      <trkpt lat="43.35289" lon="2.58533">
        <ele>321</ele>
        <time>2020-09-07T19:48:22Z</time>
      </trkpt>
      <trkpt lat="43.35277" lon="2.5853">
        <ele>321</ele>
        <time>2020-09-07T19:48:24Z</time>
      </trkpt>
      <trkpt lat="43.35209" lon="2.58499">
        <ele>320</ele>
        <time>2020-09-07T19:48:37Z</time>
      </trkpt>
      <trkpt lat="43.35194" lon="2.58486">
        <ele>319</ele>
        <time>2020-09-07T19:48:40Z</time>
      </trkpt>
      <trkpt lat="43.35152" lon="2.58476">
        <ele>312</ele>
        <time>2020-09-07T19:48:48Z</time>
      </trkpt>
      <trkpt lat="43.35142" lon="2.58469">
        <ele>310</ele>
        <time>2020-09-07T19:48:50Z</time>
      </trkpt>
      <trkpt lat="43.35135" lon="2.58461">
        <ele>310</ele>
        <time>2020-09-07T19:48:51Z</time>
      </trkpt>
      <trkpt lat="43.3511" lon="2.58422">
        <ele>310</ele>
        <time>2020-09-07T19:48:58Z</time>
      </trkpt>
      <trkpt lat="43.35097" lon="2.58409">
        <ele>308</ele>
        <time>2020-09-07T19:49:01Z</time>
      </trkpt>
      <trkpt lat="43.35088" lon="2.58402">
        <ele>307</ele>
        <time>2020-09-07T19:49:03Z</time>
      </trkpt>
      <trkpt lat="43.35062" lon="2.5839">
        <ele>303</ele>
        <time>2020-09-07T19:49:08Z</time>
      </trkpt>
      <trkpt lat="43.35028" lon="2.5836">
        <ele>301</ele>
        <time>2020-09-07T19:49:15Z</time>
      </trkpt>
      <trkpt lat="43.34996" lon="2.58345">
        <ele>297</ele>
        <time>2020-09-07T19:49:21Z</time>
      </trkpt>
      <trkpt lat="43.34986" lon="2.58338">
        <ele>297</ele>
        <time>2020-09-07T19:49:23Z</time>
      </trkpt>
      <trkpt lat="43.34944" lon="2.58296">
        <ele>291</ele>
        <time>2020-09-07T19:49:32Z</time>
      </trkpt>
      <trkpt lat="43.34937" lon="2.58285">
        <ele>290</ele>
        <time>2020-09-07T19:49:34Z</time>
      </trkpt>
      <trkpt lat="43.34934" lon="2.58268">
        <ele>289</ele>
        <time>2020-09-07T19:49:36Z</time>
      </trkpt>
      <trkpt lat="43.34956" lon="2.58244">
        <ele>292</ele>
        <time>2020-09-07T19:49:41Z</time>
      </trkpt>
      <trkpt lat="43.34966" lon="2.58239">
        <ele>293</ele>
        <time>2020-09-07T19:49:43Z</time>
      </trkpt>
      <trkpt lat="43.34971" lon="2.58233">
        <ele>294</ele>
        <time>2020-09-07T19:49:44Z</time>
      </trkpt>
      <trkpt lat="43.34974" lon="2.58227">
        <ele>294</ele>
        <time>2020-09-07T19:49:45Z</time>
      </trkpt>
      <trkpt lat="43.34972" lon="2.58199">
        <ele>292</ele>
        <time>2020-09-07T19:49:49Z</time>
      </trkpt>
      <trkpt lat="43.34959" lon="2.58102">
        <ele>287</ele>
        <time>2020-09-07T19:50:02Z</time>
      </trkpt>
      <trkpt lat="43.3496" lon="2.58077">
        <ele>287</ele>
        <time>2020-09-07T19:50:05Z</time>
      </trkpt>
      <trkpt lat="43.34973" lon="2.58033">
        <ele>291</ele>
        <time>2020-09-07T19:50:11Z</time>
      </trkpt>
      <trkpt lat="43.34974" lon="2.58017">
        <ele>291</ele>
        <time>2020-09-07T19:50:13Z</time>
      </trkpt>
      <trkpt lat="43.34972" lon="2.57962">
        <ele>288</ele>
        <time>2020-09-07T19:50:20Z</time>
      </trkpt>
      <trkpt lat="43.34975" lon="2.57925">
        <ele>287</ele>
        <time>2020-09-07T19:50:25Z</time>
      </trkpt>
      <trkpt lat="43.34983" lon="2.57886">
        <ele>287</ele>
        <time>2020-09-07T19:50:30Z</time>
      </trkpt>
      <trkpt lat="43.34992" lon="2.57853">
        <ele>286</ele>
        <time>2020-09-07T19:50:35Z</time>
      </trkpt>
      <trkpt lat="43.35001" lon="2.5783">
        <ele>286</ele>
        <time>2020-09-07T19:50:38Z</time>
      </trkpt>
      <trkpt lat="43.35013" lon="2.57816">
        <ele>290</ele>
        <time>2020-09-07T19:50:41Z</time>
      </trkpt>
      <trkpt lat="43.35015" lon="2.57808">
        <ele>291</ele>
        <time>2020-09-07T19:50:42Z</time>
      </trkpt>
      <trkpt lat="43.35013" lon="2.57799">
        <ele>291</ele>
        <time>2020-09-07T19:50:43Z</time>
      </trkpt>
      <trkpt lat="43.35009" lon="2.57795">
        <ele>290</ele>
        <time>2020-09-07T19:50:44Z</time>
      </trkpt>
      <trkpt lat="43.34999" lon="2.57795">
        <ele>287</ele>
        <time>2020-09-07T19:50:46Z</time>
      </trkpt>
      <trkpt lat="43.34954" lon="2.57811">
        <ele>279</ele>
        <time>2020-09-07T19:50:54Z</time>
      </trkpt>
      <trkpt lat="43.34948" lon="2.57809">
        <ele>278</ele>
        <time>2020-09-07T19:50:55Z</time>
      </trkpt>
      <trkpt lat="43.34945" lon="2.57799">
        <ele>277</ele>
        <time>2020-09-07T19:50:57Z</time>
      </trkpt>
      <trkpt lat="43.34946" lon="2.57791">
        <ele>277</ele>
        <time>2020-09-07T19:50:58Z</time>
      </trkpt>
      <trkpt lat="43.34968" lon="2.57734">
        <ele>281</ele>
        <time>2020-09-07T19:51:06Z</time>
      </trkpt>
      <trkpt lat="43.34969" lon="2.57719">
        <ele>282</ele>
        <time>2020-09-07T19:51:08Z</time>
      </trkpt>
      <trkpt lat="43.34967" lon="2.57709">
        <ele>281</ele>
        <time>2020-09-07T19:51:09Z</time>
      </trkpt>
      <trkpt lat="43.34962" lon="2.57704">
        <ele>280</ele>
        <time>2020-09-07T19:51:11Z</time>
      </trkpt>
      <trkpt lat="43.34944" lon="2.57702">
        <ele>275</ele>
        <time>2020-09-07T19:51:14Z</time>
      </trkpt>
      <trkpt lat="43.3494" lon="2.57695">
        <ele>274</ele>
        <time>2020-09-07T19:51:15Z</time>
      </trkpt>
      <trkpt lat="43.34939" lon="2.57685">
        <ele>273</ele>
        <time>2020-09-07T19:51:16Z</time>
      </trkpt>
      <trkpt lat="43.34951" lon="2.57646">
        <ele>277</ele>
        <time>2020-09-07T19:51:22Z</time>
      </trkpt>
      <trkpt lat="43.34952" lon="2.57633">
        <ele>278</ele>
        <time>2020-09-07T19:51:23Z</time>
      </trkpt>
      <trkpt lat="43.34946" lon="2.57609">
        <ele>277</ele>
        <time>2020-09-07T19:51:27Z</time>
      </trkpt>
      <trkpt lat="43.34946" lon="2.57597">
        <ele>278</ele>
        <time>2020-09-07T19:51:28Z</time>
      </trkpt>
      <trkpt lat="43.34948" lon="2.57589">
        <ele>278</ele>
        <time>2020-09-07T19:51:29Z</time>
      </trkpt>
      <trkpt lat="43.34954" lon="2.57581">
        <ele>281</ele>
        <time>2020-09-07T19:51:31Z</time>
      </trkpt>
      <trkpt lat="43.34958" lon="2.57572">
        <ele>284</ele>
        <time>2020-09-07T19:51:32Z</time>
      </trkpt>
      <trkpt lat="43.34958" lon="2.57563">
        <ele>285</ele>
        <time>2020-09-07T19:51:33Z</time>
      </trkpt>
      <trkpt lat="43.34954" lon="2.57557">
        <ele>286</ele>
        <time>2020-09-07T19:51:34Z</time>
      </trkpt>
      <trkpt lat="43.34927" lon="2.57556">
        <ele>279</ele>
        <time>2020-09-07T19:51:39Z</time>
      </trkpt>
      <trkpt lat="43.3492" lon="2.57551">
        <ele>279</ele>
        <time>2020-09-07T19:51:41Z</time>
      </trkpt>
      <trkpt lat="43.34917" lon="2.57544">
        <ele>280</ele>
        <time>2020-09-07T19:51:42Z</time>
      </trkpt>
      <trkpt lat="43.34917" lon="2.57534">
        <ele>283</ele>
        <time>2020-09-07T19:51:43Z</time>
      </trkpt>
      <trkpt lat="43.34923" lon="2.57502">
        <ele>292</ele>
        <time>2020-09-07T19:51:47Z</time>
      </trkpt>
      <trkpt lat="43.34923" lon="2.57492">
        <ele>295</ele>
        <time>2020-09-07T19:51:49Z</time>
      </trkpt>
      <trkpt lat="43.34919" lon="2.57488">
        <ele>295</ele>
        <time>2020-09-07T19:51:49Z</time>
      </trkpt>
      <trkpt lat="43.34913" lon="2.57489">
        <ele>294</ele>
        <time>2020-09-07T19:51:50Z</time>
      </trkpt>
      <trkpt lat="43.34868" lon="2.57513">
        <ele>286</ele>
        <time>2020-09-07T19:51:59Z</time>
      </trkpt>
      <trkpt lat="43.34844" lon="2.57516">
        <ele>284</ele>
        <time>2020-09-07T19:52:03Z</time>
      </trkpt>
      <trkpt lat="43.3481" lon="2.57513">
        <ele>283</ele>
        <time>2020-09-07T19:52:09Z</time>
      </trkpt>
      <trkpt lat="43.34787" lon="2.57508">
        <ele>283</ele>
        <time>2020-09-07T19:52:14Z</time>
      </trkpt>
      <trkpt lat="43.34773" lon="2.57502">
        <ele>284</ele>
        <time>2020-09-07T19:52:16Z</time>
      </trkpt>
      <trkpt lat="43.34761" lon="2.57494">
        <ele>285</ele>
        <time>2020-09-07T19:52:19Z</time>
      </trkpt>
      <trkpt lat="43.34746" lon="2.5748">
        <ele>286</ele>
        <time>2020-09-07T19:52:22Z</time>
      </trkpt>
      <trkpt lat="43.34732" lon="2.57462">
        <ele>286</ele>
        <time>2020-09-07T19:52:25Z</time>
      </trkpt>
      <trkpt lat="43.34721" lon="2.57446">
        <ele>286</ele>
        <time>2020-09-07T19:52:28Z</time>
      </trkpt>
      <trkpt lat="43.34709" lon="2.57421">
        <ele>287</ele>
        <time>2020-09-07T19:52:32Z</time>
      </trkpt>
      <trkpt lat="43.34698" lon="2.57391">
        <ele>285</ele>
        <time>2020-09-07T19:52:36Z</time>
      </trkpt>
      <trkpt lat="43.34694" lon="2.57375">
        <ele>284</ele>
        <time>2020-09-07T19:52:38Z</time>
      </trkpt>
      <trkpt lat="43.34694" lon="2.5736">
        <ele>284</ele>
        <time>2020-09-07T19:52:40Z</time>
      </trkpt>
      <trkpt lat="43.347" lon="2.57345">
        <ele>286</ele>
        <time>2020-09-07T19:52:43Z</time>
      </trkpt>
      <trkpt lat="43.3471" lon="2.57333">
        <ele>289</ele>
        <time>2020-09-07T19:52:45Z</time>
      </trkpt>
      <trkpt lat="43.34773" lon="2.57292">
        <ele>303</ele>
        <time>2020-09-07T19:52:57Z</time>
      </trkpt>
      <trkpt lat="43.34779" lon="2.57285">
        <ele>305</ele>
        <time>2020-09-07T19:52:59Z</time>
      </trkpt>
      <trkpt lat="43.3478" lon="2.57277">
        <ele>305</ele>
        <time>2020-09-07T19:53:00Z</time>
      </trkpt>
      <trkpt lat="43.34778" lon="2.57272">
        <ele>304</ele>
        <time>2020-09-07T19:53:01Z</time>
      </trkpt>
      <trkpt lat="43.34761" lon="2.57254">
        <ele>298</ele>
        <time>2020-09-07T19:53:04Z</time>
      </trkpt>
      <trkpt lat="43.34738" lon="2.57212">
        <ele>299</ele>
        <time>2020-09-07T19:53:11Z</time>
      </trkpt>
      <trkpt lat="43.34728" lon="2.57196">
        <ele>299</ele>
        <time>2020-09-07T19:53:14Z</time>
      </trkpt>
      <trkpt lat="43.34719" lon="2.57189">
        <ele>298</ele>
        <time>2020-09-07T19:53:16Z</time>
      </trkpt>
      <trkpt lat="43.34692" lon="2.57173">
        <ele>293</ele>
        <time>2020-09-07T19:53:21Z</time>
      </trkpt>
      <trkpt lat="43.3468" lon="2.57158">
        <ele>291</ele>
        <time>2020-09-07T19:53:24Z</time>
      </trkpt>
      <trkpt lat="43.34673" lon="2.57141">
        <ele>290</ele>
        <time>2020-09-07T19:53:26Z</time>
      </trkpt>
      <trkpt lat="43.34668" lon="2.57117">
        <ele>290</ele>
        <time>2020-09-07T19:53:30Z</time>
      </trkpt>
      <trkpt lat="43.34667" lon="2.57089">
        <ele>291</ele>
        <time>2020-09-07T19:53:33Z</time>
      </trkpt>
      <trkpt lat="43.34667" lon="2.57047">
        <ele>292</ele>
        <time>2020-09-07T19:53:39Z</time>
      </trkpt>
      <trkpt lat="43.34676" lon="2.56934">
        <ele>302</ele>
        <time>2020-09-07T19:53:53Z</time>
      </trkpt>
      <trkpt lat="43.34675" lon="2.56896">
        <ele>304</ele>
        <time>2020-09-07T19:53:58Z</time>
      </trkpt>
      <trkpt lat="43.34673" lon="2.56881">
        <ele>305</ele>
        <time>2020-09-07T19:54:00Z</time>
      </trkpt>
      <trkpt lat="43.34669" lon="2.5687">
        <ele>304</ele>
        <time>2020-09-07T19:54:02Z</time>
      </trkpt>
      <trkpt lat="43.34665" lon="2.56867">
        <ele>303</ele>
        <time>2020-09-07T19:54:03Z</time>
      </trkpt>
      <trkpt lat="43.34661" lon="2.56869">
        <ele>303</ele>
        <time>2020-09-07T19:54:03Z</time>
      </trkpt>
      <trkpt lat="43.34657" lon="2.56877">
        <ele>302</ele>
        <time>2020-09-07T19:54:05Z</time>
      </trkpt>
      <trkpt lat="43.3465" lon="2.56899">
        <ele>299</ele>
        <time>2020-09-07T19:54:08Z</time>
      </trkpt>
      <trkpt lat="43.34642" lon="2.56911">
        <ele>297</ele>
        <time>2020-09-07T19:54:10Z</time>
      </trkpt>
      <trkpt lat="43.34628" lon="2.56923">
        <ele>295</ele>
        <time>2020-09-07T19:54:13Z</time>
      </trkpt>
      <trkpt lat="43.34586" lon="2.56949">
        <ele>287</ele>
        <time>2020-09-07T19:54:21Z</time>
      </trkpt>
      <trkpt lat="43.34574" lon="2.56952">
        <ele>286</ele>
        <time>2020-09-07T19:54:23Z</time>
      </trkpt>
      <trkpt lat="43.34565" lon="2.56951">
        <ele>285</ele>
        <time>2020-09-07T19:54:25Z</time>
      </trkpt>
      <trkpt lat="43.34558" lon="2.56946">
        <ele>285</ele>
        <time>2020-09-07T19:54:26Z</time>
      </trkpt>
      <trkpt lat="43.34542" lon="2.56925">
        <ele>286</ele>
        <time>2020-09-07T19:54:30Z</time>
      </trkpt>
      <trkpt lat="43.34539" lon="2.56918">
        <ele>287</ele>
        <time>2020-09-07T19:54:31Z</time>
      </trkpt>
      <trkpt lat="43.34536" lon="2.56902">
        <ele>290</ele>
        <time>2020-09-07T19:54:33Z</time>
      </trkpt>
      <trkpt lat="43.3453" lon="2.56887">
        <ele>292</ele>
        <time>2020-09-07T19:54:36Z</time>
      </trkpt>
      <trkpt lat="43.34526" lon="2.5688">
        <ele>293</ele>
        <time>2020-09-07T19:54:37Z</time>
      </trkpt>
      <trkpt lat="43.34505" lon="2.56863">
        <ele>293</ele>
        <time>2020-09-07T19:54:41Z</time>
      </trkpt>
      <trkpt lat="43.34496" lon="2.56851">
        <ele>294</ele>
        <time>2020-09-07T19:54:43Z</time>
      </trkpt>
      <trkpt lat="43.3449" lon="2.56838">
        <ele>295</ele>
        <time>2020-09-07T19:54:45Z</time>
      </trkpt>
      <trkpt lat="43.34485" lon="2.56822">
        <ele>296</ele>
        <time>2020-09-07T19:54:48Z</time>
      </trkpt>
      <trkpt lat="43.34477" lon="2.56762">
        <ele>306</ele>
        <time>2020-09-07T19:54:55Z</time>
      </trkpt>
      <trkpt lat="43.34473" lon="2.56746">
        <ele>308</ele>
        <time>2020-09-07T19:54:58Z</time>
      </trkpt>
      <trkpt lat="43.3447" lon="2.56738">
        <ele>308</ele>
        <time>2020-09-07T19:54:59Z</time>
      </trkpt>
      <trkpt lat="43.34456" lon="2.56719">
        <ele>307</ele>
        <time>2020-09-07T19:55:02Z</time>
      </trkpt>
      <trkpt lat="43.34452" lon="2.56709">
        <ele>308</ele>
        <time>2020-09-07T19:55:04Z</time>
      </trkpt>
      <trkpt lat="43.34437" lon="2.56616">
        <ele>320</ele>
        <time>2020-09-07T19:55:16Z</time>
      </trkpt>
      <trkpt lat="43.34433" lon="2.56605">
        <ele>320</ele>
        <time>2020-09-07T19:55:18Z</time>
      </trkpt>
      <trkpt lat="43.34427" lon="2.56599">
        <ele>320</ele>
        <time>2020-09-07T19:55:19Z</time>
      </trkpt>
      <trkpt lat="43.34417" lon="2.56599">
        <ele>317</ele>
        <time>2020-09-07T19:55:21Z</time>
      </trkpt>
      <trkpt lat="43.34409" lon="2.56602">
        <ele>317</ele>
        <time>2020-09-07T19:55:22Z</time>
      </trkpt>
      <trkpt lat="43.3437" lon="2.56635">
        <ele>313</ele>
        <time>2020-09-07T19:55:30Z</time>
      </trkpt>
      <trkpt lat="43.34328" lon="2.56675">
        <ele>312</ele>
        <time>2020-09-07T19:55:39Z</time>
      </trkpt>
      <trkpt lat="43.34317" lon="2.56684">
        <ele>311</ele>
        <time>2020-09-07T19:55:42Z</time>
      </trkpt>
      <trkpt lat="43.34309" lon="2.56687">
        <ele>311</ele>
        <time>2020-09-07T19:55:43Z</time>
      </trkpt>
      <trkpt lat="43.34289" lon="2.56686">
        <ele>312</ele>
        <time>2020-09-07T19:55:47Z</time>
      </trkpt>
      <trkpt lat="43.34272" lon="2.56689">
        <ele>312</ele>
        <time>2020-09-07T19:55:50Z</time>
      </trkpt>
      <trkpt lat="43.34268" lon="2.56685">
        <ele>312</ele>
        <time>2020-09-07T19:55:51Z</time>
      </trkpt>
      <trkpt lat="43.34295" lon="2.56669">
        <ele>313</ele>
        <time>2020-09-07T19:55:56Z</time>
      </trkpt>
      <trkpt lat="43.34306" lon="2.56658">
        <ele>314</ele>
        <time>2020-09-07T19:55:58Z</time>
      </trkpt>
      <trkpt lat="43.34367" lon="2.56576">
        <ele>319</ele>
        <time>2020-09-07T19:56:14Z</time>
      </trkpt>
      <trkpt lat="43.34375" lon="2.56557">
        <ele>321</ele>
        <time>2020-09-07T19:56:16Z</time>
      </trkpt>
      <trkpt lat="43.34371" lon="2.56556">
        <ele>321</ele>
        <time>2020-09-07T19:56:17Z</time>
      </trkpt>
      <trkpt lat="43.34367" lon="2.56542">
        <ele>322</ele>
        <time>2020-09-07T19:56:19Z</time>
      </trkpt>
      <trkpt lat="43.34366" lon="2.56506">
        <ele>324</ele>
        <time>2020-09-07T19:56:24Z</time>
      </trkpt>
      <trkpt lat="43.34369" lon="2.5642">
        <ele>338</ele>
        <time>2020-09-07T19:56:35Z</time>
      </trkpt>
      <trkpt lat="43.34367" lon="2.564">
        <ele>341</ele>
        <time>2020-09-07T19:56:37Z</time>
      </trkpt>
      <trkpt lat="43.34365" lon="2.56392">
        <ele>342</ele>
        <time>2020-09-07T19:56:39Z</time>
      </trkpt>
      <trkpt lat="43.3436" lon="2.56388">
        <ele>341</ele>
        <time>2020-09-07T19:56:40Z</time>
      </trkpt>
      <trkpt lat="43.34355" lon="2.56388">
        <ele>340</ele>
        <time>2020-09-07T19:56:40Z</time>
      </trkpt>
      <trkpt lat="43.34336" lon="2.56397">
        <ele>332</ele>
        <time>2020-09-07T19:56:44Z</time>
      </trkpt>
      <trkpt lat="43.3431" lon="2.564">
        <ele>327</ele>
        <time>2020-09-07T19:56:49Z</time>
      </trkpt>
      <trkpt lat="43.34301" lon="2.56398">
        <ele>326</ele>
        <time>2020-09-07T19:56:50Z</time>
      </trkpt>
      <trkpt lat="43.34295" lon="2.56394">
        <ele>326</ele>
        <time>2020-09-07T19:56:52Z</time>
      </trkpt>
      <trkpt lat="43.34289" lon="2.56387">
        <ele>326</ele>
        <time>2020-09-07T19:56:53Z</time>
      </trkpt>
      <trkpt lat="43.34272" lon="2.5635">
        <ele>327</ele>
        <time>2020-09-07T19:56:59Z</time>
      </trkpt>
      <trkpt lat="43.34269" lon="2.56332">
        <ele>327</ele>
        <time>2020-09-07T19:57:01Z</time>
      </trkpt>
      <trkpt lat="43.34268" lon="2.56314">
        <ele>328</ele>
        <time>2020-09-07T19:57:03Z</time>
      </trkpt>
      <trkpt lat="43.34273" lon="2.56277">
        <ele>332</ele>
        <time>2020-09-07T19:57:08Z</time>
      </trkpt>
      <trkpt lat="43.34272" lon="2.56264">
        <ele>332</ele>
        <time>2020-09-07T19:57:10Z</time>
      </trkpt>
      <trkpt lat="43.34267" lon="2.56259">
        <ele>330</ele>
        <time>2020-09-07T19:57:11Z</time>
      </trkpt>
      <trkpt lat="43.34244" lon="2.56247">
        <ele>321</ele>
        <time>2020-09-07T19:57:15Z</time>
      </trkpt>
      <trkpt lat="43.34238" lon="2.56238">
        <ele>320</ele>
        <time>2020-09-07T19:57:17Z</time>
      </trkpt>
      <trkpt lat="43.34235" lon="2.56229">
        <ele>320</ele>
        <time>2020-09-07T19:57:18Z</time>
      </trkpt>
      <trkpt lat="43.34229" lon="2.56193">
        <ele>323</ele>
        <time>2020-09-07T19:57:23Z</time>
      </trkpt>
      <trkpt lat="43.34228" lon="2.56168">
        <ele>325</ele>
        <time>2020-09-07T19:57:26Z</time>
      </trkpt>
      <trkpt lat="43.34234" lon="2.56142">
        <ele>330</ele>
        <time>2020-09-07T19:57:30Z</time>
      </trkpt>
      <trkpt lat="43.34235" lon="2.56134">
        <ele>332</ele>
        <time>2020-09-07T19:57:31Z</time>
      </trkpt>
      <trkpt lat="43.34233" lon="2.56126">
        <ele>332</ele>
        <time>2020-09-07T19:57:32Z</time>
      </trkpt>
      <trkpt lat="43.34229" lon="2.56121">
        <ele>331</ele>
        <time>2020-09-07T19:57:33Z</time>
      </trkpt>
      <trkpt lat="43.34204" lon="2.56117">
        <ele>324</ele>
        <time>2020-09-07T19:57:37Z</time>
      </trkpt>
      <trkpt lat="43.34199" lon="2.56113">
        <ele>323</ele>
        <time>2020-09-07T19:57:38Z</time>
      </trkpt>
      <trkpt lat="43.3419" lon="2.56101">
        <ele>322</ele>
        <time>2020-09-07T19:57:41Z</time>
      </trkpt>
      <trkpt lat="43.34181" lon="2.56094">
        <ele>320</ele>
        <time>2020-09-07T19:57:42Z</time>
      </trkpt>
      <trkpt lat="43.34153" lon="2.56087">
        <ele>315</ele>
        <time>2020-09-07T19:57:48Z</time>
      </trkpt>
      <trkpt lat="43.34139" lon="2.56088">
        <ele>313</ele>
        <time>2020-09-07T19:57:50Z</time>
      </trkpt>
      <trkpt lat="43.34119" lon="2.56098">
        <ele>310</ele>
        <time>2020-09-07T19:57:54Z</time>
      </trkpt>
      <trkpt lat="43.34116" lon="2.56095">
        <ele>309</ele>
        <time>2020-09-07T19:57:54Z</time>
      </trkpt>
      <trkpt lat="43.34113" lon="2.56088">
        <ele>310</ele>
        <time>2020-09-07T19:57:55Z</time>
      </trkpt>
      <trkpt lat="43.34115" lon="2.56078">
        <ele>310</ele>
        <time>2020-09-07T19:57:57Z</time>
      </trkpt>
      <trkpt lat="43.34145" lon="2.56008">
        <ele>314</ele>
        <time>2020-09-07T19:58:07Z</time>
      </trkpt>
      <trkpt lat="43.34142" lon="2.55952">
        <ele>315</ele>
        <time>2020-09-07T19:58:15Z</time>
      </trkpt>
      <trkpt lat="43.34141" lon="2.55944">
        <ele>315</ele>
        <time>2020-09-07T19:58:16Z</time>
      </trkpt>
      <trkpt lat="43.34137" lon="2.55938">
        <ele>315</ele>
        <time>2020-09-07T19:58:17Z</time>
      </trkpt>
      <trkpt lat="43.34132" lon="2.55937">
        <ele>314</ele>
        <time>2020-09-07T19:58:18Z</time>
      </trkpt>
      <trkpt lat="43.34128" lon="2.5594">
        <ele>313</ele>
        <time>2020-09-07T19:58:18Z</time>
      </trkpt>
      <trkpt lat="43.34108" lon="2.55959">
        <ele>309</ele>
        <time>2020-09-07T19:58:23Z</time>
      </trkpt>
      <trkpt lat="43.34085" lon="2.55971">
        <ele>305</ele>
        <time>2020-09-07T19:58:27Z</time>
      </trkpt>
      <trkpt lat="43.34054" lon="2.55968">
        <ele>301</ele>
        <time>2020-09-07T19:58:33Z</time>
      </trkpt>
      <trkpt lat="43.34027" lon="2.55963">
        <ele>298</ele>
        <time>2020-09-07T19:58:38Z</time>
      </trkpt>
      <trkpt lat="43.34007" lon="2.55968">
        <ele>296</ele>
        <time>2020-09-07T19:58:41Z</time>
      </trkpt>
      <trkpt lat="43.33975" lon="2.55982">
        <ele>292</ele>
        <time>2020-09-07T19:58:47Z</time>
      </trkpt>
      <trkpt lat="43.33965" lon="2.55983">
        <ele>290</ele>
        <time>2020-09-07T19:58:49Z</time>
      </trkpt>
      <trkpt lat="43.33954" lon="2.55978">
        <ele>289</ele>
        <time>2020-09-07T19:58:51Z</time>
      </trkpt>
      <trkpt lat="43.33951" lon="2.55974">
        <ele>289</ele>
        <time>2020-09-07T19:58:52Z</time>
      </trkpt>
      <trkpt lat="43.3394" lon="2.55944">
        <ele>287</ele>
        <time>2020-09-07T19:58:56Z</time>
      </trkpt>
      <trkpt lat="43.33931" lon="2.55928">
        <ele>286</ele>
        <time>2020-09-07T19:58:59Z</time>
      </trkpt>
      <trkpt lat="43.33927" lon="2.55881">
        <ele>283</ele>
        <time>2020-09-07T19:59:05Z</time>
      </trkpt>
      <trkpt lat="43.33928" lon="2.55865">
        <ele>282</ele>
        <time>2020-09-07T19:59:07Z</time>
      </trkpt>
      <trkpt lat="43.33934" lon="2.55846">
        <ele>282</ele>
        <time>2020-09-07T19:59:10Z</time>
      </trkpt>
      <trkpt lat="43.33944" lon="2.55828">
        <ele>283</ele>
        <time>2020-09-07T19:59:12Z</time>
      </trkpt>
      <trkpt lat="43.33963" lon="2.55818">
        <ele>286</ele>
        <time>2020-09-07T19:59:16Z</time>
      </trkpt>
      <trkpt lat="43.33965" lon="2.55814">
        <ele>287</ele>
        <time>2020-09-07T19:59:17Z</time>
      </trkpt>
      <trkpt lat="43.33965" lon="2.55808">
        <ele>287</ele>
        <time>2020-09-07T19:59:17Z</time>
      </trkpt>
      <trkpt lat="43.33963" lon="2.55801">
        <ele>287</ele>
        <time>2020-09-07T19:59:18Z</time>
      </trkpt>
      <trkpt lat="43.33943" lon="2.55774">
        <ele>283</ele>
        <time>2020-09-07T19:59:23Z</time>
      </trkpt>
      <trkpt lat="43.3394" lon="2.55764">
        <ele>282</ele>
        <time>2020-09-07T19:59:25Z</time>
      </trkpt>
      <trkpt lat="43.3394" lon="2.55754">
        <ele>283</ele>
        <time>2020-09-07T19:59:26Z</time>
      </trkpt>
      <trkpt lat="43.33942" lon="2.55743">
        <ele>283</ele>
        <time>2020-09-07T19:59:28Z</time>
      </trkpt>
      <trkpt lat="43.33949" lon="2.55719">
        <ele>285</ele>
        <time>2020-09-07T19:59:31Z</time>
      </trkpt>
      <trkpt lat="43.33952" lon="2.55698">
        <ele>286</ele>
        <time>2020-09-07T19:59:34Z</time>
      </trkpt>
      <trkpt lat="43.33943" lon="2.55661">
        <ele>283</ele>
        <time>2020-09-07T19:59:39Z</time>
      </trkpt>
      <trkpt lat="43.33936" lon="2.55567">
        <ele>279</ele>
        <time>2020-09-07T19:59:51Z</time>
      </trkpt>
      <trkpt lat="43.33934" lon="2.55559">
        <ele>279</ele>
        <time>2020-09-07T19:59:52Z</time>
      </trkpt>
      <trkpt lat="43.33919" lon="2.55529">
        <ele>275</ele>
        <time>2020-09-07T19:59:57Z</time>
      </trkpt>
      <trkpt lat="43.33894" lon="2.5549">
        <ele>270</ele>
        <time>2020-09-07T20:00:04Z</time>
      </trkpt>
      <trkpt lat="43.33892" lon="2.55473">
        <ele>269</ele>
        <time>2020-09-07T20:00:06Z</time>
      </trkpt>
      <trkpt lat="43.33896" lon="2.55459">
        <ele>269</ele>
        <time>2020-09-07T20:00:08Z</time>
      </trkpt>
      <trkpt lat="43.33901" lon="2.55453">
        <ele>269</ele>
        <time>2020-09-07T20:00:09Z</time>
      </trkpt>
      <trkpt lat="43.33914" lon="2.55447">
        <ele>271</ele>
        <time>2020-09-07T20:00:11Z</time>
      </trkpt>
      <trkpt lat="43.33923" lon="2.55438">
        <ele>272</ele>
        <time>2020-09-07T20:00:13Z</time>
      </trkpt>
      <trkpt lat="43.33933" lon="2.55403">
        <ele>275</ele>
        <time>2020-09-07T20:00:18Z</time>
      </trkpt>
      <trkpt lat="43.33934" lon="2.55396">
        <ele>276</ele>
        <time>2020-09-07T20:00:19Z</time>
      </trkpt>
      <trkpt lat="43.33929" lon="2.55386">
        <ele>276</ele>
        <time>2020-09-07T20:00:21Z</time>
      </trkpt>
      <trkpt lat="43.33892" lon="2.5536">
        <ele>273</ele>
        <time>2020-09-07T20:00:28Z</time>
      </trkpt>
      <trkpt lat="43.3385" lon="2.55347">
        <ele>266</ele>
        <time>2020-09-07T20:00:36Z</time>
      </trkpt>
      <trkpt lat="43.33835" lon="2.55339">
        <ele>263</ele>
        <time>2020-09-07T20:00:39Z</time>
      </trkpt>
      <trkpt lat="43.33827" lon="2.55328">
        <ele>263</ele>
        <time>2020-09-07T20:00:41Z</time>
      </trkpt>
      <trkpt lat="43.33825" lon="2.55314">
        <ele>263</ele>
        <time>2020-09-07T20:00:42Z</time>
      </trkpt>
      <trkpt lat="43.33825" lon="2.55254">
        <ele>264</ele>
        <time>2020-09-07T20:00:50Z</time>
      </trkpt>
      <trkpt lat="43.33823" lon="2.55246">
        <ele>264</ele>
        <time>2020-09-07T20:00:51Z</time>
      </trkpt>
      <trkpt lat="43.33815" lon="2.55222">
        <ele>265</ele>
        <time>2020-09-07T20:00:55Z</time>
      </trkpt>
      <trkpt lat="43.33812" lon="2.5521">
        <ele>265</ele>
        <time>2020-09-07T20:00:56Z</time>
      </trkpt>
      <trkpt lat="43.33812" lon="2.5518">
        <ele>268</ele>
        <time>2020-09-07T20:01:00Z</time>
      </trkpt>
      <trkpt lat="43.33809" lon="2.55173">
        <ele>268</ele>
        <time>2020-09-07T20:01:01Z</time>
      </trkpt>
      <trkpt lat="43.338" lon="2.5516">
        <ele>268</ele>
        <time>2020-09-07T20:01:04Z</time>
      </trkpt>
      <trkpt lat="43.3376" lon="2.55135">
        <ele>262</ele>
        <time>2020-09-07T20:01:11Z</time>
      </trkpt>
      <trkpt lat="43.33729" lon="2.55113">
        <ele>260</ele>
        <time>2020-09-07T20:01:18Z</time>
      </trkpt>
      <trkpt lat="43.33722" lon="2.55105">
        <ele>260</ele>
        <time>2020-09-07T20:01:19Z</time>
      </trkpt>
      <trkpt lat="43.33714" lon="2.5509">
        <ele>260</ele>
        <time>2020-09-07T20:01:22Z</time>
      </trkpt>
      <trkpt lat="43.33709" lon="2.55069">
        <ele>262</ele>
        <time>2020-09-07T20:01:25Z</time>
      </trkpt>
      <trkpt lat="43.33704" lon="2.54991">
        <ele>273</ele>
        <time>2020-09-07T20:01:35Z</time>
      </trkpt>
      <trkpt lat="43.33699" lon="2.54974">
        <ele>274</ele>
        <time>2020-09-07T20:01:37Z</time>
      </trkpt>
      <trkpt lat="43.33696" lon="2.54966">
        <ele>274</ele>
        <time>2020-09-07T20:01:38Z</time>
      </trkpt>
      <trkpt lat="43.33686" lon="2.54956">
        <ele>273</ele>
        <time>2020-09-07T20:01:40Z</time>
      </trkpt>
      <trkpt lat="43.33672" lon="2.54951">
        <ele>270</ele>
        <time>2020-09-07T20:01:43Z</time>
      </trkpt>
      <trkpt lat="43.33643" lon="2.54952">
        <ele>265</ele>
        <time>2020-09-07T20:01:48Z</time>
      </trkpt>
      <trkpt lat="43.33632" lon="2.5495">
        <ele>264</ele>
        <time>2020-09-07T20:01:50Z</time>
      </trkpt>
      <trkpt lat="43.33628" lon="2.54947">
        <ele>264</ele>
        <time>2020-09-07T20:01:51Z</time>
      </trkpt>
      <trkpt lat="43.33607" lon="2.54913">
        <ele>265</ele>
        <time>2020-09-07T20:01:57Z</time>
      </trkpt>
      <trkpt lat="43.33567" lon="2.54875">
        <ele>264</ele>
        <time>2020-09-07T20:02:05Z</time>
      </trkpt>
      <trkpt lat="43.33551" lon="2.54862">
        <ele>263</ele>
        <time>2020-09-07T20:02:09Z</time>
      </trkpt>
      <trkpt lat="43.33525" lon="2.54847">
        <ele>262</ele>
        <time>2020-09-07T20:02:14Z</time>
      </trkpt>
      <trkpt lat="43.33467" lon="2.54831">
        <ele>259</ele>
        <time>2020-09-07T20:02:24Z</time>
      </trkpt>
      <trkpt lat="43.33458" lon="2.54831">
        <ele>259</ele>
        <time>2020-09-07T20:02:26Z</time>
      </trkpt>
      <trkpt lat="43.33433" lon="2.54838">
        <ele>258</ele>
        <time>2020-09-07T20:02:30Z</time>
      </trkpt>
      <trkpt lat="43.33416" lon="2.54854">
        <ele>258</ele>
        <time>2020-09-07T20:02:34Z</time>
      </trkpt>
      <trkpt lat="43.33397" lon="2.5488">
        <ele>256</ele>
        <time>2020-09-07T20:02:39Z</time>
      </trkpt>
      <trkpt lat="43.33388" lon="2.5489">
        <ele>255</ele>
        <time>2020-09-07T20:02:41Z</time>
      </trkpt>
      <trkpt lat="43.33376" lon="2.54898">
        <ele>254</ele>
        <time>2020-09-07T20:02:43Z</time>
      </trkpt>
      <trkpt lat="43.33359" lon="2.54902">
        <ele>252</ele>
        <time>2020-09-07T20:02:46Z</time>
      </trkpt>
      <trkpt lat="43.33323" lon="2.54905">
        <ele>249</ele>
        <time>2020-09-07T20:02:53Z</time>
      </trkpt>
      <trkpt lat="43.33272" lon="2.54915">
        <ele>244</ele>
        <time>2020-09-07T20:03:02Z</time>
      </trkpt>
      <trkpt lat="43.3327" lon="2.54911">
        <ele>244</ele>
        <time>2020-09-07T20:03:02Z</time>
      </trkpt>
      <trkpt lat="43.33272" lon="2.54885">
        <ele>241</ele>
        <time>2020-09-07T20:03:06Z</time>
      </trkpt>
      <trkpt lat="43.33274" lon="2.54881">
        <ele>241</ele>
        <time>2020-09-07T20:03:07Z</time>
      </trkpt>
      <trkpt lat="43.33279" lon="2.54881">
        <ele>241</ele>
        <time>2020-09-07T20:03:07Z</time>
      </trkpt>
      <trkpt lat="43.33283" lon="2.54879">
        <ele>241</ele>
        <time>2020-09-07T20:03:08Z</time>
      </trkpt>
      <trkpt lat="43.33285" lon="2.54873">
        <ele>241</ele>
        <time>2020-09-07T20:03:09Z</time>
      </trkpt>
      <trkpt lat="43.33288" lon="2.54842">
        <ele>238</ele>
        <time>2020-09-07T20:03:13Z</time>
      </trkpt>
      <trkpt lat="43.33295" lon="2.54826">
        <ele>236</ele>
        <time>2020-09-07T20:03:15Z</time>
      </trkpt>
      <trkpt lat="43.33302" lon="2.54816">
        <ele>235</ele>
        <time>2020-09-07T20:03:17Z</time>
      </trkpt>
      <trkpt lat="43.33363" lon="2.54755">
        <ele>232</ele>
        <time>2020-09-07T20:03:31Z</time>
      </trkpt>
      <trkpt lat="43.33368" lon="2.54748">
        <ele>232</ele>
        <time>2020-09-07T20:03:32Z</time>
      </trkpt>
      <trkpt lat="43.33372" lon="2.54739">
        <ele>231</ele>
        <time>2020-09-07T20:03:33Z</time>
      </trkpt>
      <trkpt lat="43.33386" lon="2.54685">
        <ele>225</ele>
        <time>2020-09-07T20:03:41Z</time>
      </trkpt>
      <trkpt lat="43.33392" lon="2.54674">
        <ele>224</ele>
        <time>2020-09-07T20:03:43Z</time>
      </trkpt>
      <trkpt lat="43.33397" lon="2.54668">
        <ele>223</ele>
        <time>2020-09-07T20:03:44Z</time>
      </trkpt>
      <trkpt lat="43.33402" lon="2.54664">
        <ele>224</ele>
        <time>2020-09-07T20:03:45Z</time>
      </trkpt>
      <trkpt lat="43.33415" lon="2.54658">
        <ele>225</ele>
        <time>2020-09-07T20:03:47Z</time>
      </trkpt>
      <trkpt lat="43.33437" lon="2.54653">
        <ele>227</ele>
        <time>2020-09-07T20:03:51Z</time>
      </trkpt>
      <trkpt lat="43.33454" lon="2.54651">
        <ele>228</ele>
        <time>2020-09-07T20:03:54Z</time>
      </trkpt>
      <trkpt lat="43.33469" lon="2.54653">
        <ele>230</ele>
        <time>2020-09-07T20:03:57Z</time>
      </trkpt>
      <trkpt lat="43.33501" lon="2.54669">
        <ele>236</ele>
        <time>2020-09-07T20:04:03Z</time>
      </trkpt>
      <trkpt lat="43.33507" lon="2.54667">
        <ele>238</ele>
        <time>2020-09-07T20:04:04Z</time>
      </trkpt>
      <trkpt lat="43.33508" lon="2.54662">
        <ele>238</ele>
        <time>2020-09-07T20:04:05Z</time>
      </trkpt>
      <trkpt lat="43.33508" lon="2.54657">
        <ele>237</ele>
        <time>2020-09-07T20:04:05Z</time>
      </trkpt>
      <trkpt lat="43.33489" lon="2.54589">
        <ele>225</ele>
        <time>2020-09-07T20:04:15Z</time>
      </trkpt>
      <trkpt lat="43.33489" lon="2.54583">
        <ele>224</ele>
        <time>2020-09-07T20:04:16Z</time>
      </trkpt>
      <trkpt lat="43.33495" lon="2.54548">
        <ele>225</ele>
        <time>2020-09-07T20:04:20Z</time>
      </trkpt>
      <trkpt lat="43.33495" lon="2.54541">
        <ele>225</ele>
        <time>2020-09-07T20:04:21Z</time>
      </trkpt>
      <trkpt lat="43.33492" lon="2.54537">
        <ele>224</ele>
        <time>2020-09-07T20:04:22Z</time>
      </trkpt>
      <trkpt lat="43.33454" lon="2.5451">
        <ele>219</ele>
        <time>2020-09-07T20:04:29Z</time>
      </trkpt>
      <trkpt lat="43.33434" lon="2.54529">
        <ele>216</ele>
        <time>2020-09-07T20:04:34Z</time>
      </trkpt>
      <trkpt lat="43.33427" lon="2.5453">
        <ele>215</ele>
        <time>2020-09-07T20:04:35Z</time>
      </trkpt>
      <trkpt lat="43.3342" lon="2.54526">
        <ele>215</ele>
        <time>2020-09-07T20:04:36Z</time>
      </trkpt>
      <trkpt lat="43.33415" lon="2.5451">
        <ele>215</ele>
        <time>2020-09-07T20:04:39Z</time>
      </trkpt>
      <trkpt lat="43.33411" lon="2.54493">
        <ele>215</ele>
        <time>2020-09-07T20:04:41Z</time>
      </trkpt>
      <trkpt lat="43.33411" lon="2.5448">
        <ele>217</ele>
        <time>2020-09-07T20:04:43Z</time>
      </trkpt>
      <trkpt lat="43.33416" lon="2.54465">
        <ele>220</ele>
        <time>2020-09-07T20:04:45Z</time>
      </trkpt>
      <trkpt lat="43.33416" lon="2.54446">
        <ele>222</ele>
        <time>2020-09-07T20:04:47Z</time>
      </trkpt>
      <trkpt lat="43.33413" lon="2.54434">
        <ele>223</ele>
        <time>2020-09-07T20:04:49Z</time>
      </trkpt>
      <trkpt lat="43.33401" lon="2.5441">
        <ele>226</ele>
        <time>2020-09-07T20:04:53Z</time>
      </trkpt>
      <trkpt lat="43.33388" lon="2.54373">
        <ele>232</ele>
        <time>2020-09-07T20:04:58Z</time>
      </trkpt>
      <trkpt lat="43.33375" lon="2.54351">
        <ele>235</ele>
        <time>2020-09-07T20:05:02Z</time>
      </trkpt>
      <trkpt lat="43.33359" lon="2.54339">
        <ele>236</ele>
        <time>2020-09-07T20:05:05Z</time>
      </trkpt>
      <trkpt lat="43.3334" lon="2.54334">
        <ele>235</ele>
        <time>2020-09-07T20:05:08Z</time>
      </trkpt>
      <trkpt lat="43.33321" lon="2.54333">
        <ele>234</ele>
        <time>2020-09-07T20:05:12Z</time>
      </trkpt>
      <trkpt lat="43.33141" lon="2.54412">
        <ele>229</ele>
        <time>2020-09-07T20:05:45Z</time>
      </trkpt>
      <trkpt lat="43.33061" lon="2.54436">
        <ele>225</ele>
        <time>2020-09-07T20:06:00Z</time>
      </trkpt>
      <trkpt lat="43.3303" lon="2.54438">
        <ele>223</ele>
        <time>2020-09-07T20:06:05Z</time>
      </trkpt>
      <trkpt lat="43.32969" lon="2.54431">
        <ele>219</ele>
        <time>2020-09-07T20:06:16Z</time>
      </trkpt>
      <trkpt lat="43.32933" lon="2.54421">
        <ele>216</ele>
        <time>2020-09-07T20:06:23Z</time>
      </trkpt>
      <trkpt lat="43.32903" lon="2.54415">
        <ele>216</ele>
        <time>2020-09-07T20:06:28Z</time>
      </trkpt>
      <trkpt lat="43.32889" lon="2.54421">
        <ele>217</ele>
        <time>2020-09-07T20:06:31Z</time>
      </trkpt>
      <trkpt lat="43.32838" lon="2.5447">
        <ele>216</ele>
        <time>2020-09-07T20:06:42Z</time>
      </trkpt>
      <trkpt lat="43.32702" lon="2.54529">
        <ele>216</ele>
        <time>2020-09-07T20:07:07Z</time>
      </trkpt>
      <trkpt lat="43.32674" lon="2.54535">
        <ele>215</ele>
        <time>2020-09-07T20:07:12Z</time>
      </trkpt>
      <trkpt lat="43.32564" lon="2.54535">
        <ele>214</ele>
        <time>2020-09-07T20:07:32Z</time>
      </trkpt>
      <trkpt lat="43.32545" lon="2.54527">
        <ele>215</ele>
        <time>2020-09-07T20:07:35Z</time>
      </trkpt>
      <trkpt lat="43.3253" lon="2.54515">
        <ele>216</ele>
        <time>2020-09-07T20:07:39Z</time>
      </trkpt>
      <trkpt lat="43.32518" lon="2.54495">
        <ele>217</ele>
        <time>2020-09-07T20:07:42Z</time>
      </trkpt>
      <trkpt lat="43.32484" lon="2.54422">
        <ele>215</ele>
        <time>2020-09-07T20:07:53Z</time>
      </trkpt>
      <trkpt lat="43.32472" lon="2.5443">
        <ele>215</ele>
        <time>2020-09-07T20:07:55Z</time>
      </trkpt>
      <trkpt lat="43.32385" lon="2.54469">
        <ele>211</ele>
        <time>2020-09-07T20:08:12Z</time>
      </trkpt>
      <trkpt lat="43.32348" lon="2.54483">
        <ele>210</ele>
        <time>2020-09-07T20:08:19Z</time>
      </trkpt>
      <trkpt lat="43.32342" lon="2.54482">
        <ele>209</ele>
        <time>2020-09-07T20:08:20Z</time>
      </trkpt>
      <trkpt lat="43.323" lon="2.54448">
        <ele>206</ele>
        <time>2020-09-07T20:08:28Z</time>
      </trkpt>
      <trkpt lat="43.32286" lon="2.54439">
        <ele>205</ele>
        <time>2020-09-07T20:08:31Z</time>
      </trkpt>
      <trkpt lat="43.32262" lon="2.54433">
        <ele>204</ele>
        <time>2020-09-07T20:08:35Z</time>
      </trkpt>
      <trkpt lat="43.32188" lon="2.54423">
        <ele>199</ele>
        <time>2020-09-07T20:08:49Z</time>
      </trkpt>
      <trkpt lat="43.32164" lon="2.54422">
        <ele>198</ele>
        <time>2020-09-07T20:08:53Z</time>
      </trkpt>
      <trkpt lat="43.32149" lon="2.54424">
        <ele>197</ele>
        <time>2020-09-07T20:08:56Z</time>
      </trkpt>
      <trkpt lat="43.32105" lon="2.54434">
        <ele>195</ele>
        <time>2020-09-07T20:09:04Z</time>
      </trkpt>
      <trkpt lat="43.3204" lon="2.54443">
        <ele>193</ele>
        <time>2020-09-07T20:09:15Z</time>
      </trkpt>
      <trkpt lat="43.31926" lon="2.54441">
        <ele>189</ele>
        <time>2020-09-07T20:09:35Z</time>
      </trkpt>
      <trkpt lat="43.31844" lon="2.54453">
        <ele>184</ele>
        <time>2020-09-07T20:09:50Z</time>
      </trkpt>
      <trkpt lat="43.31832" lon="2.54451">
        <ele>183</ele>
        <time>2020-09-07T20:09:52Z</time>
      </trkpt>
      <trkpt lat="43.3182" lon="2.54445">
        <ele>182</ele>
        <time>2020-09-07T20:09:55Z</time>
      </trkpt>
      <trkpt lat="43.3181" lon="2.54436">
        <ele>180</ele>
        <time>2020-09-07T20:09:57Z</time>
      </trkpt>
      <trkpt lat="43.31792" lon="2.54418">
        <ele>179</ele>
        <time>2020-09-07T20:10:01Z</time>
      </trkpt>
      <trkpt lat="43.31785" lon="2.54401">
        <ele>178</ele>
        <time>2020-09-07T20:10:03Z</time>
      </trkpt>
      <trkpt lat="43.3178" lon="2.54417">
        <ele>177</ele>
        <time>2020-09-07T20:10:05Z</time>
      </trkpt>
      <trkpt lat="43.31781" lon="2.54365">
        <ele>177</ele>
        <time>2020-09-07T20:10:12Z</time>
      </trkpt>
      <trkpt lat="43.31779" lon="2.54327">
        <ele>176</ele>
        <time>2020-09-07T20:10:17Z</time>
      </trkpt>
      <trkpt lat="43.31782" lon="2.54199">
        <ele>177</ele>
        <time>2020-09-07T20:10:34Z</time>
      </trkpt>
      <trkpt lat="43.31806" lon="2.53742">
        <ele>179</ele>
        <time>2020-09-07T20:11:33Z</time>
      </trkpt>
      <trkpt lat="43.31806" lon="2.53595">
        <ele>176</ele>
        <time>2020-09-07T20:11:52Z</time>
      </trkpt>
      <trkpt lat="43.31802" lon="2.53565">
        <ele>175</ele>
        <time>2020-09-07T20:11:56Z</time>
      </trkpt>
      <trkpt lat="43.31792" lon="2.53543">
        <ele>174</ele>
        <time>2020-09-07T20:11:59Z</time>
      </trkpt>
      <trkpt lat="43.31776" lon="2.5352">
        <ele>173</ele>
        <time>2020-09-07T20:12:03Z</time>
      </trkpt>
      <trkpt lat="43.31714" lon="2.53443">
        <ele>168</ele>
        <time>2020-09-07T20:12:18Z</time>
      </trkpt>
      <trkpt lat="43.31687" lon="2.53414">
        <ele>167</ele>
        <time>2020-09-07T20:12:24Z</time>
      </trkpt>
      <trkpt lat="43.31676" lon="2.53398">
        <ele>166</ele>
        <time>2020-09-07T20:12:27Z</time>
      </trkpt>
      <trkpt lat="43.3167" lon="2.53383">
        <ele>166</ele>
        <time>2020-09-07T20:12:29Z</time>
      </trkpt>
      <trkpt lat="43.31654" lon="2.53328">
        <ele>164</ele>
        <time>2020-09-07T20:12:37Z</time>
      </trkpt>
      <trkpt lat="43.31653" lon="2.53305">
        <ele>165</ele>
        <time>2020-09-07T20:12:40Z</time>
      </trkpt>
      <trkpt lat="43.31658" lon="2.53278">
        <ele>165</ele>
        <time>2020-09-07T20:12:44Z</time>
      </trkpt>
      <trkpt lat="43.31668" lon="2.53254">
        <ele>166</ele>
        <time>2020-09-07T20:12:47Z</time>
      </trkpt>
      <trkpt lat="43.31685" lon="2.53234">
        <ele>167</ele>
        <time>2020-09-07T20:12:51Z</time>
      </trkpt>
      <trkpt lat="43.3179" lon="2.5315">
        <ele>172</ele>
        <time>2020-09-07T20:13:13Z</time>
      </trkpt>
      <trkpt lat="43.31799" lon="2.53137">
        <ele>172</ele>
        <time>2020-09-07T20:13:15Z</time>
      </trkpt>
      <trkpt lat="43.3181" lon="2.53135">
        <ele>173</ele>
        <time>2020-09-07T20:13:17Z</time>
      </trkpt>
      <trkpt lat="43.31824" lon="2.53129">
        <ele>173</ele>
        <time>2020-09-07T20:13:20Z</time>
      </trkpt>
      <trkpt lat="43.3186" lon="2.53103">
        <ele>174</ele>
        <time>2020-09-07T20:13:27Z</time>
      </trkpt>
      <trkpt lat="43.31871" lon="2.531">
        <ele>175</ele>
        <time>2020-09-07T20:13:29Z</time>
      </trkpt>
      <trkpt lat="43.31898" lon="2.53074">
        <ele>176</ele>
        <time>2020-09-07T20:13:35Z</time>
      </trkpt>
      <trkpt lat="43.31922" lon="2.53041">
        <ele>177</ele>
        <time>2020-09-07T20:13:41Z</time>
      </trkpt>
      <trkpt lat="43.31929" lon="2.53024">
        <ele>178</ele>
        <time>2020-09-07T20:13:43Z</time>
      </trkpt>
      <trkpt lat="43.31944" lon="2.52969">
        <ele>180</ele>
        <time>2020-09-07T20:13:51Z</time>
      </trkpt>
      <trkpt lat="43.3195" lon="2.52949">
        <ele>181</ele>
        <time>2020-09-07T20:13:54Z</time>
      </trkpt>
      <trkpt lat="43.31963" lon="2.52923">
        <ele>182</ele>
        <time>2020-09-07T20:13:58Z</time>
      </trkpt>
      <trkpt lat="43.31974" lon="2.52908">
        <ele>183</ele>
        <time>2020-09-07T20:14:01Z</time>
      </trkpt>
      <trkpt lat="43.31992" lon="2.52893">
        <ele>183</ele>
        <time>2020-09-07T20:14:04Z</time>
      </trkpt>
      <trkpt lat="43.32111" lon="2.52802">
        <ele>184</ele>
        <time>2020-09-07T20:14:29Z</time>
      </trkpt>
      <trkpt lat="43.32185" lon="2.52742">
        <ele>186</ele>
        <time>2020-09-07T20:14:44Z</time>
      </trkpt>
      <trkpt lat="43.32368" lon="2.52605">
        <ele>186</ele>
        <time>2020-09-07T20:15:21Z</time>
      </trkpt>
      <trkpt lat="43.32395" lon="2.52548">
        <ele>187</ele>
        <time>2020-09-07T20:15:30Z</time>
      </trkpt>
      <trkpt lat="43.32402" lon="2.5254">
        <ele>187</ele>
        <time>2020-09-07T20:15:31Z</time>
      </trkpt>
      <trkpt lat="43.32415" lon="2.52525">
        <ele>187</ele>
        <time>2020-09-07T20:15:34Z</time>
      </trkpt>
      <trkpt lat="43.3244" lon="2.52505">
        <ele>186</ele>
        <time>2020-09-07T20:15:40Z</time>
      </trkpt>
      <trkpt lat="43.32485" lon="2.52461">
        <ele>188</ele>
        <time>2020-09-07T20:15:49Z</time>
      </trkpt>
      <trkpt lat="43.32514" lon="2.524">
        <ele>191</ele>
        <time>2020-09-07T20:15:59Z</time>
      </trkpt>
      <trkpt lat="43.32534" lon="2.52388">
        <ele>191</ele>
        <time>2020-09-07T20:16:03Z</time>
      </trkpt>
      <trkpt lat="43.3257" lon="2.52358">
        <ele>193</ele>
        <time>2020-09-07T20:16:10Z</time>
      </trkpt>
      <trkpt lat="43.3257" lon="2.5237">
        <ele>192</ele>
        <time>2020-09-07T20:16:12Z</time>
      </trkpt>
      <trkpt lat="43.32571" lon="2.52379">
        <ele>192</ele>
        <time>2020-09-07T20:16:13Z</time>
      </trkpt>
      <trkpt lat="43.32627" lon="2.52535">
        <ele>186</ele>
        <time>2020-09-07T20:16:36Z</time>
      </trkpt>
      <trkpt lat="43.32633" lon="2.52532">
        <ele>186</ele>
        <time>2020-09-07T20:16:37Z</time>
      </trkpt>
      <trkpt lat="43.3266" lon="2.52531">
        <ele>187</ele>
        <time>2020-09-07T20:16:41Z</time>
      </trkpt>
      <trkpt lat="43.32661" lon="2.52536">
        <ele>187</ele>
        <time>2020-09-07T20:16:42Z</time>
      </trkpt>
    </trkseg>
  </trk>
</gpx>